GFSCGP_sfc_wetblb_000.txt.gz
Wetbulb
45.85 40.50 38.53 41.41 43.49 43.86 42.57 40.57 39.26 42.71 44.43 41.39 40.33 41.15 43.06 44.48 44.87 44.58 45.50 46.22 45.63 45.07 46.13 47.00 46.44 44.53 43.28 41.65 40.26 39.92 38.86 38.61 39.40 37.37 35.39 34.29 34.76 34.25 33.62 34.79 35.38 35.12 35.04 34.96
41.63 38.45 43.88 44.64 43.87 41.53 40.16 38.36 38.65 42.11 43.64 40.16 39.28 39.49 42.68 43.14 44.26 45.57 45.45 45.67 45.20 43.42 44.16 43.66 43.14 42.81 42.69 40.93 39.89 39.46 39.10 38.76 38.99 38.02 36.32 34.92 34.93 34.13 34.01 34.89 34.58 35.00 34.29 33.83
39.90 42.21 45.19 43.37 41.09 40.51 39.56 37.24 37.97 38.33 40.84 38.81 36.07 35.04 38.16 41.67 44.30 44.66 45.02 45.86 43.78 43.55 43.70 41.67 41.57 41.71 41.03 39.88 39.63 39.38 39.20 38.87 38.72 37.28 36.42 33.82 33.46 32.88 31.64 32.29 32.29 33.36 33.70 33.00
41.09 44.71 43.40 41.35 40.12 40.83 36.51 41.22 40.16 39.58 35.56 30.87 36.67 30.99 36.52 38.78 40.86 41.53 43.23 44.38 41.60 42.65 43.75 42.39 40.99 39.94 40.02 39.73 39.45 39.41 39.20 38.64 38.37 36.95 35.42 33.15 31.48 29.62 30.89 32.56 32.56 32.52 32.94 32.22
38.93 38.92 38.46 38.50 40.05 41.87 37.95 38.31 36.76 36.37 34.13 32.32 33.05 30.35 34.23 39.55 37.99 39.94 42.19 44.55 43.14 43.97 43.06 41.21 40.51 41.00 40.54 39.25 38.92 38.82 38.24 38.14 37.94 36.73 35.24 32.85 30.39 31.22 32.32 32.34 30.53 29.85 30.56 31.23
39.41 40.53 39.46 39.99 38.58 38.93 38.84 36.33 35.52 33.50 31.88 26.16 32.80 33.03 31.07 35.65 38.67 39.64 41.63 43.01 43.04 41.80 40.86 40.84 40.27 40.08 39.76 38.56 37.80 38.40 37.76 37.51 37.11 35.80 34.05 33.09 32.04 31.35 30.44 28.47 28.56 28.64 28.99 28.88
37.16 37.86 38.27 39.77 36.71 36.70 36.16 33.57 25.41 24.35 23.16 27.34 35.04 31.10 36.83 39.02 40.13 41.19 41.32 41.99 41.94 41.92 39.86 39.27 38.51 38.16 37.86 37.20 37.34 37.38 37.04 36.31 35.92 34.49 33.47 32.93 32.61 31.74 30.55 29.80 29.02 27.85 26.88 26.56
32.77 32.36 37.16 38.67 38.70 37.08 33.74 35.23 27.40 20.19 24.95 29.96 28.36 27.74 35.07 41.72 43.26 42.53 42.73 42.10 42.26 41.00 40.53 39.29 38.81 38.27 37.93 37.49 36.74 36.66 36.15 35.68 35.03 33.78 32.78 32.88 32.21 32.82 31.51 30.51 29.67 27.32 26.30 26.35
33.28 34.28 36.10 37.88 38.29 39.77 34.82 30.89 36.78 28.77 23.23 24.21 32.28 35.27 39.42 41.26 41.37 40.93 40.36 39.94 39.74 40.04 40.34 40.04 39.39 38.30 37.00 36.92 36.46 36.29 36.04 35.63 34.95 33.72 32.82 32.32 32.31 30.22 29.62 27.87 26.89 25.87 25.36 26.67
37.22 33.28 37.44 34.44 34.83 35.11 34.21 36.23 28.75 29.48 18.68 17.10 29.76 30.67 34.70 38.99 41.13 39.55 38.16 38.53 39.37 39.91 39.95 39.67 39.45 38.52 38.17 37.57 36.96 36.40 36.09 35.10 34.65 33.17 32.50 31.90 30.76 28.56 27.64 26.31 25.12 24.53 24.16 23.91
37.20 36.18 33.59 33.18 30.78 32.93 29.80 30.19 32.02 33.07 30.73 23.07 24.47 31.25 36.49 37.81 38.83 39.18 39.00 39.42 40.18 40.60 39.56 39.28 39.15 38.81 37.81 36.79 36.19 35.35 34.89 34.04 33.16 31.50 30.96 29.72 28.48 27.28 26.17 25.62 24.49 23.66 23.41 22.77
39.58 36.31 30.19 34.08 37.57 35.00 35.90 34.67 35.37 29.91 28.04 27.15 30.55 31.75 40.69 38.71 39.13 39.26 39.44 41.21 41.26 41.65 41.64 40.63 39.56 38.02 37.16 36.66 35.19 34.53 34.18 33.48 32.74 30.92 29.66 28.39 26.81 25.96 24.95 23.85 23.30 23.02 21.77 21.73
38.28 32.19 27.24 28.87 35.01 32.96 31.31 34.07 35.99 35.80 33.60 30.31 26.84 30.58 41.37 42.48 41.62 39.73 38.70 39.25 40.71 41.41 41.07 41.13 39.04 37.29 37.09 36.21 35.00 34.17 33.52 33.21 31.86 29.95 28.93 26.98 25.72 24.69 23.70 22.91 22.57 21.83 20.86 19.91
40.97 34.11 31.16 27.45 31.45 35.53 31.38 32.12 32.73 33.86 29.55 29.98 30.49 32.74 37.91 40.20 40.93 42.18 42.66 42.67 39.98 40.20 41.16 40.00 39.15 37.52 37.07 36.03 35.06 34.07 33.11 32.54 31.20 29.21 27.64 25.73 24.29 23.65 22.59 22.12 21.16 20.20 19.34 18.37
39.11 31.02 31.73 33.67 35.21 34.32 32.95 33.36 34.18 32.58 32.71 28.74 32.55 33.42 37.38 39.88 40.69 41.76 42.97 41.54 41.53 40.81 41.50 40.18 38.85 38.32 37.72 34.58 34.09 33.45 33.29 31.66 30.93 28.30 26.23 24.37 23.35 22.39 21.63 20.06 18.46 17.73 17.36 17.20
38.80 32.28 32.00 29.94 32.55 32.44 30.30 33.16 33.84 33.36 33.99 34.45 34.69 33.41 39.96 41.10 41.86 41.46 41.60 42.17 41.66 41.79 42.94 42.45 38.52 35.92 34.75 33.83 34.14 32.55 32.14 30.60 29.55 26.55 24.27 23.47 21.07 20.06 18.69 17.10 16.64 15.78 15.32 14.99
33.70 32.14 30.31 27.24 31.85 30.84 27.27 31.52 33.17 34.27 36.30 35.41 31.23 36.73 41.22 40.36 40.81 41.61 42.52 43.09 43.06 42.38 42.48 38.97 37.95 36.54 34.42 33.82 32.73 31.14 31.35 29.75 27.10 24.34 22.42 20.48 19.52 17.93 16.55 15.84 15.06 14.69 14.40 14.57
35.52 33.34 32.47 28.77 31.11 21.36 31.61 37.88 36.86 34.92 36.75 38.21 37.95 39.40 41.20 41.63 43.06 43.70 43.48 41.69 42.06 42.82 42.84 41.13 35.87 36.81 35.85 33.80 30.19 29.14 28.96 27.17 24.86 22.81 21.11 18.95 17.78 16.35 14.76 14.41 14.12 14.09 14.15 13.52
39.55 35.81 30.91 27.29 26.99 30.76 32.21 35.99 34.45 33.15 33.15 38.85 37.96 39.73 40.88 41.97 41.63 41.61 44.71 44.69 44.22 43.72 43.91 42.84 38.04 37.12 36.39 31.78 29.38 28.16 25.88 23.67 21.83 20.18 18.50 17.42 17.14 15.07 14.00 13.13 12.77 13.40 13.24 12.79
37.52 37.75 32.71 30.68 26.01 23.34 32.44 37.87 40.38 39.61 29.07 39.23 40.20 39.64 39.66 40.08 33.99 38.11 43.76 43.64 39.55 39.81 39.32 37.88 36.11 35.24 31.84 28.08 27.60 25.62 22.67 20.80 19.82 19.22 18.06 17.03 16.40 14.09 12.85 13.05 12.35 13.12 12.98 12.01
30.24 31.26 28.88 29.64 27.80 30.45 36.12 38.48 37.66 26.75 30.89 40.57 41.17 40.89 40.24 37.41 39.32 42.03 40.60 37.96 37.23 37.45 37.26 34.61 32.74 32.10 29.69 26.74 25.49 23.27 20.75 19.32 20.50 18.92 16.62 14.86 14.32 12.75 13.13 11.18 11.50 10.98 10.58 11.24
28.80 27.07 27.07 28.78 25.84 23.24 36.29 35.70 31.87 34.83 38.50 37.37 36.74 37.85 37.67 39.19 40.30 39.37 38.29 36.21 35.22 34.89 30.94 29.99 29.47 28.27 26.33 25.10 24.44 21.65 19.23 20.32 18.69 16.32 13.49 12.69 12.05 11.39 11.03 10.17 8.76 7.61 8.98 8.29
22.49 24.15 20.21 23.55 25.27 33.47 35.54 31.45 32.52 37.74 33.36 33.95 34.93 35.72 36.02 35.88 37.12 37.57 37.53 36.87 35.79 34.04 31.81 27.84 25.35 23.24 23.01 22.22 23.23 20.58 19.99 18.03 15.35 12.78 11.10 8.44 8.44 7.54 7.67 7.20 5.90 6.63 7.45 8.94
22.20 27.27 22.97 22.07 29.75 27.40 28.44 32.03 34.20 33.71 30.75 31.43 31.81 32.18 34.32 34.01 35.51 34.79 35.50 35.89 34.90 29.19 30.30 21.74 20.54 19.33 18.24 18.20 20.58 19.94 18.27 16.06 12.27 9.97 8.22 6.71 5.93 4.74 5.50 7.93 8.01 8.39 7.68 9.43
20.47 21.93 18.71 19.01 24.14 26.65 28.78 30.94 30.84 30.36 29.71 28.62 30.43 31.44 31.96 32.51 32.72 34.33 35.78 36.24 36.33 33.45 25.20 21.96 22.83 23.37 23.84 19.69 19.84 18.48 15.44 13.15 10.81 8.91 7.02 6.34 5.86 5.66 6.04 8.40 9.09 10.46 11.46 11.57
22.56 20.56 17.85 16.51 25.17 24.70 25.27 27.23 28.83 22.96 22.33 24.11 26.77 26.53 27.70 29.38 29.95 31.88 32.26 32.63 32.58 33.32 31.61 23.53 23.36 23.21 22.69 19.52 18.87 15.29 13.34 12.24 10.31 9.41 6.86 5.67 5.12 6.18 7.30 7.73 9.66 15.11 14.17 16.54

GFSCGP_sfc_wetblb_003.txt.gz
Wetbulb
42.74 37.13 35.39 39.66 39.35 38.92 36.66 35.04 34.20 39.79 42.24 40.17 40.36 39.98 42.46 43.84 41.37 40.76 41.74 43.67 45.11 44.26 45.87 44.03 44.70 44.91 43.26 40.89 39.58 38.78 38.45 38.80 39.14 37.91 35.73 34.66 34.15 32.30 31.78 32.38 33.48 33.31 33.20 33.53
38.67 35.93 41.32 41.22 40.97 39.11 37.67 35.82 35.26 39.45 40.35 38.86 38.39 39.02 41.49 40.50 42.49 43.96 43.91 44.16 45.23 43.00 42.61 42.75 41.65 41.05 41.18 39.08 39.16 38.57 38.73 38.52 38.93 38.68 37.79 34.00 33.99 31.41 32.03 32.58 32.50 33.03 32.94 32.93
38.45 39.86 43.41 41.75 39.60 37.86 38.21 35.92 36.92 36.14 38.73 37.48 35.27 33.76 36.90 40.00 40.94 43.41 44.57 44.95 45.25 42.60 41.45 40.15 38.95 40.13 39.69 38.23 37.49 38.16 38.37 38.48 38.55 37.74 35.62 32.47 32.41 31.23 30.34 31.12 31.38 31.97 32.48 32.42
38.11 42.58 40.94 38.03 37.56 39.29 36.19 39.16 38.92 36.41 33.27 31.68 33.97 30.08 34.68 37.18 38.48 39.97 42.36 43.92 41.53 39.55 40.88 39.86 39.37 37.33 38.49 38.46 38.33 38.71 38.01 37.96 37.74 36.26 35.84 33.15 34.21 32.00 33.10 33.44 32.37 31.50 32.03 31.36
37.20 36.35 36.46 37.09 39.32 39.44 37.97 37.88 35.96 33.69 31.69 29.82 31.35 28.64 31.68 36.60 35.87 39.41 42.33 43.91 43.23 39.85 40.86 39.82 40.12 41.50 39.34 37.99 37.85 37.80 37.35 37.30 37.12 36.46 36.30 33.90 33.22 33.65 30.39 30.77 30.46 30.47 29.80 30.53
36.34 37.48 38.09 38.18 37.09 38.48 37.71 34.25 33.40 31.30 29.37 26.18 30.22 30.90 31.67 32.98 36.96 38.10 41.76 43.19 43.89 40.36 39.96 40.66 39.91 38.57 37.51 36.73 36.97 36.71 36.15 36.37 36.81 36.01 35.36 34.09 32.51 29.89 29.81 30.45 30.10 29.76 29.48 28.88
33.59 35.37 36.31 38.77 34.95 35.05 34.52 31.67 23.82 22.19 20.40 25.62 32.52 28.05 35.50 37.09 38.79 40.16 41.73 42.51 43.17 40.11 38.81 37.23 36.77 37.60 36.68 34.87 35.96 36.19 35.85 35.40 35.71 35.57 34.12 34.01 32.85 31.91 30.65 30.58 30.59 28.78 28.21 26.14
29.90 31.21 34.86 37.50 37.97 34.48 32.15 33.57 25.30 18.28 22.50 29.37 25.93 25.81 34.07 39.73 41.85 41.14 42.22 43.26 39.93 38.92 38.50 38.01 37.32 37.16 36.26 36.30 35.04 36.12 34.89 35.04 34.60 34.78 33.56 33.46 31.93 32.58 31.65 31.16 30.65 30.13 29.45 27.90
30.17 32.15 34.74 35.79 35.88 38.12 32.45 30.16 36.23 27.22 16.33 21.12 31.55 33.38 37.75 39.50 39.81 39.78 40.38 36.32 38.85 38.70 37.39 37.59 35.85 36.40 35.65 35.45 35.52 35.97 35.22 35.61 34.30 34.19 33.54 32.44 31.89 32.27 31.06 30.11 29.64 29.20 28.22 27.47
37.02 31.76 36.20 33.55 34.33 34.50 34.18 34.72 27.64 27.36 19.43 17.28 29.24 26.68 33.51 37.46 40.52 41.40 38.51 37.27 37.74 37.78 37.86 37.38 36.43 35.94 35.77 36.28 36.13 35.68 36.00 35.41 34.43 33.68 33.22 32.37 31.88 32.49 31.28 28.86 28.15 26.83 26.50 26.08
36.67 35.25 33.87 31.87 31.04 32.10 31.49 30.71 31.73 31.72 28.51 26.57 24.68 30.58 36.73 34.64 38.20 39.83 38.13 37.16 37.26 38.30 37.84 38.08 37.93 37.59 37.09 35.82 35.17 34.87 34.27 33.61 33.10 32.14 32.31 31.68 30.72 30.52 29.20 28.96 27.85 26.39 25.65 24.52
37.31 34.45 28.79 30.66 34.63 34.41 34.93 33.13 33.67 29.46 26.49 26.42 29.07 31.22 40.75 36.51 36.87 37.37 37.85 38.87 37.32 38.90 39.49 37.76 38.26 37.10 34.74 35.38 34.39 34.11 33.91 33.60 33.58 32.18 30.68 30.72 28.99 28.18 27.99 27.60 25.39 24.66 24.37 23.41
38.67 32.31 27.27 28.48 32.71 31.93 32.38 33.01 34.12 34.34 30.14 27.80 24.95 29.03 42.12 42.10 40.55 37.48 36.61 37.71 38.41 39.29 39.72 38.72 37.02 36.49 37.37 36.45 34.94 34.69 34.16 33.70 32.51 30.08 29.14 28.81 27.66 26.79 26.57 24.65 23.36 23.86 22.87 21.82
42.27 34.39 31.03 28.16 31.86 33.89 29.17 30.17 31.82 33.60 28.30 30.28 29.89 32.05 37.30 39.48 40.16 41.73 42.22 43.21 43.60 40.65 41.79 40.89 39.30 37.11 35.88 35.82 35.53 34.37 33.38 32.96 31.04 29.52 28.80 27.82 27.22 26.38 25.34 23.23 23.05 22.53 21.80 20.29
39.32 32.57 33.40 34.02 35.20 34.69 33.43 32.74 33.97 31.66 33.17 29.20 32.39 32.88 36.11 38.85 40.10 41.32 42.78 42.87 40.75 38.04 39.09 39.95 39.76 38.78 36.92 36.13 34.80 34.07 33.75 31.43 30.35 29.60 28.28 27.86 27.00 25.79 23.21 22.28 21.67 19.77 19.57 19.18
39.31 32.84 35.13 32.46 34.56 33.64 31.70 34.56 34.78 34.48 34.24 33.88 34.22 33.67 40.68 42.41 43.20 42.19 42.74 43.15 42.09 41.81 42.11 41.26 38.80 37.96 36.39 35.43 35.96 33.54 32.91 30.40 29.94 29.17 27.86 27.00 24.08 21.90 21.39 20.71 19.17 18.60 17.87 16.84
36.06 33.55 32.23 29.11 33.81 32.97 28.95 32.90 34.20 34.56 35.92 34.85 30.25 35.67 40.48 39.88 40.77 41.94 42.76 43.33 42.94 42.78 42.68 40.95 39.55 37.87 36.33 35.11 34.30 31.75 31.73 29.26 28.72 28.06 26.37 23.66 21.91 20.59 20.28 19.90 18.62 17.76 16.46 16.31
34.20 31.99 31.98 29.34 30.93 22.39 31.36 36.74 36.43 34.89 36.09 37.46 37.42 38.90 40.71 41.31 42.90 43.75 44.78 43.73 43.44 44.28 44.14 39.10 37.17 37.28 36.26 35.35 32.27 32.50 28.04 28.72 28.55 27.07 24.87 22.10 21.26 20.30 19.08 17.86 17.36 16.42 15.52 14.44
38.58 34.99 30.48 27.40 26.95 29.98 32.79 33.07 33.42 32.37 32.29 37.94 37.12 38.95 40.30 41.28 41.53 41.08 43.95 42.43 42.80 43.21 44.14 44.32 39.62 38.70 36.91 36.05 34.09 29.50 27.74 27.83 26.80 25.11 23.46 21.03 20.78 19.14 16.97 16.30 15.80 15.44 14.47 13.87
36.03 36.88 31.46 28.95 24.00 20.57 31.58 35.32 38.75 38.28 28.89 31.26 32.00 32.36 32.86 34.75 32.01 35.00 39.81 38.92 38.66 38.48 38.24 36.50 37.34 35.42 35.21 33.67 28.59 27.96 26.48 25.58 24.77 24.36 23.01 20.66 19.97 18.09 16.03 16.24 14.82 14.43 13.95 13.39
26.11 29.30 27.51 28.27 25.74 27.15 31.58 33.38 36.89 27.59 22.39 30.78 30.99 30.89 30.02 30.50 33.20 36.44 37.59 36.17 36.35 36.06 34.55 33.66 32.12 31.39 31.13 27.36 25.42 25.35 23.89 23.97 24.42 22.37 20.27 18.29 18.20 17.11 16.78 15.37 14.52 12.41 12.28 13.49
20.33 19.32 18.38 22.89 22.08 20.11 31.83 31.31 21.07 24.74 30.87 30.48 28.95 29.17 28.69 30.43 32.11 33.36 34.44 34.08 34.91 35.52 36.05 34.21 30.97 29.95 27.96 24.99 24.41 23.29 23.19 21.79 20.17 19.23 17.02 16.54 16.77 15.73 14.17 12.50 11.32 11.57 11.48 10.92
15.96 21.02 17.17 19.38 18.92 24.51 29.31 27.18 29.43 32.49 28.60 27.42 27.84 29.03 29.84 30.16 31.06 32.08 32.61 33.63 34.76 35.76 35.46 36.56 32.24 27.31 25.90 22.29 24.16 24.47 21.51 19.09 17.29 16.12 15.75 15.22 12.70 12.25 10.89 10.31 9.15 9.07 9.59 9.54
18.24 22.72 18.49 17.72 22.09 23.55 25.51 28.29 30.08 28.62 26.67 27.20 26.50 25.80 27.86 28.30 28.24 27.37 28.68 30.27 31.04 31.90 32.91 34.76 34.67 33.54 32.32 24.69 24.77 25.75 20.96 19.30 16.39 13.39 12.86 11.23 10.19 9.27 9.68 10.39 9.64 9.54 8.70 10.22
18.54 21.30 15.54 16.85 21.11 22.99 25.12 26.70 25.33 25.21 23.26 22.21 22.11 23.68 22.48 21.19 21.45 22.86 23.66 25.02 27.99 30.04 31.63 32.81 32.12 30.99 31.85 30.80 25.70 25.37 19.91 18.93 16.84 15.29 11.99 10.91 10.34 9.11 8.18 9.70 10.04 10.60 12.48 13.92
22.03 19.76 16.57 14.71 23.12 20.28 21.76 22.29 23.65 18.18 17.71 17.94 18.27 16.88 18.82 18.69 17.77 19.66 20.35 21.20 21.99 22.85 25.84 28.33 30.69 29.28 30.31 31.44 27.09 25.55 21.57 18.96 16.37 13.11 10.97 10.36 8.79 8.78 8.30 8.20 9.75 16.67 15.89 18.81

GFSCGP_sfc_wetblb_009.txt.gz
Wetbulb
38.96 35.12 33.23 38.08 37.03 38.78 32.63 31.60 30.96 34.90 39.06 34.59 36.33 37.70 39.95 42.93 42.90 43.32 40.01 42.60 44.21 44.51 47.31 47.68 42.97 41.91 41.28 39.92 40.72 40.90 40.01 40.25 40.57 38.31 36.88 37.16 37.33 36.36 35.27 34.69 34.76 34.28 33.79 33.37
35.20 32.87 39.24 38.80 37.18 35.69 34.48 33.83 33.80 37.89 39.68 34.33 36.07 36.23 38.96 39.89 41.26 43.32 44.06 44.03 44.37 44.89 45.50 46.02 40.82 40.01 39.45 40.84 40.54 40.35 39.96 39.27 40.28 40.07 40.40 37.53 38.75 33.45 35.34 34.20 33.29 33.40 32.81 32.26
36.61 37.32 40.18 37.83 35.83 34.48 33.95 32.47 34.87 34.44 35.22 34.26 33.12 34.44 36.74 37.74 38.90 42.15 43.37 44.23 44.49 44.14 44.50 45.65 40.15 39.01 38.04 37.97 38.89 39.46 39.71 38.71 40.24 39.96 36.64 31.64 31.16 29.99 29.70 30.45 32.26 32.45 32.47 31.91
35.36 39.22 38.41 35.37 34.07 36.23 33.86 36.63 36.19 34.11 30.12 29.31 31.98 28.55 31.87 37.49 39.02 39.90 40.98 42.44 42.16 43.05 44.10 43.69 40.56 37.78 37.73 39.21 37.88 38.72 38.94 38.09 39.64 38.69 36.97 34.72 35.94 34.59 34.56 35.65 33.99 31.89 31.69 31.06
33.93 34.18 33.55 33.69 36.52 36.57 35.36 35.80 34.05 30.72 28.09 27.42 27.75 25.16 29.94 34.62 35.27 37.19 39.30 40.68 42.25 42.77 42.59 43.20 38.82 39.35 38.43 36.13 35.70 36.71 37.22 37.68 38.42 37.83 37.92 36.17 36.53 36.63 31.05 29.95 30.00 30.71 29.67 30.39
35.06 35.17 36.52 36.39 35.73 36.39 35.61 32.73 31.24 28.27 27.59 23.63 29.46 28.81 30.27 31.42 35.17 35.38 38.09 40.45 40.99 41.15 43.02 39.56 38.87 37.63 35.54 33.18 33.86 35.02 35.66 36.43 36.53 37.12 36.77 35.98 36.58 32.46 31.39 30.12 30.64 30.29 29.94 29.30
30.10 32.49 33.47 36.62 32.75 32.79 33.22 30.02 22.86 20.62 18.98 23.02 29.19 26.09 35.68 37.37 39.94 37.98 40.48 39.11 40.19 40.07 39.52 42.00 38.21 36.97 33.91 32.27 32.87 34.18 35.09 35.05 34.53 35.40 35.59 35.28 35.77 33.50 32.86 31.11 31.95 29.86 29.08 28.78
27.39 30.61 33.08 35.34 35.14 32.46 30.92 31.30 24.16 16.58 20.58 28.19 24.98 24.63 35.55 38.20 38.94 36.93 38.35 38.65 38.28 38.47 39.80 37.47 38.72 36.35 33.70 33.06 32.75 34.28 34.01 34.65 33.96 34.98 34.99 35.03 34.85 34.02 33.11 31.76 32.10 31.22 30.94 30.67
27.58 28.87 32.22 34.05 34.59 36.76 30.06 27.83 33.48 26.85 18.58 19.84 29.82 31.87 37.71 36.06 37.13 35.42 36.99 36.02 37.99 40.22 39.57 37.29 36.99 34.87 34.00 32.17 31.83 33.29 33.72 34.44 34.12 34.43 34.57 34.13 33.71 32.20 32.55 30.39 30.93 31.20 30.54 30.05
34.58 29.02 33.97 31.67 32.86 32.88 33.28 34.09 26.34 25.07 19.17 19.32 25.44 29.14 31.64 35.31 39.08 39.00 37.31 38.16 39.11 39.23 37.70 37.07 36.28 35.01 33.68 32.92 32.88 32.82 33.02 34.15 33.40 33.52 34.24 33.90 33.09 32.63 32.54 29.71 29.61 30.01 29.82 28.92
36.61 33.71 32.49 33.36 30.29 34.17 28.56 28.85 29.57 30.12 28.29 25.20 23.94 27.81 39.85 37.83 35.64 36.06 37.32 38.23 38.99 38.85 39.28 38.33 37.61 36.77 35.92 33.48 32.51 33.47 32.93 32.22 32.23 32.25 33.14 33.23 32.67 32.04 31.44 29.92 30.05 29.78 28.93 28.13
39.63 35.57 30.91 32.68 33.97 34.46 32.68 32.20 31.61 26.41 26.17 28.92 29.57 30.34 42.00 42.18 41.31 39.55 39.78 42.59 40.82 38.74 39.95 39.08 38.47 38.22 37.02 35.70 34.39 33.72 33.81 32.70 33.59 33.38 33.04 32.59 32.09 30.72 30.51 30.11 29.38 29.68 28.30 27.80
38.60 34.09 29.54 29.86 31.41 31.83 32.39 34.91 35.09 34.87 32.53 27.04 24.49 28.82 41.60 42.27 42.09 42.45 39.70 37.59 39.04 39.87 40.43 40.47 38.41 39.18 38.61 38.79 35.54 34.09 33.36 33.80 33.75 32.11 31.29 30.71 30.50 29.54 30.43 30.15 28.69 28.43 28.24 27.12
41.38 36.05 33.11 28.39 30.38 33.78 31.49 32.13 33.83 33.14 28.78 28.90 29.44 31.51 36.54 39.17 40.22 42.02 42.22 40.07 40.01 37.61 35.99 36.00 36.03 36.59 37.40 38.72 38.63 37.17 35.64 34.24 31.98 30.70 30.36 30.82 30.63 30.19 31.06 30.64 28.28 27.67 27.74 26.40
38.15 31.69 33.31 33.88 34.88 35.02 34.11 33.33 33.74 32.78 33.04 28.16 31.03 32.47 36.62 39.28 39.58 37.38 37.96 36.26 34.94 33.90 34.11 34.37 35.13 35.53 36.18 36.64 38.02 38.45 38.45 34.22 31.38 31.14 31.08 31.08 31.37 31.27 30.85 29.96 27.92 27.30 26.76 26.71
34.49 27.43 30.27 28.45 30.64 30.69 29.88 32.89 32.44 31.98 30.63 30.02 31.08 31.13 35.29 29.58 29.26 30.30 29.56 29.45 29.40 30.48 32.21 33.70 34.18 34.40 34.36 35.20 35.55 35.41 36.30 36.43 30.85 31.66 31.69 32.08 30.73 29.28 29.60 29.32 27.53 26.29 25.51 25.10
28.71 27.70 25.19 20.96 26.26 25.18 21.29 26.40 28.91 30.85 33.27 29.81 25.85 24.13 27.26 25.53 25.65 28.44 27.31 28.05 28.74 30.39 31.84 33.16 33.66 34.38 34.63 35.07 34.65 34.53 33.51 33.66 34.10 31.61 33.19 30.68 27.36 27.40 27.62 27.00 25.81 25.22 24.66 24.11
26.74 24.21 22.67 19.02 20.06 9.89 23.11 29.32 31.19 28.27 24.31 26.09 25.46 25.32 25.27 24.89 26.37 28.84 30.92 27.93 28.53 30.04 32.81 34.35 33.66 33.10 33.74 34.48 34.17 33.60 32.31 31.99 30.78 31.85 31.62 27.51 27.95 28.13 26.35 24.94 24.22 24.20 24.30 23.29
29.60 25.92 18.16 8.06 6.51 18.86 23.56 23.64 21.15 20.87 20.12 25.80 23.35 24.40 24.30 25.60 25.86 26.57 28.81 29.61 29.31 30.28 33.05 31.56 32.06 33.19 33.50 32.86 33.36 32.29 30.99 30.52 28.13 27.69 27.46 27.01 26.06 27.04 24.17 24.19 23.77 23.98 23.67 22.97
24.34 26.74 21.34 4.48 8.76 6.79 19.51 21.34 26.46 25.64 18.35 24.56 24.10 24.72 23.00 22.82 16.20 19.77 26.99 28.70 29.20 31.00 29.02 28.57 29.53 30.84 31.22 31.59 32.60 31.57 30.43 30.45 28.46 25.49 25.76 23.85 22.81 22.76 23.76 23.99 22.99 23.51 23.84 22.59
3.66 2.43 2.96 -1.35 0.86 8.76 17.46 21.25 23.92 6.11 11.04 22.38 25.20 23.87 22.62 21.37 23.48 25.88 26.89 27.71 28.03 26.36 26.25 26.89 26.74 26.37 28.56 30.04 30.41 30.06 30.88 30.17 28.52 22.82 20.66 18.03 18.97 19.26 19.82 22.73 22.31 21.30 20.97 20.66
10.04 0.55 -1.58 -3.15 -4.96 2.02 22.06 21.33 14.65 18.00 23.30 24.58 25.72 24.09 23.37 24.05 24.14 24.85 25.36 23.85 23.43 22.86 23.38 24.42 24.19 24.76 25.03 25.51 26.69 26.48 27.74 30.73 29.10 23.00 19.17 17.95 15.45 17.70 18.35 17.46 15.58 19.14 19.70 18.47
6.70 12.81 5.53 10.07 9.65 22.16 24.67 22.55 25.38 25.26 24.35 24.11 23.77 23.90 24.03 21.40 21.02 22.22 20.22 20.48 21.15 21.42 21.94 22.28 20.65 18.99 20.74 21.31 22.24 20.70 22.24 25.52 30.03 29.92 25.78 21.64 20.23 18.38 19.71 18.58 17.55 17.21 17.37 16.22
16.66 21.31 15.24 12.40 20.61 20.84 23.05 24.75 25.46 25.75 25.02 25.35 24.86 23.05 21.30 19.13 20.65 20.07 20.13 20.30 20.02 19.29 18.21 19.57 17.26 15.78 15.68 17.19 18.30 18.78 20.73 23.42 22.03 24.92 26.60 22.19 19.20 18.27 18.27 18.33 17.13 17.19 15.79 15.96
17.99 18.29 14.60 15.39 20.75 22.22 23.53 24.66 25.27 24.90 23.60 22.62 21.88 20.74 19.56 18.60 18.37 18.77 17.90 17.03 17.18 17.21 17.66 16.35 14.47 13.68 13.07 14.16 14.43 15.50 16.53 17.05 16.93 19.74 23.66 22.31 19.28 18.23 17.29 17.64 17.26 17.58 18.57 18.97
21.25 18.93 15.85 14.10 22.54 21.84 22.71 25.79 24.87 21.93 21.42 19.61 17.85 17.39 18.66 17.98 16.53 16.51 14.79 15.78 15.69 14.79 14.49 12.44 11.03 10.16 9.92 10.21 10.54 11.25 12.09 12.42 12.59 13.96 17.51 21.78 19.05 17.55 16.99 16.31 15.91 22.54 22.90 23.03

GFSCGP_sfc_wetblb_012.txt.gz
Wetbulb
37.80 34.16 32.61 37.09 35.90 35.23 30.91 30.16 30.11 32.90 37.33 33.17 37.18 37.36 38.91 40.53 40.16 41.74 42.68 42.52 43.29 43.51 46.42 46.69 43.78 41.89 40.66 39.17 39.98 40.56 39.69 41.19 41.57 40.54 38.13 37.20 38.17 36.98 36.62 37.16 36.73 36.28 35.85 34.60
34.21 31.28 37.81 36.57 35.15 34.45 32.95 32.37 32.94 36.00 38.11 33.33 34.48 35.21 38.98 40.43 41.25 42.11 42.50 43.15 43.49 44.05 44.55 44.98 41.69 39.64 38.81 40.04 39.32 39.36 39.69 39.77 41.09 41.31 40.79 38.60 40.61 36.26 38.04 36.23 34.87 35.48 34.22 33.85
34.70 36.21 38.61 36.38 33.84 33.91 31.70 30.31 33.57 32.59 33.74 32.95 31.32 31.87 33.31 37.48 38.05 41.25 42.15 42.98 41.71 42.50 43.07 43.99 41.05 39.51 38.47 37.37 37.27 39.19 39.54 39.38 40.69 40.19 37.96 31.49 31.62 30.67 31.11 31.53 32.95 32.90 33.91 33.20
33.93 37.07 36.94 33.35 33.33 34.99 32.80 35.49 34.90 32.89 29.47 26.11 31.60 26.87 31.55 35.62 37.10 37.15 39.60 38.72 39.49 40.79 40.53 40.50 40.10 38.22 39.09 39.57 37.27 37.92 38.28 38.16 39.66 39.25 37.26 37.18 37.05 35.85 36.43 37.34 36.63 34.22 33.31 32.63
33.62 32.83 32.60 32.41 34.72 35.07 33.90 34.67 32.89 29.65 27.81 26.27 25.63 24.46 29.76 32.38 34.06 36.47 38.03 39.01 39.13 38.86 38.74 39.66 39.99 38.95 38.47 37.50 35.61 36.08 36.92 36.97 38.66 38.59 38.02 37.71 37.87 38.37 33.58 33.13 33.65 32.74 31.56 31.86
33.69 33.73 35.01 35.66 35.21 35.68 34.62 31.65 30.16 27.00 26.49 22.54 27.79 27.44 29.14 30.23 33.66 34.55 38.80 38.77 40.22 39.32 40.02 40.46 39.55 37.62 36.91 33.91 33.04 33.29 34.61 35.44 36.63 37.27 37.25 37.26 37.50 31.93 32.54 30.79 32.48 31.50 30.64 30.15
28.92 31.68 33.04 35.02 31.69 32.14 32.42 28.68 22.16 19.95 18.54 22.27 26.44 24.75 33.29 35.91 37.99 37.68 38.58 38.70 39.13 38.69 38.32 37.63 38.85 37.54 36.46 33.11 31.58 32.26 33.10 33.30 33.89 35.48 36.24 36.21 36.36 33.02 34.21 31.95 33.14 31.15 30.28 30.21
27.32 31.16 32.73 33.90 34.57 32.56 29.96 30.32 23.97 18.41 18.77 27.80 23.33 24.99 34.60 36.79 38.03 38.22 37.65 37.95 36.89 36.54 37.25 37.17 37.59 35.57 34.48 32.87 31.40 32.11 32.40 32.42 32.44 33.79 34.15 34.03 34.40 34.21 34.22 32.30 33.08 32.01 32.04 32.13
27.67 28.67 31.27 33.14 32.95 34.42 28.94 27.32 31.98 27.76 23.05 20.52 29.62 31.45 37.54 36.84 35.16 34.82 35.99 36.42 37.01 37.31 37.76 37.69 37.89 35.62 33.97 32.49 31.82 31.93 31.88 32.42 31.87 32.47 32.42 32.11 32.81 32.20 32.49 30.16 31.09 31.64 32.23 31.45
34.49 30.77 34.47 33.31 32.53 32.35 32.07 32.90 26.29 25.89 20.86 17.59 24.89 26.71 30.52 36.09 37.32 38.74 38.91 38.39 37.13 40.16 43.40 40.92 38.37 37.10 34.66 33.24 31.96 31.81 31.89 32.25 32.08 32.06 33.11 33.73 33.28 32.97 31.99 30.37 30.74 30.55 30.72 30.06
37.11 33.59 31.70 33.60 30.08 31.68 30.72 29.78 29.24 29.74 28.67 24.24 23.09 27.65 38.83 37.84 37.73 35.60 35.71 37.33 39.35 42.25 39.66 36.88 36.64 37.23 36.56 34.74 32.95 31.74 31.01 30.83 30.85 30.67 31.64 31.34 30.88 30.56 30.74 30.19 30.81 30.72 29.81 29.19
39.23 36.11 30.91 32.46 35.00 34.63 32.72 35.00 33.12 27.37 25.04 25.51 27.77 27.94 39.69 40.14 40.76 41.65 37.74 37.09 33.95 34.65 34.68 35.45 35.36 35.36 35.81 36.52 37.68 36.53 33.42 31.93 31.67 31.39 30.62 30.24 30.67 29.68 29.25 29.65 30.23 29.95 29.12 28.81
38.81 34.57 28.92 29.76 29.84 32.46 31.79 34.39 35.45 34.87 33.16 28.74 25.11 27.04 39.94 40.85 40.50 31.68 33.60 32.78 32.62 32.79 33.19 33.69 34.38 34.64 34.94 35.09 35.43 35.87 36.01 34.87 34.20 33.03 30.21 30.26 29.87 29.24 29.97 30.75 30.31 29.51 29.65 28.65
39.82 33.52 31.11 26.87 29.38 32.82 31.42 33.16 34.35 33.22 28.65 28.60 29.07 30.81 35.50 36.23 35.31 30.49 30.32 29.44 29.86 30.28 31.38 32.57 33.23 33.62 34.28 34.70 34.59 34.58 34.44 34.36 33.29 32.03 30.07 29.99 29.79 30.29 31.67 31.82 30.05 28.86 29.46 28.37
36.57 30.82 32.49 33.68 34.52 32.13 29.95 28.80 29.22 28.12 30.04 26.61 28.53 28.67 30.01 27.15 26.50 28.45 28.01 28.56 28.00 28.42 29.95 32.07 33.19 33.42 32.74 32.76 33.79 34.13 34.33 33.46 32.83 32.08 32.58 32.02 30.69 30.11 30.31 30.30 30.10 28.37 28.45 28.50
33.37 26.52 27.78 24.16 27.07 27.15 25.82 28.75 28.52 28.11 27.87 27.75 28.85 26.66 25.73 26.53 27.49 26.73 27.74 26.74 26.64 27.46 29.83 32.68 33.20 31.16 30.69 32.04 32.14 31.99 33.04 33.07 32.27 31.41 31.18 32.13 31.05 29.25 28.50 29.39 29.14 26.94 27.14 27.34
28.45 26.87 23.21 19.16 23.99 22.25 18.10 23.24 25.67 27.03 29.02 25.31 21.36 21.38 22.84 22.57 24.39 25.55 26.45 28.48 26.84 27.25 28.56 32.03 31.04 29.92 29.81 31.20 32.34 30.68 31.41 32.14 31.04 30.81 31.06 30.57 30.47 29.81 28.84 26.92 27.17 26.63 26.19 26.82
26.60 24.57 23.25 19.44 18.18 11.06 21.77 26.48 24.84 24.34 24.97 24.71 22.74 20.95 22.19 23.55 24.96 26.19 28.71 25.55 26.68 27.99 28.78 30.29 28.78 28.53 29.33 29.38 29.67 30.37 30.67 30.10 30.46 29.69 29.28 29.34 28.29 27.58 27.99 25.27 25.91 25.74 25.41 25.63
28.49 24.69 13.31 9.71 4.04 15.38 21.21 19.93 18.55 17.90 18.66 23.18 22.46 24.49 25.06 24.51 23.22 22.33 25.81 26.34 26.21 28.13 29.32 28.17 27.30 26.96 26.82 26.53 27.52 27.74 25.93 27.44 29.09 29.70 29.16 28.66 27.76 26.13 25.84 25.63 25.45 25.84 25.03 25.47
23.17 26.05 20.72 6.20 9.17 -1.92 16.49 18.78 22.39 23.50 12.81 18.00 19.51 21.43 21.99 22.85 14.49 18.20 24.19 25.82 25.80 26.97 25.88 25.19 24.88 25.21 25.18 25.46 26.52 23.44 23.26 24.68 24.48 26.46 27.60 27.03 26.06 23.85 23.77 24.25 23.23 25.33 25.56 25.58
1.84 -0.41 10.48 6.79 1.93 6.04 16.30 20.58 22.12 4.33 8.69 15.33 18.91 20.90 21.80 20.10 20.66 23.26 26.09 24.26 24.92 24.59 23.03 22.74 21.89 22.19 23.50 24.79 23.03 21.36 21.92 21.24 22.59 22.71 22.82 27.25 26.72 23.96 22.58 22.04 19.06 20.04 22.58 23.41
10.53 1.44 -3.89 -5.58 -3.24 -1.43 20.90 20.07 13.28 17.65 21.82 21.58 21.30 23.51 24.76 23.94 24.08 24.56 23.34 22.87 22.44 21.05 21.40 22.28 21.35 20.89 22.24 21.44 20.48 19.35 18.57 20.38 19.85 20.28 21.69 21.77 23.87 25.16 23.37 19.78 18.61 16.23 19.86 20.09
7.04 12.40 4.82 8.10 7.55 20.78 23.42 21.83 25.55 24.39 20.69 21.98 22.97 25.24 24.37 22.92 22.74 22.51 21.07 21.56 21.31 20.88 21.84 21.49 17.57 18.14 19.46 18.37 17.40 15.60 16.58 16.77 16.65 16.61 16.46 17.31 19.94 23.60 21.74 21.54 20.33 19.12 19.12 17.42
16.69 19.83 16.10 16.44 20.30 21.23 23.34 25.41 24.51 24.82 24.36 25.49 25.16 25.07 23.29 21.76 22.15 21.18 21.45 21.05 20.43 19.92 18.52 18.29 16.59 15.73 15.15 16.12 15.77 14.07 14.54 13.90 12.74 11.47 11.82 13.38 14.56 17.76 22.99 20.67 21.32 19.55 18.79 18.08
18.84 17.65 14.23 16.08 20.80 22.26 23.42 24.40 25.35 25.66 25.49 24.22 23.71 22.94 21.33 19.54 19.85 19.99 18.82 17.81 17.84 17.39 17.01 16.35 14.89 14.04 13.52 14.14 12.73 11.88 11.53 10.22 8.19 8.24 8.91 9.98 11.89 14.32 19.71 20.86 20.48 19.67 21.22 21.16
21.44 19.11 15.62 14.14 22.35 21.83 22.77 25.75 25.58 23.50 22.54 21.35 19.55 17.87 18.73 18.61 17.40 17.27 15.70 16.17 15.41 14.46 14.96 13.59 12.35 11.48 10.80 10.06 9.07 8.65 8.03 6.98 5.14 4.81 6.17 8.05 10.10 11.67 14.75 19.09 19.25 23.54 24.93 24.69

GFSCGP_sfc_wetblb_015.txt.gz
Wetbulb
38.12 34.58 32.74 36.63 35.97 35.04 32.58 30.96 30.02 33.22 37.10 34.36 37.30 37.23 38.76 40.84 40.72 41.17 42.63 43.75 43.78 44.04 46.26 45.87 45.14 45.23 44.30 42.97 42.54 43.16 42.17 44.21 46.62 46.98 45.19 43.14 43.11 44.25 42.51 43.98 43.12 42.14 41.95 40.50
34.25 31.75 37.51 36.80 35.65 34.86 33.32 31.96 32.16 35.10 37.36 33.70 34.47 35.74 39.53 40.99 41.62 42.43 42.69 43.25 42.46 43.02 44.54 44.61 43.30 43.44 42.96 43.28 41.96 41.81 41.90 42.38 44.58 46.02 46.02 45.82 45.46 43.97 43.48 42.83 41.59 41.76 41.04 40.08
33.99 35.90 38.15 36.31 34.15 33.61 31.49 30.95 33.22 31.97 33.39 33.94 31.72 31.99 33.90 39.32 38.48 40.01 41.94 41.93 41.69 41.34 41.65 42.92 42.71 42.12 42.39 42.17 41.42 40.85 41.58 41.49 43.17 44.44 43.88 36.80 37.99 36.72 37.90 38.22 38.59 39.10 39.62 39.16
33.57 36.68 36.17 33.46 33.51 34.14 31.55 35.05 34.07 32.01 30.07 27.17 32.99 26.37 31.62 36.99 38.52 37.88 39.13 39.63 39.73 40.41 41.54 41.38 40.36 41.71 40.43 41.10 41.08 40.16 40.58 40.65 41.86 42.75 41.46 41.12 41.06 39.34 39.26 40.74 40.13 38.79 38.66 38.40
33.74 32.89 32.27 32.33 34.49 34.78 33.36 33.75 32.04 31.07 28.69 27.13 27.26 25.47 30.61 33.37 34.51 37.48 39.40 40.54 41.38 41.54 39.95 40.13 40.88 40.55 40.18 38.09 37.62 38.14 38.78 39.29 41.05 41.02 41.25 40.76 41.11 41.55 39.49 40.74 38.98 37.73 37.03 37.66
33.43 34.38 34.82 35.14 34.34 35.14 34.71 31.99 30.38 28.06 27.65 23.02 28.43 28.05 29.00 31.56 34.80 35.72 40.34 40.30 40.37 40.14 40.06 43.02 41.09 39.37 38.08 36.93 35.58 36.03 36.83 36.86 38.28 39.39 39.86 39.87 40.28 38.10 37.41 37.12 37.14 36.02 35.17 34.92
30.71 32.05 33.06 34.65 31.67 32.96 33.56 30.59 24.04 22.34 20.20 23.58 27.18 25.09 31.87 35.18 37.01 38.55 39.57 40.17 38.83 38.73 39.22 40.26 40.03 38.16 37.84 35.84 34.36 35.19 35.13 35.53 36.46 37.26 37.71 38.45 39.03 36.93 37.44 36.83 37.41 35.44 34.02 33.42
28.44 31.49 32.25 34.69 34.96 33.38 31.48 32.12 28.18 21.17 20.87 28.34 23.96 26.50 33.94 36.69 37.87 38.43 36.71 37.50 38.32 39.85 38.84 37.62 36.99 36.75 36.45 35.86 34.98 34.47 34.02 34.48 34.94 35.24 35.62 36.20 36.75 36.52 36.81 36.37 37.11 35.97 35.59 35.49
27.61 29.08 31.64 32.49 33.22 36.25 30.15 28.86 33.64 27.88 25.99 22.12 29.38 32.01 39.13 36.90 37.05 36.72 37.36 36.48 34.80 34.58 35.10 35.54 36.10 36.33 36.74 36.60 35.70 34.14 33.37 33.81 34.34 34.22 34.48 34.66 34.78 34.66 35.08 33.89 34.55 35.42 35.64 35.36
33.94 30.75 34.79 32.74 32.15 32.32 33.04 34.23 27.65 26.77 21.54 20.79 26.29 26.30 30.68 33.85 34.45 34.98 32.11 31.85 33.10 33.54 33.71 34.53 35.08 35.29 35.77 36.64 37.18 36.92 35.74 34.40 33.59 33.56 33.77 34.38 34.34 34.27 33.88 32.63 32.92 33.23 34.00 33.83
36.74 33.42 31.99 34.38 30.23 30.81 29.27 28.82 29.71 30.57 29.61 24.14 23.47 27.30 34.91 33.74 31.76 31.18 32.13 32.49 31.44 31.61 32.32 33.34 34.26 35.11 35.43 35.78 35.82 35.65 35.91 35.22 35.19 35.27 34.15 33.00 33.41 33.35 32.82 31.75 32.40 32.43 32.40 32.01
38.06 36.19 30.77 32.42 35.28 33.06 34.00 33.48 32.61 29.09 27.41 28.15 28.70 28.45 40.10 33.51 33.18 31.87 29.29 29.93 30.23 30.70 31.63 33.19 34.20 34.36 34.07 34.34 34.89 34.75 34.64 34.51 34.35 34.59 34.30 33.74 32.84 31.78 31.36 31.78 31.99 31.84 31.41 31.04
39.37 34.42 28.51 28.46 30.57 32.34 32.94 34.03 34.92 34.31 31.96 28.01 24.99 27.67 39.29 37.03 30.90 30.68 27.49 27.91 28.82 29.75 30.69 32.24 33.86 33.72 32.60 32.85 33.76 33.82 33.75 34.12 33.84 33.35 33.27 33.36 33.64 32.21 31.65 31.68 31.82 30.85 31.67 30.86
39.47 34.07 31.72 26.42 29.93 33.25 31.08 32.15 33.46 32.95 28.36 27.98 28.52 29.71 33.41 30.82 27.11 27.68 27.42 27.96 28.38 28.87 29.40 31.14 33.17 32.52 31.45 31.68 32.37 32.78 32.78 33.89 33.31 32.50 32.31 32.21 32.51 32.70 32.78 32.46 32.05 30.90 30.78 31.09
35.95 29.91 31.47 32.56 33.77 28.94 28.42 27.92 27.91 25.90 27.43 23.98 26.44 26.60 30.99 27.34 25.13 26.57 28.72 28.51 27.84 27.34 28.38 29.42 32.22 31.73 29.74 29.81 30.73 31.41 31.56 31.74 32.19 31.54 31.46 31.51 31.94 31.98 31.81 31.47 31.53 31.35 29.95 30.25
33.69 27.32 26.14 22.53 27.61 27.89 25.04 25.91 26.19 26.15 26.51 27.07 27.10 26.55 25.48 25.66 26.29 25.43 25.90 27.92 27.26 26.12 27.36 28.58 31.13 30.02 27.67 28.30 28.58 28.86 29.36 29.59 29.75 30.06 30.36 30.88 30.95 30.35 30.13 30.89 30.46 30.23 29.57 29.36
28.09 25.24 24.15 20.05 23.80 21.09 16.01 21.36 24.19 25.05 26.62 25.00 21.11 20.60 21.91 21.15 24.06 24.82 24.61 26.94 26.67 25.56 26.58 27.53 28.98 28.01 26.66 26.95 27.17 26.53 27.75 27.61 26.30 27.88 29.36 29.22 29.34 28.22 28.05 29.02 29.03 28.28 28.79 29.18
27.00 24.62 23.87 18.85 12.03 11.05 21.97 22.81 24.59 23.54 24.06 21.28 20.85 21.11 23.40 24.45 26.24 26.66 27.20 27.24 25.30 25.64 26.00 27.56 27.83 26.50 26.11 26.44 25.96 25.79 26.50 24.01 24.44 25.19 25.28 26.54 25.35 24.11 26.66 27.06 27.35 27.68 27.97 27.64
27.88 23.99 12.98 13.42 12.50 17.11 21.07 20.76 19.06 17.95 16.93 20.41 17.90 20.70 23.75 24.84 24.08 22.02 25.74 25.94 25.89 25.70 26.56 28.00 26.87 25.76 25.36 25.09 25.20 24.69 23.78 22.43 23.05 22.76 22.66 22.70 22.29 22.06 26.04 25.41 25.60 26.51 26.60 26.77
23.92 25.59 20.85 9.17 6.91 -3.22 15.01 17.62 20.10 22.28 9.61 18.26 15.95 16.14 17.98 22.60 15.58 19.63 23.81 25.74 25.70 26.02 26.36 26.32 24.28 24.15 23.79 24.26 24.55 23.59 20.82 20.13 20.60 21.17 20.75 20.46 20.44 22.42 21.21 22.39 24.30 25.60 25.62 25.61
0.63 2.67 14.75 14.01 11.45 10.25 16.02 19.93 21.94 5.02 9.23 15.75 16.73 19.13 19.26 19.62 22.36 25.17 24.90 24.77 25.22 24.86 24.99 23.94 22.05 22.17 22.61 22.60 21.32 19.33 19.24 18.36 19.84 20.03 18.73 17.56 18.03 18.34 19.03 20.13 22.85 23.93 24.12 24.44
10.52 0.93 -6.13 -8.09 -2.88 2.79 20.15 19.06 13.07 17.79 21.44 21.15 20.52 22.02 21.91 22.96 24.59 25.97 25.86 24.90 23.68 22.45 22.87 23.33 21.82 21.93 22.83 22.06 19.39 18.23 17.37 19.11 17.36 16.08 15.00 14.60 14.33 14.81 15.93 16.12 18.16 22.00 22.64 21.47
8.79 12.61 7.07 9.23 7.99 19.90 22.31 21.25 24.60 25.57 21.75 22.95 21.80 23.23 22.45 22.94 23.94 25.20 23.74 22.17 22.02 22.15 22.63 22.62 19.55 19.17 20.16 19.65 16.98 15.56 16.93 16.55 14.50 12.49 11.50 11.31 11.64 11.80 12.77 13.36 15.09 17.90 21.73 20.63
16.40 18.25 14.83 16.55 19.92 19.71 23.37 25.74 25.89 24.78 23.76 24.87 24.25 23.12 22.66 22.05 23.71 23.67 22.73 21.78 21.15 20.59 19.24 18.92 16.26 15.98 15.94 17.57 17.29 15.70 15.28 14.05 9.90 7.91 8.55 9.19 8.76 9.11 9.95 12.03 14.38 16.70 20.09 20.64
19.27 17.33 14.48 16.18 20.83 22.23 23.18 24.40 25.34 25.68 25.42 23.76 23.45 22.99 22.06 20.31 20.40 20.05 19.05 18.31 18.23 17.64 17.10 15.99 14.52 14.04 14.07 15.01 13.80 13.12 12.22 9.82 7.16 6.51 6.80 6.52 7.06 6.67 7.67 10.25 12.59 14.85 18.94 21.92
21.73 19.19 16.05 14.46 22.34 21.82 22.79 25.67 24.92 23.16 21.94 18.80 18.04 17.09 18.26 18.13 16.61 16.28 14.69 15.07 14.38 13.33 13.21 11.58 10.75 9.82 9.34 9.01 8.24 8.16 7.89 6.50 4.29 3.14 3.34 3.80 4.26 4.81 6.06 7.13 8.81 15.94 19.41 22.92

GFSCGP_sfc_wetblb_018.txt.gz
Wetbulb
45.61 42.70 40.59 43.74 44.25 44.15 41.79 40.29 39.38 42.20 44.47 41.71 41.55 42.07 43.89 45.77 46.00 45.81 46.47 47.31 48.54 49.29 50.45 50.98 51.04 51.16 51.03 51.28 51.02 50.91 50.93 50.89 52.53 53.22 53.54 54.41 54.01 54.66 54.89 55.51 54.06 53.30 51.47 49.40
41.59 39.51 44.53 45.06 42.40 40.92 40.78 39.10 39.04 42.43 43.69 39.84 41.35 40.63 43.43 45.14 45.61 46.82 47.18 47.38 47.90 48.38 49.02 49.73 49.22 49.16 48.71 48.85 49.35 49.15 49.11 49.67 50.11 52.17 53.16 53.58 53.13 53.42 53.48 53.89 52.76 52.48 50.67 48.99
41.15 43.69 43.70 41.16 41.28 39.41 40.54 38.23 39.50 39.55 41.76 41.67 39.23 40.20 41.27 45.69 46.59 46.93 46.39 47.30 46.69 46.61 46.93 47.57 47.26 46.99 46.78 45.72 45.90 46.02 47.10 48.04 48.49 50.28 51.44 51.41 49.52 50.58 49.82 50.19 49.95 49.59 49.54 48.25
40.97 42.71 40.14 39.73 38.97 41.02 37.36 42.99 40.19 38.28 36.75 34.96 39.54 33.72 41.57 44.34 44.73 45.78 46.00 46.56 46.77 47.27 46.86 45.67 44.28 44.09 43.30 43.05 44.75 44.99 45.37 46.01 46.22 48.10 48.39 48.30 46.95 46.33 47.26 47.30 47.94 47.83 47.48 47.27
40.68 38.96 37.77 37.83 39.62 40.52 39.60 39.85 37.88 36.74 36.35 34.86 37.10 33.52 41.26 41.02 40.74 43.84 45.25 45.64 45.25 45.64 44.51 42.82 42.60 42.56 42.68 42.37 42.56 43.51 44.30 44.23 45.06 45.60 46.76 46.29 46.18 47.75 48.12 46.53 46.49 45.93 45.50 45.87
41.07 40.52 40.62 41.33 39.97 40.10 39.95 39.01 37.89 36.55 36.08 31.11 38.34 36.14 38.83 41.03 41.21 43.01 44.26 42.67 42.88 42.36 42.29 41.98 42.46 42.49 41.58 42.54 41.89 41.96 42.68 42.25 43.26 43.82 44.49 44.39 44.51 45.25 44.95 44.37 44.46 44.49 43.99 43.61
38.89 38.33 39.95 40.04 37.83 38.42 38.41 36.78 33.15 32.34 32.53 32.05 35.24 34.01 37.51 42.68 42.14 42.04 40.65 40.10 40.45 41.13 40.86 40.21 39.61 39.96 40.33 40.26 40.68 40.49 40.75 39.89 41.18 42.04 42.56 42.84 43.11 43.67 43.73 43.72 43.49 43.61 42.71 41.80
36.18 35.37 38.01 40.20 40.71 41.26 37.10 37.79 34.30 26.60 28.97 33.01 36.03 32.10 38.93 45.19 42.23 41.34 40.21 39.75 39.55 39.12 39.78 39.44 39.39 39.27 39.49 39.76 40.11 40.36 39.66 39.12 39.72 39.71 39.68 40.89 41.53 42.00 42.70 42.92 43.03 43.26 42.80 42.78
37.07 36.52 38.73 37.64 39.05 40.48 36.57 33.67 39.46 33.19 33.77 30.03 34.18 38.42 42.72 43.11 39.57 39.83 39.19 39.00 37.55 37.54 37.96 38.02 38.59 38.48 38.75 38.91 38.80 39.33 38.88 38.65 39.02 39.49 39.67 39.37 39.61 39.70 40.00 40.98 41.49 41.98 42.51 42.02
37.51 32.54 40.10 39.83 38.50 38.47 37.31 40.57 33.16 32.31 24.72 24.36 30.29 32.98 35.35 37.17 36.68 37.47 37.10 36.10 35.51 36.03 36.81 37.66 38.09 37.36 37.59 38.41 38.85 38.59 38.94 37.47 37.41 38.13 38.82 38.85 38.85 38.79 39.03 39.21 38.65 39.31 40.24 40.33
40.27 36.40 36.70 38.89 36.45 36.60 35.94 32.97 33.60 33.21 31.21 26.61 25.57 31.37 39.96 37.08 36.52 35.36 34.04 33.12 33.34 33.92 35.11 36.37 37.23 37.38 36.88 37.34 37.35 37.03 37.19 36.64 36.01 36.17 37.22 37.74 38.11 38.15 37.90 37.60 37.81 37.76 38.42 38.38
41.44 36.76 31.85 34.58 41.11 39.99 37.47 36.16 36.64 30.07 28.45 31.19 30.21 30.95 38.20 36.28 35.51 33.59 31.40 31.71 32.72 33.23 33.67 35.02 36.55 35.85 34.79 34.79 35.56 35.74 35.51 35.50 35.11 35.30 35.88 35.74 36.56 36.18 36.08 36.77 37.00 37.38 36.52 37.14
39.75 34.27 29.99 31.46 35.85 36.46 35.27 37.32 36.56 36.44 34.33 29.67 27.39 29.94 35.92 33.42 32.22 31.26 30.07 30.50 31.11 31.97 31.87 32.94 35.29 35.15 33.71 33.48 33.62 33.97 33.96 33.77 33.89 33.75 33.94 34.29 34.17 34.05 33.59 33.64 35.06 35.93 35.80 35.72
39.79 34.71 31.29 25.97 30.77 34.69 32.43 34.58 35.21 33.08 29.17 29.20 29.75 31.79 35.57 37.91 36.51 31.12 30.14 30.49 30.74 30.07 30.48 31.28 32.11 33.78 32.70 32.11 32.54 32.26 32.36 32.92 32.09 32.13 32.54 32.45 32.52 32.80 32.56 32.76 33.31 33.67 34.27 34.20
36.94 30.69 32.02 32.47 33.69 33.47 32.84 31.19 31.50 29.46 29.82 24.78 27.56 28.01 32.25 35.12 33.23 29.97 29.54 30.50 29.83 28.83 29.50 30.31 30.65 32.43 32.34 31.32 31.33 31.08 31.06 31.10 30.61 29.71 30.50 30.50 31.72 31.71 30.79 30.61 31.63 32.48 33.06 33.00
35.03 28.30 30.07 27.65 31.07 30.81 28.51 29.84 30.23 29.79 29.70 28.64 28.67 28.23 34.63 29.50 29.29 28.59 28.73 28.90 29.67 29.20 29.47 29.96 30.73 31.49 31.11 30.39 30.25 30.03 30.31 30.25 29.80 27.95 28.39 28.84 29.73 29.12 27.68 28.51 29.67 29.53 30.14 31.58
29.46 27.75 25.34 21.07 27.35 26.39 21.52 25.37 27.59 28.92 31.00 29.68 24.84 28.44 26.30 24.34 26.67 27.99 28.62 28.95 29.13 29.49 29.51 29.77 30.29 31.15 31.23 30.48 29.98 29.37 29.56 29.76 28.19 26.77 27.56 27.39 27.17 26.02 25.38 26.62 28.94 27.93 28.31 29.39
26.39 25.94 25.92 20.96 21.75 12.87 26.13 31.32 29.54 27.24 27.99 25.69 24.38 24.27 25.82 25.71 27.79 29.44 30.95 29.94 29.52 30.25 29.90 30.39 31.02 31.55 32.08 31.47 30.16 29.99 28.94 28.09 27.04 26.21 26.29 26.50 25.07 23.68 23.84 24.35 26.02 25.66 27.38 27.58
29.16 25.64 20.96 16.95 16.91 21.71 24.53 27.59 27.04 24.68 24.54 26.94 23.63 24.19 25.96 27.07 27.73 27.92 31.03 31.45 30.81 31.56 31.71 31.52 31.90 31.57 30.96 29.63 29.47 28.11 27.19 26.92 26.15 24.79 24.91 25.20 23.59 21.14 21.25 20.35 22.21 23.58 24.76 26.39
25.61 26.57 20.39 16.69 12.31 9.54 22.33 23.94 26.32 25.98 17.73 25.75 23.97 23.87 24.42 25.55 19.32 24.70 30.18 30.81 30.84 31.78 32.22 31.10 30.91 30.12 28.62 29.06 28.25 25.81 25.09 24.78 24.07 24.35 24.18 24.00 22.43 19.64 18.77 20.14 19.85 21.59 22.75 23.54
16.61 17.42 16.59 17.21 15.01 18.89 24.93 23.99 26.92 14.56 18.01 26.56 25.93 25.18 24.77 22.81 25.99 29.15 30.29 30.35 31.37 31.35 31.21 30.73 29.24 27.25 27.19 27.19 26.05 23.21 23.36 22.30 23.89 23.78 22.88 21.64 20.79 18.68 18.51 18.45 19.18 18.57 18.88 20.32
17.11 15.24 12.64 10.29 10.20 9.02 25.43 23.01 18.88 25.13 27.77 27.24 27.03 27.14 26.00 27.35 28.14 28.43 29.28 29.51 30.21 30.25 29.00 28.09 26.36 25.93 26.53 25.97 23.79 21.45 20.56 22.59 22.24 21.05 19.32 18.49 17.53 17.29 17.13 15.32 15.50 15.80 16.61 17.26
14.57 19.97 17.31 16.02 17.93 26.27 26.71 26.23 28.67 29.54 27.35 28.15 27.72 28.50 28.01 26.68 26.86 28.10 28.11 28.57 27.96 26.85 25.67 25.20 23.08 21.73 22.19 21.66 20.77 18.39 19.46 19.87 18.12 16.00 14.12 14.05 14.40 14.27 14.00 13.05 13.02 13.86 14.79 15.56
22.34 25.46 18.98 19.66 23.25 25.11 27.22 28.95 29.71 29.97 28.97 29.94 29.38 28.35 27.86 25.79 26.42 25.66 25.89 24.68 23.20 22.67 21.30 20.95 18.68 16.67 15.90 17.59 17.18 15.96 15.40 14.76 12.08 10.48 10.54 11.21 10.50 11.03 11.33 12.11 12.57 12.42 12.82 14.03
23.52 22.18 19.91 20.00 23.65 25.57 26.93 28.35 29.20 29.57 29.87 28.23 27.66 25.95 25.09 23.19 22.56 21.90 20.64 19.32 18.77 17.82 17.02 16.17 14.07 12.61 12.08 12.75 11.42 10.82 10.00 8.64 6.75 6.43 6.75 7.06 7.65 7.34 7.59 8.84 9.63 10.38 12.42 14.15
25.19 21.91 19.35 18.10 25.68 25.02 25.67 29.02 30.15 27.70 27.17 24.29 21.83 20.97 19.85 18.28 17.37 16.90 15.41 15.61 14.23 12.97 12.21 10.36 9.23 8.36 7.48 6.59 5.46 5.41 5.25 4.27 2.65 2.71 3.37 4.07 4.20 4.46 5.02 5.14 5.65 11.03 13.22 15.43

GFSCGP_sfc_wetblb_021.txt.gz
Wetbulb
47.71 43.88 41.70 45.47 46.89 45.83 44.42 42.57 41.82 44.28 47.24 45.37 44.08 43.79 45.50 47.59 47.83 47.93 49.02 50.02 50.32 50.22 50.90 50.45 50.05 49.99 49.70 49.95 49.93 50.90 51.61 53.02 53.33 54.77 55.77 56.82 57.35 58.82 58.95 59.53 59.46 58.74 57.01 55.19
43.43 40.88 46.04 47.32 46.29 43.22 42.91 41.22 41.11 44.35 46.34 44.57 43.32 42.11 44.53 46.58 47.60 49.04 49.05 49.12 49.18 49.11 48.74 48.09 47.49 47.16 46.59 46.73 47.36 48.18 48.91 50.63 51.66 52.55 54.97 55.30 55.89 57.03 57.58 57.81 57.74 57.52 56.23 54.32
42.31 45.65 46.96 44.25 43.51 42.04 42.57 41.14 41.24 41.03 43.58 43.59 41.99 40.78 45.15 47.15 49.76 49.73 49.17 48.66 47.99 47.06 45.69 45.48 45.27 45.15 45.00 44.65 45.38 46.42 47.43 48.57 49.70 50.48 52.09 52.85 53.46 51.76 52.62 53.84 54.82 54.90 54.80 53.72
44.19 46.25 42.93 42.41 41.04 42.73 38.62 44.30 41.72 40.11 38.60 36.45 42.43 33.76 42.29 46.04 47.28 46.76 47.05 46.53 46.02 45.00 45.00 44.78 44.19 43.76 43.72 43.97 45.27 45.42 45.86 46.38 47.18 48.87 49.50 49.40 49.38 47.76 49.83 50.29 52.07 52.25 52.65 51.94
42.28 41.40 40.32 40.50 41.99 43.31 41.00 42.11 40.66 39.86 38.15 38.74 39.80 36.56 41.42 45.92 43.85 43.87 43.81 44.34 43.87 43.79 43.45 43.01 42.95 42.91 43.52 43.80 43.85 45.10 44.22 44.31 45.39 46.43 47.12 47.20 46.90 47.96 49.12 49.03 48.26 49.71 50.08 49.76
42.84 43.82 42.35 43.10 43.44 42.94 42.55 40.30 40.65 40.63 38.91 33.38 39.86 38.47 39.72 41.70 42.08 42.73 43.09 43.11 43.29 43.23 42.88 42.55 43.05 43.05 42.41 43.62 43.24 43.32 43.01 42.63 43.58 44.02 44.61 44.54 44.58 45.05 45.55 46.77 46.17 47.24 47.30 47.46
43.22 41.71 42.97 42.49 40.09 41.83 39.88 38.07 33.43 32.53 33.56 33.00 40.59 37.20 40.29 44.43 44.03 43.71 42.04 41.61 42.00 42.35 41.95 41.27 40.84 40.93 40.78 40.72 41.82 41.60 41.54 41.15 42.54 42.82 42.29 42.32 42.42 43.11 43.44 44.49 44.81 45.09 45.58 45.52
37.26 35.29 41.06 42.34 41.22 40.65 41.10 39.88 33.81 26.40 29.06 33.56 39.17 34.77 40.16 45.65 43.17 43.05 42.46 41.69 41.19 40.61 40.88 40.17 39.67 39.91 40.17 39.95 40.13 40.26 39.44 38.49 39.62 40.65 40.98 41.65 41.50 41.53 41.91 42.50 42.99 43.40 44.05 45.05
36.85 36.98 44.86 42.29 42.77 41.06 40.30 35.57 41.14 33.77 34.00 31.00 34.95 39.83 44.87 45.37 41.41 41.60 40.92 40.29 38.88 39.29 39.75 39.92 39.85 39.15 39.19 39.27 38.86 39.24 38.53 38.34 37.82 38.39 39.40 40.12 40.18 39.97 39.73 40.27 41.15 41.69 42.40 42.73
40.17 34.23 42.01 41.19 41.84 41.64 38.81 39.88 34.00 34.91 25.88 24.64 31.63 34.42 36.41 40.71 40.61 39.85 38.30 36.98 36.96 37.84 38.53 39.01 39.06 38.29 38.16 38.66 38.89 38.22 37.95 36.50 36.55 37.11 37.72 38.06 38.13 38.82 39.28 39.55 38.82 39.01 39.61 40.30
41.13 37.25 37.11 40.27 38.02 36.83 37.48 35.12 36.49 36.13 33.63 27.10 25.57 31.11 39.43 38.94 39.67 37.18 35.30 35.13 34.95 35.11 35.46 36.76 37.82 37.10 36.66 36.67 36.75 36.53 36.16 35.31 34.83 35.53 36.26 36.55 36.50 36.44 36.20 35.75 36.90 37.63 37.66 38.00
41.16 37.02 31.87 34.22 40.62 42.33 40.18 36.69 37.03 30.32 28.63 31.61 30.02 30.33 41.42 38.67 36.75 35.73 33.99 34.39 34.59 34.82 34.23 34.72 36.51 35.95 34.80 34.58 34.82 34.53 34.55 34.13 33.82 33.97 34.85 34.56 34.49 34.72 33.86 33.67 34.16 35.18 35.70 36.63
40.34 34.38 27.82 30.44 35.49 37.61 35.93 38.05 38.10 36.95 34.73 29.90 27.76 29.84 38.25 36.37 34.47 33.49 32.56 33.68 33.70 33.15 32.19 33.07 33.79 34.69 33.84 33.32 33.45 33.41 33.09 32.84 32.87 32.38 33.06 33.19 32.78 32.34 31.40 31.28 32.42 33.10 33.36 33.75
40.90 34.63 31.14 25.52 29.76 34.60 31.52 33.62 35.57 33.99 28.28 28.95 29.87 30.93 33.68 36.82 35.24 33.81 33.94 33.72 33.32 32.49 32.27 32.29 32.53 33.26 33.90 33.23 32.80 32.68 32.52 32.89 32.52 31.37 31.07 31.10 30.99 31.33 30.63 29.72 29.85 31.22 31.97 31.88
37.00 29.45 31.88 32.69 33.45 33.03 31.54 30.66 31.81 30.31 31.80 27.03 30.08 30.70 33.82 36.12 36.35 33.36 33.73 32.93 32.46 31.84 31.53 31.71 31.80 32.53 33.47 33.17 32.86 32.91 32.59 32.80 32.27 30.82 29.60 29.45 29.89 30.14 29.50 28.49 28.22 30.11 30.39 30.33
35.25 27.37 29.44 25.33 29.70 29.51 27.47 30.50 31.16 31.42 31.34 30.56 30.94 29.87 37.36 34.90 32.51 31.86 31.43 31.30 30.61 31.15 32.42 31.55 31.60 31.96 32.20 32.73 32.28 32.07 32.13 32.29 31.57 29.84 28.13 28.62 28.47 28.04 27.34 27.10 26.39 28.05 28.78 28.47
29.94 27.91 24.94 19.88 25.93 25.20 20.35 25.30 27.94 29.52 31.65 30.81 25.63 29.23 27.90 28.17 28.66 29.33 29.57 29.93 29.92 30.59 31.68 31.74 31.59 32.04 32.31 32.73 32.90 31.64 31.69 31.84 29.96 28.80 27.90 27.22 27.24 26.53 25.99 25.34 24.86 24.90 25.59 26.41
27.03 26.03 25.58 19.66 21.18 12.00 25.40 32.43 31.05 28.10 28.90 30.12 28.36 25.73 26.40 26.86 28.90 29.89 31.18 30.58 30.51 30.96 31.26 32.33 32.81 32.77 33.14 33.33 32.66 32.19 31.06 29.83 28.68 27.98 27.52 26.98 26.69 25.53 25.06 23.72 22.76 23.06 24.19 24.11
29.97 26.19 20.52 16.83 16.70 21.61 24.71 27.58 27.06 25.14 24.19 29.53 28.14 25.93 26.64 28.14 28.62 28.36 32.41 32.15 31.16 31.42 31.94 32.84 34.08 33.59 32.79 31.78 31.51 29.45 28.17 27.73 27.19 26.36 26.42 26.55 25.88 24.23 23.24 20.52 20.42 21.65 21.92 21.88
27.11 27.97 22.24 19.63 13.63 9.99 22.95 28.45 28.29 27.52 17.86 27.81 25.99 24.88 25.35 26.30 19.88 25.28 31.42 31.80 31.45 32.23 32.97 32.62 33.49 33.11 31.32 30.61 29.00 26.56 25.62 25.04 24.39 24.80 24.78 24.99 24.57 22.74 21.42 21.08 19.98 20.49 20.27 20.51
19.06 20.46 18.14 18.21 15.78 19.13 27.84 26.13 28.38 15.27 19.73 27.49 27.62 27.11 26.78 23.77 26.69 30.09 31.66 30.99 32.11 32.22 32.13 33.18 31.57 29.32 28.75 28.19 25.79 23.20 22.97 21.73 23.06 22.85 22.31 21.75 21.87 20.71 20.46 19.85 19.38 18.30 17.44 17.64
18.57 17.03 16.43 16.34 12.12 9.44 27.56 25.01 20.08 26.69 29.06 29.00 28.43 29.08 28.06 29.08 29.25 29.63 30.13 30.32 30.80 30.67 30.51 29.54 27.03 25.95 25.89 24.71 21.91 19.64 18.87 20.67 19.56 17.87 16.75 16.44 16.24 16.55 16.94 15.40 15.19 14.89 14.42 13.42
15.80 21.43 18.73 19.95 19.38 28.19 28.47 27.34 30.69 31.29 28.89 29.59 29.10 30.18 29.94 28.83 28.38 29.14 29.00 29.58 29.42 27.97 25.60 24.41 22.10 20.11 20.47 19.60 18.59 15.54 16.01 15.33 13.49 11.10 9.30 9.40 10.27 10.82 11.59 11.01 11.07 11.33 11.90 11.56
24.54 27.68 21.45 21.16 24.26 26.23 28.45 30.33 31.09 31.50 30.26 31.02 31.19 30.63 29.87 27.90 28.39 27.44 27.09 26.01 24.45 23.27 21.06 19.83 17.06 15.14 14.05 15.07 14.50 12.84 12.00 10.66 7.08 4.88 5.08 5.98 5.52 6.07 6.76 8.04 8.71 8.07 8.15 8.18
25.78 25.92 22.59 22.12 25.24 26.98 28.28 29.55 29.95 30.27 30.90 30.13 30.53 29.47 28.22 27.44 25.66 24.70 22.85 20.70 20.02 18.65 17.25 15.87 13.12 11.70 11.05 11.53 10.06 9.10 8.34 6.50 4.07 3.42 3.66 3.84 4.53 4.39 4.67 5.65 5.53 5.78 7.28 8.08
26.95 24.19 21.34 19.85 27.02 26.50 27.30 30.53 31.45 29.52 29.12 29.74 28.49 25.44 22.82 21.46 20.60 19.70 17.78 17.55 15.88 14.05 12.72 10.96 10.01 8.79 7.82 7.07 6.10 5.88 5.51 4.19 2.27 1.92 2.65 3.25 3.34 3.63 4.13 3.84 3.95 9.69 11.61 13.17

GFSCGP_sfc_wetblb_024.txt.gz
Wetbulb
44.99 39.65 37.16 41.05 42.53 42.91 39.39 38.75 37.75 40.73 44.18 41.41 40.73 40.48 42.17 44.80 44.82 44.40 44.43 44.26 44.33 43.97 44.67 44.57 44.28 43.50 43.59 43.92 44.41 44.91 45.17 46.18 47.97 49.01 49.87 51.03 52.15 53.93 54.68 55.39 56.16 56.50 54.95 53.14
40.77 37.19 43.58 45.15 44.22 41.93 40.17 37.37 36.78 40.58 43.51 40.69 39.49 38.61 42.02 43.70 44.12 44.81 43.78 43.52 43.03 42.61 42.63 43.35 42.38 41.79 41.57 41.68 42.47 43.43 44.40 44.91 46.11 46.65 48.86 49.26 49.66 50.15 52.61 53.79 53.98 55.39 54.45 52.62
39.29 43.01 46.13 43.74 40.97 39.92 39.15 37.51 37.52 37.34 39.94 39.96 36.94 35.67 39.40 44.45 44.61 44.40 44.31 43.27 42.34 41.34 40.79 40.53 40.43 40.01 40.19 40.30 40.69 41.82 42.65 43.54 44.82 45.34 46.78 47.10 47.53 45.93 45.54 48.08 49.25 51.09 53.01 51.94
41.53 44.09 42.54 40.63 39.68 40.56 36.00 41.44 39.88 37.89 33.77 30.11 38.19 29.04 35.51 41.44 41.94 41.77 41.55 39.91 39.58 40.05 40.48 40.48 39.58 39.09 39.16 39.60 40.49 40.94 41.34 41.84 43.52 43.80 44.22 43.58 43.36 42.34 43.29 44.86 46.49 47.67 49.03 49.07
39.63 38.62 37.77 38.23 39.96 41.35 38.47 39.50 37.59 35.97 33.10 31.31 33.74 29.88 34.74 40.74 38.11 38.04 38.75 39.24 38.96 38.98 38.95 38.63 38.33 39.35 39.80 39.58 38.88 38.85 39.84 40.62 40.84 40.54 41.03 40.70 40.67 41.47 42.38 42.51 41.60 42.89 44.98 46.03
39.96 40.53 39.59 40.20 40.71 40.50 40.18 36.75 36.87 35.30 32.65 25.96 34.40 33.09 32.80 35.84 37.02 37.21 38.88 39.12 39.24 38.57 38.10 38.30 38.81 38.81 37.69 38.00 37.44 37.53 37.88 38.66 39.86 39.59 38.92 38.14 37.74 38.26 38.61 39.25 39.23 40.33 41.76 42.58
38.81 39.02 39.97 40.38 36.30 38.04 36.26 32.82 26.68 25.38 24.09 25.33 35.15 31.62 34.93 38.75 39.85 39.65 38.61 37.47 37.46 37.38 36.10 35.91 36.09 36.40 36.69 35.90 36.23 36.77 35.84 35.51 36.87 37.49 37.60 37.42 37.14 36.73 37.00 36.89 37.13 37.40 38.30 39.55
33.24 31.96 37.93 39.19 37.50 35.84 36.36 35.71 27.77 19.15 20.54 25.69 32.15 27.57 34.70 39.98 39.94 40.00 39.10 37.61 37.28 36.34 36.67 35.57 35.53 35.18 35.46 35.85 35.65 35.50 35.40 34.71 35.00 35.11 35.90 36.39 36.72 36.79 36.74 36.35 36.16 36.37 36.62 37.37
32.72 32.59 38.51 39.16 39.09 38.60 35.08 32.07 36.66 29.00 24.25 22.41 29.13 33.93 39.80 39.24 37.44 37.30 36.57 35.53 34.75 35.65 36.04 35.77 35.07 34.37 34.58 34.55 34.22 34.35 33.42 33.02 33.09 33.81 34.33 34.40 34.58 34.13 33.96 35.12 35.36 35.55 35.66 37.45
38.66 31.98 39.45 37.91 38.73 36.94 35.38 36.87 29.51 30.87 24.41 18.28 26.04 26.81 30.70 35.21 35.54 36.35 34.02 33.01 33.73 34.34 34.34 34.98 34.12 33.54 33.59 33.56 33.70 33.42 33.14 31.94 31.73 32.42 33.12 33.48 33.14 33.29 32.76 32.51 32.21 33.14 34.66 35.18
39.17 36.03 33.85 37.10 34.73 33.39 32.94 32.36 33.54 33.59 29.53 22.03 21.59 25.57 35.48 34.64 35.55 32.20 32.24 32.81 32.47 32.76 32.13 33.19 34.16 33.15 32.78 32.54 31.92 31.25 31.96 31.11 30.37 31.43 32.34 31.61 31.00 31.14 30.66 29.95 30.61 31.27 31.98 33.14
39.08 35.39 27.13 31.64 37.51 38.46 36.41 34.50 34.46 27.38 24.50 28.06 28.23 27.57 37.29 35.28 34.21 33.82 33.18 34.22 33.78 33.70 32.48 31.93 33.46 32.49 31.27 31.42 30.62 31.41 31.58 30.22 30.82 30.54 30.21 30.66 30.69 30.07 28.60 28.20 28.52 29.12 30.16 30.97
38.27 31.23 22.10 23.45 29.60 36.26 34.10 35.66 35.19 34.08 32.53 28.56 25.39 26.16 35.77 34.58 32.57 33.17 34.52 34.15 34.70 33.75 31.23 31.72 31.81 31.34 31.05 31.07 31.04 30.71 30.51 30.40 30.67 29.62 29.04 28.60 27.51 27.47 27.00 25.90 26.23 27.21 28.52 28.42
39.98 31.95 25.46 20.38 25.28 31.08 26.57 30.24 31.63 30.60 26.23 23.93 24.79 27.12 33.03 34.60 35.39 35.28 34.34 33.71 32.16 32.08 30.59 30.18 29.01 29.27 30.89 31.00 29.92 30.20 30.50 30.72 30.32 29.51 28.25 26.53 26.12 26.10 26.25 26.01 25.41 24.85 26.19 26.84
36.27 26.22 29.56 30.59 31.23 30.40 28.07 27.48 28.80 26.90 27.92 23.56 25.99 26.49 31.21 34.21 33.41 28.62 28.58 30.25 30.94 30.89 30.10 28.95 28.49 28.10 28.41 28.97 29.21 29.53 29.04 28.78 28.37 27.53 26.77 26.35 26.48 26.15 25.65 25.14 24.20 24.23 24.45 26.50
33.72 20.43 25.37 18.87 26.42 26.67 24.03 26.19 26.34 26.23 26.57 26.86 27.77 27.01 34.06 29.35 28.93 28.42 29.53 29.28 28.47 28.22 29.02 29.77 29.39 29.14 29.00 29.58 29.40 29.78 28.52 27.75 27.25 25.21 24.64 26.00 25.20 25.08 23.94 23.31 23.70 23.30 23.32 23.64
26.23 21.48 12.82 11.74 22.38 20.07 11.82 21.11 23.38 24.58 26.96 26.37 21.50 24.63 23.59 24.08 26.45 25.37 25.21 27.14 27.49 28.19 28.51 28.62 29.21 28.97 28.87 28.74 29.74 28.22 28.21 27.28 23.67 22.71 23.40 23.81 23.94 23.73 24.49 23.94 23.31 22.70 21.76 21.74
23.55 18.32 16.58 10.17 10.77 1.94 20.57 26.89 26.07 23.67 25.11 23.89 22.55 19.39 21.94 23.57 24.65 25.20 27.06 26.67 27.38 27.91 27.36 27.98 28.40 28.97 29.34 28.89 27.96 27.56 26.38 24.06 24.21 23.42 22.89 23.13 23.82 22.99 23.31 22.34 21.87 22.04 21.38 20.58
28.47 24.05 17.52 8.22 5.43 16.07 21.12 23.73 23.29 19.30 19.72 23.45 21.14 23.51 23.58 24.50 23.48 23.28 28.11 27.94 26.38 26.61 28.15 28.04 28.22 28.76 28.02 26.93 25.50 24.30 23.37 23.45 23.30 23.07 23.01 22.51 21.53 20.98 21.64 21.03 21.07 21.25 20.52 19.93
24.34 24.97 17.72 6.00 4.58 -1.37 17.40 23.01 26.03 24.31 13.32 20.79 19.22 18.18 20.63 22.11 14.24 18.00 26.37 26.97 26.85 27.74 28.16 27.75 27.60 27.52 25.80 24.42 24.17 22.30 21.25 19.81 19.99 20.87 21.13 20.71 19.88 18.50 18.06 18.73 18.82 19.52 19.15 19.16
8.00 8.45 13.23 13.90 10.18 12.32 20.37 22.54 25.34 7.66 13.71 20.71 20.30 21.07 21.47 19.79 21.69 25.10 26.88 26.88 27.60 27.19 25.82 26.25 24.55 24.17 23.60 22.93 20.69 18.76 18.26 17.00 18.04 17.15 16.19 14.91 14.39 13.06 13.10 13.25 13.82 13.75 13.74 14.84
13.06 7.04 5.20 5.35 3.34 7.66 22.74 21.52 16.53 21.58 25.56 24.96 24.79 24.68 24.31 24.58 25.42 25.81 26.01 25.37 25.59 24.33 23.78 23.50 22.26 22.02 21.29 19.61 17.26 15.25 14.16 15.75 13.68 11.92 10.23 8.63 7.41 7.71 8.90 7.10 7.68 8.18 8.56 8.41
10.86 16.90 10.03 14.32 12.42 23.88 24.73 24.07 26.49 27.05 23.32 24.90 25.09 26.00 25.36 24.55 24.15 24.78 24.35 24.08 23.83 22.07 22.40 20.83 15.98 16.01 16.98 13.68 13.05 11.15 11.70 11.31 9.57 6.37 4.13 3.69 4.36 4.89 5.17 3.77 3.71 3.61 4.55 4.51
19.65 22.78 18.36 16.23 21.44 23.29 26.00 27.72 27.61 27.67 26.35 26.90 26.38 25.50 25.04 24.01 24.77 25.31 25.09 24.03 22.25 19.34 16.91 15.32 12.03 9.73 9.32 10.11 11.61 7.24 8.82 8.09 4.35 1.96 2.26 3.23 2.77 2.55 3.17 4.43 4.76 3.33 2.88 2.57
21.70 20.83 18.45 19.32 23.41 25.07 26.24 26.94 27.81 28.08 28.24 26.80 26.55 26.30 25.52 24.52 24.76 24.38 21.39 18.99 18.29 16.50 14.92 12.00 9.19 9.01 8.53 8.90 7.40 4.85 6.40 3.96 2.07 1.85 2.30 2.11 2.51 2.00 2.15 3.24 3.19 3.94 5.72 6.62
25.09 22.60 19.62 17.91 24.56 24.48 25.22 26.74 27.16 26.35 25.92 25.62 24.89 23.50 22.27 22.11 21.34 19.61 17.85 16.92 14.86 12.62 10.99 8.67 6.96 6.28 5.34 4.02 3.59 3.31 0.17 -0.12 0.54 1.21 1.73 1.18 0.89 0.95 1.59 1.39 1.87 8.88 11.57 13.35

GFSCGP_sfc_wetblb_027.txt.gz
Wetbulb
41.18 35.95 33.37 36.66 37.88 38.21 35.86 34.75 33.59 37.08 41.62 37.92 38.36 37.56 40.10 42.62 41.84 41.61 39.15 39.29 39.02 39.58 40.89 40.93 40.89 40.53 40.66 40.60 41.02 41.77 42.58 43.61 44.94 45.96 48.28 49.66 50.77 52.53 53.40 56.14 57.34 57.42 57.09 55.57
37.48 34.25 40.21 41.14 40.85 39.48 36.98 34.52 34.02 37.46 40.68 37.91 37.26 36.66 39.90 41.75 40.61 40.55 39.73 38.27 38.30 38.79 38.93 39.53 39.30 39.13 38.82 38.85 39.33 40.09 41.01 42.18 43.43 44.93 45.08 46.86 46.28 46.09 49.13 51.91 52.87 55.39 55.17 54.59
35.53 39.46 42.98 41.42 39.28 37.46 35.38 34.11 34.26 35.30 36.79 36.96 34.21 33.62 37.61 40.78 40.10 40.17 39.51 39.55 39.14 37.84 37.26 37.48 37.92 37.48 37.94 37.71 37.92 39.29 39.81 40.31 40.86 42.60 44.09 44.20 44.77 44.06 43.52 45.36 47.87 50.67 52.74 52.27
37.56 41.46 40.90 39.04 37.91 38.54 33.91 38.23 37.54 36.26 32.01 28.00 34.46 25.57 33.82 37.92 37.07 37.29 37.23 36.12 36.15 36.66 37.23 37.32 36.69 36.67 36.55 36.17 37.30 38.18 39.26 39.43 40.00 39.83 39.73 39.27 39.48 39.06 40.15 41.20 41.96 44.18 46.88 47.95
37.68 37.44 35.92 36.15 38.10 39.40 36.32 37.19 35.36 34.33 30.79 28.21 30.38 26.24 31.86 35.42 33.53 34.43 34.97 35.42 35.36 35.81 35.96 35.43 35.21 36.34 36.45 35.66 34.88 35.49 37.01 37.89 38.63 38.46 37.90 37.43 36.86 37.81 38.52 39.29 39.20 40.14 42.58 44.27
37.35 38.29 38.11 38.51 39.14 38.55 38.30 34.79 34.33 31.67 29.76 23.83 29.99 29.98 30.22 33.05 34.76 34.42 35.45 35.30 35.24 34.80 34.67 35.10 35.89 35.98 34.63 34.52 33.93 34.68 34.80 35.29 36.43 37.14 36.79 36.09 35.27 35.47 35.49 35.73 36.02 37.01 38.26 40.32
35.29 36.59 37.20 38.69 34.49 36.79 35.47 31.24 25.07 22.55 21.05 22.70 31.20 28.40 32.41 36.45 36.76 36.78 34.21 33.45 33.47 33.50 32.98 33.32 33.15 33.15 33.35 33.10 32.91 34.23 33.08 33.10 34.20 34.63 34.69 34.32 34.51 34.69 34.55 34.48 34.46 34.25 34.94 35.49
30.85 29.88 35.76 37.48 36.53 34.43 33.42 33.68 25.24 16.36 19.77 21.67 30.90 25.85 31.60 34.92 35.86 35.71 35.25 34.41 34.57 34.06 33.50 32.79 32.86 32.51 32.48 32.22 31.87 31.43 31.29 31.09 32.27 32.76 32.72 32.76 32.76 32.60 32.75 33.06 33.32 33.53 33.74 34.52
31.13 31.10 36.18 37.67 37.81 38.70 33.58 30.93 35.00 28.17 19.18 20.01 26.68 31.46 34.71 35.02 33.67 33.54 33.14 33.00 32.93 33.76 33.16 32.57 32.62 32.42 32.31 31.79 31.49 30.93 30.23 30.18 30.67 31.14 31.26 31.02 31.59 31.90 31.58 31.50 31.84 31.82 32.22 33.92
35.84 29.92 36.65 35.14 37.20 36.15 35.25 35.95 28.33 27.73 15.11 15.20 24.38 25.74 27.67 31.36 30.94 31.86 31.19 30.85 31.77 32.17 33.90 33.65 32.50 32.78 32.33 32.05 31.16 31.34 30.79 29.70 29.72 30.72 30.98 30.59 30.18 30.21 29.91 29.96 29.28 29.80 30.75 31.14
37.84 34.70 32.27 34.65 33.72 33.08 32.10 30.98 31.68 31.54 28.41 20.17 17.38 23.70 33.69 33.26 31.91 30.11 30.36 31.16 31.13 31.28 31.60 32.62 31.17 30.82 31.17 30.85 30.67 31.89 31.79 30.73 29.44 29.72 30.11 30.07 29.86 29.98 29.05 28.75 28.23 27.89 28.42 29.68
37.08 34.43 25.22 31.19 35.44 35.84 35.19 32.79 32.67 25.72 23.21 24.86 26.30 26.92 35.62 33.49 32.30 32.20 31.58 32.50 32.05 31.75 30.63 31.05 32.06 30.34 30.03 30.39 30.50 28.88 29.09 29.36 29.33 29.86 30.03 30.23 30.27 29.69 28.51 26.91 27.73 26.93 26.74 27.46
37.74 29.51 17.72 22.94 28.67 34.76 32.51 33.80 33.18 32.68 31.72 25.88 23.95 24.02 34.09 32.61 31.72 32.33 31.53 31.58 31.58 30.36 28.26 29.06 29.41 29.75 28.92 29.09 28.78 28.52 29.60 29.19 29.38 28.01 27.36 28.04 27.19 26.10 26.11 26.84 27.16 27.22 25.42 24.63
39.88 32.46 23.87 20.73 23.19 29.56 25.90 28.17 28.70 30.19 22.41 18.83 21.63 23.26 30.34 31.87 31.44 32.79 32.62 33.66 32.22 29.93 28.15 27.69 27.23 27.62 28.09 28.17 27.46 27.09 27.54 28.18 28.74 26.99 26.42 25.12 24.70 25.54 25.42 26.09 25.35 25.54 25.53 24.34
35.25 24.74 28.60 29.50 29.29 27.69 26.90 26.48 27.25 24.99 26.25 21.54 25.03 24.99 29.08 31.50 29.28 28.32 28.09 29.96 30.90 29.47 28.31 27.53 27.04 26.66 27.04 27.19 27.51 27.87 27.45 27.55 27.16 26.42 25.57 25.14 25.07 25.21 24.79 24.56 24.74 24.93 24.47 24.15
33.46 20.39 24.93 17.86 26.39 26.37 23.36 25.64 25.77 25.67 25.44 24.72 25.21 24.30 31.53 26.39 25.89 26.41 27.22 27.53 27.15 26.85 27.54 27.62 27.62 27.67 27.76 28.00 27.60 28.12 27.51 26.85 26.52 25.08 24.02 25.19 24.69 25.55 25.62 25.51 25.58 24.72 24.31 23.44
27.04 22.20 13.42 9.96 22.47 18.76 11.86 20.68 23.38 24.40 25.32 23.14 18.84 23.32 20.72 23.00 25.53 24.06 24.00 24.63 25.62 26.89 26.98 26.64 27.12 27.17 26.61 26.75 27.65 26.77 26.36 25.82 22.78 21.42 22.10 22.93 23.89 24.00 24.42 24.38 23.89 23.48 22.99 23.17
23.71 17.57 13.09 5.55 7.54 3.91 19.96 24.38 23.71 22.80 23.82 20.60 19.75 17.64 20.47 23.04 24.12 25.11 26.24 24.58 25.25 26.42 27.09 26.84 26.48 26.62 26.59 27.16 26.05 25.53 24.83 22.83 23.04 21.66 20.03 20.39 22.05 21.04 21.21 20.97 20.50 20.59 20.88 20.59
28.30 23.29 9.38 7.96 3.37 12.74 20.08 21.84 21.01 18.99 18.26 20.66 18.99 21.56 24.14 23.10 21.79 20.90 25.55 25.66 25.69 26.28 26.97 26.46 26.52 27.14 25.76 24.16 23.46 23.04 21.96 22.04 21.61 20.77 20.39 19.58 17.95 16.38 16.31 14.64 15.00 15.97 16.28 16.69
24.92 25.83 18.52 -1.59 4.22 0.45 15.70 20.92 24.73 23.20 12.16 17.83 15.59 18.01 19.21 21.95 13.86 16.87 25.23 26.85 26.96 27.00 26.61 26.35 26.31 25.50 23.40 21.76 21.95 20.31 19.47 17.33 17.00 18.30 17.28 16.18 14.61 11.51 10.73 11.10 10.34 11.12 11.13 12.29
5.88 4.10 15.49 15.04 9.94 9.09 18.26 21.46 24.40 7.23 13.43 17.44 18.91 19.72 20.77 19.26 20.89 23.86 25.54 25.53 26.62 26.36 25.72 24.47 23.28 22.66 21.28 20.22 18.42 16.54 15.99 14.27 15.16 14.10 12.83 11.44 10.68 8.16 7.36 7.23 7.66 6.92 6.49 7.78
12.27 7.89 3.45 1.02 -1.64 6.34 23.10 20.68 16.45 20.96 24.56 23.86 22.87 23.45 23.47 23.88 24.62 24.42 25.17 24.58 24.92 24.33 22.96 22.72 21.46 20.53 19.77 17.72 15.39 13.61 12.28 13.68 11.13 9.03 7.66 6.28 4.79 4.86 6.23 3.50 3.80 3.66 3.34 2.80
11.75 16.00 9.61 13.69 12.01 22.24 23.18 23.43 25.65 25.79 22.72 24.16 23.85 24.69 24.31 23.88 23.52 24.17 23.79 24.06 23.71 22.75 22.77 19.65 15.58 15.42 15.82 12.38 11.67 9.41 9.82 9.28 7.67 1.23 -0.18 1.20 2.87 3.70 3.82 1.97 1.86 1.91 2.65 2.46
18.37 20.52 17.08 14.86 19.79 21.87 24.02 24.54 25.70 25.89 25.43 26.18 25.61 24.96 24.12 23.18 24.20 24.68 24.64 24.02 22.75 18.94 16.78 14.49 11.23 8.75 7.61 8.64 10.59 6.14 6.31 5.82 -4.57 -6.42 -0.03 2.44 2.27 2.05 2.32 3.39 3.24 1.73 1.42 1.37
21.02 20.02 16.87 17.58 22.49 23.65 24.29 24.52 26.18 26.21 25.88 25.55 25.50 25.21 24.45 23.55 24.53 24.80 23.39 20.81 18.85 16.39 14.36 11.10 8.90 8.28 7.25 7.43 4.82 1.43 4.32 -1.21 -2.10 -0.52 1.82 1.86 2.24 0.81 0.97 2.00 1.64 2.62 4.66 5.96
24.58 22.29 19.18 17.58 24.64 23.48 25.08 27.11 26.68 25.28 25.42 25.60 24.56 23.54 23.95 23.97 23.56 21.50 18.63 17.59 15.37 13.39 12.26 10.25 7.85 6.00 3.16 0.14 -0.35 -1.29 -3.84 -6.23 -5.20 -0.56 1.59 1.46 1.58 1.30 1.62 0.84 1.00 8.25 10.82 12.82

GFSCGP_sfc_wetblb_030.txt.gz
Wetbulb
39.78 35.20 32.44 35.41 37.11 36.02 34.29 33.16 32.75 35.30 40.16 36.19 36.75 36.11 39.68 41.23 40.85 37.25 36.03 36.51 36.63 36.72 38.39 38.70 38.57 38.27 38.27 38.57 38.99 39.27 39.75 40.48 43.02 43.24 45.92 47.85 48.92 49.36 53.13 54.69 56.23 57.88 57.77 55.25
36.47 33.14 39.10 39.11 38.26 36.86 34.90 33.22 32.87 36.28 38.59 36.35 35.83 36.13 39.14 38.81 37.52 36.57 36.01 35.63 35.80 35.92 36.29 37.15 36.78 36.35 36.34 36.48 37.70 38.43 38.73 38.89 39.95 41.78 42.15 44.16 43.77 43.59 45.05 47.52 49.72 51.10 54.52 55.10
34.97 38.90 41.29 39.62 37.47 36.00 34.49 33.19 33.07 34.54 35.84 35.25 33.12 32.82 36.12 36.05 37.26 37.84 37.07 36.54 35.98 34.85 34.40 34.55 34.60 33.94 34.19 34.09 34.91 37.11 37.89 38.24 38.24 39.34 40.75 41.26 41.42 41.15 41.22 41.38 42.86 45.28 48.14 49.73
36.02 40.14 39.24 36.97 36.39 37.51 33.28 37.80 36.68 34.73 31.26 28.15 32.71 24.29 32.35 34.40 33.97 34.69 34.30 33.14 33.14 33.49 34.09 34.41 33.87 33.40 33.29 32.67 33.74 35.38 36.52 36.96 37.73 37.77 37.42 36.65 36.35 35.73 36.23 37.42 38.27 39.87 41.38 41.82
36.96 36.16 35.27 35.39 37.19 38.66 36.11 36.85 34.79 32.88 29.89 27.37 27.43 25.08 29.47 33.34 31.41 31.66 31.98 32.81 32.76 33.04 33.05 32.74 32.74 33.87 33.39 32.86 32.14 33.08 34.68 35.04 35.44 35.56 35.96 35.58 34.71 35.18 35.57 35.78 35.63 36.19 37.22 37.73
37.03 37.29 37.48 37.70 37.36 37.34 37.59 34.17 33.16 29.93 28.40 22.85 27.88 27.76 28.74 31.23 33.20 31.85 32.30 32.26 32.77 32.46 32.36 32.72 33.25 33.04 31.71 31.01 31.00 31.58 32.81 33.00 33.73 33.50 33.02 32.48 32.16 32.36 31.94 32.63 33.00 33.84 34.80 35.46
33.47 35.20 36.13 37.28 34.04 34.87 34.08 31.22 24.96 21.58 20.54 22.64 29.75 26.39 30.35 32.37 34.36 34.37 31.45 30.87 31.21 31.44 31.05 31.11 30.94 30.48 30.52 29.77 29.44 31.22 30.87 30.77 31.77 31.85 31.55 31.09 30.52 30.26 30.13 30.32 30.39 30.83 31.48 32.65
30.37 29.37 35.10 36.72 35.53 33.80 31.77 32.20 24.71 15.62 18.77 22.22 28.05 24.73 28.84 32.05 33.18 33.38 33.06 32.30 32.31 31.36 31.53 31.17 31.37 31.02 30.72 30.17 29.10 28.90 29.40 29.65 30.65 30.36 30.12 30.13 29.76 29.54 29.65 29.52 29.66 29.80 30.10 30.98
29.60 30.45 34.54 35.32 36.09 37.46 32.45 29.75 32.87 27.04 15.36 19.04 25.98 27.86 32.09 32.21 31.01 31.43 31.51 31.99 31.58 31.54 31.23 30.98 31.19 31.28 30.93 30.78 29.88 29.40 28.30 28.26 29.12 29.37 29.24 29.41 29.04 28.08 28.27 28.26 28.83 29.51 30.01 30.71
34.89 29.27 35.08 34.75 36.46 34.73 33.75 35.48 27.48 26.43 14.78 16.16 22.89 24.97 26.34 28.54 28.88 30.47 30.47 30.80 31.40 31.95 31.56 30.87 30.43 30.37 30.46 30.55 30.20 30.19 29.37 28.10 28.93 29.05 29.34 29.16 28.37 28.98 27.18 26.18 25.46 25.62 27.02 28.17
37.15 33.14 30.47 33.65 32.57 31.97 30.45 29.58 30.07 30.00 25.45 16.47 14.07 22.09 30.75 31.72 31.29 30.20 31.15 31.59 30.49 30.65 31.27 30.41 29.81 30.72 30.77 30.03 30.06 29.77 28.63 28.33 28.14 27.83 28.16 28.73 27.80 27.59 27.47 26.57 26.48 25.24 25.15 25.29
36.50 33.86 24.18 30.24 32.93 33.79 32.61 30.98 31.04 23.60 21.08 23.11 23.94 24.97 34.70 34.33 32.84 32.06 31.33 31.78 31.07 30.41 29.89 29.90 28.21 28.15 27.76 27.33 26.89 27.04 27.97 27.82 27.96 28.20 27.94 27.77 27.33 26.15 25.41 25.26 25.58 26.22 25.80 25.99
36.55 28.18 16.31 22.74 28.16 32.87 29.87 31.90 31.35 30.92 28.61 19.58 20.79 23.48 33.27 31.96 30.86 31.51 31.35 30.85 30.98 30.01 27.18 28.71 27.59 26.82 26.80 26.76 26.86 26.68 26.85 27.18 27.61 26.97 25.96 25.71 25.24 24.77 24.75 25.08 25.46 25.54 25.20 24.89
39.26 29.79 25.03 22.61 22.86 28.90 26.30 28.65 29.44 29.44 21.18 21.21 24.62 25.03 29.57 30.34 30.08 30.05 30.86 31.31 30.70 28.83 27.18 26.85 26.99 27.61 27.11 27.07 26.26 25.49 26.09 26.63 26.57 26.25 25.58 24.72 24.33 24.51 24.52 24.82 24.69 24.29 24.37 24.54
36.26 29.60 28.88 28.68 29.74 29.20 28.08 27.80 27.45 25.98 25.90 21.35 24.99 23.74 28.55 29.15 27.96 28.06 28.47 29.25 31.90 28.80 26.45 26.05 25.60 25.64 26.04 25.95 25.63 25.99 26.07 26.13 26.00 25.27 25.09 24.66 24.86 24.65 24.15 23.69 23.33 23.72 23.69 24.05
32.55 22.91 26.03 20.19 27.17 27.56 24.56 26.91 25.75 26.69 26.75 25.64 26.28 24.83 31.30 29.32 25.18 25.10 26.64 27.97 29.17 28.00 27.81 26.90 26.77 26.11 25.98 26.15 26.05 26.54 25.87 26.08 25.76 23.87 22.61 23.98 23.13 23.29 23.42 23.05 23.31 22.91 22.63 22.03
29.34 23.29 16.64 14.40 21.01 18.29 11.99 19.13 23.72 24.76 24.79 23.90 19.44 23.90 20.45 23.49 26.01 25.36 25.14 24.99 25.40 25.92 26.38 26.32 26.55 26.05 26.27 25.94 26.52 25.46 25.35 24.74 21.52 20.11 18.72 19.51 20.52 20.23 20.52 19.94 19.49 18.83 17.99 18.36
25.11 20.11 19.08 9.93 8.02 1.66 21.02 22.43 22.81 22.77 23.88 20.97 19.72 17.44 20.66 24.07 24.65 24.69 24.26 24.42 25.09 25.54 26.05 26.03 25.48 25.35 26.00 25.74 25.15 24.58 23.86 21.84 21.31 18.91 16.63 17.26 18.35 16.08 16.12 15.20 14.27 14.24 14.56 14.25
27.80 23.83 15.78 11.65 5.83 13.25 20.69 21.70 20.04 18.92 18.38 20.79 20.07 19.96 24.07 23.73 21.27 20.18 24.83 24.83 24.79 25.01 26.22 25.93 25.97 25.05 24.59 23.49 22.97 21.94 20.66 20.67 19.16 18.33 18.22 16.41 14.03 11.59 12.09 9.70 10.26 10.86 10.28 10.07
25.82 25.44 19.72 2.73 -0.29 1.39 16.71 19.42 22.78 22.51 11.01 15.84 16.74 18.87 19.13 21.19 13.51 18.17 23.96 26.18 26.04 26.33 26.18 25.77 25.55 25.06 22.36 21.22 21.27 19.08 18.01 15.98 15.71 16.53 14.98 13.61 12.19 6.26 7.72 8.30 7.21 7.96 7.43 8.43
10.52 18.42 16.81 13.90 1.59 7.71 18.22 21.38 23.21 8.08 13.62 15.22 17.88 20.39 19.52 18.57 22.47 23.87 25.06 24.89 25.99 26.34 25.70 25.20 23.94 23.27 21.29 19.56 17.55 15.81 15.10 13.38 13.86 12.62 11.27 9.57 9.11 6.69 5.83 5.56 6.05 5.01 4.34 5.54
12.39 9.99 9.10 8.72 8.26 4.79 21.99 20.77 16.36 21.71 23.03 23.35 22.34 23.33 22.98 24.35 24.70 24.53 24.53 24.16 24.76 23.97 24.03 23.60 22.13 20.29 19.09 16.79 14.81 12.86 11.86 12.59 9.50 7.61 5.98 4.63 2.06 3.01 5.36 1.64 2.46 2.39 1.90 1.26
12.47 16.30 9.85 13.57 12.31 22.45 23.24 23.95 26.24 25.40 22.75 24.04 23.55 24.12 24.45 24.06 23.42 23.96 23.70 23.87 24.03 23.64 23.76 22.26 18.51 16.84 15.77 12.96 11.58 9.92 9.83 8.42 6.60 -0.43 -3.55 -3.01 -0.03 2.60 3.00 0.52 1.14 0.91 0.99 0.49
17.67 20.05 16.17 14.40 19.15 21.13 23.84 26.46 25.39 25.61 25.20 26.17 26.62 25.57 24.06 23.37 24.35 25.04 24.52 24.28 23.35 20.88 18.52 14.63 12.49 10.47 9.94 10.95 11.75 8.79 5.75 5.20 -5.81 -10.58 -3.85 -0.09 -0.34 0.55 0.45 2.81 2.90 0.60 -0.40 0.16
18.80 19.24 15.54 15.80 21.34 22.44 22.95 23.95 25.57 26.53 25.36 25.92 25.53 25.71 25.06 23.90 24.67 24.52 24.00 22.25 21.32 18.71 15.39 12.83 10.74 9.71 9.53 9.15 7.78 4.32 3.70 -2.21 -4.86 -4.46 -0.44 -0.16 0.14 -2.35 0.90 1.94 1.92 2.57 4.71 5.98
22.07 22.01 18.14 16.41 24.82 24.00 24.65 25.86 26.06 24.78 25.17 25.49 25.03 23.96 23.25 23.58 23.66 22.93 22.09 20.92 18.62 15.15 12.01 9.57 8.23 7.46 6.99 5.28 4.31 2.14 0.21 -5.81 -8.39 -3.03 -0.27 0.29 0.79 1.06 1.62 0.89 0.65 8.05 10.67 12.86

GFSCGP_sfc_wetblb_033.txt.gz
Wetbulb
38.49 34.15 32.03 35.16 36.37 34.66 32.62 31.45 31.16 33.39 38.62 35.19 35.54 35.21 38.54 39.16 35.45 33.70 33.78 33.82 34.16 34.67 36.38 36.24 35.77 35.37 35.83 36.46 37.12 37.45 37.82 38.63 40.92 41.92 43.34 44.81 42.80 43.30 43.88 46.46 47.69 50.36 52.74 54.95
35.42 31.92 37.83 37.53 36.54 35.48 32.88 30.79 31.51 35.27 37.18 35.51 35.19 35.65 35.99 35.28 34.50 34.19 33.75 33.08 33.25 33.40 33.58 34.28 33.82 33.43 33.35 33.84 35.52 36.42 36.87 37.20 38.27 39.49 39.87 41.63 40.74 40.58 40.69 42.40 43.15 43.75 45.36 47.43
34.19 37.83 39.79 38.27 35.59 34.46 32.97 31.73 31.98 33.86 34.15 33.46 31.47 31.82 33.20 34.02 34.66 34.86 34.20 33.91 33.46 32.37 31.93 32.09 32.17 31.36 31.66 32.03 32.66 34.87 35.62 36.38 36.93 38.12 38.82 38.99 38.81 37.75 37.35 37.52 38.57 39.08 39.98 39.80
34.96 38.73 38.36 35.61 35.26 36.44 32.10 36.69 35.89 33.66 30.81 28.28 31.60 24.75 30.21 31.73 31.54 32.24 32.10 30.91 30.87 31.26 32.01 32.22 31.28 30.61 30.42 30.54 31.51 33.34 33.98 33.96 35.18 36.53 36.26 35.24 34.02 32.90 33.44 34.63 35.42 36.23 36.69 36.05
35.82 35.86 34.26 34.39 36.05 37.85 35.45 35.73 33.96 31.77 28.79 26.83 27.26 25.10 27.61 30.95 29.19 29.62 30.14 30.85 30.57 30.99 30.98 30.66 30.52 30.94 30.19 30.12 29.31 30.46 32.27 32.33 32.24 32.49 33.00 32.34 30.81 31.69 31.53 31.85 31.76 32.64 33.77 33.82
36.64 36.54 36.37 37.08 35.53 37.21 36.58 33.47 32.11 29.00 27.73 22.59 27.57 27.80 26.52 29.61 31.05 30.08 30.84 30.57 31.17 30.77 30.53 30.54 30.78 30.68 28.99 28.72 28.90 29.46 30.50 30.51 30.87 30.69 30.47 29.67 28.89 28.86 28.87 28.90 28.99 29.83 30.97 31.32
32.63 34.34 35.00 36.31 33.53 33.94 33.24 30.78 24.68 21.97 20.63 22.76 27.30 25.25 28.72 30.82 31.45 32.99 30.63 29.88 30.21 30.60 29.84 29.76 29.24 28.70 28.00 27.36 28.01 29.76 29.26 28.74 29.09 29.21 28.77 28.60 27.80 27.56 27.34 27.68 27.85 27.79 28.09 28.72
29.38 28.83 34.67 35.86 35.13 32.70 30.96 31.64 25.17 16.29 17.88 21.77 27.06 24.82 29.30 30.64 31.25 32.74 32.06 30.77 30.23 30.03 30.49 30.04 29.73 28.70 27.98 27.85 27.16 27.75 28.47 28.21 28.19 28.06 27.64 27.34 27.27 27.08 26.96 26.89 26.97 27.03 27.91 28.46
29.19 30.14 33.50 34.00 34.86 36.43 31.11 28.82 31.62 25.78 13.24 18.28 25.75 27.75 30.57 30.66 29.78 29.77 29.63 29.80 29.58 29.76 29.88 30.13 29.95 29.03 28.45 27.63 27.14 26.81 26.91 27.34 27.73 27.31 26.83 26.59 26.47 25.97 25.45 25.38 25.84 25.56 27.00 28.91
33.96 28.90 33.31 34.06 34.85 33.63 33.15 34.67 27.49 25.65 15.08 14.48 22.53 24.10 26.10 27.40 27.96 29.53 29.44 29.89 30.59 30.79 30.36 29.72 29.31 29.24 29.09 28.69 27.95 27.31 27.09 26.68 26.98 27.24 27.24 26.70 26.11 26.31 25.68 25.01 25.01 25.00 24.68 25.30
35.76 32.96 29.96 33.28 31.75 31.05 30.35 28.98 29.30 29.29 24.51 16.33 13.29 21.82 29.74 30.70 30.65 29.58 30.20 31.27 31.11 31.32 30.82 30.02 29.46 29.36 28.87 28.31 27.56 26.87 26.28 25.80 25.61 26.13 26.05 25.70 25.31 25.19 25.17 24.81 24.59 24.74 25.32 24.70
36.97 32.46 26.14 29.73 31.64 31.53 31.54 30.75 30.72 26.00 22.07 22.35 22.52 25.84 33.03 32.17 32.28 31.45 31.21 32.04 31.33 31.11 31.01 29.58 27.85 27.57 27.16 26.64 26.09 26.14 26.47 26.34 26.42 26.40 26.08 25.90 25.56 25.24 24.74 24.46 24.55 24.71 24.42 24.71
36.65 28.89 18.31 24.75 27.93 30.55 29.20 29.77 30.12 29.14 25.63 16.86 19.37 22.33 32.63 31.79 31.22 31.59 31.24 31.24 31.07 30.67 28.82 29.09 26.64 26.16 25.89 25.54 25.55 25.46 25.82 26.22 26.65 25.89 25.52 25.44 25.13 24.47 24.44 24.47 24.82 24.77 24.38 23.87
39.55 29.92 27.53 27.14 25.31 28.57 26.44 27.93 28.71 26.65 22.32 21.23 25.21 26.83 29.69 30.25 30.45 30.51 30.42 31.07 31.49 30.48 27.60 27.21 25.73 25.50 25.56 25.66 25.27 24.89 25.19 25.72 26.04 25.69 24.84 24.38 23.95 24.19 23.92 24.13 23.83 23.53 23.57 22.91
35.00 24.88 26.97 26.70 27.24 27.96 26.80 26.85 27.07 25.12 26.48 24.81 27.39 27.48 29.07 30.98 30.64 29.96 29.56 28.70 29.82 28.80 25.60 25.97 26.71 26.21 25.81 25.13 24.85 24.61 24.34 24.71 24.61 23.92 24.15 23.82 24.10 23.86 23.28 22.44 21.69 22.06 21.89 21.60
31.64 25.38 26.07 20.67 28.07 28.65 26.84 27.91 27.55 28.39 28.24 26.64 26.71 26.20 31.33 29.12 28.07 26.06 26.71 27.54 29.39 30.10 27.72 26.25 26.38 26.01 26.12 26.17 25.37 25.50 24.41 24.81 24.79 23.77 22.19 22.99 21.30 21.08 20.19 19.28 18.82 18.28 17.90 17.36
28.91 26.25 23.99 23.60 21.97 21.18 17.81 21.41 25.93 27.33 26.32 26.51 22.11 27.39 21.39 24.10 25.70 25.80 25.65 25.37 27.04 27.94 28.35 27.10 26.22 26.16 26.27 26.01 26.60 24.60 24.29 24.04 20.95 19.56 16.89 17.16 18.09 17.18 16.64 15.87 15.37 14.86 14.11 14.47
28.32 26.76 24.94 17.07 17.01 12.87 23.59 21.17 22.53 23.29 25.41 21.86 20.38 17.58 20.42 23.68 24.35 25.38 25.67 25.38 25.41 25.70 25.75 25.88 25.24 24.75 25.60 25.15 24.86 24.36 23.55 21.40 20.05 17.57 15.57 15.78 15.72 13.14 13.24 12.57 11.76 11.79 11.91 11.18
28.50 25.80 18.44 18.41 9.01 16.28 22.39 21.94 19.57 18.67 19.40 22.02 22.45 23.09 24.10 22.98 21.36 21.12 24.11 23.61 24.21 24.36 25.35 25.48 25.96 24.79 24.10 24.14 23.71 22.39 20.35 19.76 18.26 17.86 16.95 14.68 12.47 9.44 10.24 6.77 8.29 9.14 8.56 8.20
27.10 26.93 25.51 9.37 9.55 7.85 19.39 19.44 22.21 22.84 12.31 17.54 19.91 20.10 20.51 20.96 14.28 21.18 23.31 24.76 24.78 25.41 25.82 26.04 25.59 24.59 23.73 22.63 22.06 19.61 17.66 15.63 15.10 16.50 15.07 13.08 11.59 4.80 4.63 7.18 6.17 6.93 5.52 7.49
15.26 19.43 20.05 13.60 15.93 12.00 17.68 20.37 23.13 8.86 15.81 16.38 19.04 21.46 19.17 18.19 22.22 24.07 24.42 23.89 25.39 25.80 25.82 24.96 23.85 24.04 23.25 20.65 18.34 16.81 15.20 13.31 14.49 12.30 11.17 9.35 8.55 4.29 4.18 3.58 4.78 3.69 3.00 4.77
13.43 11.40 10.62 9.89 9.92 7.60 21.96 20.95 17.69 22.08 22.35 22.36 21.35 22.81 22.31 23.26 24.87 24.00 24.50 24.33 24.63 24.20 24.59 25.01 23.01 22.28 19.95 18.02 16.25 14.37 12.54 13.26 10.46 8.43 7.01 4.30 -0.66 0.98 3.42 -4.91 -0.74 -1.71 -0.74 -0.49
14.25 17.24 13.07 15.96 14.25 22.24 23.16 23.73 26.30 25.45 22.98 23.00 23.31 24.37 24.02 23.94 23.60 24.42 23.51 23.48 23.93 24.37 25.34 23.88 21.35 18.38 16.49 13.87 12.82 11.55 11.02 9.79 8.19 3.44 -0.64 -5.94 -2.18 0.67 1.11 -4.57 -0.85 -0.90 -2.30 -2.23
18.02 19.62 16.62 15.81 19.32 20.56 23.28 24.95 25.49 25.56 25.17 26.05 25.73 25.45 23.97 23.14 24.44 24.81 24.13 24.19 23.43 22.43 20.67 18.31 16.25 14.89 11.92 9.87 11.59 7.83 7.57 6.72 -3.01 -0.75 -1.65 -1.05 -2.99 -2.25 -2.34 1.69 2.39 -1.13 -1.77 -0.88
19.79 19.32 16.04 15.79 21.03 21.79 23.03 23.98 25.27 25.81 25.44 25.15 25.09 25.39 24.79 23.21 24.70 24.60 24.26 22.29 22.90 21.45 17.69 16.03 16.66 14.78 10.86 9.55 7.24 4.09 5.12 2.00 0.38 -1.69 0.57 0.43 -1.59 -4.42 -1.93 0.11 0.60 1.84 3.92 5.60
21.00 20.85 17.40 14.17 23.26 23.59 24.32 24.81 25.82 24.51 25.14 25.44 24.10 23.42 23.26 23.63 24.19 24.34 23.10 23.68 21.53 18.64 14.36 13.05 11.04 9.70 7.30 5.50 3.77 0.97 -2.23 -2.31 -3.60 -0.61 1.00 -0.77 -0.85 -1.15 0.53 0.01 -0.03 7.35 11.00 13.25

GFSCGP_sfc_wetblb_036.txt.gz
Wetbulb
37.15 34.03 32.08 34.71 35.39 33.83 32.79 30.64 31.06 32.47 36.93 34.44 35.17 34.71 37.00 34.90 33.04 31.95 31.70 31.76 31.83 32.09 33.69 33.68 33.57 33.02 33.63 34.64 35.69 36.14 37.06 37.78 40.05 39.97 41.85 41.34 39.34 39.94 40.60 41.10 41.60 41.67 42.39 45.51
34.13 31.23 36.79 36.60 35.82 34.44 32.08 30.20 30.23 33.94 35.81 35.21 33.67 34.66 33.08 33.61 32.34 32.71 31.92 31.21 31.04 30.81 31.31 32.20 31.88 31.59 31.33 31.78 33.20 34.62 35.68 36.50 37.88 38.39 38.48 38.38 38.00 37.37 37.66 39.20 38.84 38.75 39.27 40.18
33.11 36.73 38.17 37.03 33.78 32.89 31.14 30.35 30.49 33.11 33.01 32.50 30.78 31.18 30.87 32.17 32.79 33.08 32.58 32.23 31.72 30.50 30.09 30.02 29.98 29.35 29.37 29.79 29.96 32.19 32.92 34.48 35.60 36.93 37.51 37.07 36.51 35.18 34.60 34.33 34.65 34.46 34.95 35.88
34.05 37.45 37.69 34.16 33.90 34.66 30.48 35.44 34.89 32.91 31.24 27.57 30.51 25.11 28.77 30.31 30.27 31.08 30.94 29.49 29.64 30.06 30.25 30.10 29.10 28.63 28.50 28.63 29.49 30.40 31.19 31.47 32.95 34.13 34.00 32.59 31.43 29.85 30.50 31.12 31.66 31.85 32.13 31.93
35.50 34.86 34.19 34.19 35.00 36.83 34.35 35.54 33.63 31.76 28.64 26.11 26.30 24.79 27.48 29.51 28.54 28.97 29.15 29.50 29.20 29.77 29.64 28.84 28.37 29.04 28.62 28.61 28.00 28.60 29.77 30.09 30.40 30.59 30.86 30.26 28.97 29.00 28.44 28.90 29.27 29.67 30.33 30.63
36.21 36.59 36.81 36.98 35.12 36.74 35.65 33.18 31.27 28.35 26.86 22.08 27.36 27.65 25.93 27.96 30.32 29.46 29.95 29.63 30.11 29.83 29.61 29.16 28.90 28.49 27.51 27.41 27.52 27.45 28.21 28.05 28.56 28.83 28.57 28.21 27.43 26.93 27.22 26.86 26.99 27.47 28.22 28.66
32.78 33.92 34.48 35.77 32.96 33.17 32.91 30.18 24.32 21.82 20.61 22.36 25.51 24.10 28.46 31.68 31.47 31.90 30.54 29.74 29.67 29.57 28.41 28.24 27.68 26.35 26.35 26.59 27.11 28.07 27.31 26.88 27.22 27.18 26.88 26.56 25.87 25.91 25.63 25.63 25.76 25.93 26.01 25.89
29.20 28.15 34.41 36.10 34.32 32.15 30.75 31.04 25.25 16.85 17.47 20.66 26.24 24.18 29.50 30.39 30.76 31.46 32.48 31.04 29.89 29.05 29.02 28.66 28.05 26.74 26.04 26.35 26.46 26.84 26.73 26.25 26.38 26.09 25.57 25.58 25.87 25.74 25.29 25.08 24.79 24.53 24.98 25.66
28.47 29.82 32.84 33.33 34.11 34.93 30.33 28.12 31.19 24.69 12.74 17.57 25.00 27.62 30.60 29.73 28.46 28.38 28.34 28.64 28.39 28.75 28.95 29.21 28.90 27.53 26.51 25.78 25.86 26.36 26.34 26.17 25.79 25.50 25.26 24.90 24.83 24.61 24.08 23.71 24.04 23.74 24.14 26.81
34.02 28.97 32.56 32.87 34.44 33.71 32.45 34.13 27.88 25.95 16.12 12.77 22.67 23.97 26.45 28.18 27.96 27.86 27.65 28.04 28.69 29.32 29.41 29.28 28.95 28.17 27.40 26.49 25.75 25.59 26.02 25.87 25.64 25.35 25.37 25.02 24.29 24.40 23.99 24.13 23.96 24.06 24.14 24.30
34.72 32.93 29.93 32.88 31.24 30.61 30.16 29.11 28.70 29.15 25.38 18.13 14.37 21.65 28.88 30.20 29.69 28.31 29.11 30.07 30.13 30.19 29.63 29.14 28.98 28.90 28.04 26.72 25.72 25.16 24.85 24.77 25.08 25.50 24.93 24.70 24.59 24.41 24.54 24.40 24.03 24.06 24.25 24.16
36.85 32.46 25.57 29.45 30.54 31.07 30.82 30.65 30.60 26.99 22.13 20.78 21.66 25.39 31.28 30.82 31.11 31.27 30.82 31.82 31.16 31.14 30.75 29.52 29.16 27.96 26.51 25.95 25.50 24.87 24.85 24.71 25.28 25.06 25.25 25.06 24.92 24.66 24.11 23.71 23.88 23.96 23.71 24.07
37.22 29.49 19.65 24.96 28.64 29.98 28.60 29.81 30.09 28.65 25.95 18.58 19.12 23.86 31.70 30.41 30.02 30.49 30.41 30.56 31.07 31.02 30.11 29.96 27.68 26.04 25.78 25.38 25.40 24.62 25.12 25.45 26.05 25.27 24.87 24.79 24.41 23.87 23.50 23.38 23.71 23.71 23.10 22.47
39.84 30.29 27.36 26.13 26.91 29.55 27.74 28.68 29.17 27.61 19.85 22.24 26.45 28.58 28.09 29.69 30.17 29.42 30.18 30.80 31.10 30.62 29.83 28.09 26.19 25.67 25.98 25.43 24.84 24.40 24.82 25.40 25.52 25.09 24.34 24.34 23.84 23.62 22.92 22.99 22.57 21.72 21.58 20.36
36.65 26.99 27.48 27.20 27.61 28.32 28.62 28.44 27.59 26.37 29.21 26.39 29.28 28.02 28.64 32.47 31.94 31.71 31.57 30.55 29.31 29.36 28.72 26.40 26.84 26.07 24.98 24.92 24.70 24.48 23.92 24.26 24.03 23.83 23.70 23.49 23.80 22.80 21.95 20.47 19.74 18.73 18.28 17.82
32.90 26.01 27.37 23.75 28.34 27.89 26.40 27.43 26.89 28.56 27.15 25.38 25.90 26.17 30.52 30.90 29.71 29.13 29.81 28.86 28.16 28.65 29.46 27.50 27.32 27.51 26.82 26.40 25.06 25.61 23.80 23.84 23.94 22.99 22.92 23.42 20.88 20.49 18.96 17.69 17.08 16.50 15.92 15.20
31.01 27.24 25.06 24.21 21.08 22.94 23.92 26.10 26.72 26.58 27.23 28.43 25.21 30.43 25.37 25.66 27.42 27.46 26.74 26.11 27.08 28.86 30.01 29.20 26.62 26.76 27.02 26.69 27.35 24.65 24.16 23.71 21.30 20.52 17.56 17.25 17.12 16.36 15.31 14.83 14.37 13.72 12.68 12.86
27.87 25.10 27.26 16.42 20.22 17.12 25.40 21.07 24.16 29.06 28.92 26.44 22.98 20.53 24.53 25.15 25.09 26.19 25.99 26.05 26.24 26.83 27.27 27.80 26.74 25.26 25.87 25.61 24.95 24.51 24.03 21.83 20.64 18.41 15.71 15.33 14.93 12.70 12.81 11.74 10.88 10.78 10.72 10.01
29.26 28.04 19.65 17.90 16.92 21.81 22.89 20.21 19.77 20.87 21.62 24.13 26.39 27.76 24.95 24.24 22.50 22.36 24.92 25.02 25.20 24.92 25.82 25.95 26.27 24.90 24.12 24.11 23.78 22.80 21.18 20.89 19.20 17.50 16.89 14.42 12.13 9.54 9.63 5.95 7.40 8.17 7.61 7.42
27.95 28.95 28.81 15.39 16.58 14.65 18.05 18.42 22.71 24.78 17.27 20.73 24.41 23.24 20.58 21.89 14.64 19.24 23.70 24.47 24.37 24.92 25.18 25.32 25.27 24.53 23.71 23.56 23.10 20.85 19.21 17.53 16.25 17.21 16.38 13.25 11.09 5.56 4.53 7.02 5.05 5.89 3.33 7.26
20.61 21.26 23.67 17.40 17.72 17.33 20.23 20.93 23.67 13.08 18.40 15.95 19.54 20.26 19.33 18.92 21.58 23.97 24.82 24.00 24.90 25.29 25.01 24.66 23.86 24.10 23.89 22.38 20.15 19.38 17.02 15.93 15.25 13.58 11.58 9.84 8.77 5.05 4.04 2.53 3.65 0.63 0.25 4.25
18.07 18.59 16.45 17.22 15.82 15.11 21.96 21.22 19.28 23.06 22.02 22.02 21.30 22.62 22.39 23.43 24.72 23.97 24.31 24.52 24.13 23.81 24.33 25.22 23.38 22.66 22.79 20.25 19.42 17.61 16.23 14.30 11.36 9.63 8.55 7.23 3.81 3.43 5.46 -5.16 -2.97 -4.40 -4.35 -4.11
17.39 20.24 16.84 20.21 18.93 22.25 24.51 23.83 25.49 25.57 23.04 22.51 22.80 23.54 23.78 23.38 23.24 24.16 23.53 23.25 23.81 23.35 24.38 23.64 22.43 21.58 19.46 16.66 17.71 16.07 13.48 10.72 7.78 5.01 2.50 1.28 3.33 3.83 3.54 -4.02 -1.21 -1.70 -5.24 -5.60
18.90 20.42 18.49 18.68 20.09 21.54 23.68 25.36 25.37 25.61 25.17 25.65 25.29 24.45 23.28 22.45 23.79 24.48 24.01 23.48 22.94 22.67 21.78 19.14 16.07 16.58 15.96 12.44 14.42 11.99 9.90 7.87 2.03 -3.02 2.11 2.87 -0.54 1.98 1.62 2.69 2.55 -3.65 -4.76 -2.70
20.66 19.97 16.59 16.80 20.75 22.14 23.69 24.49 26.33 25.75 25.53 24.81 24.47 24.82 24.31 23.06 23.94 23.75 23.28 21.89 21.83 21.52 18.57 16.39 17.82 18.29 16.94 11.76 9.09 6.48 6.44 3.37 -0.21 -2.06 2.09 2.44 2.43 0.71 0.65 1.60 0.90 1.24 2.26 2.70
20.82 19.50 17.68 15.69 23.44 23.56 24.38 26.62 26.86 24.52 24.44 24.56 23.72 22.29 22.40 22.98 23.03 22.39 21.54 22.28 21.40 20.70 15.92 15.12 14.81 13.51 10.21 9.00 6.11 2.22 2.84 1.03 -0.99 0.75 1.75 2.44 2.62 2.06 1.51 0.35 -0.04 7.27 11.51 14.02

GFSCGP_sfc_wetblb_039.txt.gz
Wetbulb
37.69 35.21 33.92 35.32 35.94 35.32 33.97 32.08 32.91 33.97 37.48 36.61 36.40 36.22 38.43 34.56 33.69 32.74 32.65 32.60 32.60 32.81 34.06 34.49 34.32 34.19 34.49 35.30 36.36 37.46 39.12 39.86 42.41 43.60 43.05 42.22 39.84 40.09 39.70 39.32 39.07 40.20 41.35 43.06
34.73 32.37 37.32 37.00 36.00 34.80 32.67 31.45 31.73 34.19 36.27 36.07 34.92 35.27 36.30 34.44 33.81 33.77 32.69 32.19 32.32 32.29 32.79 33.01 32.99 32.79 32.45 32.80 33.59 34.99 36.42 37.62 39.73 40.68 40.82 40.49 38.75 37.30 36.78 36.28 35.66 36.26 37.51 38.68
32.95 36.40 36.96 36.59 33.37 33.04 31.48 31.34 30.60 33.31 34.13 34.22 32.39 32.68 32.31 32.73 33.15 33.36 33.30 32.94 32.38 31.78 31.56 31.67 31.55 30.89 31.21 31.09 31.11 32.71 33.61 34.94 36.01 38.29 39.28 38.28 37.28 35.79 34.26 33.59 33.42 33.68 34.59 35.08
33.89 37.03 37.01 33.68 33.42 33.99 29.57 34.34 34.10 33.11 32.15 29.10 32.14 26.92 31.41 31.21 30.89 31.58 31.53 30.88 31.21 31.62 31.84 31.17 30.45 30.26 30.23 30.15 31.09 31.66 32.15 32.79 33.44 34.83 34.34 33.63 32.66 30.70 31.27 31.78 32.48 32.61 33.14 32.90
36.08 34.65 34.35 33.97 35.47 35.92 33.72 34.80 33.62 32.62 30.55 28.64 28.73 26.79 29.96 30.88 29.97 29.98 30.36 30.43 30.59 31.22 30.77 29.85 29.77 29.91 29.81 30.01 29.52 30.05 31.12 31.03 31.42 32.07 32.76 31.92 30.41 30.74 30.82 30.89 31.22 31.36 31.76 31.97
36.15 36.89 36.91 37.30 35.99 36.73 35.02 33.07 31.58 29.13 28.06 23.34 29.01 29.09 28.20 29.51 31.66 30.18 30.74 30.47 30.76 30.75 30.54 30.01 29.84 29.78 29.27 29.53 29.40 29.43 29.77 29.30 30.07 30.51 30.31 30.45 29.85 29.56 29.77 29.48 29.26 29.53 29.91 30.26
32.68 34.13 35.27 36.19 33.19 34.12 33.23 31.42 25.17 23.47 23.01 24.02 26.55 25.47 29.76 32.44 32.84 33.12 31.97 30.87 30.65 30.89 29.92 29.36 28.76 28.27 28.61 28.60 28.93 29.40 28.88 27.91 28.67 28.90 28.65 28.87 28.64 28.89 28.40 28.36 28.28 28.32 28.35 28.16
29.92 28.66 34.16 35.81 35.34 32.90 30.85 32.00 26.61 20.12 19.62 21.96 26.19 24.18 30.51 31.64 31.64 31.89 33.02 32.22 31.24 30.15 29.89 29.52 28.80 27.77 27.97 28.39 28.42 28.41 28.17 27.44 27.68 27.84 27.71 28.08 28.24 28.41 27.87 27.80 27.61 27.41 27.71 27.50
30.20 31.09 33.78 33.81 34.46 35.78 31.45 29.05 32.02 24.07 14.13 20.28 26.04 28.75 32.15 31.08 29.75 29.41 29.80 30.29 30.27 30.01 29.74 29.83 29.32 28.00 27.50 27.64 27.96 27.97 27.40 27.28 27.44 27.33 27.42 27.09 27.45 27.52 26.88 26.99 27.40 27.05 27.35 28.04
34.75 29.49 32.54 32.87 34.78 33.59 33.04 34.71 28.26 26.76 19.06 16.90 23.76 25.54 28.14 29.33 29.42 28.10 28.17 30.02 30.42 30.42 29.87 30.16 29.93 28.83 27.80 27.59 27.67 27.98 28.03 27.37 27.33 27.36 27.30 27.11 26.77 26.81 26.96 27.32 26.79 26.69 26.82 26.79
35.30 33.22 29.99 32.57 31.06 30.95 30.53 29.59 28.96 29.81 26.55 20.31 17.04 23.31 29.96 31.75 30.97 28.59 29.15 30.63 30.55 30.71 30.60 30.65 30.60 29.75 28.76 27.66 26.86 26.90 27.07 27.15 27.03 27.27 26.90 26.77 26.74 26.79 27.23 26.74 26.41 26.26 26.31 25.80
36.61 32.99 26.61 29.05 31.23 31.25 31.17 31.00 30.54 26.95 22.72 21.87 22.72 25.38 31.70 31.56 31.84 31.24 30.78 31.29 31.65 32.01 31.56 30.88 30.83 29.66 28.12 27.42 26.71 26.38 26.39 26.73 27.39 27.02 27.06 27.13 27.12 26.94 26.21 25.73 25.79 25.81 24.85 24.90
36.48 31.37 23.46 26.83 29.04 30.04 29.57 30.23 30.45 29.19 27.65 20.52 22.03 24.50 31.68 30.32 29.96 30.25 30.45 30.57 31.28 31.69 31.07 30.72 29.57 29.12 28.36 27.64 27.00 26.29 26.17 26.44 27.04 26.78 26.70 26.46 26.22 25.98 25.41 25.08 24.94 24.21 23.18 22.68
40.72 31.95 30.82 31.00 29.34 30.47 28.09 28.84 29.97 30.51 22.18 25.45 26.85 27.03 29.73 30.42 30.58 30.14 30.61 31.28 31.10 31.53 31.50 31.33 29.82 28.43 28.60 27.93 27.10 26.40 26.10 26.52 26.62 26.39 26.05 26.04 25.89 25.48 24.88 24.15 22.70 21.69 21.15 20.06
37.52 33.12 29.61 28.03 29.21 30.10 29.54 28.75 28.27 28.31 30.76 27.68 30.50 29.13 30.07 33.62 33.35 31.88 32.48 30.44 30.36 30.26 29.81 29.28 29.18 28.95 27.94 27.03 26.73 25.84 25.66 25.85 26.01 25.48 25.44 25.69 25.82 24.41 23.31 21.19 19.65 19.25 18.80 18.15
34.86 31.88 30.23 27.60 28.55 28.55 26.12 28.61 29.25 29.87 30.31 31.28 28.75 28.33 33.18 33.95 31.16 29.98 30.39 30.13 29.98 29.55 29.41 29.99 29.41 28.71 27.55 27.82 26.37 26.67 25.76 25.48 25.37 25.12 25.25 25.12 23.36 21.60 19.91 18.53 17.75 17.16 16.38 15.84
32.99 29.40 29.13 28.02 25.13 26.26 26.05 27.02 27.27 26.98 26.75 30.87 25.88 31.85 26.66 28.68 29.85 30.19 30.21 30.50 31.62 29.32 29.57 30.20 29.53 28.53 28.47 27.67 28.17 26.04 26.04 25.20 23.71 22.59 21.24 21.09 20.25 19.32 17.34 16.27 15.58 14.82 13.63 13.46
31.20 31.11 30.80 18.44 23.07 19.84 24.62 20.03 26.97 28.49 28.38 25.12 23.92 22.43 29.60 30.04 27.91 28.25 28.63 28.71 27.77 28.46 29.58 30.26 30.35 27.67 27.30 27.72 27.30 26.95 25.33 23.64 22.71 21.69 19.86 18.45 17.61 15.98 14.53 13.20 12.51 12.26 12.05 11.11
32.31 30.12 20.39 19.37 20.45 23.57 19.84 20.09 23.87 26.25 25.19 27.12 28.22 27.91 26.01 25.06 24.65 23.78 26.70 27.03 28.05 27.95 28.69 28.47 29.11 28.42 26.63 26.15 25.90 24.23 22.61 22.48 21.82 21.12 19.69 17.67 15.93 13.03 12.41 9.99 9.95 10.14 9.39 9.03
29.50 31.99 30.43 20.05 18.95 18.36 21.46 20.35 23.62 26.48 17.90 20.79 29.17 26.85 20.91 22.08 16.60 21.96 24.62 25.93 26.38 26.65 26.30 26.50 26.39 25.69 24.47 24.52 23.65 21.84 20.97 19.99 20.23 20.66 19.66 16.36 13.50 9.41 8.43 9.99 8.23 8.45 7.01 8.99
22.60 23.03 26.04 21.81 21.09 22.70 24.99 22.33 24.72 20.19 23.46 21.72 23.22 21.84 20.84 20.88 24.15 24.97 24.95 23.96 25.17 25.56 25.23 25.09 24.66 24.53 25.12 23.06 21.38 20.88 19.36 19.04 20.47 17.41 15.26 12.74 11.41 8.39 7.96 6.40 7.06 5.07 4.04 5.86
20.88 20.92 20.61 21.48 18.91 18.01 22.99 22.32 22.10 26.13 23.88 24.94 23.32 24.01 23.41 24.23 24.84 24.84 24.84 25.42 25.10 24.50 24.32 25.68 23.13 23.15 23.62 21.90 20.74 20.10 18.97 19.19 15.43 13.56 11.58 9.25 6.04 8.68 6.37 1.06 2.63 1.36 0.86 0.20
19.66 24.79 23.26 23.96 23.37 23.29 26.26 26.12 27.28 27.20 25.99 23.95 24.55 24.59 25.25 24.48 23.98 24.57 24.50 24.39 24.55 24.43 24.16 23.57 22.58 22.26 21.79 19.66 19.82 19.34 19.18 14.53 11.52 9.59 6.35 3.60 3.26 4.76 3.26 0.35 2.81 2.80 0.61 0.20
20.02 21.47 19.39 20.31 20.69 21.72 24.77 25.42 26.40 26.29 25.64 25.70 25.54 25.04 23.47 23.62 23.82 24.39 24.06 23.94 23.56 21.59 21.01 19.21 17.63 18.07 19.39 16.60 17.87 19.84 13.47 11.64 7.74 4.82 4.02 2.80 2.02 3.25 2.14 5.53 4.83 2.80 2.26 1.85
21.72 20.66 16.92 17.44 20.87 22.86 24.36 25.08 26.17 26.20 26.17 25.46 24.94 24.90 24.41 23.42 23.79 23.87 22.86 21.81 21.52 21.15 18.37 16.58 18.77 19.33 19.69 15.39 14.09 10.01 9.79 7.87 5.30 3.41 4.28 4.43 3.10 2.71 4.65 4.72 5.09 5.06 5.69 3.62
21.07 19.65 18.66 16.78 23.84 24.36 25.25 27.17 26.84 25.41 25.32 24.93 23.98 22.27 22.00 22.69 23.06 22.29 21.32 21.50 19.87 19.37 16.06 15.35 16.41 15.71 13.21 9.62 8.25 4.92 4.58 5.58 4.49 3.85 3.89 3.74 3.79 3.61 4.16 3.55 3.40 8.95 12.68 14.77

GFSCGP_sfc_wetblb_042.txt.gz
Wetbulb
45.05 43.97 41.43 44.82 45.52 44.55 43.04 41.56 41.71 42.03 42.84 42.65 44.10 44.46 44.99 42.94 41.95 41.63 41.17 40.60 40.12 39.39 39.39 40.48 40.95 42.00 43.83 44.72 46.08 46.08 46.22 47.42 49.69 50.76 49.94 47.68 45.09 43.91 42.97 42.89 43.88 45.07 45.89 46.86
41.84 40.85 46.06 43.57 43.15 42.04 40.90 40.81 41.36 41.81 41.63 41.93 42.91 42.05 45.58 41.65 42.22 42.45 41.21 40.23 39.82 39.12 39.41 39.22 40.04 40.82 41.47 41.97 43.36 44.40 45.06 46.19 47.05 47.53 46.69 45.17 42.44 40.85 40.74 40.52 39.97 40.58 41.28 42.24
42.37 43.34 43.44 41.86 39.93 39.48 40.43 39.84 41.15 40.54 40.18 40.99 40.09 40.53 42.82 39.82 38.97 39.38 40.12 40.57 40.02 39.99 38.92 38.80 38.64 39.21 40.41 39.89 40.81 41.52 42.63 43.56 44.91 44.62 43.51 42.05 41.76 41.10 39.46 38.41 37.73 37.93 38.70 39.03
41.97 42.76 39.96 39.77 39.87 41.31 38.46 41.58 40.52 38.84 38.07 36.96 39.56 36.54 40.40 40.52 37.79 36.99 37.58 38.27 38.88 38.64 38.58 37.93 37.86 37.84 37.76 37.76 39.06 39.93 40.84 41.06 41.68 42.76 42.81 42.22 40.00 36.51 36.62 36.80 37.16 36.85 37.58 37.28
41.53 38.70 39.38 39.42 40.77 41.39 41.00 40.77 39.81 39.29 38.31 36.82 37.15 35.86 40.80 36.18 36.37 36.26 37.28 38.11 39.13 39.52 38.70 37.19 36.79 36.02 35.81 37.04 37.70 38.41 38.39 38.26 38.96 39.53 39.64 38.62 36.83 36.51 36.86 36.69 36.05 36.09 36.05 36.36
42.23 41.98 42.30 42.60 39.85 41.21 39.78 38.35 37.24 37.12 37.10 31.86 37.58 36.37 39.40 37.52 38.60 39.34 37.91 37.89 38.36 37.92 37.32 36.71 36.16 35.38 34.94 35.55 36.21 36.75 36.12 35.71 36.96 37.43 37.74 37.31 36.31 35.91 35.61 35.41 35.02 34.95 35.17 35.09
39.30 39.55 40.57 40.86 38.76 38.59 39.42 38.51 33.21 30.79 30.25 30.64 32.58 33.38 40.14 41.85 38.81 39.91 37.99 37.53 37.83 37.46 36.46 35.43 34.67 34.39 34.13 34.18 34.32 34.95 35.16 33.96 35.26 35.57 35.66 35.77 35.87 36.06 35.43 35.27 34.97 34.36 34.05 33.60
36.63 35.01 38.44 40.49 42.15 38.59 36.60 39.70 34.81 27.96 27.71 32.04 30.21 30.61 37.14 37.88 37.49 37.84 40.37 38.94 37.74 36.85 36.58 35.59 35.47 34.98 34.09 33.77 34.14 33.95 33.76 33.24 34.56 34.78 34.50 35.01 35.45 35.27 34.89 34.62 34.35 33.79 33.29 32.76
35.76 35.85 38.53 38.12 39.16 41.98 36.32 33.88 38.99 29.58 23.71 30.42 34.60 35.53 39.20 35.08 34.69 35.42 36.86 36.78 35.74 36.12 35.74 35.32 35.01 34.82 34.43 34.25 34.22 34.51 33.88 33.60 34.09 34.06 34.28 34.18 34.49 34.37 33.59 33.54 33.88 33.39 33.15 32.00
40.55 35.30 36.20 36.46 39.72 38.52 38.49 40.28 32.37 33.92 28.12 27.84 31.13 31.90 37.63 33.98 35.40 34.28 34.12 35.03 36.26 36.87 36.04 35.76 35.18 34.51 34.64 34.66 34.25 34.09 34.09 33.74 33.71 33.88 34.19 33.79 33.57 33.75 33.56 33.47 32.55 32.26 31.86 31.51
39.75 37.71 34.00 36.35 35.29 36.41 34.70 34.23 35.00 36.28 34.10 31.45 29.64 33.01 39.69 39.66 39.09 35.36 36.39 37.05 37.42 36.82 36.42 36.17 36.12 35.31 34.53 34.68 34.25 33.83 33.49 33.28 32.99 33.53 33.54 33.17 32.90 32.97 33.09 32.59 32.19 31.70 31.05 30.23
40.85 36.63 32.70 33.51 36.51 36.43 39.02 37.80 37.00 33.63 28.29 29.92 30.42 34.66 36.88 38.20 39.09 39.21 38.05 37.45 38.52 37.82 37.47 37.43 37.19 35.97 33.94 33.25 33.37 33.40 33.32 33.19 33.35 33.40 33.08 32.97 32.55 32.29 32.18 31.72 31.24 30.83 29.70 29.01
40.02 35.93 32.70 32.47 33.76 34.24 33.39 35.02 36.43 37.62 34.60 32.06 31.17 34.57 36.19 35.84 36.25 37.39 38.05 37.46 37.30 37.36 37.70 37.36 37.28 36.10 35.10 34.06 33.12 33.07 33.26 33.16 33.32 32.73 32.63 32.27 32.08 32.02 31.79 30.97 30.22 29.27 28.25 27.28
42.92 37.41 35.69 33.83 36.41 37.21 32.07 34.50 35.15 35.76 32.83 33.98 32.77 36.78 34.52 36.11 36.30 36.23 36.36 37.56 37.61 37.20 37.36 37.15 36.92 36.83 37.15 35.52 33.94 33.24 32.88 33.23 32.91 32.06 31.98 31.87 32.02 31.89 31.53 30.41 28.63 27.37 26.50 25.45
40.40 34.54 36.74 38.30 37.82 36.32 35.60 35.65 34.30 33.59 35.99 34.16 37.48 35.33 36.94 38.54 37.72 39.01 39.57 38.70 37.32 36.68 37.16 37.61 37.36 37.49 37.04 35.44 34.57 33.83 33.33 32.55 32.25 31.03 31.67 31.79 32.23 31.70 30.24 27.65 25.49 24.43 23.88 23.45
37.73 35.10 36.15 33.42 35.69 33.20 32.37 35.26 35.25 35.18 36.33 36.99 37.78 36.02 41.73 40.77 40.21 38.08 37.76 36.77 36.13 36.86 37.27 37.46 37.43 37.55 35.70 34.70 34.50 33.25 32.68 31.69 31.92 31.68 31.13 31.94 31.03 28.38 26.54 24.69 23.13 22.40 21.68 21.23
35.52 35.38 32.14 30.97 35.22 30.42 26.93 31.96 34.16 35.49 37.55 37.62 33.75 38.09 36.63 35.55 36.46 37.94 38.07 37.13 37.25 37.59 37.20 37.01 36.83 36.35 35.48 35.10 35.00 33.18 32.43 32.89 30.59 29.86 30.03 29.14 28.56 26.29 24.84 23.16 21.50 20.89 20.20 19.70
33.55 33.63 32.54 29.06 28.28 22.45 32.11 30.73 37.08 34.27 34.96 34.62 32.62 34.14 35.81 36.64 36.73 37.65 38.94 38.05 37.37 37.03 36.15 35.65 36.26 36.15 35.66 34.94 33.63 33.94 33.46 31.08 29.09 29.27 28.59 27.61 26.54 25.33 23.03 20.55 19.85 19.65 19.11 18.04
34.42 33.60 24.99 25.24 25.51 30.58 24.58 26.65 30.75 31.19 32.62 33.85 34.32 32.74 31.22 29.75 32.37 33.42 33.77 35.39 37.32 35.92 36.61 36.42 37.35 36.74 34.66 34.02 34.20 31.59 28.96 28.77 28.61 28.05 27.57 26.64 25.49 23.13 20.78 18.76 18.57 18.60 17.75 16.90
29.55 32.48 31.83 24.03 24.95 24.37 31.89 28.30 28.89 33.00 27.89 32.26 34.56 32.01 28.53 29.48 29.90 34.84 31.58 32.70 32.31 33.40 33.66 33.11 33.66 33.08 32.86 32.02 30.00 28.58 28.16 27.54 27.23 28.19 27.78 26.55 24.29 21.49 19.17 18.64 17.10 17.59 16.44 15.85
25.62 27.07 27.61 25.74 25.44 28.23 32.30 27.14 28.47 25.93 31.20 30.82 33.95 32.32 28.36 29.15 33.99 32.72 31.30 30.71 32.31 32.07 31.81 31.19 30.74 29.91 30.52 28.20 27.13 27.20 27.17 26.09 28.80 28.17 25.60 23.00 21.52 18.92 18.43 16.88 16.26 14.57 13.74 13.30
26.44 25.80 25.75 26.33 24.86 23.44 27.50 25.49 26.67 31.55 28.06 29.35 29.17 29.01 28.68 29.66 28.74 29.27 29.34 29.28 29.07 29.40 28.98 30.06 28.49 27.75 28.74 27.39 26.74 26.75 25.49 28.66 25.52 23.86 21.87 19.86 17.37 17.16 15.15 12.92 12.78 11.26 11.22 9.98
25.56 30.42 28.19 29.53 29.17 25.78 28.82 28.89 30.30 30.56 31.30 28.36 29.44 29.09 30.30 28.73 27.96 28.48 28.06 27.96 28.32 28.96 27.81 27.60 27.64 26.46 26.44 26.41 26.66 26.64 27.91 23.79 20.85 19.74 18.12 15.86 14.09 14.43 13.22 11.29 11.43 11.73 11.30 11.13
23.81 25.31 25.24 27.40 24.57 24.87 27.19 27.40 28.85 28.86 29.30 29.26 30.32 29.26 29.09 28.52 28.30 27.35 27.80 27.78 27.40 27.26 26.49 25.99 24.74 24.20 25.02 25.12 24.53 26.69 22.46 20.49 17.60 17.58 15.09 13.10 10.95 11.85 10.60 12.25 12.73 12.47 13.11 12.80
25.08 24.77 21.82 21.05 23.13 25.21 26.66 27.78 28.84 29.03 29.06 27.95 27.75 28.25 29.14 28.29 26.62 27.24 27.09 26.92 27.10 27.40 25.53 24.58 24.47 24.63 25.69 25.79 24.17 23.29 19.73 17.26 17.41 16.37 14.29 13.95 13.23 11.11 12.70 12.03 13.25 12.73 13.74 13.58
24.53 22.87 22.80 23.09 26.83 28.06 28.67 30.83 29.76 28.64 28.30 28.45 27.73 26.07 26.19 27.23 27.34 26.93 26.43 26.84 26.28 25.80 24.84 22.97 23.17 22.86 24.06 21.78 21.00 17.19 15.65 15.65 16.10 14.80 13.43 14.09 13.81 12.54 12.38 12.45 12.20 14.81 15.94 16.47

GFSCGP_sfc_wetblb_045.txt.gz
Wetbulb
48.65 45.09 42.76 46.06 47.16 47.33 46.07 44.80 44.22 46.85 46.31 44.14 45.26 45.62 47.76 46.74 45.84 46.81 46.60 45.75 44.65 43.72 43.20 44.08 44.99 47.37 48.72 47.74 47.47 48.20 48.68 48.78 50.32 50.31 49.56 48.60 46.14 45.67 44.43 44.25 45.13 45.56 46.43 47.86
44.03 41.85 47.62 48.94 47.75 46.26 44.60 43.36 43.42 46.79 44.93 43.29 44.79 44.81 47.83 48.69 46.15 47.13 46.99 45.75 44.57 42.46 42.48 42.95 44.43 45.92 47.77 47.80 48.05 48.41 49.18 50.81 51.85 50.86 48.86 46.87 44.52 43.26 42.42 41.93 41.66 42.04 42.59 42.74
43.55 45.75 46.99 45.12 43.93 42.62 43.50 42.66 43.45 43.35 43.01 43.50 43.05 41.92 44.52 47.99 47.52 46.16 46.25 46.43 44.82 43.05 42.01 41.94 43.09 44.61 45.78 45.92 46.64 47.27 48.19 48.55 48.30 47.41 45.57 44.08 43.70 42.77 40.86 39.80 39.16 39.83 40.65 41.01
44.45 47.99 43.58 43.05 42.77 43.87 41.07 46.03 44.07 42.87 40.72 38.36 43.68 36.07 44.44 47.28 43.42 42.57 42.70 43.57 43.08 42.98 42.77 42.23 41.80 42.54 42.78 42.82 44.22 45.53 45.59 45.97 46.50 47.38 46.11 45.28 42.13 38.55 38.51 38.00 38.45 38.35 39.34 38.72
43.54 41.62 41.32 41.19 42.87 44.74 42.66 44.34 42.97 42.59 40.63 40.45 41.25 36.05 42.06 45.04 42.23 41.76 41.73 42.02 42.31 42.51 41.78 40.60 40.96 40.65 40.50 41.60 41.92 42.06 42.00 41.97 42.70 43.17 42.98 41.61 39.34 39.07 38.34 37.63 37.33 37.24 37.79 38.06
44.49 45.16 44.74 44.78 42.85 44.12 44.18 41.91 40.39 40.45 39.96 33.81 39.45 38.76 40.12 42.78 41.52 43.54 41.49 40.95 41.56 41.02 40.95 40.48 39.93 38.94 38.60 38.90 39.81 40.11 39.60 39.23 40.34 40.97 40.98 39.56 38.39 37.58 37.44 37.13 36.57 36.43 36.36 36.07
41.84 42.13 44.55 44.32 41.02 41.30 42.16 40.08 35.10 33.10 31.71 31.61 38.60 38.44 41.08 46.25 43.07 44.80 40.91 40.36 41.28 41.18 40.39 39.27 37.57 37.48 37.64 37.51 38.10 38.18 38.03 36.58 37.96 38.80 38.91 38.99 38.54 38.31 37.23 37.05 36.62 35.76 35.07 34.64
39.08 37.54 42.85 43.47 44.12 42.69 38.97 40.84 35.98 29.71 31.32 34.10 32.65 32.47 39.88 44.00 43.31 42.00 43.38 42.04 41.32 40.26 40.02 38.50 37.96 37.70 36.74 36.41 36.48 36.10 36.17 35.57 36.83 37.17 37.16 38.10 38.21 37.71 37.19 36.82 36.28 35.36 34.54 33.96
39.82 40.19 43.61 43.54 45.13 45.89 39.34 36.26 43.00 34.39 29.59 30.03 36.07 38.27 42.88 38.72 37.73 39.20 41.24 40.53 39.38 39.36 38.95 38.10 38.37 37.80 36.22 35.45 35.41 36.03 35.60 35.89 36.03 36.07 36.39 36.26 36.46 36.18 35.57 35.64 35.71 34.68 34.33 33.50
44.03 38.28 39.87 39.77 41.22 41.79 41.01 43.05 33.50 35.02 29.04 28.82 35.54 36.89 37.94 35.22 36.69 37.47 38.79 38.96 38.81 39.04 38.69 38.48 38.01 37.17 36.72 36.46 36.18 36.34 35.88 35.13 35.50 35.64 35.91 35.68 35.70 35.75 35.41 35.20 34.24 33.80 33.03 32.87
44.28 41.57 36.24 37.78 36.75 37.43 36.23 36.05 37.82 38.49 36.48 32.98 31.64 35.52 43.11 43.03 40.81 37.50 38.45 39.23 38.69 38.69 38.90 38.40 38.11 37.77 37.22 36.93 35.93 35.29 35.29 35.08 34.70 35.31 35.35 35.08 34.93 34.95 34.94 34.31 33.72 33.20 32.70 31.91
43.70 41.38 37.88 36.92 41.37 41.71 42.44 39.44 38.86 33.88 31.59 33.46 32.78 36.15 39.71 43.21 44.12 41.33 39.51 39.65 40.40 40.06 39.60 38.93 38.14 37.20 36.19 35.62 35.22 34.69 34.88 34.66 34.92 35.25 34.96 34.59 34.45 34.20 33.81 33.20 33.07 33.01 31.46 31.22
42.24 37.65 33.66 35.31 35.20 36.57 35.23 37.93 39.51 39.07 35.63 33.06 32.36 35.84 39.71 39.81 40.77 42.07 40.97 40.85 40.73 40.15 39.80 39.02 38.20 36.78 35.82 35.44 35.24 34.91 34.71 34.64 34.90 34.75 34.35 34.09 33.56 33.25 33.13 32.86 32.33 31.81 30.81 29.84
44.13 38.22 36.55 35.19 38.64 39.79 33.69 35.72 37.08 36.59 32.44 33.93 35.19 38.06 35.91 38.03 38.61 39.67 41.21 41.09 40.93 39.94 39.45 38.83 38.36 37.92 36.74 35.68 35.15 35.05 34.86 35.13 34.64 34.04 33.77 33.43 33.13 33.20 33.32 32.71 31.64 30.37 29.92 28.32
42.08 35.00 37.90 38.91 41.09 41.12 37.73 36.24 35.94 34.04 36.09 34.11 37.61 38.50 42.18 40.12 40.46 41.42 41.34 41.15 39.95 38.89 39.13 39.00 38.50 38.70 38.08 36.89 35.96 35.42 35.54 34.99 34.79 33.55 33.09 33.15 33.68 33.55 33.18 31.52 29.83 28.60 27.42 26.88
39.62 34.47 37.16 34.90 39.06 38.78 36.21 38.33 37.72 36.49 36.46 37.39 39.03 39.51 46.43 45.75 43.57 42.27 41.23 40.36 39.14 38.97 39.25 39.36 38.97 38.66 38.09 37.62 37.13 35.53 35.45 34.13 34.10 32.82 32.12 33.01 32.64 31.53 30.50 28.95 26.99 25.83 24.91 24.25
34.78 33.75 32.56 31.36 36.27 35.55 28.58 33.91 36.33 38.38 39.13 39.12 35.10 39.93 40.08 40.28 39.58 39.74 39.54 40.50 39.46 39.77 39.60 39.27 39.14 38.85 38.50 38.15 37.34 36.34 35.58 34.56 32.05 30.91 30.68 30.94 31.13 29.33 28.35 27.08 25.23 24.10 23.42 23.33
34.69 32.99 33.86 32.00 32.36 25.62 36.46 41.99 38.47 38.52 39.57 40.31 39.55 37.00 37.78 37.71 39.66 40.81 42.75 40.41 39.27 39.42 39.88 39.73 39.76 40.17 39.38 39.29 37.32 37.41 35.17 32.86 30.63 30.29 30.35 29.92 29.34 27.84 27.06 25.04 23.58 23.40 23.24 21.69
36.24 35.01 31.19 29.28 29.78 33.99 36.14 30.43 34.87 36.05 36.80 41.42 38.50 35.85 34.38 34.07 35.72 37.21 40.01 40.68 40.65 40.45 40.47 40.20 40.21 40.11 38.40 36.74 35.78 33.97 31.92 31.35 29.61 29.22 29.42 28.98 28.43 27.06 25.74 23.06 22.41 22.92 22.03 20.96
30.59 34.24 31.74 29.07 28.34 26.98 32.21 34.80 36.94 39.79 30.50 38.55 37.01 34.69 31.66 33.64 33.26 37.55 34.78 34.38 36.54 37.54 36.66 35.88 36.61 35.59 33.91 34.19 33.24 30.57 29.57 29.04 28.30 28.75 29.15 29.20 28.13 26.89 24.87 23.52 22.09 22.71 21.69 20.73
26.01 28.04 27.51 30.40 28.84 31.92 32.90 29.94 33.79 29.13 32.19 34.19 36.69 34.52 31.91 33.62 37.02 34.89 34.43 33.58 34.51 34.29 33.08 33.30 32.74 31.73 32.73 30.69 29.96 29.09 28.78 27.83 29.62 29.15 28.09 27.48 27.25 25.54 24.89 23.14 22.43 20.43 18.96 18.28
28.10 27.08 27.69 29.92 27.13 25.73 31.21 28.28 31.02 33.64 31.66 33.94 36.84 35.89 33.60 34.49 31.65 32.37 33.17 31.91 31.31 30.33 30.41 30.55 29.32 29.13 29.48 29.03 28.88 28.28 27.74 30.07 28.40 27.71 26.05 24.52 23.62 23.38 22.26 19.68 18.87 17.68 16.69 15.02
27.43 32.99 31.47 32.52 30.98 27.36 30.53 29.95 32.46 33.44 34.82 31.35 33.56 34.63 35.07 31.73 30.67 30.71 30.02 29.65 29.19 29.25 28.28 28.42 28.60 27.92 27.94 27.68 27.86 27.33 28.45 26.68 24.58 23.66 22.52 21.15 19.86 20.50 18.91 16.84 16.25 14.69 14.63 14.82
27.14 28.44 29.51 29.90 27.23 27.56 28.55 31.74 30.13 31.13 31.66 31.76 32.27 32.19 32.41 30.21 29.21 27.86 27.89 27.68 27.65 27.81 27.40 26.77 26.28 25.44 25.78 26.04 25.99 27.83 25.47 23.49 21.32 21.05 19.44 18.17 16.52 17.22 15.83 16.73 17.14 16.20 16.41 15.06
26.91 27.69 26.37 22.97 24.14 26.07 29.36 30.05 31.71 31.76 30.17 29.13 29.48 30.20 31.11 30.06 27.36 27.65 27.75 27.80 27.81 27.97 26.60 26.07 25.78 25.61 25.80 26.03 25.55 25.37 22.57 20.59 21.33 20.96 18.71 18.77 17.47 15.64 15.54 15.57 16.70 16.31 17.70 18.71
26.24 25.39 24.52 24.98 27.10 30.17 29.20 32.24 33.19 30.05 29.17 29.07 28.67 27.12 27.51 29.01 28.11 28.02 27.51 28.03 27.67 27.02 26.04 24.17 23.97 23.30 23.94 23.36 22.51 21.29 19.59 19.02 20.35 19.79 18.61 19.09 17.96 16.07 16.54 16.16 15.04 19.49 19.98 19.77

GFSCGP_sfc_wetblb_048.txt.gz
Wetbulb
45.88 40.63 38.42 41.90 43.44 44.02 42.77 40.58 39.33 42.12 43.03 41.33 40.70 41.27 43.72 42.96 42.07 41.63 42.38 41.93 41.08 40.82 40.72 41.72 43.14 45.40 46.62 47.09 47.90 47.65 47.50 47.86 48.72 47.58 46.36 44.54 42.06 40.51 40.02 40.43 40.91 41.08 42.25 43.70
41.22 38.04 44.37 46.43 45.65 43.37 42.07 39.72 38.94 42.71 42.46 39.84 40.13 40.41 43.60 43.55 42.48 43.34 43.72 42.04 41.08 38.62 38.69 40.79 41.76 44.24 46.49 46.24 46.71 47.50 48.17 49.01 49.33 47.34 45.13 41.26 38.97 38.26 37.65 37.70 37.83 38.39 38.74 38.85
40.46 43.27 46.09 44.48 42.56 41.32 40.82 39.09 38.63 39.61 40.45 39.40 37.15 36.14 40.01 44.09 45.15 44.15 44.14 43.82 42.08 38.90 38.10 38.88 40.43 41.74 45.37 45.23 45.97 47.06 47.50 45.82 43.89 42.24 41.34 39.87 38.59 36.68 35.38 34.51 34.88 36.32 36.91 36.87
42.00 45.75 42.70 41.95 41.05 41.88 37.72 42.77 42.22 40.67 36.92 31.83 37.91 29.52 38.23 42.04 42.95 42.67 42.01 40.91 39.58 39.18 39.40 39.29 39.96 39.92 40.42 41.57 42.78 43.71 43.65 42.92 42.57 41.65 39.62 38.06 36.04 33.48 33.06 33.55 33.89 34.61 35.09 34.72
40.24 40.55 39.93 39.82 41.09 43.01 39.59 41.75 39.57 38.43 35.74 33.98 35.20 32.58 37.22 42.56 41.70 40.59 40.12 39.84 39.08 38.79 38.86 38.32 38.40 39.09 38.45 38.92 38.69 38.79 38.98 39.14 39.36 39.07 38.12 36.44 34.41 33.91 33.91 33.33 32.57 32.66 32.79 33.19
41.53 42.61 42.03 42.00 41.33 41.95 42.43 39.21 37.59 36.31 35.19 28.10 35.15 34.87 34.61 39.71 40.90 41.23 40.73 39.88 39.29 38.44 37.52 37.30 36.90 36.52 35.76 36.03 35.98 35.64 35.52 36.05 37.15 36.84 35.95 34.36 33.57 33.34 33.06 32.22 31.20 31.06 31.26 31.40
38.89 39.50 41.44 42.50 38.07 40.06 39.70 36.24 29.28 27.11 26.08 26.70 33.55 33.00 37.27 40.82 39.80 42.16 40.93 40.20 39.24 38.66 37.55 35.85 33.90 33.61 33.63 34.17 34.40 34.82 34.34 34.18 35.20 35.02 34.86 34.46 34.08 33.97 32.89 32.16 31.06 30.37 29.72 29.16
34.28 32.58 39.86 41.25 41.16 38.31 36.28 37.27 30.50 23.54 25.46 27.10 28.86 27.36 34.75 37.63 38.98 39.74 41.84 40.44 39.20 37.77 37.44 35.28 34.18 34.06 33.87 34.01 33.32 32.95 32.59 32.37 33.70 34.23 34.17 34.34 34.38 33.50 32.79 32.23 31.32 30.09 29.08 28.79
36.90 36.59 41.23 41.37 42.45 42.60 36.17 33.34 40.23 31.42 22.51 23.48 30.53 33.79 39.13 36.55 35.56 36.34 38.09 38.37 37.86 37.50 36.75 35.33 34.83 34.10 32.99 32.27 31.69 32.00 32.42 32.64 32.94 32.98 32.79 32.51 32.43 31.96 31.20 30.83 30.27 29.11 29.26 30.42
41.58 35.81 38.77 36.37 40.08 39.47 37.57 39.83 31.03 31.16 20.80 21.50 29.03 30.72 33.47 33.04 34.29 35.15 36.60 37.18 37.82 37.84 37.03 35.76 34.95 33.74 32.80 32.24 31.76 32.19 32.22 31.95 31.86 32.20 32.23 32.12 31.65 31.36 30.82 30.31 29.08 28.20 28.23 28.67
42.28 38.67 32.49 35.65 33.89 35.36 34.24 32.93 34.77 35.70 31.54 25.07 24.23 30.32 37.91 39.98 38.08 35.35 37.82 38.57 38.07 37.68 37.13 35.57 35.40 34.13 32.98 32.55 31.70 31.13 31.33 31.37 31.18 31.55 31.26 30.79 30.49 30.65 30.49 29.38 28.71 28.11 27.81 27.41
42.31 39.39 30.17 31.94 37.32 38.35 39.13 36.46 36.33 31.56 28.11 30.47 28.24 33.06 36.54 38.13 39.36 38.25 38.38 38.92 38.48 37.97 37.04 36.19 35.61 34.01 32.84 32.33 31.42 31.18 30.77 30.69 30.70 31.29 30.77 30.32 30.35 29.82 29.00 28.52 28.18 27.40 26.44 26.28
41.78 35.62 29.48 32.01 32.85 35.76 33.47 36.02 38.45 38.18 32.81 31.64 27.20 31.41 36.55 36.95 36.96 37.46 37.46 37.63 37.68 37.11 36.58 36.02 34.83 33.76 32.89 32.27 31.57 31.20 30.95 30.78 31.00 30.93 30.04 29.11 28.41 28.21 27.63 27.25 27.05 26.75 25.53 24.80
44.04 37.57 34.63 32.94 34.59 35.48 30.20 33.19 36.05 36.03 30.46 29.99 32.88 34.16 33.02 34.64 34.81 36.40 37.07 37.67 37.46 37.11 36.98 35.85 34.82 33.96 33.30 32.68 31.77 31.22 31.03 31.22 30.75 30.19 29.26 27.84 27.85 27.83 27.60 27.13 26.44 25.90 25.22 23.99
41.85 35.18 36.06 37.91 39.33 37.87 33.13 33.09 34.17 33.12 35.18 31.80 35.01 35.69 39.60 40.19 36.53 38.00 39.31 38.03 37.44 36.70 36.45 35.88 35.02 34.40 33.20 32.20 32.08 31.93 31.37 31.02 30.85 30.08 28.86 28.26 27.89 27.97 27.62 26.75 25.76 25.02 24.44 23.66
39.57 34.61 36.46 34.61 36.22 37.69 35.79 36.63 33.86 34.44 35.42 36.22 36.86 36.10 41.42 43.13 40.17 37.03 37.92 37.77 36.94 36.76 37.05 37.04 36.22 35.09 33.51 32.90 32.42 31.96 31.43 30.05 30.42 29.43 28.52 28.22 28.15 27.64 27.29 25.70 24.80 23.76 23.04 22.21
36.22 34.54 32.11 31.24 34.21 34.91 31.58 35.50 36.95 37.00 36.53 36.17 32.12 37.68 38.48 38.83 37.07 36.28 36.21 37.59 37.33 37.50 37.62 37.18 36.67 36.23 35.45 33.71 33.38 31.89 31.54 30.26 29.19 27.85 27.06 27.66 27.78 28.41 26.09 25.07 23.43 22.34 21.40 20.97
34.24 33.47 33.79 31.36 32.91 25.89 33.77 37.52 39.47 38.22 39.14 39.40 37.87 35.32 35.35 38.02 39.35 38.13 39.49 38.56 37.85 38.12 37.93 37.84 37.91 37.38 35.91 35.17 33.41 32.64 30.30 29.07 28.75 28.34 28.36 27.51 28.36 26.64 24.70 23.54 22.61 21.24 20.74 19.82
38.18 34.26 32.12 30.20 30.85 32.97 34.10 29.52 32.14 33.67 35.44 40.44 39.73 39.67 33.91 33.92 34.70 33.64 37.24 38.00 38.22 37.63 38.29 38.31 38.17 37.75 36.34 34.69 34.52 31.91 29.89 28.83 28.42 28.40 28.24 28.11 27.50 26.03 24.66 23.46 21.39 21.45 19.90 18.12
32.31 36.07 32.84 29.11 27.75 26.72 25.69 28.16 32.68 36.69 29.41 35.30 38.67 37.56 31.17 32.90 31.85 33.37 34.78 35.60 37.19 37.14 36.46 36.18 35.97 35.04 34.95 32.81 32.30 31.30 29.47 28.42 27.67 28.10 28.46 28.10 27.68 26.65 24.66 23.52 20.67 19.94 16.87 18.86
26.31 28.45 27.96 30.23 28.96 29.98 27.38 26.80 30.50 26.46 27.82 28.17 30.78 31.34 31.41 32.70 35.04 35.35 32.89 32.60 34.15 33.87 33.08 33.35 33.16 32.57 31.87 30.33 29.54 28.09 27.25 27.74 29.01 27.15 26.24 26.05 25.89 25.65 24.63 21.99 18.11 18.30 16.04 17.82
27.11 26.20 26.05 28.77 27.49 25.82 27.01 26.44 29.52 29.49 28.03 30.47 30.78 30.45 30.10 28.60 28.56 29.03 29.60 28.92 28.80 28.93 29.69 30.05 29.51 29.07 28.88 28.50 28.46 26.31 26.52 28.01 25.18 24.86 24.63 24.01 24.44 24.00 22.16 20.03 14.30 15.04 15.53 12.08
27.68 30.79 29.83 30.44 30.34 26.68 27.03 27.48 30.35 31.14 29.93 28.95 30.47 30.82 30.72 27.89 26.75 27.40 27.11 26.47 26.26 26.74 27.19 27.03 26.04 25.66 26.16 25.99 26.58 25.10 24.72 24.41 22.73 22.85 22.12 19.55 18.50 19.20 18.69 16.52 13.97 12.12 11.47 12.51
26.16 27.41 29.08 29.25 28.22 27.12 27.82 31.88 29.36 29.55 29.05 28.31 28.22 30.08 28.93 26.86 26.18 26.11 25.54 25.49 25.32 23.74 23.86 22.89 24.26 23.67 22.18 20.24 23.47 22.21 22.82 22.11 21.22 19.54 17.61 16.40 16.46 14.12 12.66 15.17 14.43 13.80 12.11 11.48
25.26 27.98 25.98 22.43 24.18 27.23 29.01 30.23 31.53 30.55 28.53 27.45 27.70 27.59 27.63 26.21 25.54 25.51 24.48 23.84 24.62 25.19 24.21 23.74 23.93 22.69 21.45 20.20 19.15 18.28 18.93 19.01 17.74 16.73 15.16 13.80 12.57 12.90 10.75 12.05 13.28 13.98 11.49 14.01
24.32 25.09 25.34 25.29 27.04 29.68 29.97 32.28 32.60 31.37 28.70 27.36 26.58 25.48 26.33 26.51 25.88 25.21 24.14 24.31 24.31 23.35 21.52 20.89 19.74 19.27 17.34 17.90 15.54 13.57 13.21 15.25 15.68 13.83 13.97 13.54 12.47 10.37 10.96 10.07 7.82 19.84 20.32 21.30

GFSCGP_sfc_wetblb_051.txt.gz
Wetbulb
42.24 37.22 34.92 37.71 38.78 39.53 38.03 36.05 35.44 38.69 41.45 39.02 37.90 38.21 40.13 40.94 39.62 38.73 38.39 38.81 39.16 39.01 38.63 40.36 42.68 43.54 45.04 45.39 46.93 47.45 46.99 47.07 46.69 46.09 44.17 42.51 40.16 39.33 38.73 38.13 38.49 39.22 40.12 40.44
38.73 35.50 41.25 42.35 41.46 40.03 38.62 36.44 35.92 39.14 40.52 38.70 37.61 37.55 40.43 40.28 40.95 41.43 41.58 40.21 39.80 36.39 37.13 39.46 41.32 42.63 43.16 44.58 46.09 47.61 47.93 48.34 48.24 46.82 43.66 41.38 38.37 36.96 35.82 36.30 36.37 36.87 37.14 37.28
36.83 40.65 44.09 42.29 40.56 39.28 37.84 36.38 35.37 37.46 37.85 37.44 35.16 34.56 37.44 41.02 41.37 41.29 42.62 42.37 41.03 37.44 36.91 37.75 39.61 41.60 42.14 43.34 45.43 47.59 48.03 47.49 44.04 41.75 40.00 38.10 36.51 34.85 34.29 33.58 34.14 34.59 35.57 35.61
39.32 43.41 42.10 40.14 39.55 40.57 35.39 40.31 39.90 38.55 34.99 30.59 35.57 29.79 35.43 38.31 39.69 39.86 41.95 39.73 39.66 37.23 38.00 38.89 39.58 40.02 41.17 42.62 46.24 46.18 44.97 42.78 41.33 41.03 38.83 36.90 35.05 32.49 30.98 31.98 32.45 33.14 33.63 33.68
38.05 39.23 38.70 38.88 39.27 41.18 37.68 39.57 37.89 36.83 33.30 31.25 31.70 28.97 33.69 39.27 39.61 42.43 41.71 40.93 39.18 37.54 37.72 38.37 39.66 40.58 39.45 40.99 42.53 42.66 42.18 41.72 39.88 38.89 36.87 35.01 32.67 32.80 32.62 31.78 31.34 31.22 31.68 32.02
38.98 40.73 41.04 40.67 39.67 41.48 40.37 37.80 36.75 34.72 32.86 26.50 33.19 31.83 32.87 37.60 40.56 42.38 39.90 37.76 36.93 36.62 37.20 38.10 38.45 37.65 36.44 37.34 37.96 38.14 36.26 36.06 36.82 36.59 35.14 33.89 32.42 31.76 31.11 30.41 30.00 30.06 30.18 30.49
37.11 38.03 39.76 41.06 37.38 38.91 38.51 34.72 27.27 25.97 24.53 26.69 32.66 30.36 37.01 38.92 40.62 41.37 40.05 37.48 36.41 36.73 36.12 36.40 35.61 35.77 34.18 33.44 33.29 33.83 34.54 33.94 34.54 34.37 33.68 33.40 32.69 32.65 31.40 30.45 29.97 29.50 29.25 28.87
33.40 29.99 37.87 40.38 39.47 37.01 35.39 35.09 28.54 21.76 23.55 25.84 29.11 27.04 34.31 39.64 39.71 38.31 40.22 40.04 37.57 36.35 36.75 35.72 35.07 34.37 33.61 33.31 32.54 32.70 32.59 33.00 33.70 33.86 33.33 33.60 33.42 33.24 32.57 31.81 30.98 29.92 29.22 28.75
33.18 33.64 38.69 38.57 41.06 41.89 34.09 32.79 38.82 31.04 18.94 22.10 29.17 32.38 37.39 36.31 36.65 35.73 36.77 37.32 35.88 35.68 35.37 33.92 33.32 33.37 33.12 32.19 31.94 33.11 32.82 32.32 32.63 33.14 33.16 32.91 32.51 32.12 31.35 30.05 29.49 28.89 28.33 28.99
39.32 33.39 35.59 35.29 39.79 37.95 36.65 38.07 30.36 29.65 19.85 18.83 27.05 28.34 33.00 33.81 36.04 34.86 34.72 34.76 34.85 35.12 33.82 33.35 33.03 32.64 33.18 33.38 31.10 30.69 31.53 32.18 31.62 31.75 32.44 32.13 30.80 30.60 30.14 29.98 28.49 27.96 27.60 27.67
40.10 38.84 31.19 34.15 33.20 34.31 34.17 32.43 33.66 34.03 29.28 22.82 21.54 30.34 36.25 38.81 38.93 34.94 36.16 36.52 35.50 35.37 34.17 33.61 33.58 32.56 32.41 31.33 31.12 30.97 30.89 30.78 30.93 31.48 30.30 30.42 30.05 29.98 29.52 28.80 27.78 27.16 26.72 26.08
41.04 38.38 28.09 31.44 34.64 35.43 35.77 35.26 33.85 29.53 26.91 27.83 26.93 33.14 36.32 36.22 38.07 37.16 36.81 37.53 37.80 37.46 35.56 34.13 33.77 31.91 31.55 31.17 30.55 30.30 30.45 30.37 30.59 30.95 30.25 29.72 29.75 29.24 28.42 27.59 26.75 26.12 25.60 25.54
41.08 35.58 28.69 29.15 31.73 33.58 33.37 35.65 38.71 36.67 30.64 30.84 25.52 32.55 35.05 35.75 35.74 35.93 35.13 35.87 36.95 36.39 34.94 33.76 33.15 31.64 31.74 31.10 30.64 30.51 30.52 30.51 30.53 30.48 29.73 28.77 28.35 27.89 27.15 26.46 26.11 25.54 24.69 24.15
43.96 36.34 34.87 32.41 33.69 34.73 30.32 32.47 35.38 36.54 30.90 30.76 33.00 36.11 32.82 34.19 35.49 34.91 35.01 35.69 35.36 36.07 35.29 34.25 33.33 33.00 32.46 31.85 30.94 30.35 30.24 30.67 30.30 29.84 29.28 28.29 27.66 27.57 27.07 26.64 25.82 25.13 24.26 23.31
41.88 34.55 34.19 37.53 36.80 35.23 32.78 32.85 34.47 33.63 35.42 32.76 36.51 36.06 39.70 38.75 36.65 37.32 35.98 34.82 34.86 35.20 35.10 34.60 33.80 33.28 32.63 31.51 30.85 30.75 30.81 30.83 30.88 29.94 28.87 28.42 28.11 27.18 26.91 26.27 25.62 24.65 24.16 23.37
39.62 34.01 35.63 34.30 35.11 35.54 34.31 33.90 33.64 35.03 35.92 36.36 37.13 36.58 40.44 41.89 40.80 36.07 36.67 36.36 35.69 35.53 35.88 35.82 35.10 33.92 32.24 31.89 31.38 30.86 30.90 30.86 30.78 30.05 29.10 28.67 28.04 28.03 26.97 26.24 25.86 24.60 23.55 22.89
36.62 34.95 33.10 32.08 33.93 34.12 31.42 35.31 36.84 37.16 36.63 36.09 32.15 37.95 37.14 38.65 38.89 35.94 35.30 36.79 36.86 37.04 36.68 36.36 35.44 34.46 33.45 32.82 33.12 31.19 31.14 30.93 29.58 29.33 28.65 28.02 28.45 27.51 27.03 26.99 25.11 23.88 23.08 21.23
34.51 35.43 34.25 32.39 32.61 25.79 34.33 38.71 40.54 38.74 39.69 39.41 37.28 37.58 35.52 38.77 39.77 37.74 37.04 37.53 37.37 37.81 37.36 37.02 36.59 35.89 34.21 33.63 32.84 32.13 30.38 29.67 29.36 28.62 28.12 28.24 27.79 27.76 26.88 25.44 25.32 23.04 21.49 20.70
40.19 35.74 32.78 30.52 30.83 32.26 34.76 30.73 34.05 35.29 36.11 41.27 40.37 40.83 41.32 36.46 34.05 34.73 36.51 37.28 39.03 38.01 38.51 38.16 37.85 37.21 35.20 33.28 32.88 31.03 29.20 29.25 29.08 28.67 28.46 28.46 28.96 27.87 26.37 25.32 24.13 23.38 21.65 20.29
34.66 38.20 34.08 30.37 28.55 26.95 29.41 28.40 31.45 36.93 32.16 37.41 40.00 40.80 40.83 33.92 32.45 39.01 34.97 35.49 36.04 36.59 36.69 35.54 35.49 35.03 34.79 33.55 31.68 30.35 29.29 28.76 28.28 28.94 29.06 29.24 29.69 28.48 26.68 26.44 24.22 23.07 22.16 21.81
29.41 31.15 29.53 31.11 30.15 29.75 29.17 27.26 29.91 28.90 29.70 25.75 29.08 32.42 32.13 34.40 37.23 35.60 34.39 34.31 34.73 34.66 34.69 35.18 35.10 34.72 34.84 33.30 32.15 30.43 29.09 27.99 29.27 28.47 27.20 27.19 27.36 27.80 27.26 25.96 22.63 19.40 20.20 18.93
28.43 27.53 27.15 29.53 27.75 26.09 31.40 28.43 30.68 31.24 28.95 29.56 29.69 30.19 30.86 30.27 29.42 30.14 30.77 30.75 31.52 32.36 31.79 31.51 30.90 30.03 29.45 30.39 31.10 27.42 27.43 28.39 25.17 25.13 25.31 26.23 26.14 26.20 24.47 22.94 19.09 18.55 18.09 16.13
28.01 30.63 28.32 31.14 30.80 27.92 28.26 29.71 30.74 31.01 28.88 28.83 30.55 29.57 29.68 28.23 27.17 27.46 27.42 28.48 29.00 29.52 29.35 28.99 29.54 27.87 27.69 26.40 28.28 26.94 25.09 24.41 23.08 22.94 23.49 22.78 21.51 22.66 22.61 21.66 16.84 14.01 15.13 17.05
27.85 29.03 31.51 30.99 30.74 27.82 27.58 31.59 29.80 28.51 27.60 28.13 29.73 30.45 27.98 26.92 26.97 26.72 26.10 26.31 26.29 24.59 24.75 22.90 24.66 23.52 21.64 19.81 22.55 20.20 21.36 20.77 20.27 18.71 16.58 15.07 18.17 13.65 11.65 15.30 16.43 16.67 14.80 14.41
29.37 29.91 28.21 26.68 25.24 27.27 29.50 29.85 31.86 30.26 28.43 27.40 27.33 28.58 28.78 27.27 26.22 26.17 24.44 23.31 23.78 23.48 21.92 21.73 22.18 20.35 18.60 17.34 16.14 13.89 16.27 17.77 16.58 13.93 14.61 14.54 12.56 12.36 11.47 12.35 11.82 13.53 11.02 15.15
25.63 26.84 27.69 27.42 29.76 31.43 31.14 31.63 31.75 31.87 28.52 27.49 27.14 26.14 26.18 26.78 26.16 25.34 24.06 23.61 23.31 22.13 19.47 18.89 16.88 18.40 14.17 14.93 11.71 8.46 8.96 14.33 16.40 14.71 13.99 12.97 12.38 10.50 10.31 10.47 8.77 20.01 19.92 21.51

GFSCGP_sfc_wetblb_054.txt.gz
Wetbulb
40.02 36.49 34.29 37.11 37.29 37.73 36.11 34.16 33.95 36.51 40.76 38.27 36.83 37.37 39.81 39.76 37.94 37.54 37.28 37.50 38.10 38.88 38.25 39.17 42.37 43.38 44.14 44.26 44.79 45.10 47.10 46.62 47.06 45.55 43.89 43.17 39.53 39.79 39.69 40.07 39.02 39.69 39.92 39.78
37.51 34.40 40.23 40.72 39.77 38.08 36.40 34.23 33.93 37.20 39.76 37.93 37.09 36.16 39.09 38.80 39.09 40.59 40.55 39.45 39.55 36.81 36.48 38.56 41.18 42.06 43.52 44.04 44.76 45.16 45.64 46.52 47.41 46.95 42.62 40.51 38.64 37.24 37.39 36.87 36.13 36.73 36.93 36.61
36.07 39.81 42.14 40.92 38.40 36.87 35.98 34.31 33.44 36.05 36.44 35.97 33.94 32.75 36.20 39.70 40.07 40.35 42.31 42.90 41.87 39.58 37.56 37.63 40.52 41.28 41.90 43.27 44.02 45.83 45.84 46.61 44.83 40.95 39.15 37.26 37.09 36.74 35.44 33.04 33.40 34.30 35.09 34.68
37.72 41.63 40.53 38.40 37.44 38.71 34.08 39.13 38.42 37.08 34.17 30.01 34.55 28.36 33.79 36.81 38.55 39.00 41.72 40.00 41.25 39.29 38.31 38.55 40.40 40.91 41.69 42.90 44.11 46.02 48.31 43.30 41.34 40.77 38.83 38.08 36.65 34.19 31.96 31.65 32.01 32.17 32.92 32.59
37.27 38.13 38.51 37.48 38.50 40.48 36.85 39.02 37.08 35.33 32.03 29.78 31.46 28.32 32.28 35.37 36.35 39.48 42.48 40.86 39.94 38.21 38.08 38.09 40.04 42.49 42.10 43.07 45.51 43.83 42.53 41.46 40.68 40.15 39.42 37.46 33.24 32.58 31.67 30.98 30.40 30.13 30.35 30.74
37.61 39.77 40.51 40.31 39.68 40.95 39.41 36.74 35.28 32.95 31.20 25.94 32.89 30.71 31.58 35.16 38.88 40.66 43.09 42.11 39.23 37.42 37.62 38.92 40.23 41.87 40.48 39.70 42.36 42.58 41.52 39.98 39.65 39.02 37.43 35.87 32.36 31.18 30.34 29.50 28.86 28.13 28.25 28.63
35.93 37.24 38.60 39.93 37.25 38.18 37.87 35.38 26.64 25.23 23.67 26.19 30.92 28.96 36.52 38.19 40.41 40.75 42.99 40.53 36.68 36.78 36.66 37.14 37.94 39.59 38.36 37.55 38.69 40.92 40.30 38.09 37.36 36.07 35.22 34.44 32.56 32.03 30.74 29.57 29.01 28.37 27.85 27.04
32.98 30.39 37.49 39.42 39.25 36.91 35.63 34.54 27.50 20.34 22.05 24.50 28.75 26.81 33.45 38.66 41.76 40.29 38.83 37.96 35.25 34.67 36.39 36.88 38.15 39.48 37.78 36.03 36.12 39.21 37.89 35.27 35.38 33.89 32.80 32.46 32.17 31.43 30.71 29.94 29.39 29.06 28.55 28.40
32.17 31.85 36.16 37.18 38.71 40.95 33.56 31.65 36.56 30.47 16.65 21.48 28.73 31.80 36.94 37.41 37.34 37.69 37.86 35.02 32.91 33.97 35.06 35.96 37.20 37.47 35.89 34.80 34.05 36.19 36.02 35.57 33.44 32.88 32.36 31.43 31.31 30.51 30.21 29.13 28.65 28.60 27.89 28.30
37.47 30.73 33.78 34.48 38.36 36.40 35.41 37.91 30.05 28.52 19.44 18.22 26.57 27.63 32.74 33.94 36.12 38.13 37.02 34.35 33.21 33.23 33.16 33.86 34.62 34.66 34.84 34.42 32.67 32.87 34.80 33.19 32.17 31.99 32.32 32.17 31.77 30.97 30.35 29.72 27.89 27.30 26.82 26.98
38.09 35.78 30.54 33.56 33.16 33.56 32.86 31.89 32.41 32.56 28.40 21.93 19.71 29.03 34.87 38.33 38.25 37.81 37.79 35.87 33.64 33.21 33.00 33.01 33.27 33.35 33.14 32.46 30.96 30.77 31.03 30.48 30.57 31.96 31.71 30.94 30.32 29.86 29.29 28.19 27.38 27.09 26.72 26.05
39.28 37.57 27.50 30.68 33.54 34.13 34.35 33.28 33.05 27.49 25.06 27.05 26.24 32.57 35.85 37.26 38.60 38.09 38.10 36.61 34.92 35.23 33.39 32.89 32.30 31.37 30.81 29.82 30.11 30.22 30.30 30.55 30.89 31.16 30.68 30.61 29.61 28.90 27.93 27.32 26.76 26.45 26.16 25.72
39.91 34.10 25.20 28.80 31.71 32.49 31.91 34.60 37.54 34.72 30.87 28.61 26.12 32.91 34.51 34.93 36.54 36.92 37.42 34.86 34.26 33.83 31.76 32.04 31.36 30.53 30.84 31.05 30.66 30.33 30.23 30.54 30.19 30.00 29.35 28.28 28.29 28.37 27.83 26.91 26.62 26.09 25.27 24.85
43.29 36.45 32.20 30.50 31.82 33.41 30.06 32.33 34.99 36.38 31.44 30.84 32.83 35.84 35.32 35.81 36.28 37.18 36.13 34.54 33.68 33.91 33.19 32.19 31.67 31.15 32.05 32.03 31.35 30.26 30.52 31.10 30.41 29.63 29.26 28.54 28.21 28.39 27.93 27.03 26.24 25.84 25.52 24.63
41.32 34.54 34.72 37.02 37.10 34.72 33.13 32.64 34.65 33.62 35.77 33.39 36.90 36.26 41.08 39.46 38.21 39.13 37.23 34.39 33.31 33.17 32.93 32.67 32.40 31.64 31.93 31.74 31.41 31.39 31.65 31.03 30.69 30.10 29.08 28.67 28.71 28.48 27.39 26.60 26.31 25.78 24.79 24.59
39.81 35.32 36.77 34.34 36.78 34.06 32.32 32.41 34.39 35.51 36.48 37.00 37.69 37.38 41.21 41.55 38.30 36.52 37.34 35.20 34.14 34.48 34.73 34.19 33.79 32.76 31.70 31.59 31.09 30.92 31.11 30.37 30.27 30.01 28.90 28.94 27.88 27.77 27.45 26.86 25.89 24.88 24.70 23.59
37.40 36.36 33.22 31.94 35.47 32.63 30.41 35.12 33.27 34.17 37.04 36.63 33.36 38.63 40.03 40.18 39.29 38.29 37.01 36.05 36.36 36.22 35.95 35.09 34.40 33.76 32.98 32.38 32.24 30.45 30.85 30.27 29.34 29.46 29.17 28.59 28.28 27.83 27.23 26.92 25.98 24.91 24.33 24.14
34.70 36.47 35.74 32.86 32.86 26.24 35.38 40.78 40.89 38.46 38.05 37.95 37.65 39.59 38.18 40.08 41.79 40.72 38.22 36.91 36.71 37.57 37.03 36.29 35.77 35.09 34.08 33.52 32.23 31.71 30.07 29.48 29.37 29.60 29.40 28.63 28.51 27.95 27.22 26.49 25.70 25.10 24.50 23.47
40.79 36.32 32.09 30.70 31.04 32.63 33.28 31.15 34.39 35.37 36.52 41.53 40.26 41.34 42.27 41.45 33.74 38.91 37.54 38.38 39.27 38.43 38.85 38.04 37.36 36.39 34.78 32.93 32.45 30.53 29.15 29.37 29.25 29.04 29.17 28.74 28.77 28.16 26.98 26.33 25.76 25.57 24.47 23.09
39.57 40.51 33.39 30.61 28.85 27.27 31.90 30.90 33.82 37.63 32.94 38.63 40.32 40.93 41.25 36.81 33.68 40.05 40.78 35.24 35.88 36.96 35.65 34.70 34.62 32.30 32.06 31.90 30.96 29.28 28.78 28.80 28.75 29.49 29.52 29.27 29.14 29.30 27.67 27.70 26.89 27.02 25.69 24.70
30.61 33.92 30.97 31.28 30.74 31.21 30.13 27.37 32.00 31.36 31.49 25.09 28.15 31.19 32.77 35.43 38.56 33.52 33.12 33.10 33.04 33.39 33.54 33.37 33.67 32.38 31.79 31.14 30.59 29.35 28.70 28.35 30.16 30.26 29.63 28.86 29.12 29.60 29.18 28.89 27.98 26.84 24.35 23.21
29.71 28.83 28.82 31.06 29.41 27.46 31.98 28.98 31.24 32.31 27.49 28.56 28.90 29.77 31.98 30.31 29.92 29.50 30.71 31.10 31.51 31.72 31.60 31.61 31.22 30.63 30.63 30.30 30.66 29.45 28.77 30.02 30.40 29.51 28.36 28.21 28.95 29.11 28.56 28.19 26.79 23.69 22.39 19.91
29.28 32.93 29.28 31.48 31.64 30.95 30.35 30.65 30.54 30.72 29.10 29.79 30.79 29.70 29.66 28.86 28.14 28.20 28.78 29.22 29.36 29.61 29.36 29.11 28.88 27.92 28.08 27.46 28.38 26.43 24.69 24.46 24.25 25.19 25.75 25.89 26.14 25.75 25.50 24.73 20.29 16.10 17.48 18.60
28.69 29.89 30.32 31.67 31.60 30.51 28.76 29.61 30.61 30.63 29.25 28.54 30.28 28.76 28.23 27.76 27.85 27.74 27.80 27.86 27.36 24.51 25.06 23.63 26.17 24.80 22.34 20.94 23.49 23.05 23.18 23.11 23.91 23.01 20.72 19.17 20.88 17.34 16.43 19.11 18.94 18.74 17.79 17.46
28.75 30.78 29.55 30.20 30.22 29.32 32.16 30.35 32.99 28.53 28.38 27.56 27.28 28.84 28.05 28.07 27.18 26.97 25.08 23.71 24.02 23.71 22.24 23.62 24.72 23.09 20.31 20.03 18.56 15.56 19.40 20.36 19.48 16.69 15.68 15.51 15.72 16.19 13.74 14.20 15.65 17.78 12.08 17.28
27.23 29.05 30.62 29.29 31.76 33.90 33.25 33.19 32.10 29.91 28.30 28.00 27.41 26.79 26.20 27.66 26.94 25.63 23.80 23.15 22.45 22.02 19.05 19.59 17.76 19.54 15.95 17.57 15.39 14.37 12.68 18.32 18.18 16.10 14.89 14.04 14.66 12.80 13.20 12.29 8.17 20.66 19.77 22.54

GFSCGP_sfc_wetblb_057.txt.gz
Wetbulb
38.95 35.90 33.96 37.07 36.16 35.80 34.80 32.44 32.46 35.74 38.93 36.58 36.20 36.73 39.89 39.24 36.83 36.62 37.14 37.69 38.34 39.09 40.87 38.47 39.32 42.65 43.40 44.00 44.60 45.11 47.53 47.65 46.88 46.51 45.64 45.30 41.89 41.75 41.47 41.95 42.00 42.52 40.57 39.44
36.39 33.61 39.03 39.41 38.02 36.01 34.15 32.59 32.63 35.77 37.78 37.11 36.07 35.52 37.98 37.51 38.24 39.56 39.99 39.72 39.17 39.59 36.45 37.89 38.49 41.43 42.61 43.84 44.33 44.62 46.00 47.26 46.86 47.42 41.35 41.47 40.27 37.66 38.17 39.18 38.81 39.00 37.04 36.56
35.22 38.37 40.51 39.57 36.54 35.60 34.17 32.68 32.13 34.52 35.25 34.76 32.62 32.57 35.12 39.26 39.10 38.91 40.66 42.24 42.12 41.32 39.00 37.74 38.09 41.10 42.49 43.24 44.01 45.24 45.69 46.91 47.66 40.36 39.11 37.78 37.98 37.53 36.77 36.61 36.27 35.96 35.10 34.65
36.73 40.00 39.30 36.80 35.88 37.37 32.62 37.39 36.55 34.89 33.19 29.05 33.15 28.57 32.92 35.86 37.74 38.21 40.75 40.88 41.65 41.39 39.48 38.74 38.69 40.47 42.28 43.92 44.32 45.55 45.11 46.58 41.54 41.10 39.84 40.04 39.81 38.60 36.22 35.28 34.43 32.59 32.51 31.90
36.24 37.03 36.93 36.09 36.92 38.84 35.39 37.85 35.63 33.76 30.60 29.22 29.99 27.86 31.17 33.68 35.33 38.73 41.82 41.76 42.36 41.87 39.47 38.25 38.98 41.28 42.73 43.97 44.19 45.06 45.57 42.28 40.65 40.90 40.91 40.49 39.23 34.94 34.31 33.46 32.60 30.11 30.33 30.54
36.29 38.75 39.66 39.46 38.48 39.61 38.73 35.70 34.06 31.52 30.10 24.93 33.31 29.91 33.30 33.37 38.16 39.01 42.00 42.57 40.47 38.49 37.56 37.92 39.10 40.80 41.87 42.86 44.25 45.34 45.10 41.59 39.41 40.30 39.72 37.72 34.48 32.89 32.42 31.71 30.56 29.02 28.51 28.64
34.34 36.32 37.53 39.33 36.83 37.01 36.86 34.35 26.64 24.04 22.67 25.54 28.11 27.63 36.18 36.38 38.87 40.08 42.03 41.74 38.79 36.33 34.98 35.22 36.85 39.95 40.61 41.32 43.95 45.40 42.90 38.60 39.30 39.12 37.77 36.09 34.92 34.52 32.53 31.23 29.87 28.58 27.81 26.91
31.45 29.21 36.66 38.79 40.21 36.29 35.14 34.57 27.11 19.22 20.43 23.63 28.29 26.14 32.30 37.66 40.45 39.20 39.64 39.14 36.36 34.40 34.40 35.44 37.51 39.93 40.13 41.19 42.92 43.55 41.43 37.25 37.79 37.37 36.35 35.92 35.01 34.41 33.37 31.63 30.39 29.38 28.33 27.46
30.81 30.83 35.63 36.71 37.98 40.77 33.02 30.89 36.18 29.87 16.22 21.26 28.37 30.66 35.79 37.65 37.07 37.81 38.31 36.35 34.02 35.28 33.55 34.48 36.46 39.20 39.53 39.89 40.81 42.37 39.31 36.91 37.05 36.57 35.45 34.62 33.98 32.97 31.82 28.29 27.58 27.47 26.71 27.88
35.33 29.06 33.00 34.37 37.85 36.05 34.93 37.13 29.57 27.51 18.90 16.28 25.47 26.96 31.12 35.23 36.91 38.13 38.48 37.05 34.82 33.51 32.78 33.71 35.90 37.73 38.21 38.19 37.40 37.51 37.36 36.13 36.23 35.16 34.81 33.73 32.71 32.03 29.15 28.77 27.64 27.16 27.21 27.64
36.65 33.99 29.55 32.89 32.35 32.35 32.58 31.28 30.83 31.60 27.54 20.82 18.69 28.28 34.28 38.34 38.28 38.95 38.53 38.19 36.44 34.18 32.46 33.02 34.78 35.21 35.83 35.05 33.11 33.47 34.22 34.98 34.32 33.88 33.50 32.27 31.13 29.29 29.26 28.88 27.57 26.94 27.22 26.54
38.07 36.09 27.08 29.97 32.82 33.80 33.62 32.82 33.33 27.17 23.56 26.08 25.30 31.49 36.63 37.00 38.09 37.99 39.30 38.63 34.95 33.94 32.33 31.98 32.93 32.23 31.77 32.08 31.83 31.73 31.74 32.71 34.25 33.70 32.45 31.16 29.69 28.89 28.47 27.70 26.93 26.78 26.66 26.39
38.95 33.37 23.50 28.21 30.16 31.49 30.70 33.23 36.25 33.27 29.56 26.57 24.86 31.54 33.98 34.17 35.20 36.69 37.71 36.41 34.78 33.22 30.99 30.99 30.52 31.17 31.58 31.44 31.43 31.53 31.97 32.06 32.49 32.18 31.15 29.36 28.64 28.27 28.11 27.12 26.90 26.82 25.96 25.52
42.66 35.92 30.70 29.31 29.86 32.47 29.28 31.66 33.96 35.49 30.59 30.39 31.87 35.16 35.82 36.04 35.67 37.39 37.75 35.85 34.39 32.88 31.71 31.02 30.65 31.15 31.78 31.81 31.59 31.50 31.02 31.20 30.49 30.50 29.92 28.70 28.33 28.95 28.84 28.04 26.87 26.38 25.99 25.41
40.68 32.48 34.74 36.15 34.47 32.78 31.38 31.34 33.39 33.19 35.05 31.51 35.58 35.14 40.15 41.14 37.83 40.19 38.82 36.52 33.93 32.85 31.58 31.42 31.68 31.18 31.40 31.59 31.57 31.62 31.35 30.65 30.66 30.40 29.66 29.32 29.35 29.88 28.99 27.31 27.00 26.44 25.90 26.07
40.72 33.38 34.31 32.98 35.51 34.28 32.30 32.15 33.57 34.80 36.13 36.18 36.95 36.60 41.44 39.73 38.41 36.99 39.24 37.59 34.99 34.21 34.34 33.67 33.12 32.28 31.45 31.95 31.65 31.41 31.28 30.58 30.59 30.58 29.72 29.85 29.12 28.33 27.37 26.61 26.23 25.90 25.39 24.61
36.88 35.14 33.64 31.46 35.00 34.21 30.44 33.92 35.74 35.22 37.28 37.19 33.27 38.86 39.47 41.22 39.48 40.10 39.93 37.18 36.60 36.78 36.49 34.78 33.65 33.31 32.54 32.47 32.71 31.23 31.36 30.64 29.71 29.87 28.93 28.29 28.71 27.91 27.38 26.91 26.00 25.37 24.58 24.65
34.97 35.63 34.49 32.57 32.89 25.94 35.40 40.95 39.85 37.66 38.03 38.28 39.03 40.66 39.97 40.30 41.90 41.45 39.33 38.07 37.53 38.17 37.21 35.95 35.39 34.63 33.80 33.40 32.36 32.15 30.68 29.70 29.77 29.75 28.50 28.53 28.40 28.00 27.16 26.40 25.78 25.20 24.93 24.08
41.58 36.62 33.82 31.16 30.67 33.88 34.49 34.99 34.61 35.13 36.31 41.21 38.36 40.08 41.35 40.98 34.68 40.54 38.29 39.63 41.12 38.27 39.28 38.64 37.36 36.08 33.66 32.42 31.97 30.10 28.85 29.00 29.14 28.79 28.85 28.85 28.88 28.10 26.89 26.42 25.85 25.54 25.06 24.33
38.36 40.50 33.70 30.59 28.48 26.73 33.35 33.56 36.40 38.95 33.30 41.94 40.65 41.16 40.83 38.53 34.47 40.94 39.23 36.00 36.99 37.30 36.14 35.39 33.88 32.21 31.74 30.79 30.17 28.89 27.67 27.94 28.09 29.19 29.58 29.53 29.60 29.13 27.64 27.50 26.56 26.68 26.38 25.87
29.59 33.03 32.04 31.51 30.22 32.08 30.73 27.53 33.60 31.59 32.18 27.18 35.02 40.17 38.75 36.43 39.18 34.01 33.65 33.43 32.48 32.72 31.68 32.37 31.38 30.80 29.88 29.14 28.85 27.52 27.22 27.49 29.56 29.92 29.16 28.74 29.04 29.41 28.92 28.38 27.82 27.53 26.64 26.03
29.82 30.32 31.02 32.26 30.20 27.86 30.15 30.25 32.93 33.14 29.13 28.71 29.03 30.28 32.06 32.90 31.78 30.95 31.30 30.66 30.82 30.47 30.32 30.02 28.81 27.74 27.45 28.19 28.43 26.85 27.48 28.72 28.53 28.90 28.47 28.67 29.43 29.75 29.72 29.76 28.74 28.31 27.47 26.33
28.19 31.78 28.91 31.95 31.94 36.96 32.62 34.14 33.60 31.94 30.89 30.56 30.35 31.34 31.36 30.17 29.65 28.61 29.24 29.45 29.53 29.01 29.62 28.76 28.06 27.02 26.46 25.91 27.65 26.69 27.94 30.01 30.34 30.25 30.46 30.91 31.06 31.18 30.91 29.70 28.80 27.21 26.40 25.45
28.27 30.66 30.02 31.34 32.68 32.12 30.70 29.67 30.27 29.40 29.43 28.95 30.72 29.98 28.70 29.47 29.34 28.83 28.65 28.39 27.39 23.68 23.47 23.00 26.00 24.15 22.32 23.04 24.73 24.73 25.09 26.34 28.76 28.35 26.34 25.52 27.19 25.46 26.48 27.90 25.47 23.94 22.31 22.03
26.85 29.01 27.73 28.94 31.05 30.81 31.23 29.94 31.33 29.11 28.68 28.84 29.46 29.81 28.99 29.10 28.10 28.54 25.76 23.79 23.40 22.50 21.50 22.89 25.40 23.54 20.74 20.73 19.69 19.11 20.63 23.08 22.45 21.11 18.82 19.29 19.89 20.73 18.03 18.27 19.95 21.41 18.64 22.90
28.25 28.76 30.07 28.12 29.60 31.96 32.16 32.29 31.74 28.86 29.00 28.92 28.91 27.59 26.86 27.82 27.77 26.53 25.09 24.31 22.95 22.53 20.30 22.35 21.25 21.02 17.40 16.93 14.82 13.46 13.25 17.68 18.43 16.42 16.04 16.79 17.66 17.11 17.56 16.94 14.26 22.14 21.40 24.61

GFSCGP_sfc_wetblb_060.txt.gz
Wetbulb
37.73 34.99 33.20 36.35 34.85 34.03 33.36 31.17 31.65 33.64 37.54 35.36 35.30 35.29 38.10 39.27 36.00 36.92 36.99 37.06 38.39 39.35 43.06 39.82 38.97 39.13 41.83 42.71 43.99 44.85 47.14 47.23 48.59 47.99 47.71 46.98 44.42 43.88 43.55 44.27 45.17 46.08 45.40 45.97
35.09 32.37 37.97 38.49 36.61 35.25 33.20 31.57 31.50 34.52 36.10 35.68 35.29 35.17 38.61 37.90 38.05 38.56 40.09 39.71 39.44 39.87 38.09 38.03 37.63 38.65 41.57 42.92 44.14 44.58 48.77 46.32 48.71 49.84 45.28 43.81 41.69 39.25 40.03 40.62 40.39 41.44 41.54 41.65
33.79 36.55 38.83 38.45 35.06 34.49 32.73 31.38 31.05 33.64 34.25 33.88 31.57 31.53 33.58 37.85 38.17 38.94 39.23 41.73 41.00 41.66 41.47 37.87 37.09 38.60 40.83 42.29 43.74 45.16 47.73 46.92 47.52 43.68 39.73 39.55 39.66 39.18 38.84 37.85 38.03 37.59 38.59 37.52
34.96 38.42 37.93 35.08 34.41 36.51 31.41 35.95 34.79 33.16 31.67 27.66 31.54 26.19 32.19 36.15 37.53 37.57 40.39 39.09 40.73 41.57 40.78 39.39 38.19 37.77 40.27 42.56 44.47 45.42 46.05 48.09 46.87 41.59 40.35 42.56 41.42 39.94 38.90 37.22 36.05 35.10 35.83 34.69
34.94 35.89 35.87 35.10 35.96 37.32 34.53 36.54 34.58 33.19 29.86 28.09 27.02 27.70 30.36 32.61 35.45 39.07 40.91 41.18 41.10 41.54 39.96 39.12 38.44 39.89 41.00 42.66 43.91 45.11 44.85 46.53 42.90 42.63 42.72 43.03 41.16 35.22 36.47 35.02 33.73 33.33 33.03 32.12
35.03 37.32 38.36 38.19 37.24 38.07 37.73 34.98 33.21 30.62 29.20 25.18 29.26 29.52 31.46 31.79 36.80 37.86 42.04 40.70 40.52 39.36 37.98 37.33 37.23 38.11 39.87 42.45 43.69 44.78 44.32 42.43 40.94 42.44 42.14 42.28 36.24 35.64 34.85 33.43 32.63 32.12 31.43 28.79
33.38 35.14 36.48 38.50 35.75 36.16 35.21 33.58 26.32 23.10 21.48 24.67 26.68 26.89 34.58 35.25 36.94 38.81 41.06 41.11 37.72 37.62 36.16 35.18 35.13 37.05 39.22 41.21 43.65 44.91 45.22 42.04 40.79 40.44 41.15 39.65 38.24 37.33 36.46 33.86 33.12 30.83 29.69 26.53
30.43 28.97 35.54 38.05 38.47 35.29 34.13 34.39 26.61 17.89 18.68 22.81 27.58 25.60 31.13 37.16 39.39 39.10 38.82 39.31 36.96 36.49 36.10 34.88 35.07 37.38 39.07 40.79 43.52 45.08 45.61 42.18 40.05 39.56 37.33 37.51 37.04 37.27 36.92 35.48 33.86 32.92 31.59 28.64
28.30 28.82 34.37 35.47 36.72 40.01 32.70 31.06 34.85 29.25 14.50 20.27 27.67 29.25 34.86 36.33 37.13 36.93 38.23 36.21 36.15 36.15 36.26 34.45 34.49 37.13 38.36 40.04 42.50 44.36 43.62 40.78 39.98 38.92 35.88 35.10 36.38 35.61 34.57 33.43 32.81 31.71 30.80 28.45
34.03 28.52 31.89 33.30 36.60 35.30 34.40 35.96 28.58 26.75 18.35 15.13 25.02 26.04 29.42 34.38 37.37 37.81 38.22 37.64 36.64 35.71 35.23 33.40 34.21 36.29 37.78 39.65 42.13 43.24 42.26 38.84 38.91 38.07 36.44 35.60 35.62 34.96 33.85 32.09 30.32 29.21 28.76 28.00
35.98 32.97 29.05 32.03 31.52 31.22 32.19 30.83 29.73 30.45 26.81 19.69 17.46 29.26 32.86 36.45 37.59 38.10 38.64 38.21 37.25 36.45 34.95 33.29 33.95 35.82 36.97 37.60 37.86 39.34 39.49 38.19 36.73 36.71 35.06 35.12 34.14 33.24 31.69 31.07 30.30 29.39 27.37 26.42
36.98 34.33 27.19 29.53 31.59 32.16 31.86 32.04 32.05 26.70 22.78 24.03 24.17 31.23 35.46 36.28 36.45 36.96 38.55 37.80 35.94 35.28 34.81 32.64 33.39 34.05 33.97 34.46 33.92 34.77 37.20 37.70 36.71 35.04 34.15 33.99 32.50 31.47 31.01 30.54 28.99 28.13 26.28 26.69
37.69 33.19 21.77 28.10 29.56 30.46 29.95 32.31 34.96 31.58 28.77 25.22 23.87 31.21 33.86 34.18 35.96 36.33 37.10 36.61 36.49 34.44 32.15 31.56 31.52 32.02 32.83 33.07 33.77 34.79 34.28 35.42 34.54 33.23 33.55 32.48 31.16 30.79 30.34 29.34 28.23 26.57 26.07 26.18
42.47 35.78 32.04 29.52 29.39 31.29 28.66 30.49 33.02 34.90 29.31 30.19 29.27 34.56 36.73 34.96 36.65 37.03 37.35 36.33 35.98 34.51 33.11 31.11 30.30 31.26 32.35 33.25 33.36 33.50 33.37 33.60 32.28 32.48 33.01 31.59 31.07 30.55 30.23 28.70 27.43 26.65 26.65 26.05
41.10 32.48 34.52 34.97 34.75 31.89 31.51 30.85 32.81 32.85 34.56 30.06 34.63 34.07 38.65 40.34 38.30 40.05 39.65 36.91 36.38 35.01 33.14 31.82 31.21 31.13 31.57 32.03 32.58 33.16 33.48 32.26 32.12 32.10 31.83 31.36 30.89 30.87 29.45 28.08 26.94 26.77 26.13 26.04
40.25 33.10 34.26 32.30 34.76 34.89 32.90 32.79 33.13 33.85 35.24 35.57 36.10 35.63 41.44 40.16 39.00 36.22 39.43 41.16 38.19 35.64 35.82 34.57 33.00 31.80 31.23 32.20 32.39 32.74 32.86 31.64 31.40 31.27 30.81 31.43 30.10 29.33 28.52 27.04 26.66 26.22 25.94 25.46
37.12 34.93 32.55 30.94 33.32 32.37 29.24 32.88 34.40 33.85 36.04 36.10 32.22 37.75 41.40 40.40 38.28 41.44 40.18 38.44 37.94 38.10 38.35 36.59 34.56 34.07 33.39 32.74 33.42 32.30 32.60 31.31 30.23 30.10 28.83 28.66 29.58 28.75 27.82 27.04 26.26 25.66 25.09 25.24
34.55 34.87 34.69 31.83 30.61 25.41 34.72 38.69 39.37 37.26 37.60 38.04 38.19 39.88 41.51 41.77 42.11 40.90 43.14 40.60 38.74 39.28 38.54 37.04 36.73 35.72 34.65 33.66 32.85 32.73 31.17 29.84 29.70 29.71 28.53 28.43 28.67 28.32 27.54 26.65 26.15 25.91 25.38 24.71
37.43 34.69 32.64 30.60 30.39 32.68 33.02 33.63 33.82 34.38 35.46 40.56 39.07 40.45 41.82 42.70 34.09 39.26 40.52 40.12 42.04 40.54 39.10 39.65 38.65 36.67 33.39 32.43 32.33 30.42 28.96 28.93 29.06 29.02 28.53 28.59 29.09 28.48 27.00 26.33 25.89 25.72 25.14 24.73
36.07 36.87 32.25 30.32 28.51 25.26 31.91 30.31 35.31 38.25 32.47 39.40 39.89 40.65 40.48 37.87 33.54 39.65 37.25 35.18 37.24 36.50 35.65 35.69 35.27 33.07 31.09 29.53 29.83 28.87 27.84 27.46 27.83 28.63 28.46 28.90 29.53 28.96 27.46 27.35 26.32 26.20 26.07 25.50
30.07 31.00 29.35 31.41 30.48 32.18 30.49 28.22 33.69 31.16 31.33 27.73 30.92 37.42 36.79 34.69 39.56 35.05 33.00 33.07 32.17 32.19 32.28 31.76 30.56 30.27 29.14 28.21 28.38 27.09 26.30 26.38 27.50 27.80 27.97 28.72 28.97 28.78 28.50 27.64 27.25 26.37 26.04 25.54
30.22 30.12 30.19 31.48 29.28 27.67 31.06 29.88 31.94 33.69 29.74 29.37 29.82 31.47 32.35 33.36 34.01 32.37 31.07 30.94 30.77 29.64 29.15 28.84 27.89 26.88 26.47 26.71 27.17 25.02 25.03 25.91 25.97 26.78 26.95 27.62 28.94 28.76 28.78 28.36 27.54 26.94 26.51 25.82
26.69 33.17 31.10 32.68 31.49 35.77 32.30 31.94 33.58 32.25 33.40 31.35 31.64 33.05 31.98 30.90 30.59 29.47 29.92 28.37 28.26 27.48 28.76 27.17 25.59 24.87 24.80 23.45 25.04 24.37 24.00 25.84 25.80 26.54 27.48 28.58 29.41 29.27 29.35 28.58 27.59 27.26 27.62 26.88
30.17 30.79 29.45 29.29 32.02 34.19 33.16 31.13 30.06 29.55 30.73 29.69 30.13 30.45 29.83 29.40 29.60 29.04 28.89 28.53 27.49 23.45 23.73 23.52 24.69 23.12 21.39 22.17 24.77 25.38 26.98 29.56 30.18 29.41 28.96 29.31 29.36 29.40 30.00 30.21 29.44 29.53 28.13 27.53
30.00 31.05 28.88 29.19 31.21 31.34 32.07 30.16 29.70 30.42 29.11 28.46 28.85 29.40 29.58 29.01 28.85 28.87 26.72 24.34 23.47 22.59 21.76 23.05 24.55 23.02 20.34 20.65 20.49 21.95 23.62 27.34 27.44 26.37 24.87 26.84 27.30 27.99 26.12 23.99 25.84 26.03 22.00 27.39
28.94 28.71 28.46 28.12 32.00 32.11 31.64 29.85 30.64 30.04 28.97 28.44 27.91 27.83 27.38 28.09 28.73 27.24 24.39 24.25 23.91 23.89 22.95 23.64 22.02 20.59 18.53 17.89 16.48 16.54 18.80 22.36 22.51 20.29 20.28 20.71 20.41 19.75 19.81 19.03 16.77 24.14 23.92 26.95

GFSCGP_sfc_wetblb_063.txt.gz
Wetbulb
37.88 35.64 33.80 36.42 35.38 34.19 33.79 31.75 31.70 34.25 37.59 36.89 36.28 36.16 39.03 40.40 38.70 38.47 39.81 40.52 40.92 41.11 44.99 43.26 42.89 42.90 42.37 44.05 45.35 46.94 49.00 50.98 51.04 50.67 50.17 50.08 48.36 47.34 47.49 48.68 49.84 51.46 51.80 52.04
35.17 32.59 37.74 37.94 36.39 35.62 33.72 31.96 32.66 34.85 36.06 36.54 35.82 35.95 39.68 39.09 41.35 42.57 43.20 42.67 42.24 43.22 41.60 41.17 41.44 41.20 41.93 43.49 45.01 46.44 48.67 49.81 50.45 52.09 50.09 48.29 45.61 43.54 43.93 43.89 44.63 46.74 47.83 49.06
33.47 36.14 37.83 37.69 34.35 33.85 32.37 32.00 31.73 34.05 34.56 34.35 33.07 32.21 34.33 38.39 39.84 41.71 41.18 43.12 42.85 43.37 44.16 42.55 39.65 40.50 41.73 42.44 44.20 46.14 48.29 49.29 50.17 50.44 43.84 41.75 41.91 42.61 40.78 41.06 41.49 41.45 44.79 44.62
34.47 37.61 37.14 35.00 33.79 35.74 31.09 35.37 34.66 33.45 32.63 28.52 32.64 26.30 32.97 36.02 38.34 38.18 40.72 41.04 42.23 43.38 42.89 42.34 39.86 39.84 40.39 42.47 44.71 46.46 48.12 48.59 49.10 44.84 46.72 45.63 46.79 44.23 42.31 42.20 40.29 38.87 40.48 40.91
34.56 35.11 35.02 34.17 35.42 36.61 33.95 35.20 34.07 32.83 30.75 29.63 28.95 28.72 32.41 33.33 35.51 38.27 41.89 41.87 42.46 42.03 42.17 41.83 40.04 41.22 41.37 42.63 43.87 46.09 47.64 48.10 47.27 44.98 47.24 46.76 45.72 43.38 41.14 39.49 38.33 36.76 36.81 37.59
34.16 36.78 37.54 37.40 36.43 37.11 36.59 34.46 33.01 30.59 29.66 25.05 29.64 30.28 33.41 32.30 36.42 38.41 40.53 41.88 41.88 40.53 40.43 39.99 39.78 39.47 39.43 41.63 43.86 45.54 46.37 48.03 44.36 44.14 45.71 46.54 45.08 38.66 38.53 37.39 36.93 35.56 34.74 33.86
32.91 34.55 36.11 37.84 34.99 35.81 34.77 33.16 25.86 23.13 22.40 25.28 27.15 28.13 35.83 35.53 37.34 39.04 41.07 42.90 39.68 40.05 40.31 39.18 37.76 37.26 38.46 40.79 42.96 44.85 45.74 46.33 43.92 44.80 44.53 45.84 41.90 40.66 40.27 38.40 37.71 33.92 32.89 31.85
29.66 27.89 35.24 37.82 37.23 34.54 33.06 33.32 26.60 18.37 18.85 23.04 27.33 25.59 32.04 37.20 38.98 38.77 39.38 39.55 38.16 39.09 39.73 39.49 38.10 37.18 38.32 40.47 42.48 44.23 44.91 44.97 43.29 44.00 43.83 43.98 41.41 40.94 40.98 39.84 38.10 36.54 35.61 34.13
28.08 28.67 33.96 34.89 36.00 38.90 32.81 30.72 34.67 28.60 14.73 20.86 26.67 29.51 34.47 35.62 36.83 37.54 38.81 37.51 37.36 38.63 38.98 38.40 37.30 36.72 38.12 40.03 41.99 43.94 44.89 45.81 42.61 43.37 43.27 40.74 40.17 40.63 39.90 38.26 36.88 35.54 34.97 32.69
32.89 28.05 31.75 33.40 35.76 34.75 34.17 36.05 29.16 26.86 18.77 15.22 24.83 26.51 31.23 34.46 37.42 38.76 37.94 38.85 38.59 38.42 38.50 37.29 36.25 36.25 37.91 39.67 41.61 43.95 45.39 45.65 41.86 41.97 40.47 39.32 38.83 38.87 38.53 36.93 34.81 32.81 31.71 31.10
35.27 32.24 28.50 31.84 31.16 31.23 31.97 30.88 29.91 30.13 26.88 20.04 17.78 28.22 33.02 36.45 37.43 37.06 38.21 39.10 38.97 38.26 38.56 37.75 35.99 36.06 37.43 38.78 40.48 43.15 43.99 41.49 39.77 39.64 39.20 37.73 36.44 36.24 35.89 35.14 33.30 31.69 30.62 29.76
36.72 33.60 27.16 29.32 31.62 31.90 31.11 31.28 31.56 26.32 22.50 23.95 23.69 31.21 35.06 36.57 38.02 36.84 37.67 38.45 37.96 37.82 37.99 36.39 35.36 35.42 36.06 37.38 38.50 41.00 41.50 39.13 38.97 38.71 37.93 36.80 34.66 34.30 33.50 33.60 31.60 30.97 30.14 29.44
37.27 32.58 21.12 27.66 29.12 29.73 29.48 31.35 33.71 30.97 28.80 25.23 24.49 31.76 34.14 34.85 35.95 36.62 37.62 37.17 37.88 37.47 36.23 34.95 33.88 34.38 35.05 35.96 36.84 37.81 39.32 39.13 37.89 37.25 36.79 35.88 34.31 33.50 33.21 32.29 30.59 29.95 29.36 28.80
41.66 34.68 30.83 28.98 29.00 30.82 28.37 29.74 31.87 33.92 26.30 29.99 28.39 34.25 37.44 35.36 37.36 37.81 38.43 37.94 37.61 37.48 36.36 34.95 33.71 33.40 34.21 35.01 35.52 36.27 36.93 37.66 36.25 35.72 36.15 35.28 33.95 33.64 33.37 31.81 29.81 29.24 28.91 27.95
40.64 34.28 34.24 35.13 34.78 32.53 32.33 30.88 32.84 32.54 34.20 30.20 34.41 33.85 38.19 39.30 38.50 40.85 41.77 38.45 38.11 38.00 36.00 35.00 34.25 33.88 33.29 33.67 34.42 35.30 36.27 35.30 34.91 34.98 35.14 35.01 33.77 33.48 32.50 30.24 29.17 28.74 28.06 28.08
40.18 34.41 35.40 33.35 35.66 36.05 33.41 32.57 31.70 33.32 34.71 35.27 35.45 34.98 42.49 42.80 39.31 37.60 39.78 42.13 42.04 39.36 38.23 38.22 37.33 34.35 32.81 33.45 34.02 34.41 35.02 34.62 34.24 34.38 33.99 34.17 32.58 31.63 30.76 29.53 28.58 27.65 27.16 26.78
35.30 35.31 32.45 30.26 34.22 33.92 29.52 34.05 35.00 35.11 35.48 35.80 31.35 37.04 41.35 40.23 39.02 40.40 39.57 39.11 39.58 39.74 40.88 39.81 38.07 36.69 35.34 34.24 34.84 33.97 34.69 34.21 33.03 33.71 32.98 31.79 31.19 30.47 29.96 29.08 27.91 26.89 26.26 26.07
33.08 31.90 31.90 31.27 31.78 24.33 34.18 39.97 38.55 37.19 37.56 38.37 38.62 40.39 41.56 41.62 40.11 40.37 42.37 40.89 40.61 39.63 40.06 40.64 40.06 38.24 36.89 35.68 33.76 34.25 33.44 32.18 31.99 32.62 32.08 31.33 30.25 29.71 29.24 28.09 27.30 27.07 26.50 25.72
37.55 33.22 30.13 28.76 29.68 32.50 33.09 33.42 32.75 33.39 34.67 39.72 38.56 40.03 41.38 42.45 35.75 40.31 43.48 40.68 42.71 42.36 40.85 40.10 39.65 38.93 36.46 33.99 33.12 32.03 30.83 30.69 30.69 31.12 30.53 29.96 29.78 28.61 27.80 27.56 26.89 26.81 26.17 25.87
36.24 36.49 31.88 30.42 25.84 23.42 31.30 34.66 34.95 37.48 32.05 38.81 39.76 39.92 40.10 37.83 33.54 39.63 37.50 36.02 37.42 36.45 35.60 35.31 35.59 35.17 33.78 31.79 30.75 30.19 29.20 28.68 28.79 29.93 29.83 29.28 29.12 27.91 26.87 28.06 27.26 27.26 26.86 26.23
27.69 30.57 28.56 30.15 28.38 31.49 35.45 31.90 34.27 30.56 30.44 28.03 31.30 37.70 34.30 35.10 39.58 37.65 33.97 35.79 33.17 33.03 32.85 32.31 31.81 31.96 31.36 29.24 28.77 27.74 27.19 27.30 28.11 28.21 27.81 27.83 28.39 27.46 27.84 27.52 27.47 26.81 26.09 25.63
28.73 28.13 28.14 30.06 27.53 24.97 35.67 32.78 34.22 36.72 32.23 32.56 32.11 32.91 34.44 35.11 35.86 35.18 32.76 32.61 32.22 30.94 31.04 29.88 28.60 27.12 26.86 27.08 27.04 25.39 25.40 26.26 26.38 26.50 26.17 25.99 26.22 27.95 27.36 26.19 26.62 26.89 26.40 25.41
24.30 29.75 27.13 31.98 31.49 36.13 33.99 36.82 35.15 32.96 31.80 31.75 30.76 32.19 31.59 31.01 31.42 31.96 30.61 29.70 29.29 28.60 28.59 25.81 24.32 24.44 24.24 23.37 24.96 24.37 23.65 24.82 24.76 25.07 24.63 25.73 26.95 27.42 28.05 27.48 26.81 26.44 26.68 25.76
29.18 29.50 27.89 27.95 28.78 30.86 34.07 35.41 32.62 32.78 32.95 31.72 30.59 30.90 30.35 29.57 29.54 30.10 29.25 28.50 27.52 23.63 24.08 22.06 21.70 21.42 21.15 21.37 23.12 22.65 23.27 24.05 25.37 26.18 26.88 27.60 27.54 28.22 28.95 28.93 28.24 27.77 27.08 26.59
25.51 28.65 25.32 28.04 32.73 33.98 35.41 33.37 32.89 32.89 32.11 29.58 28.54 29.17 28.75 28.70 29.34 29.05 26.58 24.70 24.47 24.46 23.68 24.63 24.37 21.35 20.02 21.30 21.91 23.22 24.71 30.63 29.61 28.84 27.76 28.69 29.01 29.05 28.54 27.96 28.70 28.27 28.87 29.90
26.53 27.80 28.06 28.56 30.34 32.41 33.32 31.13 31.89 31.36 30.34 29.65 27.60 26.91 26.20 26.49 27.47 26.28 24.53 24.40 24.49 24.33 23.67 22.56 20.95 19.65 18.16 18.10 17.22 18.75 23.34 27.01 26.57 24.95 25.85 26.46 26.27 25.84 24.79 23.81 21.92 27.85 28.46 31.13

GFSCGP_sfc_wetblb_066.txt.gz
Wetbulb
44.97 44.46 42.40 44.82 45.51 42.79 42.16 41.05 40.53 42.91 43.23 42.91 44.01 44.36 46.35 48.67 48.54 48.30 49.10 49.79 50.74 51.05 52.92 52.97 52.49 52.35 52.34 53.55 52.90 53.04 53.25 54.77 56.08 56.23 55.48 54.86 54.55 55.40 53.23 54.32 55.41 56.99 58.40 57.87
43.47 41.18 45.90 44.03 43.14 42.15 41.65 41.09 41.23 43.47 41.84 42.12 43.55 42.81 46.18 47.59 47.78 49.13 49.66 50.23 50.82 51.69 52.46 51.88 51.33 51.22 50.65 51.26 51.66 52.25 52.77 54.11 55.74 55.83 55.83 55.72 55.49 53.92 54.70 50.97 51.12 52.62 54.56 55.39
41.92 43.10 44.08 42.72 40.54 40.38 41.34 40.64 40.83 40.30 41.14 41.79 40.83 41.03 44.06 46.82 47.05 48.15 49.02 50.21 50.74 51.15 51.42 52.06 51.10 50.44 50.73 50.43 50.93 51.28 52.20 53.52 54.97 55.54 55.84 53.24 52.26 50.30 46.16 46.73 47.48 48.18 50.60 51.73
42.70 43.70 41.58 40.76 40.36 41.95 38.76 42.35 41.47 39.78 39.45 36.99 40.38 34.95 42.04 44.71 45.04 45.64 47.94 49.81 50.35 50.77 50.96 51.00 51.71 49.76 49.98 50.70 51.48 51.38 51.90 52.88 54.17 55.15 53.55 52.10 52.88 52.07 50.10 47.62 47.82 44.66 46.66 47.25
40.89 39.95 40.03 39.66 40.94 42.49 40.55 41.39 40.65 39.51 39.30 37.55 39.25 35.30 40.36 40.81 42.04 44.81 47.57 49.25 50.69 51.51 51.19 50.79 50.65 49.89 50.59 50.56 50.32 50.90 51.42 52.11 53.34 54.51 53.39 53.69 53.88 54.70 50.33 49.84 44.29 42.35 42.56 43.60
40.54 42.14 42.72 42.46 40.29 42.54 41.23 40.66 39.60 39.06 38.61 33.07 38.75 36.90 38.59 41.90 43.00 45.08 47.03 48.52 49.81 50.14 49.99 49.90 50.03 49.38 49.29 49.62 49.34 49.98 50.33 50.94 52.40 52.56 52.87 53.18 53.71 51.47 45.95 46.62 45.10 41.17 41.16 40.74
38.82 39.84 41.47 42.01 39.44 40.65 41.43 40.04 33.50 32.06 30.94 31.73 35.70 35.00 39.13 43.48 43.98 44.94 46.57 48.56 48.61 48.42 49.10 49.13 48.29 47.14 46.52 46.52 47.54 48.54 49.33 49.51 51.26 50.99 51.74 52.53 53.52 51.31 49.35 45.29 44.72 41.68 41.22 40.88
34.99 32.99 39.65 42.29 42.38 39.86 38.87 40.03 34.77 29.37 29.10 33.79 31.99 31.66 39.45 44.52 45.56 45.79 46.45 47.20 47.81 46.37 48.51 49.32 49.29 47.92 46.63 45.84 46.91 47.83 48.08 48.68 50.38 49.96 50.62 51.78 52.93 50.73 50.80 47.70 48.34 45.60 45.32 46.90
34.75 34.48 39.49 39.64 42.21 43.19 37.71 34.80 41.38 35.13 27.01 30.21 35.94 39.70 43.32 43.37 42.97 43.92 44.54 46.93 47.90 48.19 47.98 48.62 48.76 47.23 46.29 45.80 46.40 47.38 47.86 48.20 49.63 48.96 49.93 50.28 50.89 49.12 48.14 46.37 49.20 48.60 47.73 44.04
39.48 33.63 37.31 38.39 41.27 40.52 39.76 42.18 34.38 34.74 29.09 27.47 33.65 34.92 37.29 41.95 44.19 45.02 45.09 46.11 47.01 47.70 48.27 48.28 47.48 46.26 45.43 45.93 46.55 47.35 48.11 47.74 48.34 48.34 49.14 49.21 48.72 48.80 48.23 44.77 43.95 42.27 43.06 37.71
41.41 36.92 34.83 37.96 37.29 37.82 37.60 36.57 36.31 36.86 34.70 30.95 29.80 35.20 43.70 43.74 45.04 44.62 45.88 45.31 46.43 46.88 47.03 47.81 46.94 45.13 44.70 45.11 45.58 46.41 47.21 47.45 47.22 46.99 48.12 47.33 46.12 45.68 44.23 41.02 40.20 38.70 36.84 33.24
40.60 37.11 33.33 35.69 38.89 39.32 38.99 39.18 38.85 33.41 30.31 32.60 32.09 34.79 42.05 44.02 44.47 43.82 44.92 44.60 45.68 45.26 46.22 46.84 45.94 44.39 43.56 44.03 44.82 45.49 46.46 46.46 47.07 46.50 46.79 46.19 45.20 44.23 42.44 39.90 39.39 37.57 34.35 33.79
40.43 35.83 31.31 33.33 35.26 35.96 35.54 38.08 38.50 39.23 34.95 33.51 31.18 35.36 41.91 42.09 43.76 43.79 44.61 45.86 46.04 44.87 45.65 44.98 43.53 43.64 43.97 44.17 44.37 44.77 45.56 45.84 46.26 45.61 45.14 44.70 44.01 42.64 42.03 40.50 38.52 37.38 34.77 32.91
42.27 36.57 34.66 32.53 36.40 37.98 32.89 36.06 37.45 37.34 32.03 33.17 34.55 37.65 42.33 43.06 43.69 44.70 45.91 46.67 46.18 46.49 46.09 45.81 45.06 44.59 44.46 43.74 43.80 43.69 44.46 45.43 44.97 44.29 43.78 43.57 42.95 41.37 40.18 37.75 35.81 35.52 34.37 31.77
40.08 32.83 35.91 37.46 39.01 38.56 37.57 37.21 36.59 34.70 36.88 33.80 37.05 38.04 41.64 44.02 44.73 45.97 47.38 47.75 47.24 47.51 46.40 46.38 45.65 45.89 45.10 42.68 42.34 42.39 43.50 43.89 43.92 42.83 42.73 42.57 41.71 40.85 38.92 35.53 33.89 33.52 32.56 30.85
41.08 33.36 36.84 33.86 38.31 38.09 35.27 37.44 37.14 36.35 37.53 37.17 38.41 38.21 44.88 45.91 46.80 46.04 45.93 46.72 46.68 47.79 48.69 48.95 45.67 44.87 42.93 42.42 42.10 41.95 42.11 42.14 42.21 41.73 40.97 41.42 39.79 37.59 35.92 33.57 31.89 30.96 30.27 29.52
33.35 32.77 32.55 29.98 35.77 35.25 30.97 35.24 37.56 38.41 39.92 39.85 35.54 40.85 45.25 44.64 44.67 44.91 46.00 46.11 45.92 46.67 47.24 47.64 47.33 47.04 46.05 44.84 43.46 42.02 42.14 41.81 39.55 39.29 38.98 38.38 36.98 35.49 34.42 32.45 30.57 29.39 29.08 28.97
33.39 32.43 32.02 28.49 31.02 23.28 35.91 42.38 41.88 39.60 40.63 42.10 41.36 42.35 44.05 45.17 46.77 46.72 47.64 46.74 46.36 46.29 45.87 46.24 47.10 48.30 47.85 45.22 42.71 41.81 40.05 38.69 36.99 37.00 37.11 36.06 35.19 34.65 33.49 31.41 30.43 29.66 29.08 27.85
38.15 33.79 29.65 26.54 27.49 31.49 34.34 38.21 38.05 37.58 37.57 42.77 41.94 43.60 44.91 45.76 44.67 44.98 47.57 47.50 47.19 47.75 48.07 46.76 45.86 44.47 43.89 42.60 41.50 38.55 36.52 36.55 35.52 35.37 35.87 34.89 34.42 33.42 32.19 30.76 30.16 29.54 28.37 27.49
34.87 36.27 30.98 30.21 25.22 23.35 33.76 38.31 38.87 41.09 32.99 43.60 43.63 43.06 43.66 44.22 37.73 42.16 45.83 44.23 43.78 42.09 40.35 39.27 39.36 38.80 39.11 39.41 36.34 34.61 34.07 33.71 33.27 34.13 34.90 34.49 33.61 32.48 31.22 31.57 30.63 30.48 29.31 27.65
29.08 29.09 27.74 26.91 25.95 31.41 37.68 36.55 38.73 31.19 35.41 35.92 37.66 41.32 41.29 40.48 43.66 45.91 40.32 41.50 39.32 37.44 37.06 36.97 36.45 34.59 33.88 33.22 32.85 32.36 32.09 31.73 33.06 33.18 32.72 32.20 32.81 31.71 31.95 31.42 30.88 29.62 28.22 26.47
28.56 28.45 28.64 29.74 26.53 25.67 38.38 35.53 35.21 36.97 37.41 39.48 38.01 37.83 37.79 39.33 39.99 40.02 39.31 38.13 37.25 35.47 34.86 33.13 32.22 30.12 29.91 30.68 31.61 30.28 30.03 30.30 30.98 30.86 30.52 30.60 30.87 31.04 30.88 29.74 29.58 28.87 26.88 25.83
25.69 30.96 28.25 29.16 27.91 36.54 37.30 37.42 39.71 36.25 34.28 35.57 36.07 38.10 35.96 35.98 36.85 37.16 36.62 35.46 34.39 31.79 30.48 28.61 29.06 27.87 27.31 28.21 30.34 29.54 28.19 28.83 28.54 28.49 27.52 28.81 30.09 30.14 30.04 29.35 28.44 28.57 28.25 26.67
31.49 33.94 29.47 30.12 33.05 36.07 36.48 37.65 36.95 36.22 34.47 33.99 33.66 33.59 33.64 33.36 34.49 32.57 32.43 31.10 30.21 28.59 27.95 26.98 27.35 25.83 25.01 26.30 26.64 27.63 27.40 28.04 27.39 27.51 28.03 28.53 28.84 29.34 30.17 30.27 29.78 29.13 28.06 27.47
31.84 32.74 31.24 31.57 33.90 35.79 36.36 37.41 37.22 37.12 36.88 36.05 34.89 31.78 32.01 31.17 31.33 31.81 30.00 28.46 28.04 27.67 26.39 26.53 24.97 23.70 22.84 24.92 25.88 27.86 29.37 30.35 30.13 29.39 29.10 29.74 30.03 30.07 29.41 29.37 29.75 29.25 30.30 30.21
31.85 29.63 27.73 26.80 33.80 34.02 33.94 36.22 35.42 35.36 35.22 35.04 32.39 30.92 30.23 29.02 30.64 29.15 26.99 27.21 27.39 25.92 25.25 23.48 21.80 20.79 20.07 21.05 21.09 22.74 28.00 30.81 29.74 27.97 28.81 29.69 29.76 29.66 28.59 28.03 27.91 31.08 30.94 32.63

GFSCGP_sfc_wetblb_069.txt.gz
Wetbulb
48.36 44.10 41.81 44.49 45.69 45.59 44.11 43.09 42.36 44.40 45.61 44.16 44.54 44.87 46.71 49.00 49.42 49.37 50.09 50.69 51.16 51.78 54.31 55.56 55.46 55.76 57.63 59.43 60.33 61.47 61.03 60.38 60.97 60.21 59.30 59.51 59.70 61.77 60.41 60.82 62.42 63.06 62.18 62.26
44.50 41.88 46.32 47.01 46.49 44.68 43.89 42.19 42.08 44.86 45.38 43.22 44.17 43.75 46.84 48.26 48.82 49.72 50.01 50.43 51.09 52.00 53.11 54.68 55.25 55.32 55.05 56.35 57.94 58.10 58.08 58.14 58.28 58.48 58.36 58.34 57.95 58.11 58.46 57.76 58.12 58.59 58.98 60.08
42.59 44.00 46.49 44.79 43.47 42.39 42.94 41.79 42.05 42.06 43.68 44.63 43.09 42.34 44.92 48.09 49.35 49.96 50.46 51.40 51.49 51.91 52.26 53.38 54.95 54.65 55.07 54.34 55.73 55.93 56.10 56.25 56.57 57.35 57.63 57.14 56.72 56.41 54.51 55.22 54.12 52.66 54.11 56.01
43.70 46.23 43.82 43.05 41.98 43.38 39.54 44.82 43.50 42.28 40.55 37.34 43.23 36.11 42.75 45.19 46.12 48.45 49.81 50.29 51.01 52.33 53.08 53.32 53.92 54.99 54.51 54.59 55.20 55.24 55.58 55.62 55.98 57.09 56.35 55.60 54.38 52.98 52.84 53.78 53.17 50.16 50.45 52.46
42.21 42.68 42.28 41.38 42.36 44.44 41.69 43.89 42.84 42.36 40.71 40.20 40.38 36.96 40.99 45.02 43.87 46.16 48.43 50.91 51.74 53.16 53.58 53.39 53.51 53.98 54.96 55.09 54.92 55.09 54.67 54.74 55.35 56.20 56.25 55.82 53.66 53.83 55.93 55.79 53.18 50.32 47.06 49.02
43.70 44.68 44.98 44.32 43.08 44.51 44.47 42.78 42.17 41.98 40.58 33.73 39.14 38.84 39.48 42.60 44.27 46.28 48.53 49.93 51.35 51.93 52.51 52.80 53.50 53.93 53.34 55.04 54.51 54.37 53.56 53.44 54.52 55.17 55.64 55.30 53.73 54.17 55.27 53.94 50.85 48.42 46.22 44.94
41.33 41.45 43.97 44.13 40.98 42.85 43.22 40.47 33.99 32.93 32.82 32.16 39.79 37.77 40.57 44.73 46.04 46.88 47.60 48.84 50.50 50.77 51.03 51.91 51.50 50.33 50.65 51.96 51.95 52.28 52.28 51.91 53.17 54.02 54.45 54.77 54.17 54.90 55.23 53.18 51.61 46.49 43.70 43.06
36.20 34.48 41.04 43.61 42.75 40.70 40.03 40.63 35.16 29.08 31.14 34.61 35.23 33.56 40.04 46.52 48.13 48.30 48.36 49.12 50.11 50.21 50.55 50.95 52.14 52.33 51.19 49.98 50.14 50.41 50.56 51.04 52.14 52.90 53.36 53.83 54.22 54.34 54.64 53.05 52.45 50.86 47.34 46.67
37.15 36.76 42.86 43.21 44.49 44.19 39.72 36.49 42.83 36.52 34.40 31.44 36.37 40.60 44.79 46.62 45.39 46.69 47.46 48.14 48.79 50.02 51.44 50.87 51.57 51.94 50.95 49.56 49.42 49.81 49.92 50.24 51.12 52.03 52.68 52.24 53.04 53.47 53.93 53.02 52.12 50.37 49.53 48.22
41.16 35.53 40.31 40.42 42.62 42.98 40.94 43.30 35.23 35.82 29.65 27.79 33.92 36.51 38.01 43.47 44.79 46.55 46.75 47.29 49.12 50.21 50.72 50.90 51.08 50.77 49.73 49.67 49.64 49.79 50.12 49.79 50.24 51.28 51.98 51.12 51.77 52.54 53.11 52.26 51.24 50.45 48.53 46.27
42.13 38.71 36.35 39.10 38.09 38.34 38.07 36.67 38.03 38.61 36.31 30.92 29.89 35.38 44.44 44.77 46.00 45.95 47.84 48.69 48.33 48.65 49.57 50.45 50.81 49.52 48.77 48.52 48.61 48.79 49.02 49.20 49.39 50.14 50.60 50.29 50.75 51.35 51.20 50.33 49.64 48.93 47.68 43.64
42.40 39.25 34.43 37.12 42.51 43.28 42.26 39.52 39.32 33.98 31.99 35.11 33.82 34.83 46.36 45.85 46.63 46.79 47.21 48.56 48.51 47.86 48.37 49.07 49.72 48.64 47.38 47.43 47.79 47.95 48.51 48.64 49.30 49.62 49.08 49.19 49.71 49.79 48.99 49.17 48.01 46.25 41.77 37.97
40.32 36.41 31.27 33.29 38.58 38.79 36.86 39.94 39.91 40.32 37.55 34.18 31.05 34.28 44.96 46.27 45.93 47.10 46.35 48.30 49.26 48.66 49.71 49.12 48.18 47.75 47.90 48.11 47.74 47.66 47.92 48.16 48.76 48.82 48.02 48.06 48.21 47.47 46.76 46.25 45.14 41.57 38.82 35.73
41.71 36.59 34.66 32.40 36.81 40.11 35.22 37.16 39.53 37.61 32.33 33.49 34.57 37.42 42.18 44.43 45.65 46.86 47.25 48.69 49.59 49.33 49.84 50.14 49.93 49.28 49.04 48.43 48.16 47.87 47.74 48.14 47.93 47.94 47.04 46.45 46.79 46.77 46.01 45.77 43.25 39.28 37.55 33.96
38.37 32.95 35.05 37.06 38.79 39.31 38.96 38.55 38.76 36.31 37.16 33.20 36.65 37.90 41.85 44.45 45.76 47.17 48.58 48.73 48.45 48.64 49.00 49.99 49.44 50.18 50.61 48.71 47.55 46.83 47.24 47.42 47.39 46.62 45.81 45.60 46.13 46.20 45.27 43.82 41.30 38.32 35.96 33.77
39.09 32.72 34.84 32.82 36.83 36.93 34.96 38.29 38.88 39.14 39.05 38.52 39.38 39.09 45.91 46.89 47.70 47.20 47.59 48.03 47.77 48.34 48.86 49.61 50.09 50.23 48.13 48.62 47.43 46.93 46.58 45.82 45.99 45.52 44.23 44.35 43.91 42.49 40.95 39.02 36.42 34.83 33.05 31.93
33.57 32.90 32.10 29.12 34.89 32.47 29.16 34.86 37.63 39.11 41.08 40.52 36.06 41.22 45.45 44.96 45.52 46.47 47.81 48.72 48.02 48.29 49.00 49.29 49.62 49.98 49.63 48.31 47.28 46.76 46.51 45.61 43.52 42.68 41.16 39.88 39.36 38.21 37.11 35.53 33.54 32.51 31.29 30.57
32.73 31.97 31.64 28.16 30.39 22.35 35.22 41.44 41.40 39.58 40.99 42.83 42.17 43.35 44.60 45.29 46.94 47.90 49.43 48.97 48.55 49.01 49.04 49.24 49.83 50.13 49.82 48.38 47.21 46.53 43.79 42.52 40.58 39.76 38.80 37.81 37.60 36.50 35.65 33.83 32.51 32.34 31.29 29.60
36.38 32.87 28.21 24.83 24.97 29.92 33.46 37.18 37.22 36.02 36.43 42.88 42.43 44.23 45.67 46.89 46.96 47.04 49.73 49.95 49.43 49.38 48.70 46.11 45.44 44.31 43.64 43.60 43.57 39.87 38.14 38.14 37.91 37.43 37.16 36.78 36.48 35.15 34.13 32.62 32.15 32.03 30.61 29.24
35.62 36.00 29.78 28.40 23.45 20.55 32.24 38.84 42.29 41.08 30.80 38.25 39.63 39.51 40.32 42.80 38.68 43.72 44.92 44.47 44.37 44.37 42.92 41.49 41.23 40.58 39.51 39.50 36.20 35.35 35.50 35.63 35.66 35.58 36.08 36.37 35.34 34.16 33.18 32.72 31.80 31.60 31.00 29.56
28.78 29.04 26.76 27.29 25.23 28.67 37.17 37.81 40.00 29.08 30.88 35.90 37.04 37.91 38.77 37.86 40.88 42.21 42.88 42.92 43.27 40.97 38.88 38.87 38.19 35.94 34.52 33.28 32.97 33.04 33.45 33.10 33.99 33.73 33.63 33.23 33.65 32.97 33.11 32.53 31.89 30.76 28.93 27.54
26.33 25.77 26.02 28.70 24.53 22.68 37.97 36.47 32.91 34.88 37.38 36.57 36.20 37.84 36.54 37.83 37.71 38.75 39.89 39.10 38.11 37.24 35.68 34.21 32.88 32.21 31.51 31.38 31.82 31.83 31.51 31.39 31.86 31.50 31.26 31.25 31.66 31.90 31.90 30.74 30.12 29.93 27.99 26.39
23.88 29.18 27.84 30.23 30.43 37.06 39.04 37.80 40.15 39.94 37.89 38.05 36.98 38.14 37.69 36.03 34.79 35.69 35.89 35.71 35.27 33.76 31.58 30.37 29.32 29.35 28.59 28.78 29.42 30.54 28.86 29.78 29.45 28.99 28.09 29.64 30.25 30.80 30.69 29.70 28.60 27.78 27.62 26.31
31.57 34.66 29.38 29.17 32.18 34.13 36.09 38.55 40.08 39.47 38.24 38.84 38.21 37.76 36.44 34.77 34.56 32.95 33.03 32.48 31.52 30.74 28.87 28.84 28.60 26.71 25.74 27.65 27.81 28.04 28.31 28.48 27.89 27.93 28.09 28.58 28.80 29.35 29.69 30.17 29.56 29.02 28.17 27.30
31.75 33.02 30.32 30.11 33.04 35.05 37.01 39.23 40.21 39.38 38.75 37.68 37.94 36.92 35.00 33.86 32.37 32.51 32.13 31.06 30.03 29.32 28.01 27.34 26.12 24.67 23.73 25.35 26.16 28.01 29.79 28.89 29.07 28.49 28.66 29.57 29.37 29.48 29.12 29.61 30.16 29.51 30.23 30.24
31.84 29.61 27.62 26.69 33.38 33.79 34.61 37.82 39.52 36.89 37.21 37.77 36.16 35.27 33.07 31.98 31.44 31.97 30.52 29.46 29.02 27.95 26.25 24.54 23.11 22.67 22.40 23.21 22.55 24.52 28.03 28.87 29.01 28.04 28.84 29.46 29.98 29.94 29.63 29.33 29.26 32.60 32.15 32.45

GFSCGP_sfc_wetblb_072.txt.gz
Wetbulb
45.22 39.66 36.83 40.46 41.80 42.13 39.75 38.40 37.22 39.61 42.57 39.87 39.96 40.55 42.47 44.42 43.98 43.28 43.96 44.51 45.60 46.75 48.70 50.04 50.26 50.52 52.46 55.02 57.55 60.75 61.04 60.22 60.18 59.91 59.38 58.55 59.12 59.34 60.38 61.36 61.83 62.80 63.74 64.45
41.06 37.05 42.95 44.34 43.99 41.92 39.39 37.68 36.86 40.51 42.27 39.23 39.35 39.15 42.24 43.42 44.15 44.78 44.75 44.73 45.44 46.17 47.24 48.76 49.53 49.15 50.95 53.27 55.92 58.19 59.95 59.57 59.24 59.68 59.49 58.83 58.06 56.89 58.52 57.71 58.26 59.55 60.04 61.45
39.48 41.87 45.23 43.84 41.02 40.34 38.66 37.15 37.03 37.62 39.57 39.67 36.47 35.65 39.35 43.64 45.37 45.53 45.91 46.62 46.32 46.46 46.32 46.80 48.26 49.11 48.72 50.05 52.33 55.89 58.13 58.93 58.66 58.37 56.47 53.48 52.78 51.76 52.07 53.70 55.55 56.64 57.36 59.69
41.05 44.39 42.27 40.44 39.75 40.76 36.07 40.85 40.59 39.04 35.85 30.26 37.91 27.82 36.56 40.38 40.93 43.44 44.96 44.72 45.08 45.80 47.38 47.94 48.01 48.02 48.49 50.16 51.36 52.80 53.84 54.31 55.74 55.54 54.05 53.39 52.72 51.40 51.95 51.84 51.55 53.58 53.74 56.76
38.76 39.77 39.49 38.99 40.24 41.80 38.39 41.25 39.06 37.84 34.21 33.59 33.39 29.74 34.32 38.77 38.18 41.08 43.16 44.36 45.24 46.20 47.23 46.91 47.53 48.59 48.86 48.70 48.41 49.33 50.87 51.23 51.55 53.04 53.23 52.40 50.95 50.44 49.76 49.11 48.91 49.52 50.76 53.54
39.71 42.08 41.63 41.22 41.48 41.59 42.62 39.23 38.12 36.29 34.65 26.38 33.64 32.75 31.79 36.36 38.18 39.50 41.65 43.39 45.81 46.42 45.96 46.88 46.88 48.19 48.01 48.27 48.52 48.45 48.76 49.91 50.98 51.45 52.39 51.61 51.36 49.28 48.05 49.00 49.66 49.90 49.08 49.62
38.41 38.77 40.59 41.95 38.29 40.39 38.75 35.46 26.36 25.56 24.37 24.96 32.73 30.41 35.01 39.69 41.50 40.65 41.56 42.88 43.08 46.43 45.28 45.90 45.62 45.13 44.97 46.03 47.26 47.98 47.94 47.35 48.57 49.08 50.57 51.22 50.50 49.41 48.36 49.25 49.01 48.23 47.04 45.77
32.41 30.36 38.36 40.93 39.51 36.78 36.45 35.86 27.95 20.32 23.08 25.49 29.89 27.83 33.31 40.61 41.05 41.30 42.55 43.43 43.02 44.21 44.85 44.82 46.02 46.04 45.03 45.54 46.07 46.58 46.70 46.76 47.44 48.08 48.97 50.08 50.58 49.50 50.08 50.02 49.49 48.63 47.52 48.03
33.57 34.02 39.63 40.51 40.02 40.94 35.93 32.41 38.14 30.16 22.53 23.29 29.70 34.62 39.71 40.95 40.49 41.11 42.46 42.78 42.40 43.52 44.97 45.07 45.47 46.02 45.76 44.41 44.81 45.52 45.67 46.38 46.77 47.33 48.18 48.88 49.39 49.53 49.86 49.32 48.67 48.79 47.38 46.84
37.33 31.29 37.35 37.51 39.73 39.23 36.88 39.11 30.35 30.03 19.63 18.25 26.79 27.94 32.53 37.78 40.88 41.72 41.07 42.03 43.08 44.17 45.04 45.44 45.71 45.46 44.74 44.57 44.72 45.33 45.83 45.45 45.92 46.44 47.29 48.08 48.09 48.11 48.80 48.78 47.58 46.74 46.06 45.75
38.97 35.88 31.98 36.17 34.52 34.65 34.12 32.99 34.26 34.55 30.62 22.64 22.47 28.76 38.22 39.27 40.91 41.60 42.60 43.45 42.42 42.66 43.30 44.12 44.43 43.71 43.91 44.03 44.07 44.35 44.74 45.06 45.40 45.87 46.15 46.77 46.62 46.96 47.65 47.60 46.75 46.15 44.78 43.54
39.35 36.77 28.77 32.77 36.85 37.49 36.62 35.42 36.18 28.20 26.08 27.36 27.94 31.12 39.85 40.80 41.32 41.37 41.45 43.15 42.01 43.00 43.86 43.07 43.36 42.98 42.68 42.84 43.11 43.43 44.08 44.49 45.15 45.65 45.73 45.89 45.90 46.10 45.99 46.03 45.43 44.36 43.10 39.40
39.08 33.96 24.35 29.07 33.49 35.09 33.52 36.14 37.76 36.90 31.74 29.00 25.68 30.26 40.41 40.81 40.07 40.82 39.83 41.61 43.85 43.81 43.70 44.03 42.94 42.50 42.52 42.66 42.90 43.13 43.47 44.01 44.73 45.11 45.00 44.64 44.52 44.66 44.70 44.56 44.10 42.27 39.57 36.20
42.41 36.41 31.25 27.37 32.97 37.06 32.66 35.07 36.70 35.76 29.94 30.46 31.00 33.87 38.97 40.80 40.13 42.49 42.42 42.48 43.30 43.55 44.57 44.16 43.52 43.46 43.94 43.65 43.26 43.06 43.33 43.88 44.16 44.34 44.22 43.52 43.62 44.41 43.95 43.19 41.93 39.13 36.08 33.20
37.76 32.57 34.54 35.19 35.96 36.14 35.69 36.04 37.37 36.22 35.39 31.24 33.50 34.10 38.41 41.08 41.07 43.19 44.85 43.55 43.75 44.01 44.34 44.43 44.31 44.57 44.81 43.87 42.82 42.82 42.93 43.05 43.63 43.50 43.73 44.40 43.54 43.58 42.68 40.01 38.28 35.12 33.45 32.14
38.35 30.64 32.70 27.86 33.43 34.34 31.93 34.61 35.46 36.21 37.40 37.66 37.43 35.91 42.31 43.64 44.19 43.81 44.35 44.44 44.06 44.79 45.55 45.65 45.18 44.72 44.34 44.83 44.00 43.37 42.29 41.77 42.07 43.35 42.91 42.35 39.61 38.51 37.65 36.93 35.77 33.39 32.04 30.62
33.62 32.69 30.99 23.73 30.02 29.24 27.20 31.16 33.75 35.10 37.25 37.22 33.38 38.39 42.39 41.75 42.76 43.15 43.52 44.40 45.15 46.15 46.72 45.42 45.26 45.35 44.55 43.91 43.95 42.58 42.14 41.17 38.97 37.92 36.24 35.15 35.67 35.39 35.25 34.48 32.94 31.61 30.50 29.13
30.16 29.65 30.04 21.38 21.90 16.61 29.77 37.03 37.10 36.30 37.86 39.25 39.97 41.22 42.18 42.25 43.16 44.47 45.32 44.30 44.59 44.92 44.08 43.17 42.01 41.71 41.61 40.78 40.63 40.22 37.16 36.68 35.94 35.19 33.69 32.26 33.62 33.58 31.86 31.43 30.96 29.64 29.10 28.63
35.17 30.24 22.63 14.40 11.99 22.70 27.51 31.24 30.73 30.67 31.05 37.65 37.13 37.96 38.18 38.93 38.99 40.86 41.36 41.37 41.08 41.10 40.83 39.80 39.34 39.04 38.23 37.96 35.47 32.61 32.88 33.69 34.02 34.51 33.61 32.56 31.72 31.03 30.80 30.15 28.68 27.79 27.91 26.96
31.52 32.63 26.75 15.61 14.00 8.09 26.99 32.61 37.13 36.78 27.35 34.06 35.16 35.31 35.44 36.73 31.65 36.62 38.59 39.32 39.34 39.24 37.85 36.53 36.05 35.93 33.69 31.71 30.34 30.44 31.00 30.48 31.48 32.47 33.10 32.93 30.15 29.23 28.95 29.18 28.24 26.68 26.86 29.63
25.85 26.16 23.04 22.84 21.58 23.67 30.77 31.32 35.09 23.49 25.21 29.85 31.60 34.66 35.27 33.49 37.36 39.35 38.89 38.09 37.49 36.60 35.62 34.56 32.47 31.47 30.08 29.31 29.43 29.35 29.19 28.36 29.67 28.91 28.77 28.09 28.36 26.65 26.57 25.83 25.68 26.69 28.84 27.86
22.55 20.68 19.90 25.25 22.13 18.28 34.66 30.39 29.61 31.08 31.18 32.39 32.98 35.88 35.01 37.04 38.28 37.60 37.55 36.05 35.24 33.60 32.82 30.79 28.75 29.06 28.06 28.50 28.06 27.67 27.18 28.05 25.82 25.52 25.76 24.78 23.54 26.56 27.21 28.63 29.16 28.40 27.74 26.62
19.82 23.68 18.78 22.56 20.78 33.70 34.22 31.83 34.92 36.72 34.15 33.70 35.41 35.53 37.05 36.04 35.88 35.34 35.62 33.96 31.88 31.51 30.39 28.94 26.05 26.11 26.57 25.36 25.22 25.77 27.02 26.76 26.15 25.77 22.82 22.20 22.65 24.32 24.48 24.45 27.06 26.86 26.76 25.68
25.20 28.84 24.24 23.15 28.15 30.25 31.72 32.80 33.14 36.31 36.49 36.38 35.29 35.06 35.93 34.46 34.42 33.10 32.26 31.24 30.26 27.20 25.33 24.39 23.78 22.08 21.74 22.94 25.52 24.07 25.34 24.63 26.15 26.05 25.73 23.73 23.34 23.98 24.41 25.51 24.96 25.20 25.54 25.42
24.45 25.44 21.79 23.54 28.83 28.72 30.64 32.05 34.05 35.69 34.91 33.80 34.34 35.05 35.19 34.49 33.06 31.18 30.37 29.14 27.88 26.06 24.63 22.96 22.01 22.15 22.25 22.48 23.69 26.03 24.58 25.06 25.34 26.36 26.81 27.66 27.85 28.19 26.93 26.86 25.33 23.62 23.44 26.28
26.38 25.43 23.09 22.67 29.09 29.37 30.19 32.71 32.92 33.56 33.65 33.51 32.58 32.22 32.09 31.70 30.62 28.62 27.95 27.33 26.24 25.22 23.07 21.69 19.90 19.56 19.69 19.38 18.50 19.57 25.07 22.80 22.04 24.88 27.02 27.66 27.76 26.16 22.64 23.51 28.31 32.15 31.39 32.55

GFSCGP_sfc_wetblb_075.txt.gz
Wetbulb
41.69 36.65 33.82 37.12 37.82 37.87 36.49 35.52 33.25 36.03 40.98 38.64 37.33 37.36 39.84 42.13 40.86 39.56 40.21 41.39 42.53 43.92 47.01 46.61 47.79 48.84 50.36 54.84 57.24 60.24 61.00 61.54 62.80 61.19 61.10 61.29 61.29 60.79 59.14 61.54 62.16 63.78 64.17 63.10
38.03 33.86 39.74 40.72 40.51 39.45 37.09 34.67 33.63 36.58 39.70 37.64 36.89 37.35 39.51 40.25 41.84 43.57 42.87 40.79 41.55 41.90 44.09 46.03 45.91 46.33 48.36 53.48 56.42 58.96 60.49 60.65 61.99 62.76 62.17 61.37 60.25 57.03 61.26 58.14 59.27 61.94 63.73 63.12
36.02 39.30 42.38 41.61 38.41 38.28 35.91 34.39 33.89 35.21 36.36 36.44 34.20 32.80 36.06 40.00 40.96 42.63 42.37 42.72 42.95 43.64 43.95 43.98 44.45 45.05 47.43 49.12 53.71 56.92 59.51 59.95 61.08 61.06 57.88 54.76 54.44 52.75 54.23 55.44 57.81 57.69 60.80 62.51
38.13 42.00 40.25 38.90 37.73 38.85 33.90 37.96 38.12 36.44 33.13 28.85 34.82 25.46 33.10 38.50 40.23 39.51 42.33 41.72 42.62 42.88 43.43 44.21 45.06 44.19 44.56 49.26 52.54 55.51 57.86 58.72 59.57 58.38 57.60 57.43 57.54 56.70 58.14 58.98 55.98 52.79 55.37 58.93
36.79 37.63 37.53 36.90 38.32 39.63 36.17 39.20 37.37 35.88 32.05 30.09 30.21 27.07 31.79 34.94 35.63 38.45 40.20 40.44 41.52 42.44 42.83 43.90 45.00 45.23 45.46 46.54 47.07 50.44 53.28 55.09 57.33 57.56 57.32 56.60 56.21 56.33 48.97 48.89 49.76 49.39 49.73 54.73
37.21 40.06 39.42 39.23 39.38 39.60 40.89 38.17 37.21 34.19 31.28 24.40 30.22 30.26 28.00 33.33 36.48 37.07 39.02 40.68 42.54 43.42 44.81 44.04 45.46 45.58 45.66 44.74 45.42 47.12 49.66 50.58 51.73 55.84 53.70 53.28 54.01 48.44 47.49 46.80 47.62 46.85 48.51 50.87
35.54 36.49 38.45 40.41 36.84 39.50 37.89 33.32 24.77 23.62 22.48 22.84 29.46 27.02 32.00 36.56 37.80 39.01 39.55 39.64 39.55 44.39 43.49 43.64 44.50 44.89 43.09 44.17 44.92 45.49 46.65 47.55 47.77 48.71 49.75 49.31 49.30 48.37 48.64 47.61 48.42 46.72 47.50 48.64
30.45 28.52 36.84 39.58 37.71 35.36 34.93 33.47 25.11 18.45 21.56 23.84 28.51 26.34 33.61 38.57 40.06 40.52 40.36 40.69 39.23 40.24 42.02 42.62 43.36 43.73 43.46 42.75 44.95 45.47 45.51 45.30 46.11 46.87 47.55 48.96 49.21 50.08 49.76 48.57 48.85 48.94 48.48 48.30
29.89 30.76 37.10 37.99 38.66 39.51 34.14 31.29 35.41 28.54 17.85 21.69 27.14 31.04 37.12 39.22 39.09 40.47 40.21 40.66 41.42 41.75 43.19 43.66 43.61 43.34 43.88 42.88 43.53 44.58 44.72 45.22 45.37 45.82 46.57 47.52 48.60 48.50 48.93 47.65 48.13 49.10 47.87 47.16
35.50 29.79 35.13 35.92 38.56 37.63 36.03 37.64 29.58 28.00 17.78 16.30 24.02 25.88 30.73 35.93 38.04 39.43 39.98 40.30 40.58 40.74 41.49 42.59 43.06 42.90 42.54 42.66 43.02 43.60 44.13 44.24 44.89 44.93 45.52 46.78 47.39 47.86 47.86 47.40 47.03 47.28 47.19 46.26
36.90 34.20 30.84 34.17 33.00 32.87 33.28 31.97 32.84 32.56 28.20 20.58 19.52 26.48 34.52 36.78 39.50 39.52 39.26 40.33 41.64 41.84 42.18 42.23 42.79 42.39 42.72 42.55 42.93 43.23 43.36 43.70 43.93 44.43 44.55 45.13 46.06 46.53 46.58 47.10 46.80 46.48 45.06 45.33
37.28 34.56 26.61 30.90 34.72 35.44 34.30 33.38 34.02 26.90 24.46 26.50 25.88 30.34 37.33 39.27 38.94 40.47 40.68 42.71 42.62 42.80 42.04 41.42 42.18 41.65 41.41 41.65 41.91 42.58 43.04 43.20 43.71 44.41 44.35 44.37 45.07 45.07 45.22 45.76 45.27 44.27 44.57 41.91
38.58 31.63 20.21 27.27 31.73 34.13 31.59 33.76 35.45 34.68 29.75 27.23 21.94 29.97 39.06 38.75 38.47 38.75 39.39 40.15 41.74 41.98 42.28 42.55 41.63 41.16 41.01 41.14 41.50 41.82 42.29 42.93 43.53 43.60 43.70 43.65 43.78 43.86 44.66 44.70 43.53 42.95 42.16 40.70
41.83 34.83 28.77 24.28 30.62 34.96 30.61 33.52 36.89 34.44 24.17 27.46 29.44 32.33 37.72 37.66 37.97 39.45 39.81 42.39 43.27 41.90 41.73 41.90 42.23 41.80 42.30 42.20 41.43 41.40 41.78 42.43 42.76 42.99 42.97 42.70 43.58 43.98 44.24 43.08 42.32 41.56 39.86 37.75
39.59 32.36 33.24 33.70 34.93 35.76 35.73 34.73 35.12 34.37 34.36 31.81 32.57 32.26 36.86 39.61 40.06 40.72 41.38 41.36 42.02 41.90 42.65 43.27 42.89 43.31 42.72 42.25 42.18 41.86 41.81 41.82 41.98 42.12 42.10 43.03 42.88 41.99 41.69 40.04 38.78 37.84 36.10 35.09
37.43 27.03 32.75 29.54 33.45 33.76 30.56 31.97 33.13 35.20 35.34 35.43 35.77 35.08 41.91 43.29 43.31 40.22 41.71 41.84 42.29 43.70 43.87 43.95 43.87 43.01 42.19 42.21 41.73 41.79 41.19 40.60 40.18 41.16 41.02 41.68 39.32 38.14 37.47 37.25 36.58 35.54 34.07 32.64
34.42 31.60 28.06 16.23 28.10 28.89 21.34 29.13 31.71 32.65 34.99 35.24 32.13 36.76 40.59 39.34 39.58 38.86 39.84 40.48 39.73 39.96 40.27 40.36 40.31 40.61 40.60 39.60 40.18 39.72 39.30 38.19 36.41 35.45 35.03 35.03 34.98 34.81 35.66 35.25 34.93 34.09 32.52 30.93
31.53 30.87 29.27 11.78 14.82 6.71 25.66 32.10 32.35 33.27 34.95 36.20 36.73 37.49 36.29 36.28 37.37 38.61 38.78 37.75 38.43 39.48 39.19 39.35 38.95 38.42 38.23 37.58 36.77 34.84 33.14 33.07 33.18 32.89 32.21 32.10 32.43 32.91 32.14 31.48 32.34 30.47 29.96 29.04
32.39 26.71 14.57 11.27 2.98 18.76 24.45 27.45 28.16 28.03 27.98 33.81 32.78 34.14 34.63 35.95 35.43 36.36 38.07 37.40 37.85 38.85 38.41 37.48 36.73 35.77 35.39 34.11 31.72 29.93 30.71 31.08 31.71 32.34 32.24 31.67 30.67 30.80 30.01 30.13 29.07 26.87 25.77 24.99
31.71 31.24 22.92 5.92 9.88 8.42 22.79 28.45 34.81 34.98 22.87 33.10 33.31 33.11 33.49 34.67 28.86 32.62 37.79 37.37 38.01 37.11 36.29 36.60 34.09 33.50 31.51 29.97 28.84 29.01 29.60 28.85 29.99 30.63 31.41 31.64 29.94 28.02 27.59 28.41 26.10 24.56 25.49 27.19
22.86 25.91 23.44 21.37 19.41 17.78 27.17 28.39 33.44 18.08 22.16 26.94 30.18 32.14 31.75 30.63 33.75 37.32 37.54 38.15 36.94 36.10 35.81 35.16 33.21 31.19 30.92 29.29 28.03 27.79 28.20 27.78 28.44 28.27 28.31 27.17 27.61 25.56 25.61 25.34 29.06 29.59 29.57 28.61
19.43 16.39 16.77 14.94 18.55 16.02 30.67 30.22 28.01 29.32 29.36 30.57 31.02 31.84 31.72 33.71 34.90 35.44 36.82 35.26 34.24 34.15 33.34 31.89 29.26 28.95 29.22 27.26 26.48 26.18 27.22 27.56 25.59 24.63 24.92 23.78 21.01 24.90 26.98 31.26 29.41 28.92 28.46 27.37
16.49 23.72 18.76 22.06 21.61 29.91 32.09 30.74 33.13 33.57 31.28 30.99 30.91 32.93 34.67 33.99 34.11 35.10 35.12 32.86 31.43 31.03 30.62 28.99 25.59 26.06 26.67 24.55 25.86 24.12 24.90 25.04 24.25 19.59 18.10 18.53 20.65 21.97 22.62 29.39 27.85 26.89 26.97 25.88
23.87 26.05 21.57 21.17 25.47 25.67 28.13 30.24 32.07 33.88 32.40 32.87 32.64 32.84 32.94 33.31 33.32 32.78 32.21 31.94 30.52 27.80 25.74 25.15 23.72 21.86 21.78 22.09 22.75 25.31 23.65 23.39 18.15 19.40 21.39 20.92 19.30 19.64 21.12 23.03 23.62 25.44 25.95 25.18
22.43 23.95 18.03 18.83 26.15 26.92 28.66 29.44 31.41 31.81 32.29 33.15 32.76 32.97 33.68 32.71 32.69 31.57 30.50 28.12 27.10 25.84 23.75 21.50 23.57 21.70 19.36 19.07 19.34 22.97 25.51 19.40 19.18 19.40 23.40 26.10 23.11 20.15 21.95 22.88 18.77 20.56 20.74 24.16
24.03 23.28 22.08 18.62 26.60 26.95 27.81 30.68 30.50 29.70 31.14 31.94 31.09 30.41 30.84 31.66 31.72 29.19 27.09 25.62 24.56 23.58 21.81 19.84 20.07 17.33 15.49 15.54 18.17 17.22 22.28 24.77 18.71 26.32 25.93 26.22 25.94 25.40 25.13 26.04 26.89 30.77 30.80 31.02

GFSCGP_sfc_wetblb_078.txt.gz
Wetbulb
40.07 35.99 33.37 36.52 36.13 34.70 34.40 32.88 31.99 34.24 39.21 37.47 36.57 36.17 38.85 40.98 39.84 38.86 39.23 39.39 40.23 41.59 46.32 44.75 44.80 45.96 48.95 52.55 54.84 58.95 61.25 62.86 62.92 62.54 61.69 61.52 61.53 63.58 62.96 64.24 64.73 64.46 63.34 61.73
36.39 32.50 38.32 38.50 37.89 36.39 34.03 32.40 31.93 34.75 37.82 36.46 35.02 36.21 38.56 39.37 40.23 40.55 40.14 39.43 39.66 40.17 41.90 44.35 44.40 43.52 44.82 50.38 54.13 57.45 60.13 62.15 62.68 63.26 63.24 62.94 62.82 61.71 62.63 62.49 62.39 64.00 63.82 62.53
34.04 36.82 40.26 39.23 36.94 36.66 34.59 33.10 31.99 33.46 34.49 34.17 32.85 31.73 34.11 37.97 38.99 40.97 40.99 41.05 40.42 40.73 41.41 41.97 42.42 42.88 42.90 44.90 50.95 55.50 59.15 61.08 62.60 63.25 61.52 55.26 54.76 53.80 55.38 56.01 60.07 61.78 63.23 63.01
36.79 39.96 38.50 37.10 36.02 37.06 32.70 37.41 36.28 34.43 31.75 27.73 32.57 24.72 31.46 36.70 38.29 38.58 39.87 37.17 39.15 40.56 41.20 42.21 42.88 41.81 42.16 44.76 47.50 52.78 57.14 59.62 61.30 62.05 60.29 60.16 59.88 58.90 59.45 60.37 58.62 57.02 59.28 62.72
35.86 37.04 36.75 35.59 37.02 38.18 35.32 37.76 34.96 33.85 30.81 28.53 28.16 26.58 30.56 33.09 35.65 37.56 38.51 38.56 41.13 41.81 39.64 41.93 42.52 44.25 43.70 43.39 44.21 48.40 53.08 56.68 58.75 59.93 60.02 59.33 59.37 59.33 53.71 51.33 53.11 51.63 53.84 55.90
36.78 38.64 38.59 38.34 37.98 37.82 39.32 36.50 34.60 31.43 28.89 23.65 28.57 28.37 27.48 32.01 34.45 36.43 38.62 40.29 40.09 41.78 41.80 42.35 43.90 43.77 43.24 43.58 42.82 46.31 51.17 53.23 55.52 57.41 57.33 57.20 57.77 53.71 49.03 47.83 49.54 49.42 50.26 54.12
34.15 34.68 37.14 39.03 36.12 37.82 35.90 32.00 24.15 23.01 21.49 22.04 26.58 26.01 29.81 35.64 37.25 36.47 38.49 38.22 39.05 39.03 40.28 41.66 42.03 41.84 42.42 42.38 43.65 43.68 46.79 49.01 50.08 53.23 53.42 52.94 54.43 51.42 50.72 49.13 49.49 46.48 47.63 48.74
29.51 28.15 35.82 38.40 36.98 35.12 33.21 31.87 24.77 17.79 19.67 23.05 27.64 25.50 32.60 36.11 37.68 37.93 39.17 38.26 39.72 40.79 41.47 41.71 42.13 41.95 42.04 42.61 43.57 44.53 44.46 45.02 46.13 48.00 49.29 49.30 50.54 51.76 51.46 49.07 48.32 48.98 49.50 50.41
29.34 29.91 35.48 36.61 37.22 38.64 33.52 30.04 33.47 26.75 15.67 20.63 26.09 29.93 36.58 37.71 36.94 39.55 39.88 40.28 39.77 40.87 41.19 41.85 43.04 42.39 42.50 42.27 42.67 43.56 43.97 44.41 44.40 45.00 45.66 46.50 47.46 48.01 48.70 47.34 48.26 48.91 48.28 47.81
33.94 28.69 33.66 34.86 36.93 36.11 34.42 36.71 29.18 27.05 17.63 15.10 23.34 24.98 29.64 34.13 35.47 39.04 39.68 39.93 40.73 41.34 42.05 42.06 42.17 42.46 42.24 42.37 42.37 42.72 43.10 43.42 43.82 44.21 44.25 45.17 46.15 47.21 47.89 47.13 47.23 46.75 47.15 45.62
35.82 32.65 30.05 33.71 32.44 32.23 32.87 31.33 31.46 31.32 26.78 19.17 16.95 24.93 33.14 35.16 38.46 37.92 38.61 40.71 40.59 40.62 40.88 41.14 41.59 41.79 41.19 41.26 41.58 42.03 42.53 42.90 43.25 43.45 43.61 43.62 44.38 45.34 46.06 47.20 47.36 47.11 45.22 44.96
36.57 33.27 26.59 30.19 32.81 34.57 34.37 33.21 33.12 27.02 23.61 24.46 25.01 27.64 36.62 37.82 37.49 38.44 38.86 39.31 39.26 40.27 41.08 40.43 40.61 40.91 40.80 40.56 40.71 41.44 41.91 42.27 42.99 43.48 43.42 43.35 43.59 44.02 44.31 45.03 45.03 44.05 44.09 42.45
38.52 32.49 24.49 28.38 31.80 33.68 31.88 33.13 33.90 32.48 28.72 23.56 21.84 27.24 35.79 36.53 36.12 36.82 36.86 37.25 39.17 39.44 40.26 40.89 41.28 41.10 41.16 41.39 41.15 40.94 41.05 41.76 42.48 42.58 42.65 42.75 42.88 42.73 43.02 43.23 43.26 42.57 42.45 41.14
40.84 33.10 28.65 25.55 28.95 33.00 30.94 32.20 34.97 32.29 23.43 25.49 29.30 31.53 36.26 36.48 37.13 39.71 39.59 40.26 40.02 40.05 40.41 40.64 40.95 41.42 42.89 41.09 40.53 40.40 40.65 41.03 41.39 41.61 41.83 41.62 42.13 42.30 42.15 42.17 41.82 41.24 40.71 40.03
37.92 28.22 31.12 31.96 34.13 34.95 34.84 33.55 33.71 32.20 32.28 28.45 29.93 32.22 35.50 38.14 38.96 39.75 39.08 39.67 40.04 40.22 40.24 40.21 40.07 39.96 40.16 40.80 40.36 40.63 40.62 40.02 39.76 40.14 40.50 41.43 41.97 41.25 40.92 39.66 38.43 37.90 37.59 37.60
36.36 29.19 31.52 27.98 33.23 33.45 30.89 33.05 33.94 33.90 33.63 34.23 33.15 33.31 39.79 40.32 38.67 38.15 38.97 39.26 38.60 38.57 39.35 39.53 39.47 39.14 38.63 38.70 38.32 38.69 38.13 37.77 36.60 37.18 36.64 37.69 36.64 36.37 36.61 36.16 36.09 35.66 35.46 34.88
31.23 31.26 27.44 20.25 27.33 28.99 22.27 28.55 30.76 31.77 34.59 35.12 30.77 35.45 36.72 35.70 36.14 35.98 36.85 37.29 37.27 38.15 38.65 38.08 37.82 37.65 37.19 36.73 36.72 35.48 34.01 33.74 32.53 32.18 32.85 32.86 32.79 33.36 34.56 34.61 34.60 34.34 34.00 32.99
30.29 25.95 20.58 14.57 17.65 15.53 25.74 28.65 30.92 32.21 33.95 36.22 35.59 34.76 35.12 34.99 35.24 36.62 38.09 36.77 36.95 37.55 37.65 37.20 36.61 36.02 35.42 35.07 33.89 32.06 30.60 30.76 31.17 31.58 31.25 31.13 31.48 31.51 31.69 31.25 31.30 31.88 31.86 30.32
32.14 26.93 17.70 15.49 6.77 18.31 23.28 25.85 25.44 25.48 26.29 33.48 32.63 32.29 32.18 33.96 32.14 32.68 38.02 37.27 36.62 37.08 37.30 36.24 35.56 34.79 33.60 32.43 30.56 28.71 29.43 29.70 30.09 30.62 30.68 30.70 30.59 30.27 29.97 29.58 29.44 26.98 25.88 24.63
31.51 29.44 22.11 3.74 3.37 3.99 20.05 26.83 30.25 31.48 20.79 31.61 32.09 31.89 30.07 30.83 24.61 26.85 35.40 34.85 36.05 36.96 35.43 34.55 33.26 32.36 31.01 30.80 28.71 28.14 28.62 28.91 30.22 30.03 29.44 29.92 29.84 28.06 28.00 28.69 26.91 24.18 24.80 29.82
26.27 27.10 23.45 9.53 5.58 14.01 24.85 28.69 31.34 16.11 20.99 25.95 29.68 30.40 30.02 28.34 30.31 32.78 33.21 34.35 34.93 34.67 34.23 33.04 30.90 29.47 29.41 28.37 27.32 26.84 27.03 27.88 28.73 28.25 28.22 27.31 27.45 26.70 26.78 26.78 29.47 29.95 29.97 29.16
19.70 18.58 17.65 21.44 19.77 14.48 28.28 28.78 24.61 27.31 28.09 29.52 28.99 30.09 30.09 31.34 32.33 33.06 34.93 31.98 31.75 32.68 31.50 30.37 28.76 28.35 28.07 27.04 25.48 25.24 25.48 26.82 26.19 26.47 25.62 25.40 24.27 25.71 26.07 27.27 29.74 29.33 28.92 28.18
18.51 21.65 18.06 20.77 21.31 28.43 29.59 30.23 32.35 32.05 29.98 29.94 28.90 30.84 31.38 31.02 31.88 33.08 33.56 32.56 30.34 30.48 30.34 29.07 24.59 24.74 25.19 21.54 21.87 22.62 24.30 25.28 24.55 23.19 22.22 20.79 21.61 22.76 22.12 29.15 28.45 27.48 27.29 26.49
23.83 25.59 22.34 22.42 26.10 26.80 28.32 28.72 29.78 33.50 30.64 31.54 31.05 31.22 31.09 32.19 32.39 32.12 32.05 32.21 30.29 26.01 23.86 22.37 20.46 21.02 20.44 18.39 20.57 19.18 24.63 26.29 24.43 20.12 25.17 24.82 19.79 20.75 19.49 21.53 25.97 27.14 26.40 25.48
23.07 24.60 19.27 19.06 25.60 26.18 27.58 28.41 30.25 30.73 30.76 30.81 31.08 32.19 32.73 31.87 31.89 31.04 29.90 26.98 26.01 24.17 22.50 20.03 19.22 19.83 19.70 18.25 18.18 15.70 19.87 23.87 24.72 23.84 25.30 26.63 27.19 23.03 20.13 21.73 19.45 21.49 23.16 24.09
23.80 23.53 22.37 19.14 26.34 26.46 26.81 28.48 29.04 27.95 27.86 28.44 28.00 28.65 29.89 30.59 30.65 29.39 27.27 25.07 23.51 22.35 19.98 18.42 17.98 16.84 16.98 14.94 15.31 14.87 13.47 20.89 22.54 24.72 26.15 26.40 25.99 25.21 25.04 25.23 24.90 30.47 30.55 31.24

GFSCGP_sfc_wetblb_081.txt.gz
Wetbulb
38.88 36.13 32.73 35.30 34.93 32.50 32.53 31.55 30.93 33.06 37.64 35.66 35.38 34.98 37.89 39.98 38.30 38.38 38.74 38.77 39.21 40.34 44.29 42.96 43.53 43.99 49.20 52.55 54.41 57.43 60.03 61.80 62.50 62.38 61.79 61.67 62.18 63.00 63.97 64.68 63.98 63.22 61.65 60.07
35.99 32.62 37.72 38.04 37.01 35.47 33.09 31.53 30.98 33.53 36.60 35.84 33.43 35.18 37.23 38.18 39.43 39.40 39.64 39.22 38.63 38.60 40.13 41.28 41.86 41.63 42.53 48.49 52.86 55.57 58.29 60.86 61.92 62.99 62.96 63.00 62.59 61.99 63.23 64.04 64.14 64.06 63.17 61.56
33.10 35.01 38.51 37.70 34.51 34.33 31.34 31.02 30.51 32.36 33.02 33.05 31.25 30.87 32.20 35.87 36.71 39.19 38.86 38.74 39.22 39.55 39.93 40.40 40.27 40.30 40.64 41.55 45.66 52.93 56.42 59.10 61.62 62.64 61.33 55.76 55.60 54.80 56.77 59.48 62.49 63.29 63.40 62.59
34.70 37.58 36.84 34.91 34.44 35.39 31.09 36.36 35.24 33.29 30.75 26.75 30.61 24.40 30.40 33.84 36.02 36.72 37.89 36.44 37.87 38.91 38.58 40.36 41.23 41.04 40.51 41.03 41.85 47.01 52.56 57.14 60.23 61.62 61.25 60.47 60.63 59.72 60.24 60.86 60.01 61.24 62.61 62.58
34.54 36.45 35.52 33.97 35.72 37.07 34.12 36.31 33.96 32.16 28.60 27.91 27.05 26.08 29.84 30.93 33.43 35.69 37.04 38.36 38.61 39.54 39.68 40.56 41.44 42.07 41.99 42.40 40.93 41.98 49.13 54.49 57.43 60.29 61.45 60.26 60.16 60.81 56.98 55.03 55.57 54.86 58.63 61.90
35.32 37.69 37.36 37.65 36.66 36.78 37.80 34.63 32.52 29.44 27.40 22.92 26.25 26.57 27.06 30.10 32.58 33.92 35.98 37.09 38.24 39.10 40.39 41.56 41.78 42.01 41.64 41.46 42.40 43.16 46.97 51.22 54.65 57.56 58.23 58.64 59.38 56.10 51.75 50.73 52.67 51.52 54.47 58.10
33.20 33.74 36.21 37.82 35.30 36.63 34.01 31.16 23.94 22.25 20.58 21.33 25.17 24.77 28.87 33.41 34.23 34.72 35.81 37.58 38.57 39.63 40.63 41.35 41.59 41.80 41.75 41.90 42.21 43.50 44.77 47.38 50.79 52.93 53.81 54.26 55.67 54.49 53.30 51.63 52.19 48.68 49.75 51.25
29.05 27.79 35.45 37.74 36.20 34.09 32.12 31.54 24.54 16.88 17.93 21.78 26.95 24.49 30.71 34.32 36.16 37.61 37.69 37.64 38.57 39.24 39.56 40.52 41.11 41.05 41.33 41.85 41.96 42.45 43.43 43.75 45.38 48.83 51.03 51.13 51.89 51.77 52.18 50.34 49.82 51.16 51.59 52.54
28.84 29.26 34.64 35.68 36.08 37.88 32.77 28.78 31.78 25.07 14.48 20.17 24.74 28.59 35.17 35.30 37.47 37.57 38.64 39.07 39.11 39.98 40.50 40.65 41.14 40.65 40.40 40.78 41.48 41.65 42.32 43.03 43.87 44.11 45.64 47.21 48.22 48.72 49.58 48.84 48.38 49.81 48.09 48.00
33.47 27.81 32.73 34.29 36.12 35.31 33.46 35.65 28.43 25.53 16.08 14.46 22.48 23.94 28.39 32.68 35.76 36.58 37.84 38.28 39.16 39.72 40.83 40.96 40.90 41.39 41.05 40.48 40.58 41.48 41.97 42.18 42.59 43.14 43.33 43.97 44.69 45.56 46.66 46.59 46.30 46.05 46.12 45.75
33.63 31.92 29.19 33.12 31.80 31.40 31.72 30.58 29.94 30.49 26.18 18.83 15.93 24.28 32.09 34.14 36.51 36.28 37.31 38.15 39.05 40.12 39.97 39.82 40.50 40.75 40.89 40.89 40.78 40.86 41.53 41.94 42.17 42.42 42.47 42.68 42.91 43.33 43.92 44.57 45.09 45.07 44.59 44.21
35.49 32.42 26.74 29.52 32.30 33.58 32.60 32.05 31.58 25.79 22.86 23.25 24.35 25.61 34.08 36.45 36.93 38.01 37.95 38.07 38.48 38.39 39.27 39.22 39.95 40.19 40.35 40.44 40.60 39.97 40.15 40.50 41.38 42.06 42.14 42.51 42.72 42.81 42.70 43.05 43.59 43.65 44.05 42.52
37.11 31.67 22.94 27.57 30.61 32.53 30.56 31.90 32.77 31.32 28.51 22.94 22.30 26.07 35.50 35.23 35.30 35.97 35.61 36.21 37.61 38.12 39.05 39.70 39.82 39.53 39.51 39.28 39.36 39.42 39.68 39.80 39.84 40.34 40.88 41.28 41.53 41.58 41.69 41.81 41.95 41.89 41.85 41.42
40.36 33.22 29.89 26.54 28.61 32.30 30.75 32.86 34.14 32.16 26.75 26.81 26.92 28.89 33.09 34.24 36.49 37.24 37.02 37.50 38.16 38.30 38.55 38.28 38.58 38.68 38.97 38.87 38.00 37.76 38.69 38.57 38.08 38.02 38.68 39.13 40.06 40.64 41.15 41.09 40.84 40.56 40.28 39.82
37.55 31.49 33.02 33.81 34.94 34.93 33.18 32.82 33.87 31.98 30.79 27.83 30.11 30.34 33.58 36.93 37.47 36.42 37.00 37.85 37.90 37.83 38.16 37.94 37.60 37.45 37.26 37.62 37.38 37.06 37.39 36.28 35.33 35.13 35.49 36.20 37.09 37.46 37.23 36.69 36.13 36.10 35.91 36.41
36.42 31.38 32.89 30.27 32.72 33.18 30.98 32.91 33.11 32.91 32.69 33.22 32.87 32.95 38.96 37.65 37.67 36.37 37.15 36.93 36.72 37.38 38.17 37.85 37.56 36.94 36.15 35.91 35.75 35.52 34.27 33.54 32.52 32.53 32.10 33.02 32.41 32.40 32.61 32.81 33.30 33.78 34.21 34.16
31.95 29.15 25.80 25.90 28.29 30.31 25.11 28.05 30.97 30.92 32.54 32.52 29.05 33.98 36.20 34.91 35.73 35.64 36.31 35.89 35.30 36.26 37.61 37.24 36.49 35.96 35.28 34.46 34.42 33.14 31.96 31.51 30.29 30.11 30.62 30.51 30.75 31.05 31.66 31.77 31.96 32.68 32.58 32.65
29.22 28.70 26.06 20.18 18.18 18.24 26.61 26.64 27.18 31.05 33.38 35.45 34.68 33.96 34.76 34.21 34.50 35.41 36.51 35.84 35.32 36.13 36.86 36.63 35.73 34.89 34.18 33.18 32.30 30.75 29.71 29.66 29.81 29.91 29.23 29.08 29.52 29.60 30.18 30.16 30.18 30.57 30.41 30.11
33.21 28.55 16.96 18.27 5.53 19.95 24.86 25.23 24.59 25.73 26.58 32.64 32.64 32.41 32.02 31.91 29.75 30.48 35.95 36.55 34.59 34.76 36.28 35.39 34.79 33.78 32.64 31.36 30.34 28.37 28.73 28.75 28.91 29.33 29.01 28.96 28.81 28.23 28.34 28.60 28.82 28.67 26.31 26.43
30.70 30.53 24.43 4.93 9.54 9.20 20.26 25.97 28.03 29.58 19.41 28.94 32.54 31.14 30.17 28.86 25.12 26.10 36.47 32.73 33.81 34.83 34.79 33.83 32.48 31.47 29.90 29.53 28.08 27.39 27.53 26.46 27.02 27.69 27.67 28.04 28.04 27.06 27.39 29.70 29.59 29.76 27.10 30.23
26.74 25.52 22.37 13.59 8.54 13.99 23.14 27.31 29.42 16.97 21.09 25.30 30.64 30.84 29.79 26.87 28.37 30.05 30.96 32.39 34.29 34.10 32.63 31.87 29.59 29.31 29.27 28.55 26.75 25.90 25.87 25.38 26.39 25.80 25.71 25.36 25.73 25.16 26.54 27.32 28.81 30.39 30.40 29.90
24.17 23.43 21.57 19.42 18.02 14.61 26.71 26.94 24.19 27.07 27.51 29.45 28.88 29.19 28.64 29.16 30.35 30.75 30.52 33.11 33.42 32.18 30.43 30.00 28.87 28.42 28.21 26.80 24.03 23.92 23.77 25.57 24.47 23.55 23.03 23.19 22.14 23.33 25.57 22.73 28.28 30.05 28.98 28.74
18.83 23.35 20.05 23.00 23.16 28.06 28.73 28.47 30.82 30.63 29.50 28.67 29.22 28.92 28.86 29.50 29.78 30.81 31.76 31.31 31.38 31.45 31.21 29.27 24.49 24.84 25.65 21.35 20.04 21.08 22.33 23.28 25.65 25.31 22.40 23.41 26.54 21.85 20.63 20.62 27.30 28.41 27.81 27.19
23.67 25.35 21.78 22.17 25.81 26.16 29.22 29.18 30.01 31.27 30.23 30.29 29.83 29.09 29.15 29.34 30.65 31.41 31.47 31.24 30.34 26.14 23.87 21.78 19.94 21.50 21.94 17.70 19.25 17.99 18.69 19.19 22.51 24.47 24.98 25.13 26.83 27.57 26.25 20.92 20.97 24.25 26.38 25.93
23.32 25.30 20.50 20.22 25.05 26.48 27.28 28.93 29.57 29.22 29.05 28.66 29.30 29.51 29.88 29.86 30.65 31.13 29.91 27.70 26.69 23.80 21.75 19.51 18.56 19.77 20.47 19.63 17.25 13.40 16.92 13.68 17.57 23.18 24.93 26.42 27.52 27.30 26.93 25.98 20.97 17.93 19.14 24.88
23.85 23.18 22.81 19.47 26.69 26.95 27.21 28.83 29.06 27.45 27.40 27.89 27.24 27.35 28.43 29.45 29.68 28.61 27.24 24.94 23.60 22.85 19.59 18.24 19.98 20.06 20.06 14.64 13.54 11.59 7.93 8.50 13.22 18.94 22.83 26.21 27.23 27.01 25.52 24.78 25.31 30.75 32.07 32.30

GFSCGP_sfc_wetblb_084.txt.gz
Wetbulb
37.95 35.10 32.05 35.22 33.94 31.81 32.07 31.41 30.18 31.90 35.84 34.41 32.98 33.75 37.04 38.98 37.62 38.32 38.41 38.25 38.39 39.12 41.61 41.29 42.22 42.02 47.15 51.56 54.04 57.31 59.44 61.63 62.43 62.47 62.27 62.32 62.65 63.35 63.43 63.63 61.94 59.82 59.88 58.56
35.50 31.93 36.35 37.08 35.23 35.01 31.68 30.11 30.14 32.54 35.77 34.79 32.50 34.23 36.69 37.29 38.21 38.18 38.80 38.03 37.91 37.72 39.01 39.97 39.89 39.16 40.47 45.00 51.42 54.36 58.01 60.12 61.67 62.79 62.87 62.72 62.57 62.59 63.33 63.81 63.54 62.09 60.28 59.65
33.07 34.95 37.88 36.62 33.56 33.36 30.57 30.27 30.08 30.44 31.35 31.88 30.13 30.82 31.51 34.43 34.61 36.83 37.22 36.78 36.41 36.79 36.99 38.54 39.29 38.90 38.30 38.67 41.49 50.04 54.06 57.54 60.32 62.19 60.32 55.69 56.08 55.75 59.72 61.92 62.77 62.92 62.34 61.04
33.69 35.95 35.91 34.39 31.94 33.24 29.43 35.08 33.83 32.84 29.85 26.99 29.77 24.17 29.64 32.50 34.64 35.11 35.36 35.80 37.07 37.79 38.74 39.24 40.11 40.28 40.50 40.75 39.18 41.18 48.29 53.23 56.47 59.19 59.52 59.43 60.29 59.35 60.61 61.49 62.60 62.57 62.63 62.62
33.24 35.53 34.00 33.11 34.88 36.17 32.78 35.66 33.32 30.74 27.93 27.27 25.61 25.20 29.65 29.87 31.27 34.44 35.58 35.77 36.67 38.20 38.75 40.10 40.30 40.57 40.27 41.14 41.24 41.31 42.76 48.51 53.77 57.35 60.16 59.36 59.44 59.76 57.83 56.15 57.34 60.76 60.98 61.97
33.60 36.57 36.21 35.79 35.58 35.52 36.10 32.87 31.13 28.17 26.24 22.23 24.80 25.32 26.63 28.87 31.72 33.21 34.17 36.81 37.94 38.63 39.20 40.08 40.46 41.02 40.85 40.61 41.78 42.60 45.97 48.09 51.39 54.99 56.80 57.06 58.26 56.46 53.21 52.05 53.64 55.98 58.39 59.84
32.31 32.69 35.18 36.94 34.45 35.52 32.59 30.38 23.34 21.58 19.96 20.82 23.54 23.86 28.21 31.13 32.53 32.72 35.41 36.55 37.17 37.73 38.94 39.63 39.83 40.39 40.72 40.71 40.80 41.96 42.76 44.18 48.29 51.32 53.14 54.04 54.91 54.46 53.46 52.29 52.02 50.44 52.66 53.20
28.62 27.18 34.83 36.72 35.40 33.26 31.21 31.04 24.39 17.03 16.96 20.95 25.95 23.61 28.85 31.94 35.64 36.15 37.28 36.96 37.28 38.41 38.53 39.32 39.72 39.64 39.70 40.09 40.59 40.96 41.38 41.84 42.92 45.62 49.07 50.49 51.35 52.45 52.16 51.53 50.55 50.94 51.00 53.41
28.60 28.70 34.13 34.82 35.62 37.63 31.67 28.18 30.74 23.95 12.60 18.43 23.70 27.47 32.18 34.19 35.07 36.12 36.67 37.23 37.90 38.57 38.77 38.97 39.43 39.52 39.52 39.56 39.68 39.99 40.77 41.47 41.80 42.09 42.65 43.78 45.65 47.38 48.47 48.78 48.24 48.67 48.31 48.62
33.54 27.61 32.31 33.59 35.68 34.78 33.02 34.33 27.75 24.56 14.81 13.87 21.88 23.84 26.42 31.57 33.91 34.58 35.29 36.79 38.26 38.55 39.10 39.09 39.28 39.43 39.97 39.28 39.16 39.89 39.67 40.21 40.73 41.45 41.77 42.16 42.35 43.00 43.64 44.29 44.85 45.30 46.10 45.51
33.29 31.77 29.20 32.64 31.36 30.59 30.88 29.73 28.90 29.49 25.46 18.14 15.55 23.45 30.43 34.38 34.81 34.73 35.97 37.53 37.18 37.87 37.46 38.07 38.99 39.28 39.55 39.97 40.03 40.05 40.21 39.99 40.20 40.55 40.61 41.01 41.48 41.83 41.92 41.96 42.44 42.94 43.27 43.23
34.52 31.69 26.42 29.06 31.65 32.77 31.23 31.14 30.89 25.54 21.82 21.79 23.12 24.61 33.72 36.45 35.77 36.74 36.91 37.13 36.36 36.87 38.13 38.31 38.69 38.83 39.06 38.81 39.01 38.76 39.16 38.85 38.75 39.16 39.56 40.14 40.65 40.95 41.05 41.47 41.90 41.80 42.13 41.93
35.40 29.39 20.70 26.88 29.99 31.21 29.62 30.45 31.39 29.93 28.15 22.51 21.76 24.81 33.97 34.22 35.14 35.63 35.57 35.76 37.20 37.84 37.75 37.79 37.80 37.56 37.61 37.76 37.56 37.32 37.81 37.05 36.71 36.73 37.38 37.94 38.01 38.26 38.64 39.25 39.81 39.99 39.99 39.75
40.09 31.79 28.54 26.32 27.86 30.93 29.39 31.89 31.33 31.37 25.55 26.91 25.97 27.76 31.26 32.32 34.85 35.39 36.22 37.18 37.26 37.16 37.49 36.95 36.64 36.41 36.32 36.60 36.05 35.48 35.84 35.30 34.40 34.20 34.55 34.69 35.15 35.42 35.70 35.91 36.11 36.28 36.78 36.78
37.78 31.27 32.48 31.87 32.89 32.66 31.53 31.79 32.00 30.37 32.28 29.39 30.26 29.56 34.15 34.84 36.15 36.25 37.51 37.07 36.86 36.90 37.14 36.70 36.38 35.81 35.11 34.83 34.32 34.16 33.48 32.88 32.15 32.17 32.38 32.45 33.05 33.21 32.82 32.56 32.42 32.68 32.88 33.56
36.76 32.04 31.98 29.86 34.02 32.26 30.50 32.35 32.50 31.76 31.86 31.82 32.11 31.96 37.89 38.31 38.28 36.58 36.86 36.01 35.38 35.93 36.40 36.27 36.19 35.44 34.50 34.18 33.75 33.49 32.28 31.93 30.86 30.80 30.39 30.82 30.26 30.35 30.50 30.93 31.23 31.17 31.44 31.77
34.63 32.30 30.65 27.34 29.55 31.42 28.34 30.62 31.17 31.24 32.26 33.06 30.50 33.87 35.85 35.81 36.65 36.34 36.65 35.54 35.14 35.47 36.15 36.38 35.49 34.58 33.80 32.92 32.56 31.36 30.46 30.00 29.03 29.12 29.05 28.84 28.89 28.99 29.56 29.82 30.19 30.85 31.13 30.73
31.95 29.91 28.73 20.72 25.75 21.29 27.41 26.95 29.82 31.90 32.63 34.63 33.40 33.75 34.96 35.20 35.36 35.66 36.81 34.99 34.19 34.93 35.41 35.91 34.96 34.19 33.42 31.89 30.84 29.46 28.84 28.57 28.53 28.27 27.66 27.38 27.90 27.65 27.91 27.91 28.13 28.73 29.21 29.02
34.06 29.61 20.92 22.50 20.22 21.79 24.45 26.33 25.07 27.11 28.32 33.32 32.99 33.34 33.03 32.30 30.84 29.61 34.58 34.21 33.98 34.40 35.29 34.82 33.94 33.27 31.99 30.55 29.72 28.46 28.88 28.42 28.13 28.30 27.95 27.58 27.10 26.34 26.30 25.62 29.14 29.62 29.72 26.32
31.28 31.18 27.77 14.30 16.15 12.20 22.82 23.20 27.08 29.09 20.70 27.06 32.34 31.71 29.09 28.23 25.52 27.27 33.93 34.20 32.28 33.18 34.26 33.31 31.97 31.40 30.13 29.77 28.56 27.40 27.37 25.56 26.49 26.97 27.13 26.75 26.17 24.12 24.30 25.71 27.98 27.98 25.62 28.72
26.23 26.28 23.70 11.71 12.71 15.38 23.85 26.71 27.72 17.69 20.71 23.81 30.19 30.06 27.94 26.11 28.37 29.31 31.67 30.60 31.67 33.20 32.43 30.92 29.83 29.88 29.76 29.01 26.94 26.06 25.36 24.50 25.29 24.42 24.45 23.48 23.63 22.41 22.65 23.70 23.67 25.28 24.79 26.69
26.89 24.96 22.41 17.62 15.09 17.29 26.15 25.69 24.48 27.14 27.97 28.79 28.40 28.81 29.33 29.34 29.33 29.20 30.02 31.27 32.47 32.62 31.79 31.50 29.86 29.08 28.61 26.92 23.39 23.01 22.85 24.34 21.88 23.56 25.85 25.59 20.87 26.23 24.12 18.66 21.18 25.03 28.91 27.99
24.10 26.64 23.83 25.26 24.54 27.32 26.86 28.40 29.41 29.73 28.03 28.46 28.42 28.87 28.99 28.39 27.84 28.25 30.05 31.07 31.63 31.63 31.45 30.35 25.55 24.53 24.90 20.66 19.64 20.47 21.51 20.55 19.92 18.26 21.80 25.72 26.28 27.33 28.47 26.94 24.81 22.90 21.97 26.71
23.10 25.19 24.16 25.57 26.26 27.25 28.99 29.39 30.09 29.86 28.78 29.81 29.76 29.28 28.22 26.57 27.92 28.62 29.14 30.09 29.77 26.24 24.59 21.38 19.36 19.91 18.99 17.29 18.66 16.98 17.47 17.05 9.54 12.84 17.80 24.01 25.89 27.32 28.26 28.50 26.47 24.61 18.55 18.81
22.68 24.85 19.62 19.67 24.04 26.90 27.10 28.86 29.83 29.12 28.65 28.72 29.21 29.10 27.32 27.02 28.24 28.68 27.79 25.16 24.40 23.07 21.00 18.72 18.41 19.35 20.36 17.72 15.48 12.83 14.37 9.30 10.84 12.26 16.95 19.83 23.52 27.24 27.77 27.72 27.22 25.97 22.03 23.88
23.36 22.91 22.47 19.76 26.70 27.42 28.18 29.08 29.21 28.04 27.80 27.57 27.34 26.15 27.45 28.12 28.10 26.67 24.41 22.78 21.64 20.87 19.44 18.94 20.19 20.01 19.01 13.03 11.02 9.33 5.19 3.70 4.53 10.55 14.52 16.66 18.42 22.10 25.64 26.33 25.16 28.88 30.82 30.73

GFSCGP_sfc_wetblb_087.txt.gz
Wetbulb
38.85 34.96 32.52 35.05 34.36 33.58 33.30 30.96 30.70 32.53 36.96 36.11 34.68 34.91 37.78 39.37 38.87 39.10 39.74 39.63 39.91 40.43 42.32 42.25 43.01 43.38 45.09 52.99 56.24 59.14 61.05 62.86 63.63 62.95 62.50 62.50 62.27 63.00 63.30 62.96 62.33 60.86 60.22 59.10
35.77 31.78 35.99 36.78 34.89 34.30 32.49 31.08 30.15 33.05 36.07 35.70 34.15 35.61 37.72 38.11 38.44 38.78 38.78 38.78 39.02 38.80 39.47 40.41 41.47 42.00 42.90 45.59 51.57 55.37 58.95 61.24 62.87 63.68 63.84 63.80 63.20 63.27 63.73 63.44 62.95 61.64 60.78 59.66
33.50 34.67 37.01 36.34 33.78 33.96 30.80 31.38 30.64 31.27 32.16 32.47 30.65 32.17 33.16 35.49 36.26 37.09 36.52 37.64 38.79 38.93 40.05 40.99 41.94 41.96 42.88 42.06 42.40 49.76 55.01 58.88 61.65 63.18 62.71 59.54 60.20 59.63 62.49 62.46 62.76 62.46 60.79 60.54
33.86 35.08 34.94 33.62 32.19 33.27 29.97 34.48 33.71 32.62 30.65 27.62 30.56 26.24 31.47 32.45 35.38 35.49 35.93 36.40 37.96 39.28 40.66 40.99 41.29 42.15 42.28 43.50 43.79 42.75 46.38 53.65 57.88 61.39 61.59 61.38 61.26 60.29 61.93 62.66 62.86 62.85 62.32 60.97
33.08 33.92 33.70 32.89 34.05 35.05 32.48 34.54 33.19 31.38 28.88 28.28 28.09 27.24 30.82 30.74 32.95 34.74 36.11 37.88 38.91 39.63 40.11 40.76 41.24 42.08 42.33 43.18 44.05 46.16 47.11 47.78 51.99 57.69 60.91 60.23 60.82 61.47 60.55 59.96 60.54 62.11 62.09 62.59
34.28 36.61 35.78 35.16 34.82 34.92 35.19 32.86 31.13 28.65 26.89 23.27 25.43 26.52 27.79 30.05 32.75 34.02 36.78 38.11 38.90 39.65 40.22 40.68 41.48 42.03 42.28 42.90 43.64 44.65 46.20 47.32 52.59 55.23 57.62 58.70 59.33 58.70 57.46 56.92 57.30 58.81 60.98 60.89
31.30 32.50 35.07 36.67 34.08 35.47 32.89 30.75 24.03 22.79 21.06 21.74 24.00 24.67 29.08 31.64 33.90 35.94 37.28 38.07 38.47 38.87 39.67 40.11 40.51 40.89 41.26 41.39 42.06 43.49 43.99 43.88 45.84 51.05 54.43 55.97 57.07 57.27 56.93 56.29 55.74 54.74 54.36 55.03
28.02 26.67 34.07 35.88 34.66 32.99 31.04 31.09 25.75 18.86 18.14 21.86 25.54 24.26 29.28 32.82 34.63 37.18 37.63 37.71 37.97 38.54 39.03 39.20 39.69 40.04 40.25 40.24 40.94 41.95 42.50 42.83 43.45 44.56 45.48 48.38 50.81 53.00 53.80 53.68 53.77 54.06 54.17 55.47
28.08 28.00 33.80 34.62 35.01 37.09 31.90 28.77 30.90 23.75 12.77 18.92 24.53 28.00 32.29 34.36 35.04 36.02 37.41 37.97 37.78 38.00 38.43 38.97 39.82 40.00 40.04 40.18 40.21 40.65 41.53 41.82 42.08 42.66 43.54 44.02 44.77 45.42 46.10 47.05 48.89 50.04 50.53 50.52
33.90 27.95 32.27 33.47 35.54 34.43 32.13 33.70 27.86 24.54 14.98 14.45 22.01 24.21 26.93 31.35 33.75 35.31 36.42 37.09 37.39 37.80 38.81 39.44 39.64 39.84 39.99 39.59 39.86 40.32 40.29 39.75 40.07 41.15 42.07 42.59 43.05 43.71 44.15 44.67 44.82 45.22 45.93 46.74
33.52 32.23 29.59 32.95 31.75 30.86 31.07 29.90 28.73 29.33 25.60 17.39 15.37 23.72 29.91 34.94 35.21 34.68 36.20 36.98 37.03 37.17 38.28 38.85 39.13 39.23 39.14 39.11 38.89 38.84 38.57 38.14 38.06 38.93 39.99 40.59 40.94 41.55 42.15 42.42 42.81 43.19 43.67 44.00
34.31 31.81 27.23 29.88 32.34 32.64 31.60 31.08 30.69 25.82 21.41 20.96 22.41 24.66 32.66 36.37 35.61 36.44 36.57 36.82 36.90 38.33 38.25 37.85 38.26 38.27 38.10 37.89 37.84 37.59 37.36 37.11 36.69 37.25 37.88 38.00 38.39 38.71 38.89 39.19 39.84 40.63 40.85 41.47
34.96 29.17 19.65 26.43 29.74 30.34 29.01 30.03 30.53 29.34 28.10 21.64 22.36 24.70 33.05 34.82 34.63 36.02 36.02 36.54 37.96 37.51 37.60 37.77 37.61 37.06 36.92 36.87 36.71 36.54 36.22 35.68 35.46 35.80 36.14 36.28 36.04 35.99 35.90 36.07 36.47 36.94 37.39 37.83
39.03 30.46 28.23 26.38 27.33 30.46 28.98 29.95 30.50 31.21 26.23 25.54 26.59 27.58 31.00 32.00 34.02 34.91 36.53 37.42 37.71 37.57 37.70 37.20 36.82 36.57 36.65 36.41 35.83 35.39 34.98 34.61 33.80 34.01 34.20 34.04 34.14 34.06 34.22 34.45 34.56 34.71 34.89 35.16
36.50 27.95 30.12 30.35 30.99 30.41 30.44 30.69 29.79 29.99 32.75 28.86 31.58 29.47 34.19 34.00 35.51 36.17 37.55 36.91 36.83 37.12 37.26 37.11 36.41 35.94 35.45 35.21 34.79 34.56 34.13 33.48 32.66 32.50 32.61 32.43 32.78 32.68 32.49 32.38 32.40 32.71 33.10 33.63
36.61 29.56 31.12 29.30 32.90 31.36 30.14 31.36 31.83 33.50 30.77 30.00 28.27 29.67 35.58 36.86 36.60 36.38 37.04 36.53 35.92 36.68 37.32 37.11 36.25 35.30 34.44 34.12 33.53 33.19 32.14 31.79 31.25 31.01 30.81 31.05 30.53 30.33 30.62 30.63 30.77 31.08 31.67 32.09
34.20 32.14 28.50 26.09 30.16 29.65 28.30 31.07 31.43 31.56 32.52 33.79 29.99 33.53 35.75 35.49 37.01 37.23 36.58 36.20 35.72 35.85 36.33 36.06 35.55 34.71 34.14 33.29 32.64 31.88 31.04 30.74 30.31 30.24 29.63 29.13 29.12 28.90 29.36 29.21 29.28 29.82 30.05 30.67
32.03 31.04 30.34 23.91 29.56 23.78 29.84 25.74 30.12 32.46 33.50 34.91 33.35 34.28 36.99 37.57 37.96 37.83 37.57 35.19 34.42 35.17 36.05 36.07 35.11 34.45 33.69 32.43 31.68 30.39 30.38 29.96 29.75 29.05 28.19 27.39 28.00 27.51 27.48 27.20 27.19 28.88 29.60 29.34
35.69 31.58 23.07 23.55 18.53 23.81 25.58 26.39 28.76 31.24 31.56 34.56 33.75 34.10 34.79 33.74 33.32 32.81 36.72 34.73 34.93 35.76 36.31 35.91 34.73 33.83 32.64 31.25 30.46 29.72 29.74 29.01 28.72 28.38 28.13 27.69 27.16 25.99 25.80 25.15 26.18 27.30 28.32 29.15
32.27 33.43 30.33 20.63 19.22 15.71 24.97 23.83 26.42 28.85 23.39 29.20 34.84 34.29 31.61 30.60 28.54 29.95 33.82 34.13 34.73 35.39 35.26 34.59 33.51 32.62 31.46 30.82 29.63 28.37 27.89 25.84 26.91 26.44 26.18 26.00 25.61 23.80 23.66 25.00 24.83 26.08 25.69 27.39
27.68 27.81 26.92 21.68 21.45 20.82 25.46 26.89 27.43 19.99 24.12 24.44 31.58 32.12 29.15 28.73 30.44 30.72 33.55 31.88 33.40 34.37 34.56 33.18 31.87 31.28 30.55 29.25 27.53 26.96 25.40 25.03 25.10 23.68 24.41 25.48 26.71 24.48 25.25 25.58 25.68 24.87 24.14 26.85
24.92 25.22 23.04 18.15 19.69 18.58 26.26 26.18 25.19 27.66 28.74 28.41 28.10 28.16 28.62 28.45 29.49 30.26 31.23 31.72 32.60 33.23 33.31 32.06 31.21 30.12 28.17 26.38 24.04 23.03 23.02 24.35 21.33 20.44 20.19 21.11 24.79 27.45 27.87 28.29 28.10 28.11 25.97 26.14
25.97 27.30 22.48 24.66 25.13 27.31 26.36 27.14 29.80 30.93 29.33 28.52 28.38 28.85 28.82 28.30 28.02 28.96 29.34 29.52 30.67 30.19 31.74 29.10 25.76 23.99 24.51 20.33 20.48 20.87 22.25 20.14 18.66 14.18 14.15 16.29 20.33 24.06 26.29 28.72 28.54 29.07 28.55 26.75
24.10 25.71 26.66 27.44 25.43 25.61 27.05 28.08 29.69 30.22 30.51 29.64 28.80 28.33 28.27 27.63 28.16 28.55 28.81 29.44 29.35 24.74 23.22 20.45 19.44 19.11 18.69 17.81 19.30 18.22 17.68 16.16 7.21 10.04 13.53 16.84 18.33 20.64 23.11 27.18 27.70 28.28 27.49 26.15
23.84 25.10 20.80 21.37 24.97 27.68 28.58 29.36 29.21 28.79 29.18 29.27 29.49 29.17 28.12 28.18 28.14 28.44 26.66 24.70 23.61 21.93 20.47 18.63 18.64 18.02 19.12 17.49 16.05 13.74 14.24 8.83 9.26 10.37 13.56 15.75 17.60 18.30 19.90 23.26 26.69 27.88 28.32 27.96
23.16 22.70 23.52 22.00 26.53 28.05 29.23 30.27 29.90 28.20 28.06 28.45 27.68 26.71 27.67 28.44 28.40 26.24 24.31 23.38 21.31 19.31 18.06 16.74 15.89 15.49 15.23 13.10 13.15 11.21 4.74 3.08 2.64 8.80 12.69 13.29 13.90 15.67 18.07 22.36 25.18 28.19 29.00 30.85

GFSCGP_sfc_wetblb_090.txt.gz
Wetbulb
43.47 42.36 40.14 42.49 42.62 41.28 41.62 38.51 38.97 39.16 41.84 41.46 41.58 42.42 44.59 46.55 46.02 47.18 48.13 47.86 47.42 47.96 47.97 48.00 48.29 49.23 50.62 55.45 61.45 64.00 65.03 66.16 65.48 63.87 63.58 63.52 63.03 63.91 64.17 64.42 64.00 64.62 64.99 63.74
42.24 39.38 42.63 41.84 40.59 40.18 38.86 39.45 38.13 39.55 40.58 41.29 39.91 41.75 44.75 44.89 43.91 43.95 44.24 45.29 45.15 46.87 48.03 48.24 49.15 49.28 47.91 50.31 54.08 58.63 62.31 64.43 65.48 64.58 63.99 64.13 63.95 64.25 64.56 64.45 63.82 63.71 65.03 64.11
39.78 40.02 40.93 40.17 38.53 38.82 38.38 38.77 37.50 38.43 38.71 39.27 38.24 39.69 40.80 41.23 42.17 42.95 42.86 43.92 45.11 45.91 46.87 48.24 49.20 50.26 51.31 49.44 48.63 52.94 57.73 61.43 63.88 65.20 64.52 63.73 62.33 62.13 63.37 63.79 63.28 63.07 63.00 63.10
40.01 39.31 39.57 39.56 38.14 40.12 36.31 40.05 39.57 37.92 38.87 35.84 37.81 35.12 39.70 39.67 41.14 42.23 44.12 45.79 46.49 47.11 47.59 48.13 48.97 49.26 50.04 50.86 51.98 48.29 51.63 56.99 60.37 63.13 63.29 61.70 60.84 60.49 62.13 62.64 63.51 63.51 62.55 61.94
38.78 37.38 37.51 38.12 39.24 40.47 38.09 40.16 39.04 38.38 38.18 37.55 37.20 35.96 39.34 38.26 39.35 41.67 44.00 45.16 46.12 46.78 47.79 47.45 47.79 48.33 49.05 50.44 52.39 54.70 53.63 52.16 55.91 60.10 61.94 61.29 60.77 61.59 62.35 62.83 63.05 63.48 63.57 62.69
39.42 41.18 40.72 40.36 38.19 40.23 39.45 38.97 37.88 37.03 36.94 31.68 36.39 36.10 37.39 38.24 40.04 41.51 43.35 44.60 45.47 46.07 46.60 47.10 47.48 48.55 48.90 50.30 50.87 51.90 52.64 55.27 57.75 57.71 59.68 60.72 60.57 60.89 61.10 61.69 62.14 62.55 63.13 63.24
37.49 38.17 40.38 40.97 37.88 38.99 39.20 38.86 31.54 30.41 30.43 30.21 31.46 31.97 39.09 38.42 40.36 44.27 43.79 44.34 45.18 46.27 46.95 47.06 47.03 47.14 47.30 47.88 48.93 49.15 49.98 49.38 52.32 56.32 55.71 56.63 57.47 58.48 58.29 57.84 57.75 57.58 57.84 57.86
33.47 30.85 37.69 40.48 39.77 37.46 38.10 38.51 33.41 26.49 25.97 29.95 29.97 30.39 37.22 39.59 41.00 44.52 44.86 44.81 44.64 45.40 46.23 46.13 46.23 46.62 46.57 46.89 47.89 48.35 48.01 47.84 49.21 50.20 50.49 51.64 53.08 55.16 55.74 55.67 56.05 57.39 57.29 57.67
33.61 32.59 38.16 38.62 39.16 41.17 36.63 34.36 37.23 29.03 22.79 30.16 33.63 35.71 37.86 39.18 40.23 42.21 42.66 43.77 44.30 45.11 45.89 45.70 45.83 46.21 46.09 45.84 45.75 46.61 46.62 46.39 47.15 48.08 48.91 48.92 49.50 49.80 49.75 50.27 50.99 51.13 51.53 50.67
37.37 31.91 35.82 37.14 40.19 39.18 38.42 39.39 33.27 34.10 26.54 26.23 29.57 31.40 36.57 36.09 39.12 41.60 41.85 43.22 43.27 44.23 44.84 45.09 45.22 44.95 44.90 44.95 44.98 45.13 44.91 44.32 45.06 45.96 46.24 46.19 46.34 46.93 47.34 47.63 46.98 47.27 47.99 48.30
38.53 37.16 33.17 36.76 36.01 36.49 35.08 34.94 34.65 36.53 33.80 31.05 27.56 32.67 40.34 39.71 42.00 41.48 43.14 43.91 43.87 44.40 44.43 44.11 43.86 43.97 44.05 44.39 44.37 44.05 43.76 43.38 43.35 43.85 44.22 44.28 43.84 44.06 44.37 44.12 44.01 43.90 44.86 44.62
38.30 36.20 31.67 34.05 36.57 37.20 36.79 36.94 37.27 33.58 28.45 30.03 30.59 34.74 37.67 42.33 43.57 43.53 42.65 42.29 43.55 44.22 43.58 43.75 43.63 43.79 43.33 43.12 43.10 42.57 42.42 41.75 41.45 41.97 42.30 41.75 41.67 41.74 41.49 41.09 40.98 41.20 40.99 41.69
38.28 34.45 28.79 30.11 34.69 35.04 34.10 35.40 38.02 35.68 34.14 29.62 30.25 34.43 37.70 41.82 41.34 43.01 42.13 41.75 42.70 42.95 43.15 43.31 43.65 43.32 43.12 42.53 41.90 41.31 40.57 40.22 40.28 40.94 41.23 40.82 40.14 40.07 39.73 39.39 39.56 39.78 39.56 40.20
40.65 35.01 34.37 30.81 33.98 36.71 32.58 34.06 34.60 36.29 32.32 32.75 32.81 36.43 35.73 39.08 40.66 41.39 41.71 43.14 43.48 43.31 42.73 42.91 42.31 42.00 41.55 41.12 41.11 40.84 39.81 39.40 39.40 39.66 39.49 38.81 38.28 37.92 38.18 38.37 38.26 38.16 38.54 38.79
38.59 33.30 34.53 36.81 35.55 36.16 36.14 34.98 34.41 34.29 36.69 33.57 36.32 35.01 37.11 39.85 41.36 42.06 43.19 43.36 41.59 41.30 41.43 42.01 41.37 41.13 40.76 40.27 39.96 39.63 39.24 38.31 37.98 38.19 37.78 36.83 36.75 36.65 36.53 36.21 35.83 36.02 36.37 36.56
38.46 33.42 33.96 31.47 34.13 34.99 33.58 36.28 36.13 36.61 37.26 37.54 36.93 36.01 41.63 43.06 43.59 41.12 41.64 41.39 41.15 41.44 41.90 41.13 40.10 39.55 38.89 38.66 38.65 37.44 37.23 36.57 36.34 36.18 35.27 34.97 34.65 33.95 34.16 33.86 33.35 33.56 34.06 34.79
36.33 33.86 32.64 30.07 32.15 34.08 30.24 34.02 35.11 36.57 38.80 38.16 34.46 38.55 40.07 39.77 39.82 40.83 41.73 41.50 41.30 41.42 40.91 40.13 39.88 39.58 38.95 38.48 37.67 37.18 36.51 36.04 35.45 34.80 33.29 32.52 32.42 32.37 32.37 31.86 31.99 32.19 32.77 33.29
33.68 33.02 33.30 28.48 32.01 24.62 33.20 31.84 36.57 37.00 37.70 38.93 38.89 38.90 39.75 39.84 42.02 43.13 43.82 42.04 40.72 40.18 39.81 39.71 39.58 39.07 38.21 37.23 36.11 35.14 34.80 34.51 34.08 33.40 32.45 31.61 31.43 31.08 30.98 30.82 30.80 31.33 32.00 31.60
37.45 33.77 27.39 28.24 29.39 31.71 31.81 30.01 33.72 34.10 35.67 38.88 38.67 38.94 39.16 39.66 40.15 38.40 41.28 42.20 40.79 40.08 40.61 40.44 40.13 39.30 37.46 36.18 35.15 34.09 33.77 33.42 33.04 31.69 31.06 30.28 29.81 28.75 28.88 28.20 29.49 29.97 29.90 30.37
34.32 37.25 33.31 26.10 27.28 25.42 32.53 31.27 32.91 36.42 31.31 38.23 39.46 37.92 36.48 37.98 35.04 39.16 38.49 37.65 38.34 39.59 39.44 38.58 38.06 36.84 36.13 34.43 33.41 32.69 31.83 31.68 31.02 29.17 28.81 29.12 29.25 28.80 27.67 28.37 28.34 29.23 29.21 29.01
29.25 30.72 29.84 29.06 28.05 30.14 33.26 31.17 32.34 29.24 34.06 30.70 38.54 38.94 36.23 37.99 38.32 38.11 37.01 36.37 38.38 38.88 38.24 37.43 36.64 35.33 33.51 31.68 31.08 30.83 29.90 30.15 28.40 27.22 27.24 27.15 27.43 27.77 29.02 29.35 30.66 30.48 30.34 30.16
29.81 29.29 28.10 26.87 27.21 25.14 31.90 30.06 30.16 35.53 31.90 33.66 35.83 36.25 36.17 33.77 34.81 36.54 35.86 35.79 37.23 37.32 36.73 35.77 34.56 32.36 30.67 30.01 29.95 29.58 29.78 28.24 26.11 24.83 24.13 24.28 24.02 25.42 28.08 28.85 29.84 31.05 31.30 31.05
28.64 33.66 30.56 31.74 32.03 31.19 33.08 32.36 34.36 35.24 34.09 32.87 33.98 34.17 34.54 33.63 34.74 35.12 34.36 35.44 35.78 36.36 34.32 32.22 32.69 29.92 28.72 27.84 27.87 28.38 28.76 25.62 23.74 20.72 20.28 21.09 22.74 23.49 25.27 26.16 27.93 28.62 29.90 30.37
28.88 30.00 31.36 31.58 32.56 31.50 31.98 32.91 33.90 35.05 34.91 34.06 35.11 34.15 34.36 32.81 33.03 32.08 32.81 32.23 31.98 30.57 29.70 27.89 28.15 27.61 27.65 26.56 25.51 25.22 24.04 21.75 17.47 17.96 19.52 21.12 21.78 22.98 23.89 25.71 26.74 27.73 28.21 28.82
30.57 29.48 29.22 29.42 27.94 30.51 31.35 33.30 34.34 32.94 33.07 32.30 32.69 32.56 33.33 32.79 31.53 31.72 31.11 30.59 29.75 28.05 26.61 26.77 26.46 25.73 25.02 24.12 24.17 23.20 20.13 16.40 16.20 16.97 18.19 20.00 21.34 21.41 21.59 23.04 24.39 26.00 28.17 29.43
28.03 28.04 29.30 30.82 31.45 33.49 32.66 33.87 33.12 32.16 31.96 32.60 31.78 29.87 30.39 31.64 31.19 30.43 29.60 28.57 26.93 24.95 23.53 22.71 21.13 19.94 19.51 18.69 18.74 18.98 13.32 10.93 10.52 14.41 17.39 18.30 16.97 18.81 19.71 20.68 22.93 26.87 28.87 29.92

GFSCGP_sfc_wetblb_093.txt.gz
Wetbulb
47.20 43.04 40.35 43.13 44.71 45.02 44.42 41.92 40.76 42.66 43.37 42.96 43.04 43.56 45.35 47.46 47.36 47.75 49.17 49.83 49.89 50.11 50.98 50.36 51.13 52.14 53.18 56.97 62.96 64.64 65.29 66.72 66.42 64.35 64.08 64.27 63.85 64.83 65.21 65.63 65.49 65.09 64.69 65.54
42.85 39.93 44.64 45.65 44.27 42.88 43.05 40.94 40.71 41.40 42.64 42.71 42.90 42.57 45.39 46.76 47.03 47.26 47.46 47.65 48.17 48.74 49.68 49.89 50.65 50.90 51.04 52.10 55.47 61.16 63.87 65.36 66.61 64.84 64.57 64.54 64.19 64.54 64.86 65.11 64.92 64.37 64.22 64.71
40.79 42.48 43.94 41.91 40.81 40.53 41.49 40.93 40.74 40.40 41.31 42.10 40.93 40.57 43.40 43.95 44.54 45.22 45.55 46.19 47.29 48.38 48.64 49.84 50.75 52.22 52.71 51.41 52.03 54.19 58.72 62.88 65.14 65.89 64.34 64.04 63.25 63.60 63.85 63.87 63.68 63.86 63.75 64.05
41.92 41.49 40.95 41.08 40.20 42.01 37.76 41.91 41.85 40.21 39.98 36.55 41.07 35.75 41.63 42.99 43.10 44.18 45.83 47.56 48.52 48.86 49.54 50.24 50.88 51.39 52.20 53.44 52.97 50.98 55.15 58.66 62.12 64.57 64.51 62.92 61.87 60.70 62.01 62.98 64.22 63.88 63.67 63.48
38.91 38.98 39.44 39.56 40.73 42.66 39.90 42.52 41.69 41.55 39.75 38.70 38.28 36.01 40.28 41.21 40.99 43.64 46.12 47.46 48.42 49.41 49.85 49.47 49.85 50.51 51.62 53.68 55.76 54.08 52.16 55.66 58.84 61.17 62.70 62.27 60.85 61.26 61.58 62.32 62.29 62.86 63.21 62.86
40.27 42.13 42.68 42.33 41.43 42.59 42.10 41.03 40.69 40.84 38.90 32.59 37.71 37.01 38.57 39.53 41.51 43.88 45.69 46.85 47.45 48.05 48.53 48.81 49.79 50.87 51.21 52.63 53.71 55.71 57.18 56.18 56.14 58.67 60.65 61.08 59.65 59.45 59.49 59.77 60.93 62.09 61.55 61.82
38.87 38.69 41.36 42.23 38.71 41.50 41.76 38.74 32.16 30.53 30.87 30.36 34.60 34.66 38.50 40.41 43.07 45.42 45.06 46.14 47.29 48.41 49.01 49.11 49.05 49.17 49.89 50.33 50.96 51.87 53.33 54.98 57.80 57.24 57.87 58.27 58.82 59.12 58.83 58.45 58.57 58.40 59.05 59.43
34.08 31.89 38.99 42.02 41.16 38.23 38.98 39.07 33.97 27.27 28.00 31.71 31.25 31.01 37.83 41.87 43.73 47.05 46.90 46.66 47.38 47.80 48.40 48.49 48.72 48.78 48.79 49.43 50.12 50.40 50.63 50.36 51.70 52.28 52.97 54.59 56.71 56.58 55.36 54.18 54.21 54.45 54.06 54.12
35.11 34.55 39.64 41.26 41.84 42.08 38.13 35.48 40.02 31.54 27.17 31.69 34.59 37.70 39.92 41.02 42.36 44.69 44.90 45.21 46.16 47.29 47.81 47.67 48.27 48.41 47.96 47.81 48.30 48.83 48.57 48.91 49.46 49.93 50.13 50.00 50.52 50.58 50.26 50.51 50.73 50.27 50.37 49.46
39.46 31.85 37.38 37.97 41.20 40.60 39.86 41.52 33.56 35.30 27.59 27.08 32.20 34.49 36.88 36.63 39.32 42.25 42.96 44.42 45.95 47.23 47.13 47.32 47.38 47.05 47.05 47.08 47.10 47.33 47.24 46.65 47.28 47.56 47.47 47.10 47.10 47.34 47.52 47.07 46.10 46.30 46.74 46.43
40.81 38.63 33.20 37.59 36.44 36.82 36.17 36.04 37.04 37.54 36.00 32.99 29.90 33.51 41.25 40.67 41.54 42.36 43.92 45.72 45.87 46.03 46.50 46.53 46.49 46.35 46.48 46.86 46.64 46.12 45.95 45.61 45.40 45.61 45.63 45.21 44.74 45.00 44.91 44.26 43.99 43.71 44.30 43.89
40.00 38.23 31.89 34.28 37.64 38.98 40.12 38.72 38.02 33.04 30.02 33.06 32.23 35.47 40.58 43.61 44.04 45.26 45.15 45.78 46.42 46.82 46.30 45.78 45.47 45.79 45.83 45.57 45.43 44.79 44.31 43.56 43.95 44.47 44.15 43.49 43.42 43.33 42.58 41.94 41.88 42.25 41.65 42.73
39.16 35.64 29.77 30.44 35.71 36.88 35.93 38.50 40.06 39.82 37.61 32.59 31.61 34.84 39.96 42.30 44.38 45.61 45.29 45.31 45.48 45.47 45.49 45.22 45.13 44.77 44.43 43.79 43.17 42.57 42.36 41.69 42.27 42.82 42.51 41.63 41.12 41.11 40.64 40.57 40.73 40.93 40.78 41.23
41.54 37.11 33.94 30.85 34.50 37.60 33.69 36.51 37.35 38.00 32.71 33.52 34.25 37.23 37.41 41.39 42.97 44.49 44.88 44.54 44.74 44.93 44.80 44.92 44.75 44.37 43.90 43.23 42.63 41.79 41.03 41.22 41.37 41.37 40.66 39.65 39.11 39.13 39.08 39.21 38.97 38.74 38.90 38.91
39.53 33.14 35.96 37.64 39.15 38.62 37.83 36.67 37.00 35.50 37.08 34.02 36.96 36.91 40.56 41.26 43.00 44.56 45.48 44.58 44.26 44.03 44.03 43.97 43.53 43.04 42.71 42.09 41.33 41.34 40.50 39.61 40.45 39.93 39.27 38.24 38.58 37.81 37.52 36.91 36.68 36.58 36.46 36.59
39.14 34.75 36.33 33.45 37.10 35.52 34.34 36.86 37.19 36.39 37.10 37.47 38.15 38.04 43.99 44.39 45.19 44.52 44.05 44.17 43.29 43.42 43.82 44.06 43.28 42.26 41.48 40.93 40.16 39.50 39.05 38.23 38.90 37.77 36.26 35.94 35.87 35.12 35.38 34.76 34.20 34.18 34.48 35.00
37.09 35.22 33.46 31.74 33.78 34.20 30.40 33.61 36.88 37.32 39.00 39.11 35.27 39.89 42.59 42.15 42.98 43.71 43.46 44.04 43.32 43.93 44.03 43.04 41.82 41.03 40.56 39.96 39.59 38.80 38.18 37.86 36.78 36.06 34.54 33.59 33.48 33.51 33.50 32.97 32.85 32.87 32.99 33.39
34.58 34.49 34.47 31.13 32.55 24.09 35.07 37.81 40.12 38.63 39.62 40.83 40.88 42.01 42.53 43.07 44.43 45.59 46.24 45.01 44.37 44.44 43.57 42.12 41.89 41.08 40.16 39.33 38.68 37.40 37.01 36.14 35.36 34.40 33.66 32.61 32.23 31.68 31.53 31.20 31.06 31.80 32.05 31.38
39.20 36.44 32.04 29.76 28.92 33.06 36.31 32.77 35.42 35.79 36.39 41.37 40.76 42.04 42.62 43.92 44.13 43.49 46.25 46.23 45.06 44.06 42.69 41.92 41.84 40.86 39.13 37.95 36.91 35.80 34.76 34.85 33.96 32.73 32.16 31.46 31.16 29.90 29.89 28.51 29.96 30.42 30.46 30.50
35.28 37.58 33.92 30.80 28.73 25.42 34.60 36.15 39.12 40.44 30.86 41.53 41.37 40.97 39.67 40.33 35.50 40.04 43.72 43.56 41.47 41.63 41.42 40.48 39.72 38.63 36.78 35.93 35.21 33.66 32.71 32.98 31.69 30.22 29.80 29.94 29.87 28.51 28.44 29.84 29.63 31.08 31.17 30.56
31.07 31.31 30.27 29.88 30.20 33.45 33.77 32.50 36.43 30.76 34.32 34.49 40.67 41.44 39.23 37.92 41.02 43.81 41.28 40.18 40.92 40.43 39.59 39.17 37.82 35.96 35.43 32.85 32.34 31.83 31.77 30.40 29.00 28.41 28.29 27.96 28.04 26.69 27.94 28.92 30.26 30.21 30.41 30.36
29.68 29.92 30.32 31.24 29.12 27.29 33.30 31.75 33.61 36.82 34.19 35.51 38.82 40.55 39.49 37.89 38.20 38.68 39.55 38.48 38.31 37.91 37.15 36.42 34.27 32.39 31.78 31.36 31.60 30.69 30.42 28.55 27.31 26.14 25.55 25.12 24.41 25.78 27.18 26.22 27.36 28.44 29.76 29.99
30.24 34.37 32.07 32.97 34.17 34.47 34.79 35.44 36.83 37.48 36.09 35.27 38.40 38.42 38.18 36.71 36.35 36.67 36.81 37.27 37.43 36.94 34.65 34.56 33.11 30.40 30.11 29.17 29.48 29.43 27.86 26.11 24.40 21.25 19.99 22.07 23.63 24.18 25.49 25.46 25.68 27.17 28.60 28.60
32.03 32.69 33.00 33.54 35.15 34.45 33.98 34.88 35.09 36.35 36.75 36.58 36.93 36.43 37.10 36.26 35.20 34.23 34.39 34.18 33.62 32.45 31.24 30.15 30.00 28.56 27.10 27.20 26.60 26.29 24.89 22.31 16.86 18.94 20.85 21.88 22.25 23.70 24.44 25.91 25.95 26.16 26.69 27.27
32.80 32.48 32.41 31.66 30.09 32.56 33.70 34.81 35.76 34.62 34.61 34.37 34.82 35.00 36.40 34.78 33.32 33.39 32.47 31.65 31.23 29.74 28.51 29.39 29.07 27.96 26.38 25.91 24.91 22.93 20.24 16.92 17.83 18.12 19.55 21.23 22.64 22.60 22.03 23.29 24.09 24.27 25.41 26.58
30.78 31.99 31.67 32.82 34.56 35.58 34.81 35.12 35.54 34.52 33.68 33.87 32.71 31.96 32.76 33.82 32.47 32.14 31.01 30.79 29.49 27.94 26.95 25.98 24.85 24.00 22.17 20.26 19.02 18.23 13.76 12.63 11.78 15.55 18.30 19.55 17.87 19.43 20.05 20.60 21.39 25.36 26.54 27.70

GFSCGP_sfc_wetblb_096.txt.gz
Wetbulb
44.49 39.71 37.13 39.47 40.67 41.56 41.38 38.61 36.51 38.53 41.29 38.97 38.80 38.67 41.67 43.06 42.36 41.83 42.84 44.10 45.20 45.93 46.01 46.29 46.72 46.45 47.13 49.97 58.78 61.18 62.59 63.91 64.01 63.39 63.48 63.54 63.39 64.19 64.43 64.71 64.41 64.08 64.15 64.13
40.43 36.67 42.09 43.64 42.75 40.99 38.18 37.84 36.40 38.33 40.71 38.09 38.85 38.52 40.99 42.28 42.35 43.33 41.96 43.00 44.67 43.88 44.66 46.65 44.89 44.64 46.05 46.85 48.56 55.01 60.66 62.79 64.13 63.96 63.98 63.82 63.79 63.82 64.37 64.58 64.29 64.09 63.60 63.78
37.90 40.35 43.54 41.44 38.48 38.88 37.53 37.30 36.00 36.90 38.42 37.79 34.52 34.90 38.81 40.55 41.54 41.57 40.85 41.52 42.39 42.71 44.89 45.42 46.03 46.53 48.07 46.34 46.66 48.99 53.44 59.60 62.45 63.41 64.08 63.19 62.67 62.61 62.83 62.91 62.96 63.22 63.00 63.07
39.81 41.26 40.58 38.88 38.01 39.87 35.66 39.52 39.89 37.65 35.49 30.19 35.67 26.83 34.41 36.52 38.06 40.50 42.00 40.60 41.69 43.53 44.73 46.58 46.99 46.11 47.49 49.27 48.40 46.77 48.63 53.64 58.84 62.96 61.78 61.85 61.01 60.11 61.81 62.51 62.98 62.66 62.61 62.48
36.74 37.15 37.69 37.19 38.86 40.86 37.40 40.45 38.91 38.32 35.54 31.39 31.09 28.91 32.32 37.48 36.39 38.58 41.38 42.79 43.78 44.37 45.01 45.45 45.45 47.42 48.10 49.72 50.62 45.51 47.80 52.23 55.54 57.66 61.38 61.68 60.09 60.04 60.05 60.72 60.94 61.82 61.87 61.88
37.82 39.89 39.64 39.40 39.93 40.61 40.68 38.61 38.09 36.18 33.87 25.88 31.58 30.30 30.21 32.87 36.61 38.80 41.75 42.66 44.23 43.86 43.65 44.69 46.10 47.35 47.36 48.06 50.09 52.52 49.74 50.55 53.49 55.86 57.61 57.87 57.86 58.03 58.03 57.89 58.50 58.83 58.69 59.40
36.16 36.15 38.65 40.16 36.39 38.04 37.52 34.51 25.41 24.10 23.12 23.27 28.78 29.11 33.28 35.61 38.34 41.11 41.05 41.71 42.76 43.72 43.35 43.64 44.21 44.77 45.57 45.38 46.09 48.62 52.45 53.16 53.95 54.26 54.42 55.00 56.64 56.68 56.71 55.96 56.00 55.89 55.40 54.14
31.25 28.78 36.02 38.79 37.72 34.88 35.20 34.63 27.52 20.43 22.14 24.39 27.51 25.93 32.53 36.36 39.31 42.48 42.85 42.34 43.09 43.47 44.04 43.72 44.16 44.35 44.93 45.49 45.34 45.71 46.25 46.63 47.51 48.32 50.34 51.58 51.96 50.22 48.51 47.95 47.51 47.27 46.67 46.22
32.09 31.67 37.61 38.76 39.14 38.86 34.52 31.78 35.60 27.39 20.34 23.86 27.15 31.63 36.13 37.43 37.98 41.28 41.22 41.61 41.71 43.04 43.57 43.61 44.10 43.92 43.76 43.38 44.09 44.36 44.15 44.26 44.84 44.96 44.63 44.28 44.76 44.65 44.04 43.60 43.82 43.67 43.42 44.33
36.19 29.13 35.80 36.15 38.13 37.74 36.17 37.99 29.61 29.85 17.67 17.65 25.46 26.31 30.27 32.89 36.31 39.84 40.07 40.33 41.78 42.90 43.12 43.24 43.20 43.14 43.06 42.80 42.89 43.16 43.14 42.42 42.67 42.69 42.41 42.29 41.96 42.11 41.86 41.48 40.74 40.98 41.11 41.50
36.99 35.11 31.10 34.83 33.55 33.79 33.52 32.87 33.84 33.47 30.83 22.72 20.27 25.29 34.12 36.42 38.32 39.69 40.22 41.82 42.54 42.09 42.09 42.03 42.22 42.61 42.69 42.46 42.03 41.73 41.60 41.31 41.10 41.22 40.95 40.44 40.31 40.38 40.05 39.28 39.12 39.22 39.55 39.70
37.74 35.27 28.07 30.83 34.61 35.95 35.25 35.29 35.08 29.10 25.88 26.69 27.39 27.32 36.69 37.59 39.75 41.00 41.11 42.63 42.37 42.81 42.38 41.69 41.54 41.70 41.64 41.33 40.80 39.73 39.91 39.76 40.15 40.51 39.67 39.35 39.06 38.54 37.92 37.57 37.81 38.14 37.82 38.57
37.78 33.10 25.35 27.96 32.48 34.32 33.63 35.48 36.53 35.48 31.88 25.91 23.10 26.86 37.18 37.28 38.91 41.65 41.29 41.96 43.06 42.84 41.82 41.36 41.25 41.02 40.33 39.46 38.95 38.27 38.24 38.22 38.98 38.82 37.91 37.09 36.72 36.49 36.46 36.53 36.79 36.80 36.45 36.45
41.29 35.41 31.52 27.85 30.25 34.14 30.40 33.72 35.25 34.73 26.85 27.19 28.10 31.48 34.09 36.28 38.63 40.71 41.84 42.47 43.04 42.61 42.10 41.30 40.68 40.25 39.85 39.32 37.54 36.97 37.17 37.61 37.72 37.44 36.78 35.76 35.31 35.51 35.44 35.55 35.15 34.66 34.79 34.54
38.29 30.55 33.13 34.38 35.66 35.48 34.26 33.99 34.54 32.67 34.90 30.64 33.90 33.59 35.53 37.20 39.58 41.82 43.06 42.34 42.16 41.83 41.65 41.56 40.88 39.89 38.51 37.42 37.01 36.76 36.29 36.71 37.00 36.23 35.11 34.60 34.63 34.37 33.88 32.72 32.34 31.88 31.31 32.30
37.41 29.80 32.70 28.01 34.43 33.37 30.69 34.05 35.17 35.45 35.50 35.38 35.56 33.52 38.75 40.71 42.06 40.93 42.21 41.81 41.69 42.03 42.10 42.08 40.80 39.51 38.35 37.68 36.12 36.60 35.40 35.65 35.76 33.86 32.61 32.91 32.09 31.51 30.97 30.56 30.53 30.32 30.32 30.18
33.99 31.98 29.74 25.95 31.29 30.44 26.33 31.09 33.40 35.09 36.71 36.07 32.88 37.61 38.04 37.78 40.40 41.01 41.39 41.79 41.86 42.02 41.84 41.05 40.14 39.20 38.13 37.04 37.04 35.29 34.77 34.92 33.11 31.28 30.65 30.44 30.49 30.20 29.66 29.45 29.08 29.23 28.86 28.96
33.22 30.34 31.46 26.00 28.18 20.23 32.30 36.14 37.67 36.13 37.35 38.42 38.44 38.57 38.84 39.22 41.48 42.83 44.47 42.94 42.49 42.34 42.02 40.88 39.50 38.08 37.27 36.31 35.26 34.85 33.93 32.45 31.43 30.57 29.58 29.17 29.22 28.03 28.44 27.94 27.25 27.83 27.94 27.37
37.24 32.74 29.65 25.70 21.18 27.09 31.43 30.75 32.30 32.22 33.79 38.99 38.27 39.70 39.01 39.15 38.91 38.64 43.95 43.65 43.58 43.05 42.57 40.36 39.29 37.91 36.35 35.11 34.40 32.14 31.67 31.52 30.57 29.65 29.10 28.75 27.76 25.51 25.90 23.12 25.40 26.24 25.25 25.09
36.06 36.85 32.05 29.88 26.05 23.31 29.67 35.96 37.47 37.40 29.36 37.41 39.07 39.30 37.41 38.09 34.43 37.62 41.24 43.28 42.54 42.62 40.68 38.64 37.66 36.46 34.92 33.23 32.49 31.64 30.50 30.11 28.93 28.76 28.28 27.84 26.85 23.07 22.21 24.41 23.53 23.97 22.73 28.11
31.49 31.64 29.80 30.27 28.28 26.83 30.44 31.16 36.11 26.97 30.32 31.05 35.80 39.00 38.08 38.04 40.40 40.15 40.66 39.88 41.13 39.82 38.12 37.51 36.23 34.21 33.26 31.77 31.40 30.14 29.64 28.83 27.88 26.47 25.75 24.89 24.84 20.98 21.31 21.82 22.78 20.67 21.57 24.71
30.52 29.80 29.53 31.09 28.47 25.00 30.43 30.27 32.13 33.27 29.16 30.27 34.30 37.19 36.71 35.76 37.19 38.93 39.02 37.81 37.18 36.27 35.93 34.77 32.62 31.16 30.37 30.66 30.53 29.27 28.39 26.75 24.31 22.86 22.14 19.35 16.63 20.06 21.61 14.11 14.87 16.22 16.92 17.75
28.58 31.87 31.08 32.03 29.39 31.34 31.81 30.32 32.39 33.97 32.55 30.15 32.41 34.09 36.44 34.91 34.49 35.76 35.59 35.52 35.36 34.94 33.36 32.90 31.14 29.32 29.12 29.27 29.41 27.49 25.28 24.01 20.04 16.41 12.52 12.40 13.76 15.67 15.64 12.43 12.99 15.37 14.54 15.32
31.04 31.70 32.06 30.96 30.72 29.63 30.52 31.43 31.63 32.97 32.13 32.42 32.63 32.85 34.70 33.07 33.61 33.31 33.50 32.56 31.71 31.66 30.63 30.07 29.21 27.57 26.24 25.95 25.77 23.92 21.24 18.51 12.05 9.32 11.60 13.08 12.11 12.52 12.79 17.51 18.73 12.45 12.50 16.47
29.57 30.12 27.57 27.38 29.76 30.23 31.89 32.51 33.97 32.92 30.97 31.21 31.64 32.38 33.46 31.93 31.90 33.08 32.19 31.22 31.03 30.08 29.66 30.44 29.26 27.39 25.64 23.73 20.18 18.25 16.44 13.91 13.45 10.78 12.98 12.36 13.70 10.25 12.67 14.90 14.29 16.56 16.37 17.59
27.71 28.97 28.73 27.53 32.76 33.57 32.90 33.34 33.33 31.29 30.62 30.77 30.30 30.77 30.95 31.03 31.73 31.50 30.76 30.33 29.47 28.27 27.47 26.80 25.42 24.10 20.79 18.02 15.69 11.57 9.68 9.59 6.53 9.75 11.97 11.00 10.32 10.09 13.04 13.79 15.58 21.59 24.22 25.83

GFSCGP_sfc_wetblb_102.txt.gz
Wetbulb
41.70 37.59 36.29 39.15 36.82 38.15 37.23 35.34 34.88 33.99 37.58 36.57 36.31 36.11 38.33 39.56 38.98 38.75 38.95 39.46 41.30 43.73 45.45 46.74 49.64 53.90 56.14 57.36 60.60 62.28 62.55 62.48 62.05 61.79 61.18 62.85 62.74 63.42 63.45 63.72 63.79 63.64 63.64 63.14
38.80 35.92 40.63 41.48 39.91 38.75 36.71 34.48 32.06 34.41 36.60 35.51 34.65 36.42 37.36 38.12 38.53 39.39 40.07 39.22 42.01 41.55 42.37 42.77 43.74 43.95 46.81 48.37 54.80 59.00 62.06 62.36 62.43 62.60 61.96 61.04 63.17 63.42 63.70 64.11 63.76 63.63 63.22 63.31
35.52 38.16 41.22 39.64 37.50 36.40 33.42 33.38 32.12 33.98 34.97 34.21 32.88 32.71 35.12 39.22 38.05 38.86 39.80 39.35 40.40 41.22 41.87 42.08 42.73 43.76 44.04 43.73 44.70 48.17 60.00 62.15 62.72 62.38 62.67 62.54 62.68 62.83 62.64 62.80 62.83 63.18 63.17 62.90
36.84 40.19 39.39 37.68 37.33 38.41 32.70 37.27 36.48 34.55 31.93 28.29 32.04 25.97 30.40 36.16 37.22 37.94 39.39 38.90 40.47 40.25 41.61 42.45 44.18 44.85 44.79 46.23 47.23 46.35 47.41 60.61 61.93 61.89 62.65 61.54 60.87 60.27 61.58 62.17 62.78 62.63 62.52 62.25
35.80 36.30 36.11 36.49 38.14 38.66 35.85 38.51 37.10 34.62 30.61 29.74 27.94 26.46 29.69 32.06 34.08 36.40 38.36 38.16 39.32 40.81 41.82 43.03 43.87 45.63 45.70 48.84 48.00 44.10 44.48 49.25 60.77 61.94 62.78 61.85 60.75 60.25 60.08 60.87 60.68 60.34 56.62 57.27
36.96 38.33 38.85 38.76 38.43 39.10 38.95 36.42 34.45 31.78 29.71 24.75 27.80 27.94 27.46 30.13 34.63 37.85 36.54 38.57 39.04 40.52 41.79 42.71 44.34 45.92 46.26 47.11 47.41 42.97 47.67 51.15 58.29 61.26 60.70 61.27 59.75 58.74 58.27 58.07 57.53 55.39 51.15 50.41
32.91 34.26 36.30 38.56 36.41 37.89 36.56 33.83 25.17 23.29 22.56 22.97 24.51 24.38 31.14 32.86 35.52 36.53 38.13 38.67 39.60 40.86 41.74 42.59 43.51 43.80 44.59 46.12 47.55 48.39 49.39 50.45 53.47 56.55 56.95 57.99 57.49 57.68 56.39 54.48 52.51 48.84 47.46 46.28
29.88 27.23 34.59 37.41 36.61 34.22 32.43 33.70 24.44 17.69 18.67 22.18 26.06 24.38 31.70 35.12 35.87 37.66 38.35 39.36 39.50 40.09 41.56 42.25 42.78 42.69 43.06 45.15 46.28 46.92 47.55 47.26 48.32 50.37 49.24 50.72 50.50 48.77 48.14 47.47 45.52 44.07 42.27 40.97
28.77 29.44 35.68 36.16 37.00 38.29 33.87 30.68 33.60 25.90 17.08 22.00 25.07 27.49 33.74 34.83 36.34 36.65 37.60 39.23 38.97 39.01 40.29 41.71 42.02 42.14 42.05 42.64 43.30 43.73 43.28 42.83 43.65 44.77 44.82 44.34 44.73 43.87 42.69 41.49 41.25 40.06 39.38 39.81
33.48 28.40 33.94 34.92 36.74 36.26 35.40 36.72 30.06 27.10 17.97 17.20 23.47 23.44 27.48 30.94 34.42 36.36 36.20 38.09 37.89 39.10 39.56 40.27 40.28 40.76 40.78 41.08 40.84 40.95 40.98 40.56 40.42 41.40 42.08 41.46 40.64 40.49 39.70 39.48 38.08 37.52 37.30 37.34
34.74 32.99 30.02 33.89 32.86 32.33 32.44 30.76 30.45 31.08 27.31 22.08 17.57 24.84 31.65 34.66 36.71 36.49 37.06 37.85 39.04 39.18 39.62 39.84 39.38 39.62 39.52 39.30 39.34 39.04 39.49 39.40 39.37 39.76 39.60 39.07 38.24 37.77 37.67 36.95 36.46 36.34 35.77 35.63
35.18 32.42 26.84 29.70 33.64 34.83 33.52 33.14 32.42 29.64 25.33 25.06 25.01 26.83 34.24 35.00 36.15 37.39 38.06 39.15 39.01 40.00 39.76 39.09 38.76 38.23 38.30 38.35 38.37 38.13 38.14 38.25 38.29 38.20 37.67 37.07 36.67 36.04 35.36 34.55 34.71 34.81 34.09 34.01
36.19 30.63 23.89 27.99 31.47 32.88 31.62 32.55 33.83 31.68 28.68 25.89 22.35 26.61 33.82 33.97 35.21 36.19 38.34 38.76 39.88 39.38 38.37 38.13 37.72 37.70 38.06 37.24 37.30 37.32 37.15 36.94 36.74 36.95 36.03 35.13 34.78 34.23 33.41 33.06 33.49 33.27 32.72 32.47
40.47 32.64 29.96 26.76 29.20 32.66 29.78 32.14 32.68 32.24 25.57 24.80 26.70 30.42 32.54 33.84 34.87 36.33 37.95 39.33 39.97 39.61 39.41 38.92 38.41 38.07 37.64 37.54 36.76 36.39 36.19 36.57 35.79 35.02 34.29 33.37 33.00 32.97 32.34 32.02 31.70 31.65 31.64 31.12
38.24 27.61 30.33 30.21 32.56 33.06 31.88 32.61 33.18 31.86 34.61 30.26 33.37 29.53 34.55 34.74 35.72 37.06 38.55 39.22 39.57 39.59 39.43 39.34 38.86 38.31 37.78 36.91 36.63 36.78 35.92 34.80 34.47 33.78 33.31 32.62 32.03 31.80 30.84 30.18 30.10 29.85 29.64 29.74
35.17 25.66 30.29 27.37 31.72 32.29 29.58 32.41 33.89 34.30 33.95 33.24 33.59 31.58 36.35 36.29 37.12 37.57 38.81 39.88 40.18 40.62 40.63 40.37 39.89 39.30 37.70 37.25 36.59 36.19 34.99 34.43 34.28 32.82 31.89 31.31 30.33 29.35 29.07 29.15 29.45 29.60 29.34 28.95
33.46 29.84 26.26 27.38 29.72 30.48 26.69 30.99 31.78 33.44 36.07 35.19 31.43 36.53 35.39 35.54 36.71 38.26 38.80 40.41 41.19 41.61 41.52 40.57 40.29 39.95 38.69 37.45 37.16 35.76 35.21 33.34 32.10 30.59 29.97 29.58 29.26 29.15 29.29 29.36 29.31 28.78 28.42 28.23
29.82 29.50 27.33 24.23 26.80 22.36 32.96 35.46 35.71 34.26 34.86 37.50 37.17 35.07 36.57 37.21 38.78 40.15 41.82 41.41 41.79 42.77 42.41 41.99 41.53 41.32 39.63 38.15 36.50 35.10 33.12 31.22 30.43 29.82 29.62 29.32 29.49 28.79 28.42 28.05 27.58 27.75 28.14 27.60
32.63 28.47 21.34 20.31 9.68 25.50 30.06 30.92 31.62 31.01 33.76 36.24 36.67 38.55 35.55 35.94 36.05 37.17 41.02 42.34 42.82 43.31 44.06 43.59 43.19 41.75 38.54 36.13 34.70 33.19 31.56 30.69 30.13 29.66 29.72 29.15 28.73 27.33 26.41 25.79 25.87 26.72 25.89 24.85
32.71 31.72 27.51 8.63 14.84 16.69 29.03 32.36 34.34 36.44 30.03 39.11 38.05 38.38 35.28 35.21 33.30 39.11 38.94 41.56 42.40 43.43 43.73 42.90 42.00 39.97 36.79 35.12 33.83 32.59 30.71 30.09 29.76 29.85 29.62 28.67 27.52 26.32 25.23 25.92 25.45 25.32 24.00 25.10
27.78 25.98 26.59 13.55 12.40 20.96 28.49 30.62 33.29 26.87 30.54 31.12 35.36 37.08 35.09 34.85 40.14 38.36 38.78 38.39 41.67 40.70 40.02 40.23 39.52 36.90 35.89 33.56 33.15 31.98 30.80 30.11 30.47 28.88 27.76 26.77 25.83 24.97 24.97 24.71 24.33 22.14 20.91 21.34
27.89 26.21 24.38 20.49 17.50 21.68 31.08 30.44 31.52 33.49 28.74 30.41 32.32 34.49 34.33 34.77 35.78 35.54 37.14 36.70 37.29 37.85 37.63 37.98 36.06 34.85 32.82 33.22 33.22 31.31 30.23 30.09 28.55 27.58 26.18 24.58 23.40 25.27 24.13 22.38 20.07 19.55 17.51 14.33
28.80 31.46 30.25 31.07 28.71 30.51 29.92 30.97 30.83 32.16 31.35 29.33 30.14 32.00 35.28 34.68 34.12 33.46 34.81 33.25 34.04 34.84 34.69 35.20 34.84 31.47 31.83 32.72 33.69 30.99 30.25 28.20 26.96 25.85 23.73 22.31 22.40 22.98 21.73 19.58 18.90 17.48 13.75 13.09
31.98 33.02 30.81 32.56 30.85 30.78 30.00 29.87 31.59 31.84 31.18 31.78 31.62 31.29 32.28 33.86 34.06 32.86 32.59 32.03 31.84 29.37 31.34 32.21 31.71 31.22 30.11 31.88 32.05 32.37 28.11 26.83 25.69 23.41 22.07 21.16 20.65 19.70 19.68 20.72 19.12 14.22 11.85 8.68
31.12 34.19 31.98 30.50 30.56 30.48 32.17 33.08 32.75 31.50 30.87 31.02 31.31 31.71 33.16 32.53 32.49 32.30 30.81 28.78 28.54 28.28 27.54 30.72 31.76 31.08 30.07 29.80 27.74 27.64 25.56 24.91 23.77 22.26 20.40 20.05 20.08 18.82 16.64 16.63 15.72 15.95 12.04 12.72
30.22 31.52 31.14 30.27 33.82 34.48 33.35 32.73 32.86 31.16 31.16 31.52 30.23 31.49 31.54 31.15 32.12 30.27 28.14 28.22 28.05 27.36 26.72 27.67 28.26 28.72 26.18 25.55 23.01 22.40 23.47 24.65 22.16 19.90 19.07 19.15 16.93 15.49 14.99 14.57 14.10 18.48 21.01 23.28

GFSCGP_sfc_wetblb_105.txt.gz
Wetbulb
41.71 37.62 35.68 40.30 42.69 38.92 37.37 36.18 34.96 36.07 38.10 36.26 35.82 36.62 38.90 37.68 35.15 37.68 39.14 39.86 42.07 47.69 53.15 51.89 53.60 55.40 55.53 58.86 61.49 62.41 62.21 61.88 62.07 60.50 60.70 62.50 62.14 63.01 62.96 63.38 63.43 63.37 63.60 62.77
38.27 34.50 40.05 41.87 40.00 39.17 36.19 35.72 34.25 35.47 37.37 35.54 33.47 35.84 35.40 36.87 37.32 38.44 39.21 38.46 38.85 40.15 42.96 45.21 46.62 51.39 54.04 57.08 60.47 61.73 62.38 62.13 62.11 62.52 62.09 60.34 60.56 63.02 63.45 63.71 63.37 63.36 62.99 63.31
34.80 37.16 41.26 40.31 38.03 36.80 35.50 35.49 33.60 34.21 35.52 34.40 31.86 33.33 33.86 37.72 36.65 37.54 39.02 38.70 38.49 40.98 42.12 42.14 42.32 43.65 46.83 51.15 56.79 59.90 61.45 62.07 62.34 62.08 61.13 61.16 62.24 62.36 62.17 62.30 62.42 62.73 62.97 62.63
37.22 40.95 39.33 37.93 37.42 38.66 33.90 36.74 36.55 34.50 32.55 28.58 32.68 25.38 30.47 34.87 37.05 36.93 38.38 38.08 39.33 39.45 40.77 41.33 42.07 43.20 43.42 43.98 45.34 48.45 57.93 60.72 61.82 61.68 61.62 61.49 60.98 59.87 60.88 61.87 62.68 62.52 62.09 61.75
33.88 36.88 37.44 36.49 37.87 39.44 36.37 37.71 36.62 35.15 31.55 28.75 27.66 26.02 29.16 30.34 33.89 36.34 37.42 39.23 39.34 39.28 39.52 41.12 42.07 43.99 44.48 47.13 46.65 45.55 45.27 56.93 61.09 61.43 62.30 61.98 60.51 59.71 60.80 60.99 58.66 55.66 54.06 55.14
36.25 38.34 40.55 39.82 39.76 40.12 38.73 36.13 34.48 32.34 30.57 25.16 29.23 28.41 27.66 29.63 33.58 36.70 40.68 39.04 38.97 39.25 39.37 40.61 42.75 45.09 45.93 46.51 47.52 43.96 43.35 45.22 58.62 61.13 61.87 61.73 60.35 58.81 58.97 58.42 55.73 51.82 50.61 50.07
31.47 33.35 35.07 38.24 36.34 36.98 37.18 33.66 26.15 24.78 23.62 24.30 24.06 24.68 34.01 31.75 34.15 35.82 36.77 38.96 38.96 38.32 40.05 41.65 42.81 43.37 44.89 46.69 46.98 43.63 45.13 46.93 54.29 60.63 60.56 59.67 59.06 59.09 58.40 56.94 52.08 48.72 47.07 46.05
29.13 27.71 33.47 36.96 36.35 34.38 32.84 34.62 25.36 18.02 18.28 22.25 25.30 23.76 29.82 34.88 33.90 36.03 36.59 36.42 37.08 38.50 40.85 41.75 42.99 43.38 43.65 45.73 46.16 46.64 48.09 48.66 53.38 59.10 57.42 55.84 57.11 55.72 53.96 51.30 48.38 45.74 44.19 42.80
28.82 29.15 34.04 35.12 36.16 38.52 32.37 29.83 34.67 25.95 16.96 21.23 24.27 27.31 32.97 33.44 34.64 35.79 36.81 35.91 37.16 38.49 40.73 41.93 42.15 42.20 42.47 44.34 45.67 46.42 46.06 44.91 48.99 50.05 49.92 49.40 49.27 48.54 46.25 43.87 43.26 41.92 40.73 39.27
31.95 27.72 32.59 33.80 35.69 35.86 35.57 37.07 29.98 27.29 17.25 15.86 22.83 23.48 27.22 30.12 35.60 36.27 35.83 36.59 37.29 38.37 39.57 40.75 41.16 41.13 41.42 42.45 42.44 42.58 43.01 42.81 42.53 44.55 45.51 43.66 43.27 42.44 41.92 41.52 39.80 38.15 37.42 36.80
32.97 31.34 28.91 33.46 31.92 31.67 31.28 30.88 30.80 32.49 27.34 21.16 17.31 24.63 31.32 34.80 37.29 37.26 37.07 36.42 37.64 38.38 39.05 39.52 40.21 40.23 40.37 40.13 40.17 40.01 40.00 39.84 39.46 39.79 40.22 40.36 39.44 40.18 38.63 37.76 36.57 36.05 35.57 35.08
34.12 31.19 25.65 28.39 32.02 33.17 33.05 33.18 34.80 29.99 25.31 23.32 24.34 25.33 33.25 34.21 35.11 36.10 37.08 38.16 37.96 38.55 39.00 38.90 38.61 38.22 37.90 38.35 38.30 38.40 38.01 38.10 37.80 38.13 38.22 37.53 37.14 36.81 36.43 35.45 34.75 34.23 33.43 33.36
35.69 29.62 22.26 27.06 30.65 31.62 30.72 31.72 33.24 31.92 29.32 25.49 21.69 28.88 33.20 34.12 35.56 36.13 36.77 38.01 39.05 38.66 37.77 37.97 37.36 37.45 37.33 37.07 37.06 36.84 36.59 36.56 36.17 36.61 36.34 35.34 34.82 34.60 33.80 33.74 33.02 32.66 32.13 31.80
39.66 32.04 29.39 26.47 28.37 31.59 28.96 31.10 31.82 32.55 27.24 26.91 26.35 30.89 33.52 34.04 35.38 35.77 37.14 38.39 38.98 38.96 38.60 38.01 37.41 37.08 37.13 37.19 36.44 35.83 35.59 35.81 35.02 34.89 34.59 33.60 33.28 33.10 32.99 32.32 31.94 31.57 31.26 30.44
37.39 28.73 29.22 28.86 31.52 33.00 32.15 32.47 32.55 31.40 34.03 29.99 33.74 30.53 34.95 36.15 35.76 36.21 37.92 38.01 38.61 38.67 38.78 38.62 38.20 37.45 37.08 36.37 35.95 36.00 35.35 34.44 34.39 34.09 33.52 32.56 31.74 31.55 30.87 30.61 30.65 30.24 29.58 29.31
35.04 25.73 29.68 27.05 30.74 31.22 30.22 32.69 33.68 33.69 34.38 33.90 33.81 32.27 35.96 35.43 36.30 36.59 37.72 38.36 38.92 39.51 40.07 39.88 39.53 38.63 37.87 37.95 36.94 36.80 35.37 34.00 33.82 32.94 31.62 31.10 30.82 30.27 30.26 29.99 29.17 29.07 28.92 28.35
33.53 27.46 23.37 21.42 28.30 29.04 25.84 29.97 31.72 33.26 35.73 35.70 30.68 36.22 34.65 34.09 35.56 37.18 37.50 38.93 39.86 40.66 41.06 40.68 40.02 39.51 39.13 38.45 38.19 36.83 35.54 33.52 32.08 31.63 30.91 30.27 29.92 29.66 29.30 29.15 28.78 28.68 28.17 28.46
32.06 32.17 27.87 21.15 26.04 19.79 30.93 33.94 34.47 33.70 34.84 36.89 37.18 34.53 34.77 36.34 37.29 38.49 39.49 40.08 40.60 41.51 41.83 41.94 41.78 41.15 40.27 39.46 38.31 37.43 34.82 33.03 31.96 31.22 30.64 29.43 29.17 28.78 28.20 28.02 27.72 27.79 27.49 27.25
32.21 30.56 23.55 24.43 17.05 25.10 30.30 31.21 31.80 31.06 33.86 35.73 35.89 36.56 35.70 35.01 34.29 36.47 39.09 41.25 42.22 42.47 43.61 43.80 43.58 42.83 41.09 38.64 37.89 35.08 32.30 31.65 30.90 30.50 29.94 29.33 29.14 28.13 27.33 26.74 26.35 26.83 26.33 25.29
31.19 30.73 28.37 11.97 21.94 20.39 32.46 32.31 33.91 36.21 29.08 40.20 37.80 36.73 34.62 34.77 33.02 39.82 39.76 40.26 41.32 41.94 43.10 42.94 42.77 41.65 39.64 37.57 35.45 33.26 32.10 31.24 30.63 30.62 30.39 29.68 29.20 28.26 27.54 27.06 26.25 25.51 24.56 25.83
25.76 24.13 25.74 11.63 16.47 20.42 27.69 29.91 33.69 26.43 30.53 30.87 33.48 36.95 34.04 34.66 39.87 36.63 37.93 36.48 38.48 39.24 39.39 40.20 40.38 39.56 38.87 35.64 33.99 33.41 32.42 31.19 31.99 30.72 29.12 28.11 27.58 27.19 26.88 25.85 24.92 23.98 24.18 24.51
27.36 25.45 23.00 16.74 13.84 21.61 29.71 29.08 31.40 33.15 28.42 29.96 32.23 33.11 32.11 33.48 34.55 34.65 36.49 36.98 36.37 36.85 37.48 39.06 38.35 36.59 35.64 33.86 34.42 33.31 31.71 32.50 29.87 29.21 28.34 27.01 25.83 26.22 25.57 24.29 23.65 23.43 23.38 22.84
28.45 30.86 28.20 28.21 27.23 31.82 30.33 29.65 30.88 31.34 30.77 29.11 30.91 30.70 32.01 32.29 32.77 34.23 35.18 34.79 34.48 35.10 34.75 34.42 36.30 33.28 32.71 33.36 34.80 33.10 32.48 29.40 28.94 27.93 26.57 24.95 24.70 24.66 23.88 23.25 21.94 21.42 21.84 21.75
29.79 31.53 29.57 31.19 29.53 29.31 29.39 29.58 30.48 31.12 30.40 31.60 31.44 30.44 30.94 30.71 33.14 33.51 33.14 32.86 32.33 28.29 28.40 27.21 29.39 28.87 29.53 32.02 33.17 34.13 29.60 30.00 29.12 27.48 24.93 23.37 23.37 22.53 22.52 23.07 22.22 21.32 20.30 19.75
30.12 32.72 30.03 28.51 29.66 29.81 30.08 30.17 31.27 30.21 30.60 30.98 30.67 31.80 31.81 31.85 32.61 32.93 31.26 28.02 27.19 26.34 25.75 26.59 28.47 28.46 28.35 30.15 29.46 29.08 29.84 29.88 28.76 26.44 23.91 23.03 22.79 22.13 20.95 20.69 20.58 20.39 20.00 20.44
31.98 32.49 31.05 27.47 32.67 33.02 32.33 31.46 31.70 30.83 31.29 30.87 30.36 30.45 30.63 30.86 31.54 31.35 29.16 27.64 26.08 24.57 24.20 25.35 25.33 27.18 26.82 26.46 26.87 27.39 28.63 29.49 26.05 23.31 22.75 22.10 21.28 20.09 19.29 18.51 17.22 21.33 22.70 24.79

GFSCGP_sfc_wetblb_108.txt.gz
Wetbulb
40.68 38.17 38.17 40.79 40.38 39.70 39.52 37.88 37.33 36.00 38.85 35.01 35.31 36.78 39.96 36.98 34.75 40.12 44.92 46.60 48.02 50.46 53.93 55.19 55.93 56.54 57.18 59.75 61.15 61.68 61.49 61.58 60.82 59.42 59.49 59.45 61.20 62.48 62.71 63.11 62.80 62.59 62.44 61.93
38.04 34.36 40.26 43.08 42.18 40.34 36.44 34.15 35.56 37.20 37.51 34.54 32.72 35.49 36.87 35.66 36.60 37.86 41.15 41.22 44.21 44.80 44.61 48.25 50.48 52.16 54.07 57.42 59.73 61.08 61.85 61.70 61.87 61.72 61.26 60.45 61.17 62.46 63.43 63.42 63.14 63.17 63.10 63.02
35.74 37.58 41.48 40.38 38.11 37.09 36.99 33.64 33.46 34.81 35.54 35.10 32.53 33.05 33.76 36.48 35.48 36.86 37.78 38.56 38.92 42.04 42.46 43.99 45.30 47.02 51.22 54.32 57.21 60.02 61.32 61.85 62.24 62.43 60.85 59.31 61.09 61.90 61.61 62.01 62.16 62.46 62.66 62.40
37.06 40.49 38.35 36.53 35.43 36.87 33.23 37.87 36.21 34.94 35.39 30.25 33.86 26.58 31.49 34.20 36.63 35.77 37.92 36.95 38.71 38.22 38.70 40.99 42.92 43.43 44.78 50.90 54.03 58.26 60.25 61.28 61.83 61.67 61.38 61.24 60.57 59.92 60.75 61.17 62.03 60.90 61.68 61.49
33.33 36.77 35.31 35.13 36.37 38.97 35.53 37.79 36.31 35.26 32.18 29.56 29.95 25.49 30.49 29.51 32.48 35.03 36.73 37.92 39.64 40.54 38.84 39.69 41.34 43.17 43.04 43.87 45.38 48.92 55.29 58.58 60.55 61.26 61.73 61.12 60.57 61.19 60.40 60.11 57.50 55.59 55.36 56.82
34.79 36.21 37.28 36.76 38.96 39.28 39.12 37.09 35.00 32.11 31.02 24.35 31.06 28.55 27.78 30.09 33.21 35.33 39.78 38.50 40.25 39.24 37.68 38.69 39.98 42.14 44.03 45.72 45.93 44.54 44.18 52.17 58.90 60.60 61.27 61.16 60.96 59.61 58.98 57.74 54.96 53.17 51.77 50.97
30.38 30.79 33.55 38.95 35.08 38.20 36.61 34.15 26.45 24.22 22.47 23.62 24.63 25.16 33.27 33.56 33.93 36.44 38.89 40.39 40.18 38.05 37.41 38.00 40.07 42.06 43.43 45.14 46.74 45.75 43.85 43.61 51.51 60.48 60.64 60.83 60.61 59.65 58.89 57.15 53.97 50.30 48.19 46.88
28.18 25.86 31.87 34.43 35.15 32.93 34.01 34.38 27.38 19.97 19.83 23.82 25.36 24.79 29.95 35.94 36.20 35.91 35.91 36.34 36.03 36.97 39.02 39.75 41.41 42.90 43.27 44.88 46.60 45.51 44.20 43.90 46.09 57.55 60.15 60.97 57.05 59.26 58.42 55.41 52.51 49.31 46.18 44.15
27.54 27.21 31.91 33.15 34.68 37.03 30.23 30.74 35.07 26.83 18.58 21.06 25.44 28.47 33.19 34.20 36.18 35.52 35.60 35.98 36.76 36.97 37.29 39.72 40.15 42.01 42.62 43.27 44.99 45.41 45.25 45.98 47.63 51.69 58.16 57.68 57.83 55.11 52.10 49.10 46.86 44.72 42.65 41.14
31.18 26.36 30.86 32.72 34.38 32.83 33.88 36.78 28.91 27.96 20.46 17.09 23.30 24.15 28.38 31.02 35.47 38.10 36.72 37.10 39.66 36.72 37.07 39.32 40.36 40.94 41.18 42.87 43.98 44.08 44.71 44.77 46.76 49.54 51.27 51.61 51.90 50.79 47.69 45.57 42.79 41.46 39.58 38.38
31.79 30.27 27.43 31.50 29.93 29.28 29.21 30.54 30.34 32.13 27.68 21.82 17.53 26.31 31.55 35.23 37.22 37.44 38.36 36.59 37.17 37.31 37.95 39.22 39.95 40.12 40.23 40.60 41.02 41.16 41.63 41.39 43.73 45.28 44.28 45.13 44.25 44.25 43.63 42.44 40.64 39.05 37.53 35.23
33.03 29.53 24.30 26.44 31.01 31.57 31.29 31.44 33.56 28.99 24.89 23.22 24.70 29.72 33.23 34.47 34.92 35.16 36.10 37.10 37.92 38.19 38.53 38.85 39.07 39.23 39.24 39.81 39.30 39.44 38.66 39.03 40.68 41.80 42.13 41.01 40.78 40.59 39.24 37.86 36.20 36.94 34.21 33.61
34.00 28.69 18.18 25.04 28.50 30.00 29.09 29.56 32.25 30.95 28.89 26.23 23.22 30.13 34.11 33.36 34.68 35.52 36.22 36.65 37.82 37.39 36.52 37.64 37.50 37.82 38.51 37.56 37.53 37.59 37.62 38.68 38.41 39.87 39.60 38.65 38.06 37.39 36.68 34.39 33.71 33.47 32.94 32.34
39.74 31.57 28.21 24.91 26.16 29.93 27.98 29.06 29.35 30.96 25.72 27.41 27.08 28.47 33.79 34.39 35.05 34.87 36.11 37.14 37.55 37.93 38.05 37.44 37.14 37.32 37.70 37.29 37.15 37.18 37.10 38.45 37.92 37.97 37.85 36.84 36.06 35.49 33.83 33.25 32.51 32.35 31.85 31.31
36.97 30.26 29.17 27.92 30.30 32.14 31.98 31.73 31.79 31.60 33.83 29.31 33.75 32.22 34.72 36.47 35.51 35.58 36.81 37.27 38.00 38.11 37.76 37.83 37.67 37.03 37.14 36.87 36.56 37.05 36.97 35.72 36.74 36.43 36.03 34.61 33.64 32.59 32.23 31.84 31.34 30.74 30.25 30.09
34.12 24.69 28.48 25.78 28.71 30.38 29.68 32.48 33.13 33.80 34.17 33.74 34.58 33.19 34.50 35.45 36.32 35.61 36.93 37.16 37.95 38.80 39.38 39.56 39.37 38.65 37.88 38.23 37.78 37.40 36.06 34.31 34.34 35.29 34.49 32.37 31.56 31.42 31.23 30.69 30.35 29.99 29.56 29.36
32.42 26.91 22.94 20.34 26.82 27.35 24.17 29.65 31.32 32.00 34.80 35.31 30.32 36.17 35.08 33.31 35.14 36.34 36.82 37.81 38.75 39.55 40.23 40.18 40.19 40.18 39.62 39.17 39.12 37.43 36.13 34.54 33.78 32.65 31.15 31.12 31.00 30.66 30.46 29.98 29.61 29.06 28.22 28.09
31.47 32.63 28.25 24.33 25.61 19.19 29.69 32.88 34.60 33.55 34.89 36.55 37.08 33.51 35.27 36.49 36.45 37.26 37.87 38.12 38.79 39.43 40.10 41.17 41.53 41.36 40.83 40.35 39.17 38.42 35.51 33.31 32.15 31.67 31.28 29.93 30.04 29.65 29.02 28.58 28.17 27.62 27.47 27.08
34.24 31.89 25.96 24.69 22.78 26.42 29.80 30.14 29.07 29.38 32.07 34.69 33.96 34.96 35.00 34.51 33.37 35.86 37.96 38.95 40.68 41.20 42.21 42.75 42.94 42.33 40.41 39.17 38.31 35.65 32.61 32.33 31.51 30.91 30.74 30.30 29.89 28.80 28.17 27.76 27.20 26.88 26.44 25.81
30.68 34.68 31.56 17.42 22.62 19.50 31.17 32.95 34.03 36.57 29.34 37.68 35.55 34.74 34.03 33.58 31.06 38.91 38.13 38.82 39.39 39.62 40.01 40.50 40.71 40.20 38.84 38.12 36.56 34.58 33.18 32.46 31.92 31.84 31.35 30.28 29.98 29.51 28.52 27.99 26.93 25.82 26.38 26.88
24.20 23.03 26.98 16.96 23.31 22.62 27.96 29.80 35.17 27.93 30.41 29.90 32.74 35.62 33.65 33.94 36.61 34.90 35.98 36.64 36.05 36.64 37.32 38.87 39.40 39.50 39.69 36.35 35.63 34.86 33.77 32.71 33.80 32.23 30.34 29.41 29.18 29.19 28.76 27.61 26.18 25.85 25.74 25.40
26.38 25.63 22.52 14.85 13.09 22.50 28.84 29.72 33.12 34.49 29.52 31.76 32.55 32.58 31.97 32.39 33.96 33.79 35.24 35.04 34.92 35.16 35.41 36.91 36.33 35.82 35.02 35.21 35.09 34.39 33.45 34.27 32.42 30.64 29.81 29.19 28.81 28.43 27.78 26.81 25.15 25.05 24.51 22.89
26.25 29.91 28.31 29.92 28.44 31.42 29.51 31.22 31.32 31.57 30.91 30.29 30.78 30.69 31.93 32.44 31.37 30.76 33.69 33.60 33.30 33.15 32.39 32.68 32.58 32.39 32.44 31.99 34.58 34.04 33.71 31.52 30.10 30.34 29.80 28.61 27.65 27.16 26.62 25.28 23.75 23.12 23.29 22.91
29.22 31.34 29.50 30.78 29.31 28.72 29.57 29.90 30.30 30.25 30.09 31.00 31.13 30.29 30.74 30.16 30.88 31.91 32.33 32.38 31.40 28.20 28.08 26.37 26.48 25.87 25.70 27.10 29.41 30.17 29.89 29.87 30.59 29.91 27.56 26.26 25.88 24.38 24.66 24.67 24.09 23.26 22.68 22.50
28.64 30.69 28.31 27.41 29.45 29.83 29.26 29.96 30.26 30.23 31.06 31.23 30.52 30.92 30.91 30.57 30.99 31.56 29.76 28.18 27.41 26.02 24.53 23.75 24.45 24.58 24.71 25.29 25.23 26.83 28.89 29.96 29.89 28.12 25.90 25.99 25.72 24.86 23.44 23.55 23.43 23.18 23.29 24.84
32.07 32.29 29.47 25.70 30.84 31.28 31.07 30.55 31.04 31.10 30.56 29.87 30.34 29.68 30.04 30.87 30.62 29.60 26.75 26.37 25.46 24.67 23.09 23.61 23.30 23.64 23.26 22.93 22.63 24.97 28.96 30.49 28.47 26.00 25.57 25.41 24.19 23.22 22.61 21.36 19.96 24.10 24.09 25.41

GFSCGP_sfc_wetblb_111.txt.gz
Wetbulb
41.90 40.02 40.77 41.83 44.21 43.10 42.27 41.18 40.33 37.02 43.31 37.95 36.26 37.34 41.16 40.95 39.55 42.12 47.02 49.92 51.02 52.75 55.83 56.05 56.90 58.44 59.95 61.44 61.73 61.95 61.51 61.78 61.33 60.74 60.63 60.44 60.62 61.84 62.58 63.02 62.97 62.95 62.78 62.30
38.19 34.52 42.94 44.66 43.08 40.01 39.13 37.40 37.46 40.39 38.04 36.70 35.46 36.12 39.22 38.22 39.04 39.41 42.57 46.38 50.10 50.51 50.37 53.88 55.63 56.31 57.43 59.77 61.28 61.80 61.97 62.10 61.74 61.99 61.90 61.92 62.43 63.37 63.74 63.55 63.44 63.07 62.84 62.61
34.95 37.96 41.63 42.29 40.23 39.26 37.41 34.65 34.54 35.11 36.56 36.30 34.08 34.63 36.41 37.53 37.56 38.00 38.59 41.98 44.86 48.90 50.58 49.40 50.29 53.70 56.19 56.96 59.15 61.23 62.18 62.30 62.45 62.41 61.71 60.91 62.07 62.18 62.48 62.86 62.85 63.05 63.24 63.18
36.82 40.85 38.88 38.53 38.79 41.12 36.12 38.62 37.46 35.28 34.41 31.45 35.53 27.34 33.95 36.79 37.17 36.70 39.27 37.71 40.42 42.53 44.30 48.00 48.22 48.16 51.58 55.53 57.85 59.88 61.46 62.31 62.54 62.88 62.03 61.54 61.32 61.06 62.26 62.37 62.62 62.52 62.69 62.55
36.40 37.38 36.06 35.43 36.88 39.81 35.43 37.01 34.80 35.05 32.78 30.15 29.87 28.25 30.35 33.54 33.69 35.60 38.25 38.55 40.02 41.78 41.97 43.20 44.47 47.50 48.57 50.96 54.52 57.56 59.74 61.30 62.28 62.59 62.81 62.01 61.84 62.45 62.36 61.91 59.98 58.46 58.97 60.61
36.95 38.26 38.85 37.87 38.72 40.11 38.80 37.01 36.80 32.08 30.84 24.95 30.69 29.80 28.23 33.89 33.75 37.48 39.15 40.10 41.36 41.96 40.57 41.08 40.47 41.81 44.18 45.26 47.95 51.87 56.86 59.24 61.25 61.83 62.41 62.17 62.11 61.40 60.49 58.74 56.94 56.41 55.13 54.07
31.99 31.53 34.76 39.06 36.25 38.10 36.70 34.49 27.97 26.07 25.41 23.84 25.98 27.87 34.34 35.91 35.34 37.44 40.20 41.11 42.27 41.88 40.89 40.27 39.80 40.74 42.44 44.71 45.70 46.26 48.40 54.96 59.60 60.97 61.50 61.91 62.02 61.64 60.69 58.77 56.92 53.62 51.52 51.60
28.73 26.42 32.36 36.23 36.33 33.42 35.67 35.22 25.79 19.14 19.63 23.12 25.35 25.84 31.39 36.68 40.55 37.85 37.50 38.40 37.85 38.39 39.26 39.78 40.79 41.72 42.40 44.66 46.43 46.67 45.28 45.76 50.76 59.99 60.60 61.42 61.81 61.52 60.69 59.17 56.28 54.62 51.69 48.66
27.58 27.49 31.82 34.60 35.88 39.06 33.40 32.60 33.60 25.84 16.05 20.85 25.56 29.35 33.94 34.37 36.01 36.60 36.48 37.58 38.85 39.04 38.99 39.34 39.81 40.89 42.12 43.90 45.74 46.56 45.47 45.07 45.19 48.38 58.37 59.95 60.75 60.05 58.21 55.58 53.87 49.95 46.34 43.95
31.11 26.29 30.19 31.85 35.60 33.67 35.24 37.41 30.35 27.77 16.53 15.76 23.58 24.95 29.94 31.75 35.23 37.54 37.95 38.16 38.80 38.44 38.60 38.74 39.74 40.99 42.31 43.76 45.39 46.25 45.97 45.72 46.26 47.57 50.80 56.03 58.77 57.31 54.41 51.34 48.10 46.14 42.75 41.03
32.10 29.81 27.37 31.42 30.40 29.84 29.62 31.37 30.98 31.88 26.27 19.88 17.36 25.27 32.25 35.89 37.00 37.40 37.21 37.40 38.51 39.04 39.02 38.97 40.34 40.98 41.95 42.67 44.02 44.90 44.88 44.97 45.55 47.86 49.12 51.14 52.02 51.45 49.66 48.70 45.74 43.75 40.90 39.53
32.76 29.57 24.64 26.88 30.88 31.85 32.68 31.37 32.92 27.27 22.98 22.89 23.93 26.06 33.48 34.87 36.53 36.54 37.34 37.62 37.38 38.77 39.21 39.05 40.12 40.61 40.62 41.65 42.49 43.19 42.92 42.86 43.57 45.67 45.90 45.88 45.57 45.70 45.83 44.49 42.33 40.47 38.17 38.02
33.19 28.60 20.54 26.13 28.82 29.67 29.00 29.10 34.65 31.63 27.68 24.50 21.52 28.76 35.77 32.89 34.46 35.39 36.85 37.65 37.80 38.58 39.09 39.22 39.18 39.41 39.83 39.96 40.40 40.62 40.62 41.48 41.24 42.74 43.31 41.76 41.73 42.92 42.25 39.76 38.66 38.07 36.87 35.66
39.54 30.70 28.80 25.37 27.51 30.07 28.02 28.94 30.18 32.70 24.46 28.56 26.45 31.22 33.30 36.15 35.76 35.64 36.93 38.50 38.50 38.62 39.02 39.04 38.88 39.18 39.55 39.32 39.34 39.38 39.82 40.24 39.38 40.68 40.90 40.03 39.26 40.22 38.86 37.38 36.12 35.18 35.32 34.17
35.09 27.97 27.83 26.94 29.51 30.85 29.89 29.40 29.94 30.25 33.05 28.73 32.96 32.86 34.23 36.04 36.66 37.98 36.79 37.32 38.61 38.97 38.49 38.84 39.12 39.39 38.82 38.49 38.40 38.85 39.54 38.41 38.43 38.68 39.43 38.39 37.64 36.88 35.33 34.39 33.91 33.34 33.71 33.08
33.08 24.84 28.92 25.26 28.35 28.77 28.27 30.65 32.00 33.12 33.98 32.65 34.89 33.12 34.08 36.57 35.24 35.85 37.59 37.99 37.79 38.60 39.23 39.23 39.39 39.37 39.12 39.17 38.85 38.65 38.64 37.41 37.66 37.75 37.87 35.34 34.38 33.83 33.46 32.60 32.16 32.25 31.76 31.54
32.83 27.50 21.65 25.47 26.17 26.22 22.34 28.69 30.43 31.91 34.80 34.97 30.88 36.07 34.39 34.91 34.97 35.95 37.02 36.77 37.57 38.14 39.18 39.51 40.11 40.53 40.52 39.95 39.93 38.74 38.35 36.00 35.86 36.38 33.84 33.36 33.17 32.56 32.40 31.72 31.20 30.64 30.56 30.48
31.74 31.08 22.47 14.36 19.20 19.84 30.19 31.10 34.14 33.32 34.69 35.84 36.89 33.65 35.41 37.01 36.35 36.37 37.54 37.78 38.06 38.38 38.94 40.27 41.18 41.08 40.88 40.01 39.26 38.69 36.26 34.85 33.92 33.28 33.26 32.15 32.42 31.93 30.84 30.76 30.25 29.67 29.61 29.39
31.29 29.13 18.73 20.94 13.57 24.98 29.69 31.23 28.70 28.46 31.03 33.97 33.64 35.21 34.64 33.40 32.86 35.54 36.81 37.32 39.26 39.45 39.48 40.34 41.08 41.01 39.98 39.07 38.76 36.83 34.17 34.00 33.24 33.02 32.56 32.37 32.32 31.15 30.14 29.53 28.90 28.82 28.68 28.46
31.08 32.25 27.42 14.70 20.66 18.45 31.16 32.03 31.92 34.90 29.31 38.70 34.64 34.29 33.79 33.28 30.21 37.14 37.16 37.92 37.42 37.20 37.76 38.77 39.96 40.10 39.25 38.39 37.09 35.20 34.20 33.42 33.14 33.40 32.77 31.97 31.76 31.45 30.52 30.36 29.13 28.60 29.60 28.58
19.13 21.78 26.87 20.33 24.97 22.01 29.18 29.66 33.82 25.86 29.54 29.18 32.59 34.21 33.16 33.76 37.18 35.45 35.12 36.22 35.86 35.72 35.83 36.81 37.35 38.35 38.42 35.37 35.28 34.69 34.11 33.39 34.69 33.29 31.98 30.98 31.07 31.27 31.12 29.74 28.70 28.61 28.35 27.92
22.37 21.41 19.01 13.59 23.69 21.81 28.42 29.73 31.95 34.83 31.10 33.02 32.43 33.43 33.86 33.64 33.91 33.94 34.41 33.86 33.73 33.69 33.72 33.77 33.92 34.63 35.20 34.21 34.17 33.30 33.24 33.99 31.82 31.53 30.79 30.48 30.45 30.24 29.61 29.41 28.28 28.03 27.76 26.96
24.65 28.61 24.37 28.17 27.20 30.77 28.62 30.66 31.51 31.81 32.44 31.25 33.39 33.11 33.56 33.88 32.31 32.89 33.00 31.74 31.59 31.48 31.82 30.80 28.98 30.58 32.80 29.99 32.58 32.15 31.19 31.33 30.68 30.36 30.36 29.95 29.93 29.62 29.64 28.54 27.15 26.58 26.59 25.74
30.19 30.53 27.19 28.41 28.28 28.36 30.03 30.04 30.61 31.09 29.71 30.94 31.23 31.10 31.36 31.52 31.47 31.44 31.43 31.31 31.10 27.85 27.18 25.73 26.90 26.90 26.36 25.46 28.17 28.73 29.63 29.85 30.35 30.23 29.46 28.75 28.56 27.61 28.05 28.47 27.56 26.93 25.58 24.79
29.49 31.20 25.73 24.53 28.46 28.84 29.06 30.34 30.97 30.65 30.65 30.80 31.17 31.20 31.02 30.51 30.84 30.67 29.22 27.46 26.43 25.91 25.48 24.57 25.29 25.16 25.59 24.03 24.36 23.56 27.02 28.70 29.24 28.91 27.26 27.29 28.02 26.95 26.30 26.76 26.64 26.39 27.07 27.53
32.17 30.66 29.83 24.50 30.66 30.96 30.07 30.48 31.34 30.90 29.21 29.82 30.03 29.15 29.05 29.72 29.72 28.45 26.69 25.47 24.40 25.17 22.88 23.88 22.55 21.91 23.59 20.80 20.75 20.97 23.78 27.45 27.66 25.87 25.74 26.92 26.60 26.83 25.84 24.32 23.70 26.83 27.11 29.21

GFSCGP_sfc_wetblb_114.txt.gz
Wetbulb
44.27 44.45 44.07 46.43 48.76 46.57 44.50 45.21 44.43 44.05 47.96 43.71 43.72 46.05 48.87 51.17 45.91 48.49 50.52 53.57 55.69 57.24 60.10 62.23 63.36 64.12 64.29 64.97 64.61 63.44 62.11 62.60 62.83 62.34 61.87 62.54 62.27 63.30 63.96 64.91 64.68 63.96 63.46 62.98
41.70 40.68 46.68 49.22 47.50 45.79 45.70 43.98 44.57 46.15 42.50 42.37 44.02 43.88 47.32 48.56 46.72 47.61 49.06 51.36 54.28 56.39 58.08 59.74 61.20 62.87 63.63 64.45 65.00 65.13 64.28 63.63 63.57 63.19 63.63 64.01 63.82 64.49 64.85 65.24 64.04 63.71 63.79 63.47
41.07 41.48 46.03 45.45 41.95 41.11 42.16 43.63 41.83 41.29 40.34 41.20 41.19 42.64 44.11 46.04 47.19 46.99 46.83 49.28 52.01 55.26 56.34 57.77 59.53 61.03 62.24 63.20 64.36 64.81 65.30 65.38 64.93 64.76 64.63 64.35 64.96 64.86 64.10 63.84 64.17 63.90 64.03 63.71
40.92 41.88 42.46 42.46 39.61 41.59 35.80 40.58 40.09 38.85 38.35 37.69 43.27 38.39 45.17 46.25 46.56 43.88 46.23 47.16 48.09 51.32 55.56 57.46 57.91 59.39 60.91 61.98 63.59 64.66 65.30 65.59 65.50 65.51 64.35 63.26 62.57 62.20 63.75 64.16 64.12 64.60 64.97 63.94
39.23 39.48 41.01 39.78 41.04 44.06 38.09 42.46 40.42 38.78 37.33 36.24 36.82 35.51 42.31 42.63 42.64 45.78 44.85 46.69 47.61 48.84 51.43 54.02 56.66 58.02 59.51 61.34 62.36 63.03 64.06 64.82 65.55 65.32 64.88 64.09 63.34 64.58 65.50 65.08 64.53 64.36 63.43 63.84
40.87 43.48 43.45 43.61 42.62 40.41 41.18 39.08 38.47 36.87 35.69 32.05 37.93 35.90 39.49 41.96 42.10 44.87 47.31 47.06 47.33 48.02 48.62 49.94 53.23 55.87 56.97 58.70 60.05 61.55 62.04 63.16 64.63 64.99 64.84 64.56 64.01 64.09 64.05 63.96 63.38 60.89 60.73 61.36
37.07 38.39 40.36 42.72 39.24 40.84 39.76 37.33 29.93 28.46 28.25 30.75 32.78 34.13 39.54 43.80 44.19 45.88 46.92 48.16 48.24 48.83 48.29 47.75 47.90 47.04 50.78 54.06 55.31 58.14 60.02 61.02 62.96 63.99 64.27 64.55 64.48 64.51 64.12 64.10 63.31 60.47 56.99 56.08
31.64 28.62 35.91 40.70 41.14 38.07 37.92 39.14 30.97 25.95 26.87 31.92 29.52 30.46 38.41 43.03 46.88 45.69 45.15 46.95 47.11 46.62 46.57 46.57 47.80 48.62 49.38 49.40 50.56 53.26 55.13 58.28 60.86 62.48 63.25 63.91 63.97 63.87 64.54 64.76 63.77 61.56 59.85 59.24
33.96 31.53 37.72 40.17 41.42 41.43 36.88 34.40 37.30 30.52 24.94 28.03 33.49 36.48 40.27 42.63 41.12 42.27 42.76 42.36 44.67 46.01 45.49 45.24 46.00 46.91 47.67 48.28 49.55 50.98 51.98 53.93 57.38 59.92 61.82 61.67 61.89 61.73 62.10 63.26 63.66 61.65 59.59 53.93
37.88 29.32 35.21 36.80 42.03 40.83 39.84 41.96 32.58 34.13 26.01 24.83 31.80 31.22 35.58 39.70 41.09 42.42 41.87 42.92 44.37 44.38 44.55 45.11 44.77 45.87 46.94 48.34 49.73 51.39 52.32 52.49 52.96 54.73 60.12 60.04 60.89 61.54 61.52 60.97 59.27 57.05 53.70 50.03
38.61 35.23 30.98 36.48 36.70 35.37 36.58 35.59 36.67 37.55 33.51 28.97 27.67 34.71 40.62 40.13 42.26 42.94 43.61 43.23 44.29 44.48 45.07 45.17 45.56 46.11 47.01 47.85 48.83 50.21 51.21 51.41 50.74 50.72 52.09 56.91 60.23 60.29 58.52 55.86 52.57 50.53 47.78 46.94
38.49 34.26 29.59 33.06 36.39 39.22 40.16 37.73 37.72 33.07 29.52 32.37 29.73 33.60 40.75 40.97 41.32 41.62 42.97 43.01 43.77 43.71 44.31 45.25 45.35 44.84 45.32 46.22 47.80 49.03 50.26 50.86 51.26 51.22 52.09 52.23 54.33 56.73 54.86 55.67 52.19 48.75 44.96 46.20
37.40 33.13 27.64 28.88 33.96 35.19 35.72 37.02 39.38 37.54 34.66 31.37 30.55 35.47 43.05 39.41 40.34 41.86 41.85 44.36 44.33 43.90 44.93 44.71 44.71 44.98 44.80 45.83 47.39 48.45 49.19 49.39 49.17 49.62 50.63 51.38 51.95 52.31 52.55 50.16 48.88 46.78 42.32 42.46
40.62 33.57 33.22 28.32 32.11 35.64 31.58 35.32 37.41 37.32 31.93 33.43 33.60 37.40 40.66 42.10 42.79 42.08 41.82 42.59 44.22 45.14 44.57 44.79 44.37 44.55 45.15 45.76 46.63 47.18 47.49 48.16 47.13 47.29 49.20 49.19 49.58 49.22 49.00 46.40 44.00 42.49 40.77 38.85
39.28 32.73 33.65 34.89 35.34 36.17 35.24 34.46 35.35 34.76 36.65 32.92 36.20 36.32 39.78 42.33 43.34 45.13 44.94 43.78 43.87 44.64 44.46 45.27 45.32 45.49 45.18 44.95 45.24 45.18 46.10 45.92 45.57 45.33 46.30 46.79 44.99 45.01 42.35 40.68 38.94 36.42 38.05 35.97
37.54 33.67 33.96 29.96 33.37 34.95 32.96 35.46 35.93 35.83 36.88 37.21 37.61 37.15 43.28 44.11 44.86 44.45 44.53 43.55 43.44 44.20 44.78 45.18 44.92 44.82 44.41 44.32 44.32 43.54 44.57 44.36 43.60 44.25 43.93 42.26 40.39 37.41 37.09 35.77 34.55 34.24 34.10 34.32
35.36 33.70 31.35 29.34 31.46 32.75 29.68 32.72 35.06 36.01 38.28 38.15 34.29 39.12 43.18 42.02 42.16 42.61 43.40 43.41 42.72 43.80 44.62 44.78 45.43 45.15 45.14 45.03 44.45 43.45 43.69 43.54 41.85 41.82 39.06 37.51 37.37 36.64 35.55 33.97 33.09 32.64 32.58 33.71
34.42 33.33 33.72 26.30 28.94 23.53 34.72 40.67 39.09 37.20 38.51 40.19 40.28 41.25 41.97 43.00 44.30 45.04 44.03 44.00 43.89 43.93 44.00 44.64 45.71 46.20 45.76 45.57 44.44 44.73 43.49 40.67 39.72 39.22 37.06 35.76 35.87 34.97 33.92 33.13 32.71 32.25 32.65 31.82
38.09 35.30 30.09 28.23 28.33 32.79 34.77 33.62 35.07 34.64 35.74 40.13 39.32 41.01 42.24 41.30 40.78 43.16 43.30 43.65 44.23 44.46 43.37 44.06 45.28 45.94 46.08 44.66 44.20 42.09 39.82 39.50 38.93 38.53 37.15 35.69 35.69 34.52 33.40 32.93 32.35 32.19 31.44 31.33
35.48 38.32 33.97 25.85 26.14 23.23 34.94 36.86 38.87 40.07 31.40 42.33 40.99 40.47 40.81 39.28 36.25 41.53 42.00 40.98 41.15 41.93 41.83 41.97 42.79 43.63 44.16 44.16 42.30 39.39 38.11 37.39 37.62 38.16 37.41 36.35 35.79 35.10 33.89 33.99 32.33 32.07 32.36 31.58
30.44 31.83 29.52 29.42 29.20 32.93 35.53 35.66 40.73 30.32 34.08 38.89 39.72 41.72 40.66 38.10 42.30 41.17 39.89 38.99 39.53 39.92 39.50 40.70 41.35 41.59 42.60 41.08 39.20 38.23 37.70 36.54 38.24 37.17 36.27 34.98 34.97 34.87 34.69 33.44 32.16 31.43 31.60 31.27
30.35 29.93 29.51 31.15 28.71 25.95 35.99 35.28 35.49 40.09 38.81 38.77 38.14 37.79 38.78 39.50 38.55 38.14 38.36 37.45 37.18 37.67 37.85 37.60 38.45 38.39 39.00 38.66 37.80 37.25 36.85 37.95 36.13 35.08 33.98 33.65 33.41 33.78 33.64 32.74 31.61 31.65 31.47 30.91
30.14 35.50 32.36 33.35 33.35 36.28 36.45 38.23 36.66 36.60 38.05 38.16 39.40 37.93 38.70 37.70 37.83 37.10 35.95 35.83 35.78 34.97 34.06 33.80 33.79 34.44 35.40 33.87 36.21 35.79 36.46 35.02 33.64 33.01 32.63 32.61 32.70 32.95 32.79 32.37 31.30 31.24 31.34 31.11
32.85 34.89 34.63 34.36 34.57 35.04 35.09 34.63 35.20 35.64 35.81 35.67 36.75 36.61 37.78 35.68 35.16 34.20 34.47 33.92 33.44 32.08 31.44 31.18 32.42 32.31 32.60 32.11 31.88 33.97 33.85 33.48 32.53 32.64 32.33 32.24 31.77 32.03 32.11 32.75 31.86 31.69 30.97 30.68
34.61 34.44 31.91 31.81 31.96 33.05 33.41 35.36 34.88 34.20 34.45 34.02 33.59 33.77 34.74 35.03 33.40 33.64 32.02 31.60 31.20 30.61 29.93 30.06 30.15 30.75 30.94 30.43 31.44 31.76 31.84 32.27 32.65 32.62 31.70 31.98 32.35 31.42 31.52 31.97 31.95 31.93 32.50 32.51
33.58 33.56 33.75 34.14 35.63 35.97 33.87 34.68 35.25 34.47 33.33 33.58 32.91 31.26 31.01 33.52 32.99 32.07 30.35 29.03 28.73 29.00 28.50 29.58 29.28 29.05 29.21 29.07 28.80 29.14 28.45 30.94 31.68 31.31 30.41 31.33 31.74 30.56 30.97 30.81 29.79 31.92 32.05 31.66

GFSCGP_sfc_wetblb_117.txt.gz
Wetbulb
46.08 44.90 42.95 47.03 50.33 50.94 49.27 47.77 46.93 49.00 48.10 47.12 47.48 47.86 50.23 52.97 49.91 50.13 50.44 52.51 55.36 56.94 60.12 61.92 63.29 64.73 64.44 63.89 61.87 61.11 61.60 62.24 62.80 62.99 62.67 62.86 62.52 63.67 63.71 64.73 65.48 66.18 65.67 64.02
42.37 41.17 48.40 50.60 51.22 49.79 49.03 46.85 46.75 49.03 45.83 46.54 48.57 48.09 50.58 52.25 52.89 52.39 51.20 51.01 52.51 55.62 57.56 60.12 62.15 63.62 64.26 64.52 64.42 62.67 61.17 62.13 62.50 63.12 63.24 63.15 63.11 63.85 64.06 64.72 65.33 65.64 65.13 63.75
42.92 46.51 48.55 49.46 48.90 46.87 47.51 46.14 46.19 44.90 46.24 45.07 44.65 44.28 46.78 50.79 52.26 53.16 52.81 51.97 51.54 53.10 55.60 58.01 60.28 62.25 64.22 64.47 65.01 64.81 64.08 62.82 62.89 63.17 63.59 63.62 64.47 64.55 63.99 64.16 65.08 65.03 64.68 64.55
43.41 45.52 46.49 46.35 45.90 48.29 41.15 43.69 45.38 40.76 40.71 39.75 45.10 39.07 48.38 50.98 50.90 51.46 52.39 52.78 52.05 51.50 54.25 57.26 59.00 60.43 62.71 64.08 66.08 66.09 66.17 65.74 64.80 64.56 64.31 63.62 63.11 61.98 63.55 64.75 65.25 64.50 65.11 65.00
39.60 42.15 44.67 42.73 43.77 48.28 41.34 43.33 41.14 39.96 37.69 36.45 40.18 37.27 44.12 48.49 47.09 49.71 52.34 51.83 53.28 51.70 52.29 54.74 57.94 59.64 61.52 63.50 64.65 65.96 66.04 66.17 66.38 65.93 65.53 64.99 64.08 64.55 65.11 65.37 65.44 65.28 65.48 65.12
42.87 48.27 48.19 46.44 45.78 44.02 43.91 41.46 39.17 37.52 35.95 30.34 38.89 38.24 41.16 45.28 45.99 48.07 51.04 52.60 52.89 52.07 51.91 53.05 56.45 59.74 60.43 62.47 63.50 64.21 64.52 64.95 66.03 66.20 65.90 65.15 64.72 64.55 64.54 65.02 64.64 65.11 64.96 64.79
38.84 41.16 43.64 46.86 39.47 40.62 40.25 39.40 32.12 30.30 29.40 31.86 36.58 39.55 41.31 47.30 49.48 48.82 49.64 51.41 53.09 53.68 51.80 51.85 52.16 55.56 58.06 59.50 61.41 62.65 62.91 62.77 64.65 65.67 65.70 65.43 65.12 65.25 64.69 64.90 64.55 64.16 63.47 62.56
34.38 30.79 39.55 45.73 43.74 37.65 38.09 41.01 35.80 29.14 30.25 34.53 32.92 32.72 39.95 45.69 45.11 47.89 49.14 48.72 50.56 51.92 52.39 51.99 51.98 52.03 54.12 56.46 59.00 59.81 60.75 61.23 62.68 64.28 64.95 65.55 65.50 65.13 65.32 65.33 64.79 64.08 63.04 61.54
35.88 34.60 41.57 43.50 44.62 43.48 37.42 35.82 42.23 33.21 28.79 30.06 35.76 39.02 43.55 44.92 44.99 44.34 46.50 46.75 46.73 48.11 49.33 50.20 50.61 51.21 51.56 51.70 52.83 55.72 57.70 58.94 60.90 62.37 63.45 64.42 64.73 64.85 64.38 64.79 65.28 64.30 64.00 61.85
41.85 30.27 39.18 39.93 43.55 43.82 42.33 43.19 33.98 36.13 29.30 27.62 35.15 35.13 36.92 42.17 43.47 45.03 44.66 46.48 47.56 48.35 48.91 48.48 48.72 49.54 50.24 51.30 51.67 52.00 53.00 54.33 56.64 60.18 61.92 62.84 63.58 63.71 63.43 63.41 63.02 62.46 62.59 57.76
44.11 36.57 33.29 37.51 36.88 36.49 36.66 37.16 38.63 39.98 36.88 31.48 30.90 36.72 43.04 41.29 42.39 43.84 45.61 45.81 46.45 46.81 47.21 47.97 48.58 49.22 49.20 49.89 50.08 51.01 51.63 51.97 53.07 55.38 58.69 60.61 61.75 61.95 61.37 60.89 61.42 59.49 56.77 54.15
40.88 36.93 30.13 33.69 37.82 42.34 41.72 38.88 39.24 34.77 31.89 36.24 33.79 35.23 43.12 43.38 43.51 43.66 44.15 45.27 46.43 46.47 47.04 47.46 48.02 48.19 48.12 48.36 48.93 49.05 50.78 51.92 52.69 53.36 53.28 55.96 60.06 59.60 59.45 59.27 57.25 53.61 51.90 50.56
39.78 34.67 29.10 29.57 35.62 38.14 37.34 39.49 40.67 40.51 37.12 34.24 31.54 36.05 45.33 44.51 44.00 44.38 44.18 46.02 46.55 46.63 47.62 47.82 47.76 47.80 47.96 48.01 48.28 48.85 49.91 50.89 52.03 52.39 52.10 52.06 52.55 55.22 57.77 56.27 53.69 50.75 49.25 47.00
41.64 36.32 33.67 29.55 33.22 36.43 32.49 36.60 38.66 38.84 33.11 34.58 35.31 39.15 42.55 43.05 43.68 44.53 44.59 45.41 46.11 46.52 47.18 47.67 47.89 48.01 48.03 48.02 48.21 48.82 49.56 50.64 50.90 50.50 50.64 51.09 51.30 52.10 53.23 54.43 51.30 48.60 47.18 44.07
40.68 33.21 36.11 37.89 38.43 37.46 35.58 35.31 36.96 36.64 38.15 34.83 38.04 38.51 42.25 45.09 45.83 46.34 46.78 46.86 46.48 45.54 46.59 47.67 48.17 49.20 48.95 47.55 47.52 48.01 48.96 49.23 49.24 48.46 49.03 49.81 50.17 50.54 49.01 45.21 44.27 42.17 43.01 41.04
41.26 34.24 36.23 31.92 35.90 37.23 34.80 36.84 37.85 37.61 38.57 38.83 39.23 38.59 44.53 45.69 46.16 45.30 45.82 46.02 45.87 46.44 47.18 47.30 47.81 48.19 47.61 47.55 47.17 47.30 47.13 47.53 47.42 47.22 47.30 48.01 45.84 43.70 41.18 39.64 38.28 37.03 36.29 36.87
37.49 35.74 33.94 31.43 33.89 33.43 30.34 34.25 36.62 38.15 39.81 39.85 36.01 40.70 44.02 43.38 43.83 44.53 45.31 46.01 45.75 45.80 46.15 47.00 47.06 47.44 47.93 48.09 47.80 46.80 47.01 47.39 45.64 44.47 42.55 40.68 39.78 38.46 38.00 36.84 35.53 35.03 35.24 35.07
34.43 34.32 33.90 28.71 32.06 23.45 35.60 41.55 40.71 38.68 39.92 41.37 41.36 42.36 43.79 44.44 45.68 46.79 47.34 46.67 45.89 46.05 46.64 46.79 47.14 47.35 48.81 48.91 48.32 47.57 47.13 45.48 42.86 41.87 40.05 38.10 37.71 37.16 36.13 34.73 34.39 34.69 34.36 34.09
40.77 35.82 32.20 29.47 28.53 33.87 36.36 37.66 38.48 37.33 37.22 42.19 41.21 42.36 43.74 44.97 43.68 43.69 46.29 46.99 46.63 47.53 45.91 45.35 46.12 46.15 46.83 47.24 47.31 45.21 42.69 41.86 40.78 40.60 39.67 37.59 37.04 35.42 34.76 34.24 33.93 33.66 33.09 32.66
37.46 39.80 34.97 31.08 28.26 24.64 35.94 40.08 42.01 41.81 31.41 43.02 42.92 42.51 42.89 43.40 37.01 41.58 46.81 46.08 44.23 43.70 43.38 43.23 44.11 44.72 45.42 45.74 45.07 41.28 40.19 39.88 39.93 39.71 39.22 38.26 36.96 35.30 34.57 34.77 34.23 34.01 33.52 32.40
30.97 33.69 30.60 31.45 30.55 34.76 37.89 39.48 42.18 30.63 34.02 41.09 43.18 43.78 43.48 41.11 43.22 43.61 42.27 41.18 41.44 41.12 40.65 41.12 42.67 41.57 41.57 40.90 39.80 39.22 39.48 38.35 39.16 37.88 37.05 35.37 35.39 34.43 35.40 35.04 33.78 33.19 32.40 31.29
31.03 30.36 30.45 32.23 29.70 26.03 39.62 37.67 35.46 40.54 39.79 40.44 40.77 41.71 40.87 44.17 40.92 41.08 40.75 39.80 39.59 39.16 38.67 37.58 38.89 38.25 37.88 37.99 38.22 37.80 37.84 38.23 36.25 35.42 34.56 33.98 33.65 33.82 33.67 33.68 32.99 32.38 32.03 31.57
31.54 35.66 33.85 34.30 34.26 38.33 39.47 40.00 41.82 40.77 41.61 39.87 41.62 40.71 41.46 40.50 39.65 40.07 38.72 38.39 37.19 36.30 34.83 34.65 34.33 34.67 34.52 33.66 34.72 35.21 35.82 34.56 33.18 32.73 32.14 32.67 32.73 32.81 33.11 33.13 32.10 31.35 31.71 31.31
34.77 39.83 36.80 35.03 37.87 37.70 38.53 37.83 38.46 38.63 40.10 39.42 40.35 39.47 40.53 39.40 38.17 36.20 35.81 34.87 34.48 32.79 32.10 32.20 32.67 32.13 31.43 31.91 32.06 32.33 32.61 32.60 32.48 32.19 32.35 32.24 32.02 32.25 32.28 33.05 32.77 32.48 31.34 31.10
36.88 36.10 34.74 35.09 33.56 35.38 36.54 38.25 38.80 36.90 36.98 36.03 35.93 36.74 38.31 36.66 35.47 34.85 33.02 32.53 32.24 31.67 31.26 31.03 30.61 30.58 29.98 30.81 31.04 31.28 30.95 31.86 32.09 32.02 31.37 32.27 32.45 32.23 32.06 32.19 32.81 32.19 32.88 33.42
36.25 36.23 34.18 34.22 37.26 39.55 38.96 38.24 37.56 35.77 35.37 35.57 34.21 33.25 33.49 35.51 34.05 32.75 30.66 30.71 30.76 29.84 30.03 29.70 28.93 28.77 29.17 29.62 29.34 29.00 29.47 30.06 31.22 31.56 31.31 32.32 32.31 31.76 31.39 31.38 31.38 33.96 33.95 34.13

GFSCGP_sfc_wetblb_120.txt.gz
Wetbulb
48.65 45.38 42.50 45.21 46.50 48.67 46.15 45.35 43.85 46.59 46.72 43.44 42.51 44.04 46.58 49.03 46.41 45.19 45.66 46.75 50.65 54.56 56.91 58.94 60.97 61.96 62.06 58.62 57.25 59.38 60.79 61.73 62.58 61.72 60.68 59.92 60.58 60.52 60.30 60.58 61.72 62.46 62.45 61.95
43.20 41.53 47.28 49.02 48.18 47.71 47.32 44.78 45.56 46.04 46.24 44.66 44.88 44.31 47.47 49.24 49.75 48.43 46.98 46.53 47.35 50.99 53.95 57.26 58.55 60.46 61.49 59.92 58.12 57.87 59.96 60.52 61.10 61.27 61.15 60.19 60.16 60.61 60.64 60.76 61.32 62.38 62.63 61.80
42.83 45.26 49.18 48.46 47.44 46.26 46.64 45.25 45.46 43.95 41.85 41.85 39.95 40.48 43.25 47.79 50.24 51.12 51.40 49.55 48.69 48.39 51.49 53.91 57.17 59.22 61.05 60.98 60.15 58.39 58.76 59.89 60.37 60.84 60.93 60.26 59.93 59.87 59.87 60.13 60.84 62.35 62.69 61.91
44.01 48.06 47.53 46.87 46.46 47.46 42.99 45.19 44.84 41.11 40.03 37.28 41.74 34.88 42.97 46.69 47.12 49.23 50.92 50.18 48.93 47.49 49.12 52.80 56.91 58.10 60.51 61.85 62.30 61.87 59.78 59.23 60.00 60.34 59.71 59.18 58.84 58.65 60.70 60.95 61.67 62.49 63.08 62.69
40.63 42.65 45.91 45.41 46.61 48.55 42.23 43.37 39.72 38.69 36.37 36.25 35.18 32.21 38.07 42.44 44.90 47.10 49.35 50.43 50.44 49.28 47.94 49.92 54.77 57.96 60.20 61.54 62.21 62.79 62.80 61.14 60.23 60.10 60.13 59.70 59.55 61.00 61.76 61.84 61.74 62.63 62.64 62.70
41.64 47.75 48.07 46.75 43.95 44.02 42.31 39.68 38.69 36.23 36.51 31.11 36.53 34.23 35.07 40.32 42.81 44.49 48.25 50.57 51.41 50.66 48.66 48.66 52.24 56.84 58.34 60.05 61.52 62.47 62.65 62.91 62.95 61.13 60.40 60.96 60.80 61.29 61.15 61.28 61.54 62.41 62.69 62.83
39.83 43.53 42.96 45.24 39.96 42.09 40.49 39.17 31.16 30.42 29.36 30.10 33.86 34.00 38.65 43.46 45.40 43.61 45.01 45.93 48.05 50.40 48.57 47.27 48.31 51.58 55.19 57.18 59.75 61.23 62.08 62.10 63.15 63.19 62.47 61.96 62.44 62.40 61.88 61.80 61.92 62.17 62.09 62.07
32.64 30.80 40.40 44.69 41.48 37.50 38.14 39.04 31.27 25.62 25.94 28.11 28.33 29.23 35.85 43.00 43.36 42.16 43.18 45.53 42.72 43.58 48.20 47.02 47.28 48.87 52.92 55.18 57.79 59.24 59.38 60.84 62.10 62.83 63.12 63.58 63.29 63.16 63.01 62.73 62.98 62.70 62.64 62.07
34.93 33.27 40.67 44.53 43.53 42.46 37.59 36.90 37.90 28.64 22.43 25.07 29.60 33.83 39.66 42.03 41.49 41.49 41.04 41.31 39.98 41.20 43.78 44.51 45.53 46.63 47.79 51.03 53.82 56.91 58.32 58.54 59.41 60.87 62.50 62.96 63.38 63.21 63.02 63.00 63.12 63.04 62.92 62.29
39.34 30.64 38.09 41.98 43.34 41.43 40.49 41.57 33.82 32.63 21.91 20.68 28.28 28.87 32.35 36.04 38.66 41.17 40.16 41.68 42.65 43.12 43.28 43.62 43.93 45.04 45.62 46.45 47.56 49.68 53.60 55.37 57.54 57.82 59.98 61.69 62.63 62.91 63.15 62.91 62.29 62.44 62.41 60.95
41.14 35.02 32.71 38.02 37.43 35.81 35.65 35.61 36.73 37.11 33.65 25.91 24.52 30.15 36.85 39.06 38.89 38.66 40.66 41.31 40.97 40.81 41.41 42.40 42.79 43.48 43.87 43.97 44.17 45.20 46.27 47.56 49.56 53.53 55.46 57.63 59.82 61.22 61.48 61.94 61.02 59.46 58.56 57.07
39.95 35.07 28.88 32.34 36.58 40.38 38.98 37.94 38.12 33.01 29.62 31.53 29.46 29.30 38.66 39.13 39.44 39.51 39.87 40.71 40.54 41.62 41.90 41.92 42.56 42.76 42.71 43.00 43.35 43.72 44.46 45.86 46.71 48.13 49.61 52.22 55.37 56.52 56.90 57.19 57.08 56.98 54.81 52.98
38.75 32.53 27.22 29.80 33.83 34.91 35.88 38.43 40.02 37.83 32.88 28.46 26.51 30.27 39.61 40.36 39.18 39.56 39.67 40.07 41.33 41.33 41.40 42.80 42.82 42.75 42.63 42.92 43.35 43.66 44.38 45.39 47.39 48.39 48.11 48.39 49.42 52.60 54.45 54.69 53.43 53.08 51.37 50.01
41.12 34.83 30.70 27.71 31.02 33.72 31.83 36.01 37.99 37.42 28.36 29.21 30.76 33.95 38.10 38.59 39.01 39.06 39.25 39.75 40.66 40.95 42.45 42.50 42.24 42.63 42.95 43.44 43.11 43.42 44.36 45.90 47.01 47.56 47.58 47.26 47.32 48.24 50.35 53.53 52.31 50.32 48.79 47.35
38.70 29.44 33.58 35.03 36.01 35.70 35.03 35.86 36.65 35.94 36.81 32.81 36.01 35.64 39.07 39.22 39.83 40.22 40.93 40.28 40.96 41.50 40.80 41.47 42.16 42.70 43.24 42.69 42.79 43.52 44.06 45.48 45.86 45.42 45.26 45.56 45.98 46.62 46.33 45.25 44.08 42.66 43.69 43.43
38.19 28.22 33.08 28.25 34.22 35.04 32.68 35.81 36.74 36.69 37.50 37.23 36.94 35.84 39.92 42.39 41.41 38.89 39.73 40.14 40.52 41.48 41.83 42.25 41.72 42.40 43.10 43.50 42.74 43.31 43.26 43.90 44.46 44.17 43.63 44.04 43.51 41.33 39.62 38.80 38.37 37.86 37.03 37.52
35.90 32.83 29.48 25.31 29.89 30.10 24.17 32.32 35.08 36.26 37.91 38.01 33.57 38.45 39.73 39.26 39.75 39.68 39.96 40.95 41.37 41.18 42.01 41.98 42.45 42.32 42.76 42.90 43.76 42.34 42.68 42.91 42.30 40.64 38.81 38.81 37.83 37.24 36.72 35.74 35.15 35.14 35.52 35.02
33.98 32.48 32.16 25.23 28.59 19.92 30.09 38.52 38.23 36.68 38.15 39.38 39.87 40.26 40.41 40.75 41.54 41.66 41.93 41.73 41.60 42.74 42.45 42.14 41.71 41.92 42.45 43.55 43.20 43.34 42.33 40.83 38.37 36.86 36.81 35.92 35.81 35.34 34.14 33.67 34.92 34.85 34.62 34.28
37.91 33.58 28.41 25.46 21.62 26.95 31.91 34.65 35.45 33.83 34.11 40.03 39.29 40.70 41.31 40.42 38.76 39.32 42.07 42.63 42.72 40.62 40.99 40.90 41.13 41.51 41.50 41.72 42.12 40.78 37.74 36.73 35.72 35.58 35.67 34.85 34.31 32.07 32.70 32.17 33.92 33.75 32.97 32.66
36.68 37.29 31.80 29.24 18.96 17.87 30.32 36.43 38.71 38.56 29.64 39.36 40.17 40.16 39.78 38.77 34.77 39.57 41.39 40.85 39.99 40.03 39.69 39.44 39.70 40.47 39.88 38.54 38.62 36.20 35.47 35.11 34.69 34.53 34.85 34.69 33.82 30.88 30.87 31.34 30.90 30.24 32.70 32.36
29.05 31.19 28.29 22.90 18.47 25.67 33.85 33.95 38.63 26.21 29.28 34.58 39.61 40.84 38.89 37.24 40.40 37.94 38.12 37.58 37.98 37.87 37.31 38.19 38.32 37.24 36.54 34.40 34.85 34.68 34.55 34.28 34.48 34.04 33.14 31.15 30.85 29.47 29.98 29.32 28.70 28.74 29.48 31.33
28.35 27.28 27.09 22.46 17.38 21.82 35.18 33.38 33.36 36.02 33.21 34.44 36.17 36.97 37.70 38.45 37.44 36.87 36.72 36.33 36.32 35.34 34.74 34.81 34.30 31.65 31.66 31.97 33.46 33.23 32.36 32.57 29.48 29.35 29.42 28.66 27.49 29.26 30.43 27.50 27.97 31.26 31.96 31.59
25.71 31.95 29.45 31.41 29.72 34.27 34.82 34.75 35.38 37.76 36.23 35.36 35.89 35.73 37.20 36.50 35.52 35.43 34.66 34.18 33.17 32.47 30.74 31.03 29.90 29.55 29.57 28.73 30.00 29.85 29.21 28.48 27.93 28.33 25.05 28.92 28.74 30.30 31.02 26.65 30.62 31.08 31.62 31.23
29.86 35.76 29.67 29.92 32.33 32.70 34.74 33.63 34.41 34.91 35.70 36.34 36.27 35.31 36.51 35.74 34.61 32.75 32.16 31.51 30.61 28.30 27.13 26.41 25.97 26.31 26.41 26.73 27.65 26.49 27.32 26.51 31.45 31.70 29.19 27.53 27.20 26.09 25.78 29.01 29.59 31.59 31.16 30.85
30.77 33.77 29.09 27.64 28.90 32.31 31.66 34.32 35.39 34.07 33.74 32.60 32.23 32.36 35.60 33.43 31.82 31.38 29.98 28.91 28.93 27.06 25.70 24.39 25.42 25.37 24.93 24.39 24.40 23.16 25.13 25.58 26.85 26.85 27.23 28.73 28.87 26.45 26.38 27.38 27.58 27.64 27.70 31.07
32.28 31.14 31.49 29.24 33.62 34.99 34.48 34.47 34.18 32.70 32.25 31.46 31.52 31.12 31.72 31.79 31.00 29.98 27.83 27.47 26.29 25.38 23.92 24.22 22.90 22.37 21.17 21.44 20.69 21.45 23.06 23.52 23.46 25.74 24.53 24.84 24.88 24.30 25.00 24.92 25.96 32.93 33.76 34.38

GFSCGP_sfc_wetblb_123.txt.gz
Wetbulb
47.81 45.12 42.69 45.11 45.31 47.13 43.72 42.84 42.57 43.19 44.99 40.61 40.05 39.48 42.76 44.65 42.30 42.51 44.08 44.51 49.31 54.92 58.73 60.18 60.94 60.24 59.95 57.66 58.97 60.13 60.65 61.35 62.38 61.84 59.91 59.82 59.87 59.36 58.39 58.90 60.69 61.45 60.68 60.35
44.53 41.99 45.98 47.75 47.04 46.37 44.35 43.79 41.72 43.32 43.82 41.90 40.52 40.38 42.93 44.96 44.21 43.17 43.91 44.15 44.76 51.72 53.22 58.06 59.46 59.80 60.32 58.73 57.43 59.27 60.30 61.19 61.91 61.94 61.55 60.77 60.29 59.70 60.41 60.47 60.50 61.45 61.09 61.09
40.82 43.22 48.48 46.94 45.21 44.21 46.40 44.00 43.22 41.06 42.01 41.94 39.39 39.41 41.48 45.34 47.80 48.16 46.50 46.15 46.45 46.50 52.86 54.75 57.68 59.27 60.66 58.38 56.33 57.80 59.61 60.60 61.82 61.90 61.37 58.98 58.48 58.75 58.87 59.33 59.97 60.92 61.90 61.57
43.66 46.98 46.29 45.73 44.42 45.87 42.42 48.19 47.51 41.27 41.17 36.49 41.33 34.08 38.98 44.56 45.64 47.76 49.79 47.71 47.28 46.21 49.20 54.86 57.15 58.44 59.91 60.29 58.48 57.14 59.30 60.09 60.86 61.13 60.11 59.53 58.70 58.28 60.05 60.36 60.60 60.49 61.78 61.86
40.34 44.02 43.79 44.39 44.75 47.91 44.93 44.54 41.97 41.27 35.78 35.21 33.66 32.45 35.79 40.40 42.42 46.15 48.61 49.37 47.51 46.18 46.29 49.85 56.00 58.13 59.76 60.95 59.47 58.13 57.40 59.06 60.00 59.96 60.28 59.53 59.03 59.49 59.90 60.27 59.52 60.16 61.58 62.20
42.00 47.24 46.85 46.10 45.49 47.09 42.08 41.18 40.46 38.52 37.57 32.67 34.41 34.79 34.00 38.19 41.62 43.44 46.20 48.63 49.35 47.17 46.39 46.17 52.42 57.21 58.25 60.04 60.67 60.06 58.56 57.26 58.51 59.13 59.57 59.16 58.69 58.46 58.56 59.57 59.59 60.20 61.25 61.91
41.29 43.25 44.59 47.11 40.11 42.16 41.70 40.92 31.96 31.02 31.40 30.91 33.52 32.15 38.28 41.40 43.20 43.68 44.15 44.83 46.95 48.08 47.35 47.23 46.28 51.93 55.56 57.54 59.77 60.47 60.43 59.30 58.02 58.05 58.57 58.79 58.61 58.73 59.32 59.81 60.33 60.35 60.98 61.55
35.39 35.29 42.47 44.84 41.75 38.32 39.92 41.27 33.80 26.58 26.64 27.78 29.00 29.87 35.47 42.91 45.79 43.95 43.48 42.60 43.42 42.58 45.82 46.47 47.55 48.37 54.43 56.20 59.12 60.20 60.23 60.83 61.32 59.86 58.41 58.75 59.18 59.77 60.30 60.89 61.05 61.13 61.65 62.03
35.33 34.02 40.84 44.70 43.12 43.16 38.03 37.05 39.00 28.32 19.53 25.03 28.42 32.56 38.38 41.21 41.23 40.14 39.65 39.80 41.13 41.13 42.11 45.21 44.47 44.96 49.22 52.17 54.80 58.26 59.56 60.45 60.54 61.35 61.72 60.33 59.53 59.97 60.96 61.49 61.70 61.78 61.93 62.23
37.71 31.32 39.46 41.62 43.00 42.63 41.95 41.64 34.29 32.47 21.13 20.30 26.24 27.13 31.86 35.58 38.73 40.52 39.58 39.66 40.50 40.89 41.07 41.85 43.32 43.91 44.14 48.55 52.68 54.08 56.03 57.12 58.45 57.95 60.06 61.73 61.63 61.65 61.81 61.66 61.22 61.55 61.38 60.99
37.44 34.19 33.08 39.48 38.26 36.42 37.02 37.46 36.64 35.08 30.65 24.22 23.04 27.81 36.18 38.78 38.84 39.57 39.92 40.14 40.94 40.20 39.85 40.61 41.40 41.71 42.14 42.55 43.52 46.09 48.66 52.12 53.26 55.10 55.58 56.64 58.34 59.31 59.80 61.49 61.08 60.65 59.19 59.53
37.69 33.24 30.71 34.53 36.27 41.00 39.60 40.17 38.04 34.29 29.05 29.52 28.54 29.05 38.43 38.50 38.49 39.26 38.95 39.11 38.80 39.12 39.65 39.88 40.75 40.64 41.12 41.47 41.52 41.86 42.78 44.00 45.97 47.93 51.18 52.98 54.09 55.37 56.57 58.95 59.55 57.48 58.71 56.22
37.60 31.62 28.01 29.52 33.24 36.12 36.72 38.26 39.09 36.03 32.90 28.50 26.46 28.87 37.62 36.06 36.77 37.15 38.43 38.89 39.86 40.30 40.42 40.95 40.90 40.88 40.90 41.20 41.80 42.08 42.39 42.78 44.27 45.48 45.81 46.65 48.60 51.97 53.40 54.31 55.35 56.09 55.37 53.15
39.87 33.77 31.43 29.73 34.23 34.72 33.21 35.61 37.20 34.94 27.68 28.26 31.65 32.13 33.96 36.77 37.15 36.90 37.82 38.96 39.18 39.88 40.69 40.28 39.97 40.57 41.01 41.59 41.56 41.69 42.20 43.02 44.22 45.56 45.72 45.40 45.66 46.80 49.37 51.61 51.83 52.53 52.11 51.03
37.86 28.91 32.51 33.99 34.90 35.74 36.13 35.62 36.52 35.44 36.25 33.14 36.07 35.09 37.42 37.60 37.54 37.75 38.63 38.15 38.89 39.39 39.46 40.09 40.45 40.47 41.04 41.10 41.06 41.63 42.05 43.38 44.08 44.40 44.13 44.38 44.14 44.80 44.82 45.76 47.09 46.17 46.54 47.58
37.81 28.94 31.02 26.11 34.10 35.20 34.35 36.95 37.93 38.08 38.49 37.18 35.11 34.67 41.29 41.49 38.73 37.93 38.64 39.38 40.14 40.53 41.29 41.52 41.12 40.83 41.48 41.78 41.31 41.55 41.50 42.25 42.82 42.87 42.23 41.71 41.53 40.87 40.31 39.64 39.55 39.57 40.56 41.15
34.66 30.38 27.98 21.99 29.73 30.84 25.20 34.15 36.52 37.92 39.55 38.86 33.74 39.37 39.49 39.39 39.84 38.42 38.78 39.81 40.17 40.00 40.83 40.71 40.65 40.87 40.22 40.93 41.96 41.05 41.22 41.31 41.07 39.43 37.84 37.48 37.20 37.28 36.25 35.37 35.54 35.93 35.93 35.04
32.65 31.44 29.33 24.74 28.90 19.94 30.42 38.05 40.16 38.48 39.46 40.93 41.05 38.88 39.11 39.67 40.62 39.95 39.80 39.72 40.12 40.16 40.52 40.20 39.89 39.89 40.42 41.09 41.26 41.69 40.60 39.26 37.07 35.94 35.88 35.63 35.67 35.23 34.95 34.51 34.24 33.79 34.24 36.00
37.99 32.83 28.51 25.91 18.26 25.18 29.75 32.61 36.22 35.40 35.69 40.78 40.28 40.81 38.77 38.78 36.75 37.11 40.57 41.14 41.05 40.00 40.55 39.58 39.47 39.81 39.88 39.84 39.89 38.14 35.68 35.25 35.47 35.30 34.98 34.65 34.16 30.91 32.35 30.62 31.57 35.21 34.28 33.38
37.63 36.58 31.14 26.75 22.88 20.68 28.84 34.77 39.04 37.91 30.01 39.80 40.62 40.17 38.41 37.68 34.35 39.74 41.36 39.77 38.28 38.49 38.67 38.25 38.49 38.25 37.67 36.04 36.39 34.90 34.29 34.12 34.07 34.18 34.27 33.90 33.52 29.10 29.13 30.31 28.53 28.62 32.69 32.76
30.55 31.20 28.89 28.58 23.73 27.61 30.91 33.05 39.60 25.23 30.36 36.13 39.26 40.79 40.32 37.88 41.34 37.76 37.21 36.62 36.54 36.19 36.65 36.57 35.85 34.43 33.72 32.66 33.61 33.22 32.70 32.59 32.71 32.28 31.62 29.80 30.17 27.86 28.07 27.66 27.76 27.09 31.43 31.85
30.18 28.74 27.88 25.47 21.62 24.18 34.13 35.15 33.11 35.58 32.44 33.93 34.56 36.16 38.12 38.05 35.73 35.65 35.41 34.90 34.55 33.76 34.03 33.59 31.52 29.97 30.28 31.35 32.66 31.31 30.84 30.49 28.99 27.58 27.83 27.09 27.44 29.76 29.84 23.48 25.08 31.39 32.01 31.89
28.56 32.96 29.58 31.83 30.76 33.91 33.02 35.39 35.96 35.87 35.20 34.27 35.13 34.42 36.25 34.97 34.14 34.00 33.42 32.77 32.05 31.49 30.60 30.57 29.30 28.60 28.01 27.11 29.02 29.26 27.37 27.95 26.02 27.10 27.62 29.70 29.70 30.21 30.52 23.98 26.29 30.99 31.49 31.02
30.24 34.28 29.84 31.09 32.59 32.73 34.46 32.91 34.64 35.34 34.96 35.14 34.58 34.63 35.66 34.96 33.68 32.20 31.19 30.32 29.56 27.95 27.56 25.34 25.97 24.58 23.91 23.55 25.27 24.04 24.27 27.60 30.36 25.60 26.71 22.73 22.84 25.45 27.34 25.27 25.84 25.73 29.36 30.11
30.64 32.92 27.52 26.93 29.88 31.36 32.26 34.22 36.24 34.67 33.85 33.35 33.06 33.03 34.53 33.43 31.46 31.85 29.82 28.43 28.02 26.56 25.07 24.51 25.20 24.26 22.58 21.44 21.08 20.13 22.50 21.21 24.46 22.08 23.04 27.49 25.95 21.34 22.31 23.55 23.87 25.52 24.69 26.69
30.63 30.89 31.81 28.31 32.42 34.86 34.85 35.02 33.35 33.04 32.88 32.19 32.28 31.76 31.11 31.65 30.78 29.91 28.06 27.37 26.88 25.09 23.94 23.52 21.68 21.30 17.98 16.32 15.86 15.20 15.77 16.68 19.77 24.45 22.39 21.62 21.33 20.13 21.42 20.94 22.83 30.77 33.20 34.53